<?xml version='1.0' encoding='UTF-8'?><gpx version="1.1" creator="JPX - https://github.com/jenetics/jpx" xmlns="http://www.topografix.com/GPX/1/1"><trk><trkseg><trkpt lat="42.53471326344436" lon="11.94769318745154"><ele>306.0</ele><time>2026-04-11T12:45:40.999Z</time></trkpt><trkpt lat="42.53471549509981" lon="11.947564005364566"><ele>306.0</ele><time>2026-04-11T12:45:43.145Z</time></trkpt><trkpt lat="42.53471090052357" lon="11.947443057715123"><ele>306.0</ele><time>2026-04-11T12:45:45.145Z</time></trkpt><trkpt lat="42.53470595392157" lon="11.947323439940748"><ele>306.0</ele><time>2026-04-11T12:45:46.999Z</time></trkpt><trkpt lat="42.53470106628257" lon="11.947186470691847"><ele>306.0</ele><time>2026-04-11T12:45:48.999Z</time></trkpt><trkpt lat="42.5346964871529" lon="11.947068118812702"><ele>306.0</ele><time>2026-04-11T12:45:51.999Z</time></trkpt><trkpt lat="42.534688635595714" lon="11.946969736004991"><ele>306.0</ele><time>2026-04-11T12:45:54.999Z</time></trkpt><trkpt lat="42.53467930968344" lon="11.946835931774803"><ele>306.0</ele><time>2026-04-11T12:45:55.999Z</time></trkpt><trkpt lat="42.53469233304451" lon="11.946742841665262"><ele>306.0</ele><time>2026-04-11T12:45:56.999Z</time></trkpt><trkpt lat="42.5346956151606" lon="11.946598463485442"><ele>306.0</ele><time>2026-04-11T12:45:58.999Z</time></trkpt><trkpt lat="42.53469847292334" lon="11.94648244379208"><ele>306.0</ele><time>2026-04-11T12:46:00.999Z</time></trkpt><trkpt lat="42.534696046194014" lon="11.946360269165854"><ele>306.0</ele><time>2026-04-11T12:46:02.999Z</time></trkpt><trkpt lat="42.53469272998115" lon="11.946234170735828"><ele>306.0</ele><time>2026-04-11T12:46:04.999Z</time></trkpt><trkpt lat="42.53468629662253" lon="11.94613403565814"><ele>306.0</ele><time>2026-04-11T12:46:06.999Z</time></trkpt><trkpt lat="42.53468437725793" lon="11.94601206389925"><ele>306.0</ele><time>2026-04-11T12:46:08.999Z</time></trkpt><trkpt lat="42.534683121172435" lon="11.945894331578204"><ele>306.0</ele><time>2026-04-11T12:46:10.999Z</time></trkpt><trkpt lat="42.534670815547436" lon="11.945776843379912"><ele>306.0</ele><time>2026-04-11T12:46:12.999Z</time></trkpt><trkpt lat="42.5346721801922" lon="11.945662153818391"><ele>306.0</ele><time>2026-04-11T12:46:14.999Z</time></trkpt><trkpt lat="42.53467275432101" lon="11.945551825353547"><ele>306.0</ele><time>2026-04-11T12:46:16.999Z</time></trkpt><trkpt lat="42.53467419533814" lon="11.945435731360691"><ele>306.0</ele><time>2026-04-11T12:46:18.999Z</time></trkpt><trkpt lat="42.53466801300893" lon="11.945322243785649"><ele>306.0</ele><time>2026-04-11T12:46:20.999Z</time></trkpt><trkpt lat="42.534671027455346" lon="11.945206156985153"><ele>306.0</ele><time>2026-04-11T12:46:22.999Z</time></trkpt><trkpt lat="42.53467102824185" lon="11.945092982763546"><ele>306.0</ele><time>2026-04-11T12:46:24.999Z</time></trkpt><trkpt lat="42.534667263723904" lon="11.944970204094535"><ele>306.0</ele><time>2026-04-11T12:46:26.999Z</time></trkpt><trkpt lat="42.53466311752542" lon="11.94485157074338"><ele>306.0</ele><time>2026-04-11T12:46:28.999Z</time></trkpt><trkpt lat="42.53466112768659" lon="11.94473204288031"><ele>306.0</ele><time>2026-04-11T12:46:30.999Z</time></trkpt><trkpt lat="42.53466415447892" lon="11.944622402641116"><ele>306.0</ele><time>2026-04-11T12:46:32.999Z</time></trkpt><trkpt lat="42.534661673485466" lon="11.944514582840577"><ele>306.0</ele><time>2026-04-11T12:46:34.999Z</time></trkpt><trkpt lat="42.534660757939534" lon="11.944409459000932"><ele>306.0</ele><time>2026-04-11T12:46:36.999Z</time></trkpt><trkpt lat="42.534663766722545" lon="11.944307905801121"><ele>305.8333333333333</ele><time>2026-04-11T12:46:38.999Z</time></trkpt><trkpt lat="42.53465210655798" lon="11.944184811203915"><ele>305.6666666666667</ele><time>2026-04-11T12:46:40.999Z</time></trkpt><trkpt lat="42.53466538664343" lon="11.944070349505816"><ele>305.5</ele><time>2026-04-11T12:46:42.999Z</time></trkpt><trkpt lat="42.534657611446185" lon="11.943944105168"><ele>305.33333333333337</ele><time>2026-04-11T12:46:44.999Z</time></trkpt><trkpt lat="42.534673701379425" lon="11.943832858082557"><ele>305.1666666666667</ele><time>2026-04-11T12:46:46.999Z</time></trkpt><trkpt lat="42.5346626073167" lon="11.943710371803599"><ele>305.0</ele><time>2026-04-11T12:46:48.999Z</time></trkpt><trkpt lat="42.53467057870587" lon="11.943600199467552"><ele>305.0</ele><time>2026-04-11T12:46:50.999Z</time></trkpt><trkpt lat="42.5346573952748" lon="11.943472514866764"><ele>305.0</ele><time>2026-04-11T12:46:52.999Z</time></trkpt><trkpt lat="42.53466049617774" lon="11.94336404583179"><ele>305.0</ele><time>2026-04-11T12:46:54.999Z</time></trkpt><trkpt lat="42.534663808992995" lon="11.94324906514816"><ele>305.0</ele><time>2026-04-11T12:46:56.999Z</time></trkpt><trkpt lat="42.53466374693243" lon="11.943117752487394"><ele>305.0</ele><time>2026-04-11T12:46:58.999Z</time></trkpt><trkpt lat="42.534661632314744" lon="11.942990575112965"><ele>305.2</ele><time>2026-04-11T12:47:00.999Z</time></trkpt><trkpt lat="42.53466631443554" lon="11.942864459222449"><ele>305.4</ele><time>2026-04-11T12:47:02.999Z</time></trkpt><trkpt lat="42.53466614078542" lon="11.942745568529178"><ele>305.6</ele><time>2026-04-11T12:47:04.999Z</time></trkpt><trkpt lat="42.53467005274995" lon="11.942613475851253"><ele>305.8</ele><time>2026-04-11T12:47:06.999Z</time></trkpt><trkpt lat="42.53467004948311" lon="11.942495305392416"><ele>306.0</ele><time>2026-04-11T12:47:08.999Z</time></trkpt><trkpt lat="42.534676357382594" lon="11.94237324310641"><ele>306.0</ele><time>2026-04-11T12:47:10.999Z</time></trkpt><trkpt lat="42.534679075167396" lon="11.942257504187872"><ele>306.0</ele><time>2026-04-11T12:47:12.999Z</time></trkpt><trkpt lat="42.53467784919077" lon="11.942135927016228"><ele>306.0</ele><time>2026-04-11T12:47:14.999Z</time></trkpt><trkpt lat="42.5346793325644" lon="11.94200599206913"><ele>306.0</ele><time>2026-04-11T12:47:16.999Z</time></trkpt><trkpt lat="42.53468638610097" lon="11.941872136161217"><ele>306.0</ele><time>2026-04-11T12:47:18.999Z</time></trkpt><trkpt lat="42.5346968521123" lon="11.941766239758818"><ele>306.0</ele><time>2026-04-11T12:47:20.999Z</time></trkpt><trkpt lat="42.53468944076189" lon="11.941645242240646"><ele>306.1666666666667</ele><time>2026-04-11T12:47:22.999Z</time></trkpt><trkpt lat="42.534694163113684" lon="11.941534972928302"><ele>306.3333333333333</ele><time>2026-04-11T12:47:24.999Z</time></trkpt><trkpt lat="42.53469555400362" lon="11.941424219905274"><ele>306.5</ele><time>2026-04-11T12:47:26.999Z</time></trkpt><trkpt lat="42.53469370648239" lon="11.941315265181414"><ele>306.66666666666663</ele><time>2026-04-11T12:47:28.999Z</time></trkpt><trkpt lat="42.53470241163635" lon="11.941213756010146"><ele>306.8333333333333</ele><time>2026-04-11T12:47:30.999Z</time></trkpt><trkpt lat="42.53470478579267" lon="11.941104778696788"><ele>307.0</ele><time>2026-04-11T12:47:32.999Z</time></trkpt><trkpt lat="42.534719716222725" lon="11.940994036115512"><ele>307.0</ele><time>2026-04-11T12:47:34.999Z</time></trkpt><trkpt lat="42.534718597853875" lon="11.940901536255625"><ele>307.0</ele><time>2026-04-11T12:47:36.998Z</time></trkpt><trkpt lat="42.53470486102953" lon="11.940799503585914"><ele>307.0</ele><time>2026-04-11T12:47:38.998Z</time></trkpt><trkpt lat="42.53471412749174" lon="11.940699690402537"><ele>307.0</ele><time>2026-04-11T12:47:40.998Z</time></trkpt><trkpt lat="42.534713860443716" lon="11.940584263418751"><ele>307.0</ele><time>2026-04-11T12:47:43.998Z</time></trkpt><trkpt lat="42.5347166481506" lon="11.9404606081719"><ele>307.0</ele><time>2026-04-11T12:47:46.998Z</time></trkpt><trkpt lat="42.53471899004835" lon="11.940370745374176"><ele>307.16666666666663</ele><time>2026-04-11T12:47:48.998Z</time></trkpt><trkpt lat="42.53473724132324" lon="11.940270532232029"><ele>307.3333333333333</ele><time>2026-04-11T12:47:50.998Z</time></trkpt><trkpt lat="42.534739254771594" lon="11.940171880892095"><ele>307.5</ele><time>2026-04-11T12:47:52.998Z</time></trkpt><trkpt lat="42.53473039609848" lon="11.940057248412941"><ele>307.6666666666667</ele><time>2026-04-11T12:47:54.998Z</time></trkpt><trkpt lat="42.534733230124246" lon="11.939954679804096"><ele>307.83333333333337</ele><time>2026-04-11T12:47:56.998Z</time></trkpt><trkpt lat="42.534734754469554" lon="11.93984398067431"><ele>308.0</ele><time>2026-04-11T12:47:58.998Z</time></trkpt><trkpt lat="42.53474266084376" lon="11.939740820785646"><ele>308.0</ele><time>2026-04-11T12:48:00.998Z</time></trkpt><trkpt lat="42.5347492420974" lon="11.939645119191072"><ele>308.0</ele><time>2026-04-11T12:48:02.998Z</time></trkpt><trkpt lat="42.53476172943601" lon="11.939556288198444"><ele>308.0</ele><time>2026-04-11T12:48:04.998Z</time></trkpt><trkpt lat="42.534773712412985" lon="11.93945544517611"><ele>308.0</ele><time>2026-04-11T12:48:06.998Z</time></trkpt><trkpt lat="42.53477132374995" lon="11.939359237085968"><ele>308.0</ele><time>2026-04-11T12:48:08.998Z</time></trkpt><trkpt lat="42.534771009098094" lon="11.93925278069223"><ele>308.0</ele><time>2026-04-11T12:48:10.998Z</time></trkpt><trkpt lat="42.53477709885747" lon="11.939156360318162"><ele>308.0</ele><time>2026-04-11T12:48:12.998Z</time></trkpt><trkpt lat="42.534791461844065" lon="11.93906133893988"><ele>308.0</ele><time>2026-04-11T12:48:14.998Z</time></trkpt><trkpt lat="42.53479108454225" lon="11.938955016049066"><ele>308.0</ele><time>2026-04-11T12:48:16.998Z</time></trkpt><trkpt lat="42.53479613775255" lon="11.938841877998035"><ele>308.0</ele><time>2026-04-11T12:48:18.998Z</time></trkpt><trkpt lat="42.53480568227383" lon="11.938740086837905"><ele>308.0</ele><time>2026-04-11T12:48:20.998Z</time></trkpt><trkpt lat="42.534808869692554" lon="11.938627695256361"><ele>308.0</ele><time>2026-04-11T12:48:22.998Z</time></trkpt><trkpt lat="42.53480959910131" lon="11.938517249588376"><ele>308.0</ele><time>2026-04-11T12:48:24.998Z</time></trkpt><trkpt lat="42.53481210805371" lon="11.938410588127782"><ele>308.57142857142856</ele><time>2026-04-11T12:48:26.998Z</time></trkpt><trkpt lat="42.534812346056505" lon="11.938321939068784"><ele>309.1428571428571</ele><time>2026-04-11T12:48:28.998Z</time></trkpt><trkpt lat="42.534801565529605" lon="11.938206501178856"><ele>309.7142857142857</ele><time>2026-04-11T12:48:31.998Z</time></trkpt><trkpt lat="42.534789979277186" lon="11.93811466774676"><ele>310.2857142857143</ele><time>2026-04-11T12:48:34.998Z</time></trkpt><trkpt lat="42.534786643129024" lon="11.938025868487316"><ele>310.85714285714283</ele><time>2026-04-11T12:48:37.998Z</time></trkpt><trkpt lat="42.5347835172556" lon="11.937926436653568"><ele>311.42857142857144</ele><time>2026-04-11T12:48:41.998Z</time></trkpt><trkpt lat="42.53477353554285" lon="11.93783420973891"><ele>312.0</ele><time>2026-04-11T12:48:45.998Z</time></trkpt><trkpt lat="42.5347509048733" lon="11.937740123190256"><ele>312.0</ele><time>2026-04-11T12:48:49.998Z</time></trkpt><trkpt lat="42.53473376356952" lon="11.937630063334641"><ele>312.0</ele><time>2026-04-11T12:48:54.998Z</time></trkpt><trkpt lat="42.53473899779651" lon="11.937542817709819"><ele>312.0</ele><time>2026-04-11T12:48:58.998Z</time></trkpt><trkpt lat="42.534735729118545" lon="11.937439079529547"><ele>312.0</ele><time>2026-04-11T12:49:03.998Z</time></trkpt><trkpt lat="42.53472811341656" lon="11.937349444133428"><ele>312.0</ele><time>2026-04-11T12:49:07.998Z</time></trkpt><trkpt lat="42.534694997501454" lon="11.937248715892546"><ele>312.0</ele><time>2026-04-11T12:49:12.998Z</time></trkpt><trkpt lat="42.53467945666896" lon="11.937153371020257"><ele>312.0</ele><time>2026-04-11T12:49:16.998Z</time></trkpt><trkpt lat="42.53465981275084" lon="11.937055826424388"><ele>312.5</ele><time>2026-04-11T12:49:20.998Z</time></trkpt><trkpt lat="42.53463517166213" lon="11.93696672106883"><ele>313.0</ele><time>2026-04-11T12:49:24.998Z</time></trkpt><trkpt lat="42.53461462922768" lon="11.936877239298475"><ele>313.5</ele><time>2026-04-11T12:49:28.998Z</time></trkpt><trkpt lat="42.53461505836004" lon="11.93676736194302"><ele>314.0</ele><time>2026-04-11T12:49:32.998Z</time></trkpt><trkpt lat="42.53460881904913" lon="11.936650695647467"><ele>314.5</ele><time>2026-04-11T12:49:36.997Z</time></trkpt><trkpt lat="42.53460492336965" lon="11.936555698596527"><ele>315.0</ele><time>2026-04-11T12:49:39.997Z</time></trkpt><trkpt lat="42.53460438527754" lon="11.93645537029841"><ele>315.0</ele><time>2026-04-11T12:49:43.997Z</time></trkpt><trkpt lat="42.53462202949098" lon="11.936367429746985"><ele>315.0</ele><time>2026-04-11T12:49:46.997Z</time></trkpt><trkpt lat="42.53465602945548" lon="11.936262898283792"><ele>315.0</ele><time>2026-04-11T12:49:48.997Z</time></trkpt><trkpt lat="42.53466354152207" lon="11.936110183811238"><ele>315.0</ele><time>2026-04-11T12:49:50.997Z</time></trkpt><trkpt lat="42.534687495541746" lon="11.935960520415296"><ele>315.0</ele><time>2026-04-11T12:49:52.997Z</time></trkpt><trkpt lat="42.53468618368785" lon="11.935873977806208"><ele>315.0</ele><time>2026-04-11T12:49:53.997Z</time></trkpt><trkpt lat="42.53467445830759" lon="11.935785677577538"><ele>314.5</ele><time>2026-04-11T12:49:54.997Z</time></trkpt><trkpt lat="42.5346694320821" lon="11.935690692885085"><ele>314.0</ele><time>2026-04-11T12:49:55.997Z</time></trkpt><trkpt lat="42.53465022226488" lon="11.935593309320383"><ele>313.5</ele><time>2026-04-11T12:49:56.997Z</time></trkpt><trkpt lat="42.53463787408247" lon="11.935502689340042"><ele>313.0</ele><time>2026-04-11T12:49:57.997Z</time></trkpt><trkpt lat="42.53462974615563" lon="11.9354037684316"><ele>312.5</ele><time>2026-04-11T12:49:58.997Z</time></trkpt><trkpt lat="42.53461799224337" lon="11.935309026876368"><ele>312.0</ele><time>2026-04-11T12:49:59.997Z</time></trkpt><trkpt lat="42.53461326175098" lon="11.935181513198044"><ele>312.0</ele><time>2026-04-11T12:50:00.997Z</time></trkpt><trkpt lat="42.534598992690626" lon="11.935080450784879"><ele>312.0</ele><time>2026-04-11T12:50:01.997Z</time></trkpt><trkpt lat="42.53457461856225" lon="11.93496547374058"><ele>312.0</ele><time>2026-04-11T12:50:02.997Z</time></trkpt><trkpt lat="42.5345543651354" lon="11.934859958812869"><ele>312.0</ele><time>2026-04-11T12:50:03.997Z</time></trkpt><trkpt lat="42.53452727533759" lon="11.934740204412794"><ele>312.0</ele><time>2026-04-11T12:50:04.997Z</time></trkpt><trkpt lat="42.5345044270453" lon="11.934635688422643"><ele>312.0</ele><time>2026-04-11T12:50:05.997Z</time></trkpt><trkpt lat="42.534470704712255" lon="11.934518280062434"><ele>311.6666666666667</ele><time>2026-04-11T12:50:06.997Z</time></trkpt><trkpt lat="42.53443958572859" lon="11.934409846496923"><ele>311.3333333333333</ele><time>2026-04-11T12:50:07.997Z</time></trkpt><trkpt lat="42.534401530105924" lon="11.934311181803848"><ele>311.0</ele><time>2026-04-11T12:50:08.997Z</time></trkpt><trkpt lat="42.53436255605598" lon="11.9342111067772"><ele>310.66666666666663</ele><time>2026-04-11T12:50:09.997Z</time></trkpt><trkpt lat="42.53432975681819" lon="11.934114732245886"><ele>310.3333333333333</ele><time>2026-04-11T12:50:10.997Z</time></trkpt><trkpt lat="42.53429110775906" lon="11.934027201675121"><ele>310.0</ele><time>2026-04-11T12:50:11.997Z</time></trkpt><trkpt lat="42.5342719909397" lon="11.933926051522196"><ele>310.0</ele><time>2026-04-11T12:50:12.997Z</time></trkpt><trkpt lat="42.53423792611208" lon="11.933839724322022"><ele>310.0</ele><time>2026-04-11T12:50:13.997Z</time></trkpt><trkpt lat="42.53418728275023" lon="11.933766027071352"><ele>310.0</ele><time>2026-04-11T12:50:14.997Z</time></trkpt><trkpt lat="42.53414853762594" lon="11.933685358239524"><ele>310.0</ele><time>2026-04-11T12:50:15.997Z</time></trkpt><trkpt lat="42.53410093165984" lon="11.933618414980232"><ele>310.0</ele><time>2026-04-11T12:50:16.997Z</time></trkpt><trkpt lat="42.53404795700205" lon="11.933561369173695"><ele>310.0</ele><time>2026-04-11T12:50:17.997Z</time></trkpt><trkpt lat="42.53398775681917" lon="11.9335104934488"><ele>310.0</ele><time>2026-04-11T12:50:18.997Z</time></trkpt><trkpt lat="42.53392809912343" lon="11.933461395002114"><ele>310.0</ele><time>2026-04-11T12:50:19.997Z</time></trkpt><trkpt lat="42.533867562608535" lon="11.933415826471114"><ele>310.0</ele><time>2026-04-11T12:50:20.997Z</time></trkpt><trkpt lat="42.533803281709766" lon="11.93336112390044"><ele>310.0</ele><time>2026-04-11T12:50:21.997Z</time></trkpt><trkpt lat="42.53373759890885" lon="11.933319458514966"><ele>310.0</ele><time>2026-04-11T12:50:22.997Z</time></trkpt><trkpt lat="42.53367962225548" lon="11.93327201770304"><ele>310.0</ele><time>2026-04-11T12:50:23.997Z</time></trkpt><trkpt lat="42.533613259470485" lon="11.933216791739875"><ele>310.0</ele><time>2026-04-11T12:50:24.997Z</time></trkpt><trkpt lat="42.53356492970595" lon="11.933151039528047"><ele>310.0</ele><time>2026-04-11T12:50:25.997Z</time></trkpt><trkpt lat="42.53352499667227" lon="11.933081985526517"><ele>309.8333333333333</ele><time>2026-04-11T12:50:26.997Z</time></trkpt><trkpt lat="42.533479248572014" lon="11.933016201583532"><ele>309.66666666666663</ele><time>2026-04-11T12:50:27.997Z</time></trkpt><trkpt lat="42.53345077045912" lon="11.93293372383317"><ele>309.5</ele><time>2026-04-11T12:50:28.997Z</time></trkpt><trkpt lat="42.533428337851014" lon="11.932850296673308"><ele>309.3333333333333</ele><time>2026-04-11T12:50:29.997Z</time></trkpt><trkpt lat="42.53339773166715" lon="11.932768857963005"><ele>309.1666666666667</ele><time>2026-04-11T12:50:30.997Z</time></trkpt><trkpt lat="42.53336106826268" lon="11.932620829313981"><ele>309.0</ele><time>2026-04-11T12:50:32.997Z</time></trkpt><trkpt lat="42.533347594424086" lon="11.932489850771077"><ele>309.0</ele><time>2026-04-11T12:50:34.997Z</time></trkpt><trkpt lat="42.53335163777025" lon="11.932359755793899"><ele>309.0</ele><time>2026-04-11T12:50:36.997Z</time></trkpt><trkpt lat="42.533343591367796" lon="11.9322458842229"><ele>309.0</ele><time>2026-04-11T12:50:38.997Z</time></trkpt><trkpt lat="42.53332764172871" lon="11.932137957368907"><ele>309.0</ele><time>2026-04-11T12:50:40.997Z</time></trkpt><trkpt lat="42.53331815157549" lon="11.932029201446547"><ele>309.0</ele><time>2026-04-11T12:50:42.997Z</time></trkpt><trkpt lat="42.533315939950754" lon="11.931922486698696"><ele>309.0</ele><time>2026-04-11T12:50:44.997Z</time></trkpt><trkpt lat="42.53331250808518" lon="11.931830949610152"><ele>309.00000000000006</ele><time>2026-04-11T12:50:46.997Z</time></trkpt><trkpt lat="42.533273655690095" lon="11.931751400537387"><ele>309.0</ele><time>2026-04-11T12:50:48.997Z</time></trkpt><trkpt lat="42.53324804636292" lon="11.931670956478298"><ele>309.0</ele><time>2026-04-11T12:50:50.997Z</time></trkpt><trkpt lat="42.53320312897013" lon="11.931597903376268"><ele>309.0</ele><time>2026-04-11T12:50:52.997Z</time></trkpt><trkpt lat="42.53314881608422" lon="11.931513565786362"><ele>309.0</ele><time>2026-04-11T12:50:54.997Z</time></trkpt><trkpt lat="42.53310096045952" lon="11.931454989979256"><ele>309.00000000000006</ele><time>2026-04-11T12:50:56.997Z</time></trkpt><trkpt lat="42.53305488199104" lon="11.931374010880845"><ele>309.0</ele><time>2026-04-11T12:50:58.997Z</time></trkpt><trkpt lat="42.533016473959044" lon="11.93128931973198"><ele>309.00000000000006</ele><time>2026-04-11T12:51:00.997Z</time></trkpt><trkpt lat="42.53296669880174" lon="11.93122688740033"><ele>309.0</ele><time>2026-04-11T12:51:02.997Z</time></trkpt><trkpt lat="42.53290687394682" lon="11.931177674266142"><ele>309.0</ele><time>2026-04-11T12:51:04.997Z</time></trkpt><trkpt lat="42.53287135505092" lon="11.931101844942084"><ele>309.0</ele><time>2026-04-11T12:51:06.997Z</time></trkpt><trkpt lat="42.532829655419974" lon="11.931033095368166"><ele>309.0</ele><time>2026-04-11T12:51:08.997Z</time></trkpt><trkpt lat="42.53277116179686" lon="11.930994470929239"><ele>309.00000000000006</ele><time>2026-04-11T12:51:10.997Z</time></trkpt><trkpt lat="42.53273936123479" lon="11.930919457362645"><ele>309.0</ele><time>2026-04-11T12:51:12.997Z</time></trkpt><trkpt lat="42.53274786562341" lon="11.930809701928192"><ele>309.14285714285717</ele><time>2026-04-11T12:51:15.997Z</time></trkpt><trkpt lat="42.53278948491863" lon="11.930737513203091"><ele>309.2857142857143</ele><time>2026-04-11T12:51:17.997Z</time></trkpt><trkpt lat="42.53282312020708" lon="11.930662129719474"><ele>309.42857142857144</ele><time>2026-04-11T12:51:19.997Z</time></trkpt><trkpt lat="42.53286592011364" lon="11.930539530434968"><ele>309.57142857142856</ele><time>2026-04-11T12:51:22.997Z</time></trkpt><trkpt lat="42.53291402056077" lon="11.930467887361512"><ele>309.7142857142857</ele><time>2026-04-11T12:51:24.997Z</time></trkpt><trkpt lat="42.53294854282192" lon="11.930393344929529"><ele>309.8571428571429</ele><time>2026-04-11T12:51:26.997Z</time></trkpt><trkpt lat="42.53299234980322" lon="11.930331082844564"><ele>310.0</ele><time>2026-04-11T12:51:28.997Z</time></trkpt><trkpt lat="42.53306077218527" lon="11.930346599003006"><ele>309.4</ele><time>2026-04-11T12:51:30.996Z</time></trkpt><trkpt lat="42.533106969894575" lon="11.930460976558694"><ele>308.8</ele><time>2026-04-11T12:51:32.996Z</time></trkpt><trkpt lat="42.533171715173495" lon="11.93052670972291"><ele>308.2</ele><time>2026-04-11T12:51:34.996Z</time></trkpt><trkpt lat="42.533251186085174" lon="11.930605327361606"><ele>307.6</ele><time>2026-04-11T12:51:36.996Z</time></trkpt><trkpt lat="42.53332737482263" lon="11.930683998841518"><ele>307.0</ele><time>2026-04-11T12:51:38.996Z</time></trkpt><trkpt lat="42.5333998860131" lon="11.930750445518198"><ele>307.0</ele><time>2026-04-11T12:51:40.996Z</time></trkpt><trkpt lat="42.5334765537934" lon="11.930824963379266"><ele>307.0</ele><time>2026-04-11T12:51:42.996Z</time></trkpt><trkpt lat="42.53354155204767" lon="11.930910048953818"><ele>307.0</ele><time>2026-04-11T12:51:44.996Z</time></trkpt><trkpt lat="42.53359935433017" lon="11.931005689573539"><ele>307.0</ele><time>2026-04-11T12:51:46.996Z</time></trkpt><trkpt lat="42.53368589791398" lon="11.931056346563484"><ele>307.0</ele><time>2026-04-11T12:51:48.996Z</time></trkpt><trkpt lat="42.53376881568062" lon="11.931109263470455"><ele>307.0</ele><time>2026-04-11T12:51:50.996Z</time></trkpt><trkpt lat="42.533855006553246" lon="11.931121800489032"><ele>307.0</ele><time>2026-04-11T12:51:52.996Z</time></trkpt><trkpt lat="42.533945437085094" lon="11.931079927174558"><ele>307.0</ele><time>2026-04-11T12:51:54.996Z</time></trkpt><trkpt lat="42.53400988650917" lon="11.930993739431264"><ele>307.0</ele><time>2026-04-11T12:51:56.996Z</time></trkpt><trkpt lat="42.53405423392414" lon="11.930894584611792"><ele>307.0</ele><time>2026-04-11T12:51:58.996Z</time></trkpt><trkpt lat="42.53410286243979" lon="11.930809989307129"><ele>307.0</ele><time>2026-04-11T12:52:00.996Z</time></trkpt><trkpt lat="42.534150117418335" lon="11.930727552118892"><ele>307.0</ele><time>2026-04-11T12:52:02.996Z</time></trkpt><trkpt lat="42.53418243760885" lon="11.930633608898685"><ele>307.0</ele><time>2026-04-11T12:52:04.996Z</time></trkpt><trkpt lat="42.53422234239331" lon="11.930532692096403"><ele>307.0</ele><time>2026-04-11T12:52:06.996Z</time></trkpt><trkpt lat="42.53423440323082" lon="11.930431377863773"><ele>307.0</ele><time>2026-04-11T12:52:08.996Z</time></trkpt><trkpt lat="42.534242042259315" lon="11.930327745283146"><ele>307.0</ele><time>2026-04-11T12:52:10.996Z</time></trkpt><trkpt lat="42.534262886391765" lon="11.930218200145193"><ele>307.0</ele><time>2026-04-11T12:52:12.996Z</time></trkpt><trkpt lat="42.53428154223904" lon="11.930100060413272"><ele>307.3333333333333</ele><time>2026-04-11T12:52:14.996Z</time></trkpt><trkpt lat="42.53429486706072" lon="11.929986214249073"><ele>307.66666666666663</ele><time>2026-04-11T12:52:16.996Z</time></trkpt><trkpt lat="42.534315647489514" lon="11.929871867362957"><ele>308.0</ele><time>2026-04-11T12:52:18.996Z</time></trkpt><trkpt lat="42.53433424333227" lon="11.929771596734643"><ele>308.3333333333333</ele><time>2026-04-11T12:52:20.996Z</time></trkpt><trkpt lat="42.53435830189976" lon="11.929655742647146"><ele>308.6666666666667</ele><time>2026-04-11T12:52:22.996Z</time></trkpt><trkpt lat="42.53436468406747" lon="11.929550597417377"><ele>309.0</ele><time>2026-04-11T12:52:24.996Z</time></trkpt><trkpt lat="42.53438066603021" lon="11.929448419756238"><ele>309.0</ele><time>2026-04-11T12:52:26.996Z</time></trkpt><trkpt lat="42.53440980889446" lon="11.929333812802366"><ele>309.0</ele><time>2026-04-11T12:52:28.996Z</time></trkpt><trkpt lat="42.534425728469316" lon="11.929223550254868"><ele>309.0</ele><time>2026-04-11T12:52:30.996Z</time></trkpt><trkpt lat="42.5344452077044" lon="11.92911452071247"><ele>309.0</ele><time>2026-04-11T12:52:32.996Z</time></trkpt><trkpt lat="42.53446413244044" lon="11.929013111667011"><ele>309.0</ele><time>2026-04-11T12:52:34.996Z</time></trkpt><trkpt lat="42.53447731199657" lon="11.928909285993468"><ele>309.0</ele><time>2026-04-11T12:52:36.996Z</time></trkpt><trkpt lat="42.534484794740784" lon="11.928808708355582"><ele>309.1666666666667</ele><time>2026-04-11T12:52:38.996Z</time></trkpt><trkpt lat="42.53449404181153" lon="11.928700325125602"><ele>309.3333333333333</ele><time>2026-04-11T12:52:40.996Z</time></trkpt><trkpt lat="42.53450991413992" lon="11.928599614714498"><ele>309.5</ele><time>2026-04-11T12:52:42.996Z</time></trkpt><trkpt lat="42.53454101336035" lon="11.928507928143242"><ele>309.66666666666663</ele><time>2026-04-11T12:52:44.996Z</time></trkpt><trkpt lat="42.534559593334436" lon="11.928405244861676"><ele>309.8333333333333</ele><time>2026-04-11T12:52:46.996Z</time></trkpt><trkpt lat="42.53458616198495" lon="11.928310041837031"><ele>310.0</ele><time>2026-04-11T12:52:48.996Z</time></trkpt><trkpt lat="42.53460004370023" lon="11.928195402626356"><ele>309.5</ele><time>2026-04-11T12:52:50.996Z</time></trkpt><trkpt lat="42.534613127905025" lon="11.928102410494123"><ele>309.0</ele><time>2026-04-11T12:52:52.996Z</time></trkpt><trkpt lat="42.5346249422275" lon="11.927997299834553"><ele>308.5</ele><time>2026-04-11T12:52:54.996Z</time></trkpt><trkpt lat="42.53466171963688" lon="11.927913149084844"><ele>308.0</ele><time>2026-04-11T12:52:56.996Z</time></trkpt><trkpt lat="42.53475401448672" lon="11.92791675381635"><ele>307.5</ele><time>2026-04-11T12:52:59.996Z</time></trkpt><trkpt lat="42.53484590525748" lon="11.92792591190907"><ele>307.0</ele><time>2026-04-11T12:53:02.996Z</time></trkpt><trkpt lat="42.53486961463805" lon="11.927800129532622"><ele>307.0</ele><time>2026-04-11T12:53:05.996Z</time></trkpt><trkpt lat="42.53487589138419" lon="11.927709992470682"><ele>307.0</ele><time>2026-04-11T12:53:07.996Z</time></trkpt><trkpt lat="42.534888357159765" lon="11.927577637918155"><ele>307.0</ele><time>2026-04-11T12:53:10.996Z</time></trkpt><trkpt lat="42.534926521919104" lon="11.92749335848275"><ele>307.0</ele><time>2026-04-11T12:53:12.996Z</time></trkpt><trkpt lat="42.53496252882631" lon="11.927402008511322"><ele>307.0</ele><time>2026-04-11T12:53:14.996Z</time></trkpt><trkpt lat="42.53499667444686" lon="11.927319060165773"><ele>307.0</ele><time>2026-04-11T12:53:16.996Z</time></trkpt><trkpt lat="42.53503965418941" lon="11.927227284862758"><ele>307.0</ele><time>2026-04-11T12:53:18.996Z</time></trkpt><trkpt lat="42.53508072135183" lon="11.927154704269377"><ele>307.0</ele><time>2026-04-11T12:53:20.996Z</time></trkpt><trkpt lat="42.53512490379598" lon="11.927068424845402"><ele>307.0</ele><time>2026-04-11T12:53:22.996Z</time></trkpt><trkpt lat="42.53517013988981" lon="11.92697708371836"><ele>307.0</ele><time>2026-04-11T12:53:24.996Z</time></trkpt><trkpt lat="42.53520963921355" lon="11.926890696890208"><ele>307.0</ele><time>2026-04-11T12:53:26.996Z</time></trkpt><trkpt lat="42.53525307191732" lon="11.92679722923431"><ele>307.0</ele><time>2026-04-11T12:53:28.995Z</time></trkpt><trkpt lat="42.53529649964523" lon="11.926715008016034"><ele>307.3333333333333</ele><time>2026-04-11T12:53:30.995Z</time></trkpt><trkpt lat="42.53534165740274" lon="11.926619230390834"><ele>307.66666666666663</ele><time>2026-04-11T12:53:32.995Z</time></trkpt><trkpt lat="42.53538149633381" lon="11.926520631685452"><ele>308.0</ele><time>2026-04-11T12:53:34.995Z</time></trkpt><trkpt lat="42.535418548365335" lon="11.926427905733956"><ele>308.3333333333333</ele><time>2026-04-11T12:53:36.995Z</time></trkpt><trkpt lat="42.53546357732278" lon="11.926343128101173"><ele>308.6666666666667</ele><time>2026-04-11T12:53:38.995Z</time></trkpt><trkpt lat="42.53550408099739" lon="11.926250369191173"><ele>309.0</ele><time>2026-04-11T12:53:40.995Z</time></trkpt><trkpt lat="42.53554480346275" lon="11.926152679378067"><ele>309.00000000000006</ele><time>2026-04-11T12:53:42.995Z</time></trkpt><trkpt lat="42.53558376500943" lon="11.926067065419403"><ele>309.0</ele><time>2026-04-11T12:53:44.995Z</time></trkpt><trkpt lat="42.535631521485314" lon="11.925996253904753"><ele>309.0</ele><time>2026-04-11T12:53:46.995Z</time></trkpt><trkpt lat="42.53566874256782" lon="11.925890875752458"><ele>309.0</ele><time>2026-04-11T12:53:49.995Z</time></trkpt><trkpt lat="42.53570795926782" lon="11.925805796937894"><ele>309.0</ele><time>2026-04-11T12:53:51.995Z</time></trkpt><trkpt lat="42.53575495955472" lon="11.925732538380883"><ele>309.00000000000006</ele><time>2026-04-11T12:53:53.995Z</time></trkpt><trkpt lat="42.535797935445714" lon="11.925652761670568"><ele>309.0</ele><time>2026-04-11T12:53:55.995Z</time></trkpt><trkpt lat="42.53585097121051" lon="11.92559202044609"><ele>309.00000000000006</ele><time>2026-04-11T12:53:57.995Z</time></trkpt><trkpt lat="42.535901521700204" lon="11.925511161781927"><ele>309.0</ele><time>2026-04-11T12:53:59.995Z</time></trkpt><trkpt lat="42.535930688555446" lon="11.92541787126421"><ele>309.0</ele><time>2026-04-11T12:54:02.995Z</time></trkpt><trkpt lat="42.53597384607841" lon="11.9253383730925"><ele>309.0</ele><time>2026-04-11T12:54:05.995Z</time></trkpt><trkpt lat="42.536033172758025" lon="11.92527411255016"><ele>309.0</ele><time>2026-04-11T12:54:08.995Z</time></trkpt><trkpt lat="42.53606660395295" lon="11.925201429821463"><ele>309.00000000000006</ele><time>2026-04-11T12:54:10.995Z</time></trkpt><trkpt lat="42.53613809404197" lon="11.925214964803585"><ele>309.0</ele><time>2026-04-11T12:54:12.995Z</time></trkpt><trkpt lat="42.536215577907164" lon="11.9252230888875"><ele>308.5</ele><time>2026-04-11T12:54:14.995Z</time></trkpt><trkpt lat="42.5362934628162" lon="11.92524020127703"><ele>308.0</ele><time>2026-04-11T12:54:16.995Z</time></trkpt><trkpt lat="42.536365960820106" lon="11.925232008153726"><ele>307.5</ele><time>2026-04-11T12:54:18.995Z</time></trkpt><trkpt lat="42.53639098810387" lon="11.925136376618966"><ele>307.0</ele><time>2026-04-11T12:54:20.995Z</time></trkpt><trkpt lat="42.53640616731991" lon="11.925028161493456"><ele>306.5</ele><time>2026-04-11T12:54:22.995Z</time></trkpt><trkpt lat="42.53642376322575" lon="11.92492848119727"><ele>306.0</ele><time>2026-04-11T12:54:24.995Z</time></trkpt><trkpt lat="42.536439636126076" lon="11.924822261576141"><ele>306.0</ele><time>2026-04-11T12:54:26.995Z</time></trkpt><trkpt lat="42.53645676823403" lon="11.924720905550993"><ele>306.0</ele><time>2026-04-11T12:54:28.995Z</time></trkpt><trkpt lat="42.5364732751716" lon="11.924626151450013"><ele>306.0</ele><time>2026-04-11T12:54:30.995Z</time></trkpt><trkpt lat="42.536481088520546" lon="11.924533644113641"><ele>306.0</ele><time>2026-04-11T12:54:32.995Z</time></trkpt><trkpt lat="42.536494454356045" lon="11.924447201526748"><ele>306.0</ele><time>2026-04-11T12:54:34.995Z</time></trkpt><trkpt lat="42.53647888991104" lon="11.924352879732664"><ele>306.0</ele><time>2026-04-11T12:54:37.995Z</time></trkpt><trkpt lat="42.53649804178369" lon="11.924216654680276"><ele>306.3333333333333</ele><time>2026-04-11T12:54:40.995Z</time></trkpt><trkpt lat="42.53651348557127" lon="11.924105781256062"><ele>306.6666666666667</ele><time>2026-04-11T12:54:42.995Z</time></trkpt><trkpt lat="42.53652235197237" lon="11.923977150524578"><ele>307.0</ele><time>2026-04-11T12:54:44.995Z</time></trkpt><trkpt lat="42.53653643689666" lon="11.923849986282566"><ele>307.33333333333337</ele><time>2026-04-11T12:54:46.995Z</time></trkpt><trkpt lat="42.53656254986243" lon="11.923755823757258"><ele>307.6666666666667</ele><time>2026-04-11T12:54:48.995Z</time></trkpt><trkpt lat="42.53659329911911" lon="11.923641127160773"><ele>308.0</ele><time>2026-04-11T12:54:51.995Z</time></trkpt><trkpt lat="42.536608684556164" lon="11.923554708818859"><ele>308.0</ele><time>2026-04-11T12:54:53.995Z</time></trkpt><trkpt lat="42.536621211403045" lon="11.923437173842183"><ele>308.0</ele><time>2026-04-11T12:54:55.995Z</time></trkpt><trkpt lat="42.536628529687846" lon="11.923333529422338"><ele>308.0</ele><time>2026-04-11T12:54:57.995Z</time></trkpt><trkpt lat="42.53664073695974" lon="11.9232440046879"><ele>308.0</ele><time>2026-04-11T12:54:59.995Z</time></trkpt><trkpt lat="42.536653261897015" lon="11.923123780523515"><ele>308.0</ele><time>2026-04-11T12:55:02.995Z</time></trkpt><trkpt lat="42.53666990230571" lon="11.923040620152971"><ele>308.0</ele><time>2026-04-11T12:55:04.995Z</time></trkpt><trkpt lat="42.536684649795916" lon="11.92295684169125"><ele>308.0</ele><time>2026-04-11T12:55:06.995Z</time></trkpt><trkpt lat="42.53670026442204" lon="11.92286593480026"><ele>308.0</ele><time>2026-04-11T12:55:08.995Z</time></trkpt><trkpt lat="42.5367017606436" lon="11.92274918477573"><ele>308.0</ele><time>2026-04-11T12:55:11.995Z</time></trkpt><trkpt lat="42.53671485127033" lon="11.922647916251826"><ele>308.0</ele><time>2026-04-11T12:55:13.995Z</time></trkpt><trkpt lat="42.53672359416597" lon="11.9225460077376"><ele>308.0</ele><time>2026-04-11T12:55:15.995Z</time></trkpt><trkpt lat="42.53673382788853" lon="11.922427236563156"><ele>308.0</ele><time>2026-04-11T12:55:18.995Z</time></trkpt><trkpt lat="42.53674145423754" lon="11.922304097104242"><ele>308.0</ele><time>2026-04-11T12:55:21.995Z</time></trkpt><trkpt lat="42.53675513327929" lon="11.922196788975745"><ele>308.0</ele><time>2026-04-11T12:55:24.995Z</time></trkpt><trkpt lat="42.536764737880716" lon="11.922097595308292"><ele>308.0</ele><time>2026-04-11T12:55:27.994Z</time></trkpt><trkpt lat="42.53679089312025" lon="11.921991450976481"><ele>308.0</ele><time>2026-04-11T12:55:30.994Z</time></trkpt><trkpt lat="42.53681746027319" lon="11.921878433012642"><ele>308.0</ele><time>2026-04-11T12:55:33.994Z</time></trkpt><trkpt lat="42.53685126441666" lon="11.921796001571618"><ele>308.0</ele><time>2026-04-11T12:55:35.994Z</time></trkpt><trkpt lat="42.53686069703306" lon="11.921677327250993"><ele>308.0</ele><time>2026-04-11T12:55:41.994Z</time></trkpt><trkpt lat="42.53686999057932" lon="11.921586454159119"><ele>308.1666666666667</ele><time>2026-04-11T12:55:43.994Z</time></trkpt><trkpt lat="42.53689093311627" lon="11.921490832516321"><ele>308.33333333333337</ele><time>2026-04-11T12:55:45.994Z</time></trkpt><trkpt lat="42.536917172802674" lon="11.92140116306126"><ele>308.5</ele><time>2026-04-11T12:55:47.994Z</time></trkpt><trkpt lat="42.536941094934285" lon="11.921316420159412"><ele>308.6666666666667</ele><time>2026-04-11T12:55:51.994Z</time></trkpt><trkpt lat="42.53699155011906" lon="11.921223671581936"><ele>308.8333333333333</ele><time>2026-04-11T12:55:55.994Z</time></trkpt><trkpt lat="42.53705413442522" lon="11.92113473296414"><ele>309.0</ele><time>2026-04-11T12:55:58.994Z</time></trkpt><trkpt lat="42.53708882059332" lon="11.921058951714818"><ele>308.7142857142857</ele><time>2026-04-11T12:56:00.994Z</time></trkpt><trkpt lat="42.537132968790694" lon="11.920981250425683"><ele>308.42857142857144</ele><time>2026-04-11T12:56:02.994Z</time></trkpt><trkpt lat="42.53717940735837" lon="11.920906749407067"><ele>308.1428571428571</ele><time>2026-04-11T12:56:04.994Z</time></trkpt><trkpt lat="42.53721574196265" lon="11.920823777617667"><ele>307.8571428571429</ele><time>2026-04-11T12:56:06.994Z</time></trkpt><trkpt lat="42.537252375319234" lon="11.920735462774042"><ele>307.57142857142856</ele><time>2026-04-11T12:56:08.994Z</time></trkpt><trkpt lat="42.53728565921994" lon="11.92064372542996"><ele>307.2857142857143</ele><time>2026-04-11T12:56:10.994Z</time></trkpt><trkpt lat="42.53732681432852" lon="11.920558444810407"><ele>307.0</ele><time>2026-04-11T12:56:12.994Z</time></trkpt><trkpt lat="42.53737950494138" lon="11.920480014971092"><ele>307.0</ele><time>2026-04-11T12:56:14.994Z</time></trkpt><trkpt lat="42.53741643227579" lon="11.920396872579436"><ele>307.0</ele><time>2026-04-11T12:56:16.994Z</time></trkpt><trkpt lat="42.53746010026666" lon="11.920309020899795"><ele>307.0</ele><time>2026-04-11T12:56:18.994Z</time></trkpt><trkpt lat="42.53749699743552" lon="11.920224931146587"><ele>307.0</ele><time>2026-04-11T12:56:20.994Z</time></trkpt><trkpt lat="42.53750662764815" lon="11.920122997451893"><ele>307.0</ele><time>2026-04-11T12:56:23.994Z</time></trkpt><trkpt lat="42.53744224078222" lon="11.920045975443392"><ele>307.0</ele><time>2026-04-11T12:56:26.994Z</time></trkpt><trkpt lat="42.5374633827371" lon="11.9199544131196"><ele>307.66666666666663</ele><time>2026-04-11T12:56:29.994Z</time></trkpt><trkpt lat="42.537519425677296" lon="11.91987184284205"><ele>308.3333333333333</ele><time>2026-04-11T12:56:32.994Z</time></trkpt><trkpt lat="42.53757775443528" lon="11.919788033767823"><ele>309.0</ele><time>2026-04-11T12:56:35.994Z</time></trkpt><trkpt lat="42.537607850158075" lon="11.91969942596164"><ele>309.6666666666667</ele><time>2026-04-11T12:56:38.994Z</time></trkpt><trkpt lat="42.53764074141294" lon="11.919617341725633"><ele>310.33333333333337</ele><time>2026-04-11T12:56:41.994Z</time></trkpt><trkpt lat="42.537695634765456" lon="11.919532189891855"><ele>311.0</ele><time>2026-04-11T12:56:45.994Z</time></trkpt><trkpt lat="42.53774695669479" lon="11.919473689373314"><ele>311.0</ele><time>2026-04-11T12:56:48.994Z</time></trkpt><trkpt lat="42.53778631502006" lon="11.919402576199479"><ele>311.0</ele><time>2026-04-11T12:56:51.994Z</time></trkpt><trkpt lat="42.53783394120847" lon="11.919313779223339"><ele>311.0</ele><time>2026-04-11T12:56:55.994Z</time></trkpt><trkpt lat="42.53787304050859" lon="11.919241583256856"><ele>311.0</ele><time>2026-04-11T12:56:58.994Z</time></trkpt><trkpt lat="42.53791566273042" lon="11.919166022938215"><ele>311.0</ele><time>2026-04-11T12:57:02.994Z</time></trkpt><trkpt lat="42.537946296486645" lon="11.919083604825117"><ele>311.0</ele><time>2026-04-11T12:57:06.994Z</time></trkpt><trkpt lat="42.537984412813344" lon="11.919009241914619"><ele>311.0</ele><time>2026-04-11T12:57:10.994Z</time></trkpt><trkpt lat="42.53804138152868" lon="11.918955094158743"><ele>312.57142857142856</ele><time>2026-04-11T12:57:14.994Z</time></trkpt><trkpt lat="42.53809479555785" lon="11.918892758032808"><ele>314.14285714285717</ele><time>2026-04-11T12:57:19.994Z</time></trkpt><trkpt lat="42.53814987624826" lon="11.918838555357388"><ele>315.7142857142857</ele><time>2026-04-11T12:57:24.993Z</time></trkpt><trkpt lat="42.53818571504471" lon="11.918766226829897"><ele>317.2857142857143</ele><time>2026-04-11T12:57:28.993Z</time></trkpt><trkpt lat="42.53823209034185" lon="11.918707702533622"><ele>318.8571428571429</ele><time>2026-04-11T12:57:32.993Z</time></trkpt><trkpt lat="42.53827384797321" lon="11.918639854117979"><ele>320.42857142857144</ele><time>2026-04-11T12:57:36.993Z</time></trkpt><trkpt lat="42.53830975102045" lon="11.918555277105984"><ele>322.0</ele><time>2026-04-11T12:57:41.993Z</time></trkpt><trkpt lat="42.5383629142158" lon="11.918489488322082"><ele>322.0</ele><time>2026-04-11T12:57:46.993Z</time></trkpt><trkpt lat="42.53840720049134" lon="11.918408433124686"><ele>322.0</ele><time>2026-04-11T12:57:51.993Z</time></trkpt><trkpt lat="42.53845240718391" lon="11.918325805106091"><ele>322.0</ele><time>2026-04-11T12:57:56.993Z</time></trkpt><trkpt lat="42.53848941871189" lon="11.918249087971946"><ele>322.0</ele><time>2026-04-11T12:58:01.993Z</time></trkpt><trkpt lat="42.53852449402576" lon="11.918160112097521"><ele>322.0</ele><time>2026-04-11T12:58:06.993Z</time></trkpt><trkpt lat="42.53854720019268" lon="11.918079689102393"><ele>322.0</ele><time>2026-04-11T12:58:11.993Z</time></trkpt><trkpt lat="42.53857744043877" lon="11.917991054420098"><ele>322.0</ele><time>2026-04-11T12:58:17.993Z</time></trkpt><trkpt lat="42.53858744868408" lon="11.917905079781615"><ele>322.42857142857144</ele><time>2026-04-11T12:58:22.993Z</time></trkpt><trkpt lat="42.53860647703946" lon="11.917805359777732"><ele>322.8571428571429</ele><time>2026-04-11T12:58:27.993Z</time></trkpt><trkpt lat="42.53862510688221" lon="11.917721163212038"><ele>323.2857142857143</ele><time>2026-04-11T12:58:31.993Z</time></trkpt><trkpt lat="42.53865009375994" lon="11.917639737401819"><ele>323.7142857142857</ele><time>2026-04-11T12:58:35.993Z</time></trkpt><trkpt lat="42.53866346424454" lon="11.917555719033382"><ele>324.14285714285717</ele><time>2026-04-11T12:58:40.993Z</time></trkpt><trkpt lat="42.538691500216856" lon="11.917456719766747"><ele>324.57142857142856</ele><time>2026-04-11T12:58:45.992Z</time></trkpt><trkpt lat="42.538716227793806" lon="11.917369280353727"><ele>325.0</ele><time>2026-04-11T12:58:50.992Z</time></trkpt><trkpt lat="42.53872879983774" lon="11.91726530827683"><ele>325.0</ele><time>2026-04-11T12:58:55.992Z</time></trkpt><trkpt lat="42.53875600095222" lon="11.917168044641869"><ele>325.0</ele><time>2026-04-11T12:59:00.991Z</time></trkpt><trkpt lat="42.53878150914537" lon="11.917078390713014"><ele>325.0</ele><time>2026-04-11T12:59:05.991Z</time></trkpt><trkpt lat="42.53880496615023" lon="11.916983394903264"><ele>325.0</ele><time>2026-04-11T12:59:10.991Z</time></trkpt><trkpt lat="42.53883128852278" lon="11.916884613839022"><ele>325.0</ele><time>2026-04-11T12:59:15.991Z</time></trkpt><trkpt lat="42.53885987818271" lon="11.916783662871389"><ele>325.0</ele><time>2026-04-11T12:59:20.991Z</time></trkpt><trkpt lat="42.538880326876075" lon="11.916691192436506"><ele>325.0</ele><time>2026-04-11T12:59:24.991Z</time></trkpt><trkpt lat="42.53890292974099" lon="11.916598410397514"><ele>325.8333333333333</ele><time>2026-04-11T12:59:28.991Z</time></trkpt><trkpt lat="42.538924096345866" lon="11.916506791894948"><ele>326.66666666666663</ele><time>2026-04-11T12:59:32.991Z</time></trkpt><trkpt lat="42.53893722033613" lon="11.916403925228098"><ele>327.5</ele><time>2026-04-11T12:59:36.991Z</time></trkpt><trkpt lat="42.53896548028358" lon="11.916305099791343"><ele>328.3333333333333</ele><time>2026-04-11T12:59:40.991Z</time></trkpt><trkpt lat="42.53898692748347" lon="11.916212805544758"><ele>329.1666666666667</ele><time>2026-04-11T12:59:44.991Z</time></trkpt><trkpt lat="42.53902191856614" lon="11.916114042368273"><ele>330.0</ele><time>2026-04-11T12:59:48.99Z</time></trkpt><trkpt lat="42.53904287896802" lon="11.916006186345834"><ele>330.0</ele><time>2026-04-11T12:59:52.99Z</time></trkpt><trkpt lat="42.539062027253806" lon="11.915904245802633"><ele>330.0</ele><time>2026-04-11T12:59:56.99Z</time></trkpt><trkpt lat="42.53905609260147" lon="11.915811933072112"><ele>330.0</ele><time>2026-04-11T12:59:59.99Z</time></trkpt><trkpt lat="42.53903667928466" lon="11.915713921097154"><ele>330.0</ele><time>2026-04-11T13:00:02.99Z</time></trkpt><trkpt lat="42.53904897582837" lon="11.915605900840777"><ele>330.0</ele><time>2026-04-11T13:00:05.99Z</time></trkpt><trkpt lat="42.53907205970888" lon="11.915487152676269"><ele>330.0</ele><time>2026-04-11T13:00:08.99Z</time></trkpt><trkpt lat="42.539088146450055" lon="11.91540398228815"><ele>331.0</ele><time>2026-04-11T13:00:10.99Z</time></trkpt><trkpt lat="42.53911917254269" lon="11.9152847131508"><ele>332.0</ele><time>2026-04-11T13:00:13.99Z</time></trkpt><trkpt lat="42.53913362363429" lon="11.915158521916128"><ele>333.0</ele><time>2026-04-11T13:00:16.99Z</time></trkpt><trkpt lat="42.53915052581286" lon="11.915065712540262"><ele>334.0</ele><time>2026-04-11T13:00:18.99Z</time></trkpt><trkpt lat="42.53916824275241" lon="11.914940414371625"><ele>335.0</ele><time>2026-04-11T13:00:21.99Z</time></trkpt><trkpt lat="42.53918520372584" lon="11.914853386232918"><ele>336.0</ele><time>2026-04-11T13:00:23.99Z</time></trkpt><trkpt lat="42.53919188411606" lon="11.914765366101111"><ele>336.0</ele><time>2026-04-11T13:00:25.99Z</time></trkpt><trkpt lat="42.53919750765128" lon="11.914663801689708"><ele>336.0</ele><time>2026-04-11T13:00:27.99Z</time></trkpt><trkpt lat="42.53917447691986" lon="11.914562535601963"><ele>336.0</ele><time>2026-04-11T13:00:29.99Z</time></trkpt><trkpt lat="42.53916761865254" lon="11.914445026551645"><ele>336.0</ele><time>2026-04-11T13:00:31.99Z</time></trkpt><trkpt lat="42.539154079095944" lon="11.914341593428777"><ele>336.0</ele><time>2026-04-11T13:00:33.99Z</time></trkpt><trkpt lat="42.53915775180689" lon="11.914217016924104"><ele>336.0</ele><time>2026-04-11T13:00:35.99Z</time></trkpt><trkpt lat="42.53914539669926" lon="11.91408555150082"><ele>336.0</ele><time>2026-04-11T13:00:37.99Z</time></trkpt><trkpt lat="42.53913100188928" lon="11.913956077950933"><ele>336.0</ele><time>2026-04-11T13:00:39.99Z</time></trkpt><trkpt lat="42.53912330966416" lon="11.913830258106321"><ele>336.0</ele><time>2026-04-11T13:00:41.99Z</time></trkpt><trkpt lat="42.53911572737595" lon="11.913701206522127"><ele>336.0</ele><time>2026-04-11T13:00:43.99Z</time></trkpt><trkpt lat="42.53910094378152" lon="11.913579358089002"><ele>336.0</ele><time>2026-04-11T13:00:45.99Z</time></trkpt><trkpt lat="42.53907971129726" lon="11.913453221195276"><ele>335.6666666666667</ele><time>2026-04-11T13:00:47.99Z</time></trkpt><trkpt lat="42.53907058212621" lon="11.913334356874884"><ele>335.3333333333333</ele><time>2026-04-11T13:00:49.99Z</time></trkpt><trkpt lat="42.539068049036814" lon="11.913206355812411"><ele>335.0</ele><time>2026-04-11T13:00:51.99Z</time></trkpt><trkpt lat="42.53905534738163" lon="11.913089654374259"><ele>334.66666666666663</ele><time>2026-04-11T13:00:53.99Z</time></trkpt><trkpt lat="42.539042437722166" lon="11.912971115110095"><ele>334.3333333333333</ele><time>2026-04-11T13:00:55.99Z</time></trkpt><trkpt lat="42.53904430492398" lon="11.912881026528998"><ele>334.0</ele><time>2026-04-11T13:00:57.99Z</time></trkpt><trkpt lat="42.539046248590715" lon="11.91275641601635"><ele>334.0</ele><time>2026-04-11T13:01:00.99Z</time></trkpt><trkpt lat="42.53906322922879" lon="11.912633330071793"><ele>334.0</ele><time>2026-04-11T13:01:03.99Z</time></trkpt><trkpt lat="42.53909053341653" lon="11.912524050254877"><ele>334.0</ele><time>2026-04-11T13:01:06.99Z</time></trkpt><trkpt lat="42.53912799544615" lon="11.912411983262139"><ele>334.0</ele><time>2026-04-11T13:01:09.99Z</time></trkpt><trkpt lat="42.53916206291495" lon="11.91232961220529"><ele>334.0</ele><time>2026-04-11T13:01:11.99Z</time></trkpt><trkpt lat="42.53920978862662" lon="11.912225166715858"><ele>334.0</ele><time>2026-04-11T13:01:14.99Z</time></trkpt><trkpt lat="42.53924295326724" lon="11.912147284465139"><ele>334.42857142857144</ele><time>2026-04-11T13:01:16.99Z</time></trkpt><trkpt lat="42.53928061675794" lon="11.912075666934308"><ele>334.8571428571429</ele><time>2026-04-11T13:01:18.989Z</time></trkpt><trkpt lat="42.53932136041615" lon="11.912001847571556"><ele>335.28571428571433</ele><time>2026-04-11T13:01:20.989Z</time></trkpt><trkpt lat="42.53935633831244" lon="11.911925211112118"><ele>335.7142857142857</ele><time>2026-04-11T13:01:22.989Z</time></trkpt><trkpt lat="42.539394016350315" lon="11.91185459166044"><ele>336.14285714285717</ele><time>2026-04-11T13:01:24.989Z</time></trkpt><trkpt lat="42.53943086961541" lon="11.911777094060781"><ele>336.5714285714286</ele><time>2026-04-11T13:01:26.989Z</time></trkpt><trkpt lat="42.53947030101568" lon="11.911700847719887"><ele>337.0</ele><time>2026-04-11T13:01:28.989Z</time></trkpt><trkpt lat="42.53951077955756" lon="11.911623055893317"><ele>337.3333333333333</ele><time>2026-04-11T13:01:30.989Z</time></trkpt><trkpt lat="42.53955025131779" lon="11.911540786899854"><ele>337.66666666666663</ele><time>2026-04-11T13:01:32.989Z</time></trkpt><trkpt lat="42.539593311551535" lon="11.911456519269795"><ele>338.0</ele><time>2026-04-11T13:01:34.989Z</time></trkpt><trkpt lat="42.53963444544345" lon="11.911371770604879"><ele>338.3333333333333</ele><time>2026-04-11T13:01:36.989Z</time></trkpt><trkpt lat="42.53968137335947" lon="11.911283514110888"><ele>338.6666666666667</ele><time>2026-04-11T13:01:38.989Z</time></trkpt><trkpt lat="42.53973056765775" lon="11.911199697925765"><ele>339.0</ele><time>2026-04-11T13:01:40.989Z</time></trkpt><trkpt lat="42.539782534648914" lon="11.911112946606151"><ele>338.6666666666667</ele><time>2026-04-11T13:01:42.989Z</time></trkpt><trkpt lat="42.539839295838846" lon="11.91102953333634"><ele>338.3333333333333</ele><time>2026-04-11T13:01:44.989Z</time></trkpt><trkpt lat="42.53989109515936" lon="11.910938349419387"><ele>338.0</ele><time>2026-04-11T13:01:46.989Z</time></trkpt><trkpt lat="42.53994460136606" lon="11.910851092380076"><ele>337.66666666666663</ele><time>2026-04-11T13:01:48.989Z</time></trkpt><trkpt lat="42.54000501731616" lon="11.910768566347524"><ele>337.3333333333333</ele><time>2026-04-11T13:01:50.989Z</time></trkpt><trkpt lat="42.54007569831587" lon="11.910691955046273"><ele>337.0</ele><time>2026-04-11T13:01:52.989Z</time></trkpt><trkpt lat="42.54013928335371" lon="11.910608726762668"><ele>337.0</ele><time>2026-04-11T13:01:54.989Z</time></trkpt><trkpt lat="42.540215642588066" lon="11.910540112310402"><ele>337.0</ele><time>2026-04-11T13:01:56.989Z</time></trkpt><trkpt lat="42.54030169748503" lon="11.91046223620337"><ele>337.0</ele><time>2026-04-11T13:01:58.989Z</time></trkpt><trkpt lat="42.540394544994186" lon="11.910389662964167"><ele>337.0</ele><time>2026-04-11T13:02:00.989Z</time></trkpt><trkpt lat="42.540490011832894" lon="11.910321218966276"><ele>337.0</ele><time>2026-04-11T13:02:02.989Z</time></trkpt><trkpt lat="42.540593208899985" lon="11.91024734788685"><ele>337.0</ele><time>2026-04-11T13:02:04.989Z</time></trkpt><trkpt lat="42.54065147015376" lon="11.910213270781805"><ele>337.0</ele><time>2026-04-11T13:02:05.989Z</time></trkpt><trkpt lat="42.54076345925019" lon="11.910151239469895"><ele>337.0</ele><time>2026-04-11T13:02:07.989Z</time></trkpt><trkpt lat="42.54087122426283" lon="11.910084241439469"><ele>337.0</ele><time>2026-04-11T13:02:09.989Z</time></trkpt><trkpt lat="42.5409800215861" lon="11.910025000356173"><ele>337.0</ele><time>2026-04-11T13:02:11.989Z</time></trkpt><trkpt lat="42.54108841343495" lon="11.909964094893743"><ele>336.8</ele><time>2026-04-11T13:02:13.989Z</time></trkpt><trkpt lat="42.54120045917933" lon="11.909895021536089"><ele>336.6</ele><time>2026-04-11T13:02:15.989Z</time></trkpt><trkpt lat="42.541315931584975" lon="11.909827101505547"><ele>336.40000000000003</ele><time>2026-04-11T13:02:17.989Z</time></trkpt><trkpt lat="42.541377662415115" lon="11.909792214188812"><ele>336.20000000000005</ele><time>2026-04-11T13:02:18.989Z</time></trkpt><trkpt lat="42.54143975344212" lon="11.909758646912476"><ele>336.0</ele><time>2026-04-11T13:02:19.989Z</time></trkpt><trkpt lat="42.541506399551984" lon="11.909728271757453"><ele>335.57142857142856</ele><time>2026-04-11T13:02:20.989Z</time></trkpt><trkpt lat="42.54156607335114" lon="11.909691054828775"><ele>335.1428571428571</ele><time>2026-04-11T13:02:21.989Z</time></trkpt><trkpt lat="42.54163018857292" lon="11.909667750049035"><ele>334.7142857142857</ele><time>2026-04-11T13:02:22.989Z</time></trkpt><trkpt lat="42.5416957079439" lon="11.909632696810108"><ele>334.2857142857143</ele><time>2026-04-11T13:02:23.989Z</time></trkpt><trkpt lat="42.54175459075088" lon="11.909593161120736"><ele>333.85714285714283</ele><time>2026-04-11T13:02:24.989Z</time></trkpt><trkpt lat="42.54181649300997" lon="11.909563227648755"><ele>333.42857142857144</ele><time>2026-04-11T13:02:25.989Z</time></trkpt><trkpt lat="42.54187775521981" lon="11.909536286871658"><ele>333.0</ele><time>2026-04-11T13:02:26.989Z</time></trkpt><trkpt lat="42.54194149004535" lon="11.909504181892771"><ele>333.0</ele><time>2026-04-11T13:02:27.989Z</time></trkpt><trkpt lat="42.542001718925434" lon="11.909463522374347"><ele>333.0</ele><time>2026-04-11T13:02:28.989Z</time></trkpt><trkpt lat="42.54206515381625" lon="11.909423044764862"><ele>333.0</ele><time>2026-04-11T13:02:29.989Z</time></trkpt><trkpt lat="42.54212809710871" lon="11.909384741638638"><ele>333.0</ele><time>2026-04-11T13:02:30.989Z</time></trkpt><trkpt lat="42.542190251399674" lon="11.909346545784162"><ele>333.0</ele><time>2026-04-11T13:02:31.989Z</time></trkpt><trkpt lat="42.54225665226052" lon="11.909312661990946"><ele>333.0</ele><time>2026-04-11T13:02:32.989Z</time></trkpt><trkpt lat="42.542324049568364" lon="11.909271524708572"><ele>333.0</ele><time>2026-04-11T13:02:33.989Z</time></trkpt><trkpt lat="42.542392840034246" lon="11.909232506862182"><ele>332.6666666666667</ele><time>2026-04-11T13:02:34.989Z</time></trkpt><trkpt lat="42.54246923990775" lon="11.909188755789621"><ele>332.3333333333333</ele><time>2026-04-11T13:02:35.989Z</time></trkpt><trkpt lat="42.54253979356877" lon="11.909149480188367"><ele>332.0</ele><time>2026-04-11T13:02:36.989Z</time></trkpt><trkpt lat="42.54261139487129" lon="11.909113401986824"><ele>331.66666666666663</ele><time>2026-04-11T13:02:37.989Z</time></trkpt><trkpt lat="42.54268959828985" lon="11.909079391277183"><ele>331.3333333333333</ele><time>2026-04-11T13:02:38.989Z</time></trkpt><trkpt lat="42.54275982686338" lon="11.909026137238106"><ele>331.0</ele><time>2026-04-11T13:02:39.989Z</time></trkpt><trkpt lat="42.54283264676827" lon="11.908980056188387"><ele>330.5</ele><time>2026-04-11T13:02:40.989Z</time></trkpt><trkpt lat="42.54291039915548" lon="11.908941467394213"><ele>330.0</ele><time>2026-04-11T13:02:41.989Z</time></trkpt><trkpt lat="42.542985353017606" lon="11.908899414323681"><ele>329.5</ele><time>2026-04-11T13:02:42.989Z</time></trkpt><trkpt lat="42.543058476922404" lon="11.908847839995913"><ele>329.0</ele><time>2026-04-11T13:02:43.989Z</time></trkpt><trkpt lat="42.54313877421505" lon="11.908798070097665"><ele>328.5</ele><time>2026-04-11T13:02:44.989Z</time></trkpt><trkpt lat="42.54321158742715" lon="11.90874690857038"><ele>328.0</ele><time>2026-04-11T13:02:45.989Z</time></trkpt><trkpt lat="42.543287553982545" lon="11.908697815446821"><ele>328.0</ele><time>2026-04-11T13:02:46.989Z</time></trkpt><trkpt lat="42.543366419370095" lon="11.908654009301486"><ele>328.0</ele><time>2026-04-11T13:02:47.989Z</time></trkpt><trkpt lat="42.54343985513211" lon="11.908594939578409"><ele>328.0</ele><time>2026-04-11T13:02:48.989Z</time></trkpt><trkpt lat="42.54351515773816" lon="11.908540741424934"><ele>328.0</ele><time>2026-04-11T13:02:49.989Z</time></trkpt><trkpt lat="42.5435878060919" lon="11.90848402451659"><ele>328.0</ele><time>2026-04-11T13:02:50.989Z</time></trkpt><trkpt lat="42.54365953497142" lon="11.908417106332038"><ele>328.0</ele><time>2026-04-11T13:02:51.989Z</time></trkpt><trkpt lat="42.5437298050825" lon="11.90834705668187"><ele>327.4</ele><time>2026-04-11T13:02:52.989Z</time></trkpt><trkpt lat="42.54380779463375" lon="11.90827080973394"><ele>326.79999999999995</ele><time>2026-04-11T13:02:53.988Z</time></trkpt><trkpt lat="42.54387882740805" lon="11.908196652838885"><ele>326.2</ele><time>2026-04-11T13:02:54.988Z</time></trkpt><trkpt lat="42.54394909118103" lon="11.908121993836557"><ele>325.6</ele><time>2026-04-11T13:02:55.988Z</time></trkpt><trkpt lat="42.54402311549132" lon="11.9080383193491"><ele>325.0</ele><time>2026-04-11T13:02:56.988Z</time></trkpt><trkpt lat="42.544099594941876" lon="11.907955815259358"><ele>325.0</ele><time>2026-04-11T13:02:57.988Z</time></trkpt><trkpt lat="42.54417240502498" lon="11.90786320184757"><ele>325.0</ele><time>2026-04-11T13:02:58.988Z</time></trkpt><trkpt lat="42.54424893584829" lon="11.90778054295488"><ele>325.0</ele><time>2026-04-11T13:02:59.988Z</time></trkpt><trkpt lat="42.54432045327985" lon="11.907697567842884"><ele>325.0</ele><time>2026-04-11T13:03:00.988Z</time></trkpt><trkpt lat="42.54439586081709" lon="11.907602846663426"><ele>325.0</ele><time>2026-04-11T13:03:01.988Z</time></trkpt><trkpt lat="42.54446372493329" lon="11.907517968701361"><ele>324.0</ele><time>2026-04-11T13:03:02.988Z</time></trkpt><trkpt lat="42.54453139949578" lon="11.907425667633"><ele>323.0</ele><time>2026-04-11T13:03:03.988Z</time></trkpt><trkpt lat="42.544596041820334" lon="11.90732491303283"><ele>322.0</ele><time>2026-04-11T13:03:04.988Z</time></trkpt><trkpt lat="42.54465416179071" lon="11.907226570908568"><ele>321.0</ele><time>2026-04-11T13:03:05.988Z</time></trkpt><trkpt lat="42.54471385640032" lon="11.907128000674966"><ele>320.0</ele><time>2026-04-11T13:03:06.988Z</time></trkpt><trkpt lat="42.544768820848326" lon="11.907029475194733"><ele>319.83333333333337</ele><time>2026-04-11T13:03:07.988Z</time></trkpt><trkpt lat="42.54481483373614" lon="11.906935257977958"><ele>319.6666666666667</ele><time>2026-04-11T13:03:08.988Z</time></trkpt><trkpt lat="42.54486927077543" lon="11.906831412858903"><ele>319.5</ele><time>2026-04-11T13:03:09.988Z</time></trkpt><trkpt lat="42.54491745038105" lon="11.906739398154963"><ele>319.3333333333333</ele><time>2026-04-11T13:03:10.988Z</time></trkpt><trkpt lat="42.54496974253273" lon="11.906656517317508"><ele>319.16666666666663</ele><time>2026-04-11T13:03:11.988Z</time></trkpt><trkpt lat="42.54501824892079" lon="11.9065715122199"><ele>319.0</ele><time>2026-04-11T13:03:12.988Z</time></trkpt><trkpt lat="42.54506669076864" lon="11.906475295290058"><ele>318.66666666666663</ele><time>2026-04-11T13:03:13.988Z</time></trkpt><trkpt lat="42.54511006834689" lon="11.906380203379442"><ele>318.3333333333333</ele><time>2026-04-11T13:03:14.988Z</time></trkpt><trkpt lat="42.5451555200972" lon="11.906285437124696"><ele>318.0</ele><time>2026-04-11T13:03:15.988Z</time></trkpt><trkpt lat="42.545196536910986" lon="11.906195284195933"><ele>317.6666666666667</ele><time>2026-04-11T13:03:16.988Z</time></trkpt><trkpt lat="42.545235846474554" lon="11.90609863862021"><ele>317.33333333333337</ele><time>2026-04-11T13:03:17.988Z</time></trkpt><trkpt lat="42.54527449123409" lon="11.905998852657593"><ele>317.0</ele><time>2026-04-11T13:03:18.988Z</time></trkpt><trkpt lat="42.545306627865024" lon="11.905893268993971"><ele>317.0</ele><time>2026-04-11T13:03:19.988Z</time></trkpt><trkpt lat="42.545341548281804" lon="11.90578579282238"><ele>317.0</ele><time>2026-04-11T13:03:20.988Z</time></trkpt><trkpt lat="42.545373966150514" lon="11.905684142596245"><ele>317.0</ele><time>2026-04-11T13:03:21.988Z</time></trkpt><trkpt lat="42.54540407723998" lon="11.90558315951747"><ele>317.0</ele><time>2026-04-11T13:03:22.988Z</time></trkpt><trkpt lat="42.545441300523116" lon="11.9054774065362"><ele>317.0</ele><time>2026-04-11T13:03:23.988Z</time></trkpt><trkpt lat="42.545479351733384" lon="11.905373440281208"><ele>317.0</ele><time>2026-04-11T13:03:24.988Z</time></trkpt><trkpt lat="42.54550907452573" lon="11.90526982243611"><ele>316.5</ele><time>2026-04-11T13:03:25.988Z</time></trkpt><trkpt lat="42.54553822479062" lon="11.905167937618359"><ele>316.0</ele><time>2026-04-11T13:03:26.988Z</time></trkpt><trkpt lat="42.545571229120355" lon="11.905063662092896"><ele>315.5</ele><time>2026-04-11T13:03:27.988Z</time></trkpt><trkpt lat="42.545606648607276" lon="11.90496177155264"><ele>315.0</ele><time>2026-04-11T13:03:28.988Z</time></trkpt><trkpt lat="42.545640445102414" lon="11.904866170735279"><ele>314.5</ele><time>2026-04-11T13:03:29.988Z</time></trkpt><trkpt lat="42.545673696647036" lon="11.904766668914746"><ele>314.0</ele><time>2026-04-11T13:03:30.988Z</time></trkpt><trkpt lat="42.545704677735024" lon="11.90467165212672"><ele>314.0</ele><time>2026-04-11T13:03:31.988Z</time></trkpt><trkpt lat="42.54573591016519" lon="11.904570964837937"><ele>314.0</ele><time>2026-04-11T13:03:32.988Z</time></trkpt><trkpt lat="42.54576712537377" lon="11.904482087462958"><ele>314.0</ele><time>2026-04-11T13:03:33.988Z</time></trkpt><trkpt lat="42.545802679683085" lon="11.90438902826952"><ele>314.0</ele><time>2026-04-11T13:03:34.988Z</time></trkpt><trkpt lat="42.545830609632496" lon="11.904294610595414"><ele>314.0</ele><time>2026-04-11T13:03:35.988Z</time></trkpt><trkpt lat="42.54585680962751" lon="11.904201008151004"><ele>314.0</ele><time>2026-04-11T13:03:36.988Z</time></trkpt><trkpt lat="42.54588159168167" lon="11.904108756049386"><ele>314.1428571428571</ele><time>2026-04-11T13:03:37.988Z</time></trkpt><trkpt lat="42.54590661289498" lon="11.90402061931812"><ele>314.2857142857143</ele><time>2026-04-11T13:03:38.988Z</time></trkpt><trkpt lat="42.54593622336042" lon="11.903936673236801"><ele>314.42857142857144</ele><time>2026-04-11T13:03:39.988Z</time></trkpt><trkpt lat="42.54596327974573" lon="11.903855166651468"><ele>314.57142857142856</ele><time>2026-04-11T13:03:40.988Z</time></trkpt><trkpt lat="42.54599175110718" lon="11.903776114335164"><ele>314.7142857142857</ele><time>2026-04-11T13:03:41.988Z</time></trkpt><trkpt lat="42.54601722546529" lon="11.903694905495625"><ele>314.85714285714283</ele><time>2026-04-11T13:03:42.988Z</time></trkpt><trkpt lat="42.54604568339721" lon="11.90361284158648"><ele>315.0</ele><time>2026-04-11T13:03:43.988Z</time></trkpt><trkpt lat="42.54606775610615" lon="11.903529208839627"><ele>315.0</ele><time>2026-04-11T13:03:44.988Z</time></trkpt><trkpt lat="42.54611831895481" lon="11.903378411861643"><ele>315.0</ele><time>2026-04-11T13:03:46.988Z</time></trkpt><trkpt lat="42.54616157916178" lon="11.903227160974883"><ele>315.0</ele><time>2026-04-11T13:03:48.988Z</time></trkpt><trkpt lat="42.54620376688618" lon="11.903080190261806"><ele>315.0</ele><time>2026-04-11T13:03:50.988Z</time></trkpt><trkpt lat="42.54624198226184" lon="11.90294747457196"><ele>314.8</ele><time>2026-04-11T13:03:52.988Z</time></trkpt><trkpt lat="42.546290191051725" lon="11.902821231025527"><ele>314.6</ele><time>2026-04-11T13:03:54.988Z</time></trkpt><trkpt lat="42.54633165637891" lon="11.902695099135569"><ele>314.4</ele><time>2026-04-11T13:03:56.988Z</time></trkpt><trkpt lat="42.54638639192901" lon="11.902567875016706"><ele>314.2</ele><time>2026-04-11T13:03:58.988Z</time></trkpt><trkpt lat="42.54642922230663" lon="11.902430022447069"><ele>314.0</ele><time>2026-04-11T13:04:00.988Z</time></trkpt><trkpt lat="42.546464398196846" lon="11.902295415985346"><ele>314.0</ele><time>2026-04-11T13:04:02.988Z</time></trkpt><trkpt lat="42.54650770430302" lon="11.902167270420906"><ele>314.0</ele><time>2026-04-11T13:04:04.988Z</time></trkpt><trkpt lat="42.546548828875714" lon="11.902040510136063"><ele>314.0</ele><time>2026-04-11T13:04:06.988Z</time></trkpt><trkpt lat="42.54658424920429" lon="11.90191365255277"><ele>314.0</ele><time>2026-04-11T13:04:08.988Z</time></trkpt><trkpt lat="42.546622918805056" lon="11.90177903535576"><ele>314.0</ele><time>2026-04-11T13:04:10.988Z</time></trkpt><trkpt lat="42.54666810603118" lon="11.901659440164124"><ele>313.8</ele><time>2026-04-11T13:04:12.988Z</time></trkpt><trkpt lat="42.546707966005" lon="11.901530336528108"><ele>313.59999999999997</ele><time>2026-04-11T13:04:14.988Z</time></trkpt><trkpt lat="42.546751801199925" lon="11.901411444294132"><ele>313.4</ele><time>2026-04-11T13:04:16.988Z</time></trkpt><trkpt lat="42.546784273812804" lon="11.901275315741339"><ele>313.2</ele><time>2026-04-11T13:04:18.988Z</time></trkpt><trkpt lat="42.546835227011414" lon="11.901147503123166"><ele>313.0</ele><time>2026-04-11T13:04:20.988Z</time></trkpt><trkpt lat="42.54687399583059" lon="11.90102419213938"><ele>313.0</ele><time>2026-04-11T13:04:22.988Z</time></trkpt><trkpt lat="42.54691564968036" lon="11.900893993042372"><ele>313.0</ele><time>2026-04-11T13:04:24.988Z</time></trkpt><trkpt lat="42.54695617797265" lon="11.90076860223423"><ele>313.0</ele><time>2026-04-11T13:04:26.988Z</time></trkpt><trkpt lat="42.54699884933417" lon="11.900646425048425"><ele>313.0</ele><time>2026-04-11T13:04:28.987Z</time></trkpt><trkpt lat="42.54704055004823" lon="11.900526734838765"><ele>313.0</ele><time>2026-04-11T13:04:30.987Z</time></trkpt><trkpt lat="42.547078863883556" lon="11.900407373438286"><ele>313.0</ele><time>2026-04-11T13:04:32.987Z</time></trkpt><trkpt lat="42.54711952311686" lon="11.900290454802331"><ele>313.0</ele><time>2026-04-11T13:04:34.987Z</time></trkpt><trkpt lat="42.547159483290386" lon="11.900176140999587"><ele>313.0</ele><time>2026-04-11T13:04:36.987Z</time></trkpt><trkpt lat="42.54719666925288" lon="11.900060460931355"><ele>313.0</ele><time>2026-04-11T13:04:38.987Z</time></trkpt><trkpt lat="42.547226460340454" lon="11.899946005214812"><ele>313.0</ele><time>2026-04-11T13:04:40.987Z</time></trkpt><trkpt lat="42.547264316757875" lon="11.89983561779225"><ele>313.4</ele><time>2026-04-11T13:04:42.987Z</time></trkpt><trkpt lat="42.547302118292656" lon="11.899730333423106"><ele>313.8</ele><time>2026-04-11T13:04:44.987Z</time></trkpt><trkpt lat="42.54737140876757" lon="11.89964331072162"><ele>314.2</ele><time>2026-04-11T13:04:46.987Z</time></trkpt><trkpt lat="42.547467376322736" lon="11.899585582755007"><ele>314.6</ele><time>2026-04-11T13:04:48.987Z</time></trkpt><trkpt lat="42.54753760883205" lon="11.899490040397247"><ele>315.0</ele><time>2026-04-11T13:04:50.987Z</time></trkpt><trkpt lat="42.54754747223291" lon="11.899366940995195"><ele>315.0</ele><time>2026-04-11T13:04:52.987Z</time></trkpt><trkpt lat="42.54752399273428" lon="11.899268624407174"><ele>315.0</ele><time>2026-04-11T13:04:55.009Z</time></trkpt><trkpt lat="42.54751985105164" lon="11.899155627012085"><ele>315.0</ele><time>2026-04-11T13:04:58.009Z</time></trkpt><trkpt lat="42.5475395789923" lon="11.89904707297527"><ele>315.0</ele><time>2026-04-11T13:05:01.009Z</time></trkpt><trkpt lat="42.54756384996021" lon="11.898947014832904"><ele>315.0</ele><time>2026-04-11T13:05:04.009Z</time></trkpt><trkpt lat="42.547597810071615" lon="11.898853384001741"><ele>315.0</ele><time>2026-04-11T13:05:07.009Z</time></trkpt><trkpt lat="42.54763003731047" lon="11.898752619748533"><ele>315.1666666666667</ele><time>2026-04-11T13:05:10.009Z</time></trkpt><trkpt lat="42.54766828692154" lon="11.898665075977217"><ele>315.3333333333333</ele><time>2026-04-11T13:05:13.009Z</time></trkpt><trkpt lat="42.54770860546863" lon="11.898570076181077"><ele>315.5</ele><time>2026-04-11T13:05:16.009Z</time></trkpt><trkpt lat="42.54774702620204" lon="11.898477974372907"><ele>315.66666666666663</ele><time>2026-04-11T13:05:19.009Z</time></trkpt><trkpt lat="42.54778400057413" lon="11.89838070065171"><ele>315.8333333333333</ele><time>2026-04-11T13:05:22.009Z</time></trkpt><trkpt lat="42.547820783208074" lon="11.898285760715202"><ele>316.0</ele><time>2026-04-11T13:05:25.009Z</time></trkpt><trkpt lat="42.54786291510935" lon="11.89818154064536"><ele>317.0</ele><time>2026-04-11T13:05:28.009Z</time></trkpt><trkpt lat="42.54790384335451" lon="11.898077838529383"><ele>318.0</ele><time>2026-04-11T13:05:31.009Z</time></trkpt><trkpt lat="42.547947177963415" lon="11.897980380889056"><ele>319.0</ele><time>2026-04-11T13:05:34.009Z</time></trkpt><trkpt lat="42.54799192206434" lon="11.897876020212186"><ele>320.0</ele><time>2026-04-11T13:05:37.009Z</time></trkpt><trkpt lat="42.5480402541032" lon="11.897772257170146"><ele>321.0</ele><time>2026-04-11T13:05:40.011Z</time></trkpt><trkpt lat="42.54808954833522" lon="11.897668195413683"><ele>322.0</ele><time>2026-04-11T13:05:43.012Z</time></trkpt><trkpt lat="42.548134174958356" lon="11.897562623908385"><ele>322.0</ele><time>2026-04-11T13:05:46.011Z</time></trkpt><trkpt lat="42.54818404118426" lon="11.897454861792568"><ele>322.0</ele><time>2026-04-11T13:05:49.012Z</time></trkpt><trkpt lat="42.548217263601565" lon="11.897380999475615"><ele>322.0</ele><time>2026-04-11T13:05:51.011Z</time></trkpt><trkpt lat="42.54824779462697" lon="11.897303032195548"><ele>322.0</ele><time>2026-04-11T13:05:53.012Z</time></trkpt><trkpt lat="42.54828399441055" lon="11.8972257057958"><ele>322.0</ele><time>2026-04-11T13:05:55.012Z</time></trkpt><trkpt lat="42.54832055274027" lon="11.897141745384715"><ele>322.0</ele><time>2026-04-11T13:05:57.012Z</time></trkpt><trkpt lat="42.54836209043865" lon="11.897052907833867"><ele>322.0</ele><time>2026-04-11T13:05:59.012Z</time></trkpt><trkpt lat="42.54840439032685" lon="11.896959906103511"><ele>322.0</ele><time>2026-04-11T13:06:01.012Z</time></trkpt><trkpt lat="42.548445012953465" lon="11.896863710640298"><ele>322.0</ele><time>2026-04-11T13:06:03.012Z</time></trkpt><trkpt lat="42.5484871184883" lon="11.896760715188234"><ele>322.0</ele><time>2026-04-11T13:06:05.012Z</time></trkpt><trkpt lat="42.548537908417465" lon="11.896662983852407"><ele>322.0</ele><time>2026-04-11T13:06:07.012Z</time></trkpt><trkpt lat="42.54859110970988" lon="11.896552573190888"><ele>322.0</ele><time>2026-04-11T13:06:09.012Z</time></trkpt><trkpt lat="42.54863724839788" lon="11.896435347530636"><ele>322.0</ele><time>2026-04-11T13:06:11.012Z</time></trkpt><trkpt lat="42.548694718720185" lon="11.896319891025131"><ele>322.0</ele><time>2026-04-11T13:06:13.012Z</time></trkpt><trkpt lat="42.54874908510613" lon="11.896199280145957"><ele>322.0</ele><time>2026-04-11T13:06:15.012Z</time></trkpt><trkpt lat="42.54880421111123" lon="11.896068007328068"><ele>322.0</ele><time>2026-04-11T13:06:17.012Z</time></trkpt><trkpt lat="42.54886969422148" lon="11.895943513835794"><ele>322.0</ele><time>2026-04-11T13:06:19.012Z</time></trkpt><trkpt lat="42.548923581514806" lon="11.895816182180232"><ele>321.6</ele><time>2026-04-11T13:06:21.011Z</time></trkpt><trkpt lat="42.54897950742289" lon="11.895691446929275"><ele>321.20000000000005</ele><time>2026-04-11T13:06:23.011Z</time></trkpt><trkpt lat="42.5490375953112" lon="11.895564198442184"><ele>320.8</ele><time>2026-04-11T13:06:25.011Z</time></trkpt><trkpt lat="42.54909931099307" lon="11.895443764670748"><ele>320.4</ele><time>2026-04-11T13:06:27.011Z</time></trkpt><trkpt lat="42.54916397123249" lon="11.895304300098653"><ele>320.0</ele><time>2026-04-11T13:06:29.011Z</time></trkpt><trkpt lat="42.54922055900963" lon="11.895168356168682"><ele>320.0</ele><time>2026-04-11T13:06:31.011Z</time></trkpt><trkpt lat="42.54927942949578" lon="11.895028930336236"><ele>320.0</ele><time>2026-04-11T13:06:33.011Z</time></trkpt><trkpt lat="42.54934310084598" lon="11.894897443586459"><ele>320.0</ele><time>2026-04-11T13:06:35.011Z</time></trkpt><trkpt lat="42.549408573804534" lon="11.894748968140698"><ele>320.0</ele><time>2026-04-11T13:06:37.011Z</time></trkpt><trkpt lat="42.54946937417454" lon="11.894597434668702"><ele>320.0</ele><time>2026-04-11T13:06:39.011Z</time></trkpt><trkpt lat="42.54950315978915" lon="11.894524779132052"><ele>320.0</ele><time>2026-04-11T13:06:40.011Z</time></trkpt><trkpt lat="42.549538495567106" lon="11.89445021172982"><ele>320.0</ele><time>2026-04-11T13:06:41.011Z</time></trkpt><trkpt lat="42.549576077557326" lon="11.894379883156224"><ele>320.0</ele><time>2026-04-11T13:06:42.011Z</time></trkpt><trkpt lat="42.54961109293064" lon="11.894298565910061"><ele>320.0</ele><time>2026-04-11T13:06:43.011Z</time></trkpt><trkpt lat="42.54965021850456" lon="11.894220880313679"><ele>320.0</ele><time>2026-04-11T13:06:44.011Z</time></trkpt><trkpt lat="42.549683151008686" lon="11.894142669896652"><ele>320.0</ele><time>2026-04-11T13:06:45.011Z</time></trkpt><trkpt lat="42.549721328935135" lon="11.894062795733992"><ele>319.7142857142857</ele><time>2026-04-11T13:06:46.011Z</time></trkpt><trkpt lat="42.549758684897824" lon="11.893985873335005"><ele>319.42857142857144</ele><time>2026-04-11T13:06:47.011Z</time></trkpt><trkpt lat="42.5497983314009" lon="11.893905908248254"><ele>319.1428571428571</ele><time>2026-04-11T13:06:48.011Z</time></trkpt><trkpt lat="42.549836297447946" lon="11.893828247055515"><ele>318.8571428571429</ele><time>2026-04-11T13:06:49.011Z</time></trkpt><trkpt lat="42.54986958112558" lon="11.893750575676298"><ele>318.5714285714286</ele><time>2026-04-11T13:06:50.011Z</time></trkpt><trkpt lat="42.54990189415434" lon="11.893665920742617"><ele>318.2857142857143</ele><time>2026-04-11T13:06:51.011Z</time></trkpt><trkpt lat="42.54994126681078" lon="11.893589465856392"><ele>318.0</ele><time>2026-04-11T13:06:52.011Z</time></trkpt><trkpt lat="42.54997826786864" lon="11.89351808391098"><ele>318.0</ele><time>2026-04-11T13:06:53.011Z</time></trkpt><trkpt lat="42.55001540626502" lon="11.893441268319052"><ele>318.0</ele><time>2026-04-11T13:06:54.011Z</time></trkpt><trkpt lat="42.55004504072014" lon="11.893360526577233"><ele>318.0</ele><time>2026-04-11T13:06:55.011Z</time></trkpt><trkpt lat="42.550079297086704" lon="11.89328253442883"><ele>318.0</ele><time>2026-04-11T13:06:56.011Z</time></trkpt><trkpt lat="42.5501227500207" lon="11.89320381112794"><ele>318.0</ele><time>2026-04-11T13:06:57.011Z</time></trkpt><trkpt lat="42.550154373806734" lon="11.893125442438109"><ele>318.0</ele><time>2026-04-11T13:06:58.011Z</time></trkpt><trkpt lat="42.55019332129755" lon="11.893049478466136"><ele>318.0</ele><time>2026-04-11T13:06:59.011Z</time></trkpt><trkpt lat="42.55023081335712" lon="11.892973287106576"><ele>317.7142857142857</ele><time>2026-04-11T13:07:00.011Z</time></trkpt><trkpt lat="42.55027054129148" lon="11.892892689703247"><ele>317.42857142857144</ele><time>2026-04-11T13:07:01.011Z</time></trkpt><trkpt lat="42.55031242827055" lon="11.89282083026991"><ele>317.14285714285717</ele><time>2026-04-11T13:07:02.011Z</time></trkpt><trkpt lat="42.55034251656559" lon="11.892737860978137"><ele>316.8571428571429</ele><time>2026-04-11T13:07:03.011Z</time></trkpt><trkpt lat="42.550379090314635" lon="11.89265977049412"><ele>316.57142857142856</ele><time>2026-04-11T13:07:04.011Z</time></trkpt><trkpt lat="42.55041437080916" lon="11.892582840874368"><ele>316.28571428571433</ele><time>2026-04-11T13:07:05.011Z</time></trkpt><trkpt lat="42.55045023690047" lon="11.892503715692158"><ele>316.0</ele><time>2026-04-11T13:07:06.011Z</time></trkpt><trkpt lat="42.550511671200276" lon="11.892357365140793"><ele>315.40000000000003</ele><time>2026-04-11T13:07:08.011Z</time></trkpt><trkpt lat="42.55057595768986" lon="11.892208804211304"><ele>314.8</ele><time>2026-04-11T13:07:10.011Z</time></trkpt><trkpt lat="42.550605571077774" lon="11.892133249750609"><ele>314.20000000000005</ele><time>2026-04-11T13:07:11.011Z</time></trkpt><trkpt lat="42.5506372102021" lon="11.89205895883809"><ele>313.6</ele><time>2026-04-11T13:07:12.011Z</time></trkpt><trkpt lat="42.55069790665023" lon="11.891916190868638"><ele>313.0</ele><time>2026-04-11T13:07:14.011Z</time></trkpt><trkpt lat="42.55075646128908" lon="11.891771172351863"><ele>313.5</ele><time>2026-04-11T13:07:16.011Z</time></trkpt><trkpt lat="42.550820363473065" lon="11.891637881125256"><ele>314.0</ele><time>2026-04-11T13:07:18.011Z</time></trkpt><trkpt lat="42.5508751966027" lon="11.891494273244446"><ele>314.5</ele><time>2026-04-11T13:07:20.011Z</time></trkpt><trkpt lat="42.550936298396124" lon="11.891366116487157"><ele>315.0</ele><time>2026-04-11T13:07:22.011Z</time></trkpt><trkpt lat="42.55099260369608" lon="11.891246333778716"><ele>315.0</ele><time>2026-04-11T13:07:24.011Z</time></trkpt><trkpt lat="42.55104689336604" lon="11.891128580124938"><ele>315.0</ele><time>2026-04-11T13:07:26.011Z</time></trkpt><trkpt lat="42.55109876264955" lon="11.891011812233447"><ele>315.0</ele><time>2026-04-11T13:07:28.011Z</time></trkpt><trkpt lat="42.55114753794815" lon="11.89089382273721"><ele>315.0</ele><time>2026-04-11T13:07:30.011Z</time></trkpt><trkpt lat="42.551194233934645" lon="11.890779614984723"><ele>315.0</ele><time>2026-04-11T13:07:32.011Z</time></trkpt><trkpt lat="42.551238325164604" lon="11.890670190056529"><ele>314.8</ele><time>2026-04-11T13:07:34.011Z</time></trkpt><trkpt lat="42.55129046896571" lon="11.890560083341377"><ele>314.6</ele><time>2026-04-11T13:07:36.011Z</time></trkpt><trkpt lat="42.55132948143478" lon="11.890451455360086"><ele>314.4</ele><time>2026-04-11T13:07:38.011Z</time></trkpt><trkpt lat="42.551382977388535" lon="11.890351245720977"><ele>314.2</ele><time>2026-04-11T13:07:40.011Z</time></trkpt><trkpt lat="42.55141980416459" lon="11.890240076827526"><ele>314.0</ele><time>2026-04-11T13:07:42.011Z</time></trkpt><trkpt lat="42.55146786900829" lon="11.890139989540504"><ele>314.33333333333337</ele><time>2026-04-11T13:07:44.011Z</time></trkpt><trkpt lat="42.55150679677282" lon="11.890042782681357"><ele>314.6666666666667</ele><time>2026-04-11T13:07:46.012Z</time></trkpt><trkpt lat="42.551550749080356" lon="11.88995445756184"><ele>315.0</ele><time>2026-04-11T13:07:48.012Z</time></trkpt><trkpt lat="42.551602693666496" lon="11.889868316564847"><ele>315.3333333333333</ele><time>2026-04-11T13:07:50.013Z</time></trkpt><trkpt lat="42.55164650563532" lon="11.889775518424015"><ele>315.66666666666663</ele><time>2026-04-11T13:07:52.013Z</time></trkpt><trkpt lat="42.55169441696461" lon="11.889682094593606"><ele>316.0</ele><time>2026-04-11T13:07:54.013Z</time></trkpt><trkpt lat="42.551742035944265" lon="11.889599479590684"><ele>316.0</ele><time>2026-04-11T13:07:56.013Z</time></trkpt><trkpt lat="42.551799877649444" lon="11.889516581331318"><ele>316.0</ele><time>2026-04-11T13:07:58.013Z</time></trkpt><trkpt lat="42.55185703451379" lon="11.88943080884672"><ele>316.0</ele><time>2026-04-11T13:08:00.012Z</time></trkpt><trkpt lat="42.55192085600899" lon="11.889343617383043"><ele>316.0</ele><time>2026-04-11T13:08:02.012Z</time></trkpt><trkpt lat="42.55198919176843" lon="11.88925730553026"><ele>316.0</ele><time>2026-04-11T13:08:04.012Z</time></trkpt><trkpt lat="42.552069830835194" lon="11.889170565676082"><ele>315.8</ele><time>2026-04-11T13:08:06.012Z</time></trkpt><trkpt lat="42.55214575795246" lon="11.889076185246665"><ele>315.6</ele><time>2026-04-11T13:08:08.012Z</time></trkpt><trkpt lat="42.55222381632134" lon="11.888988968508539"><ele>315.4</ele><time>2026-04-11T13:08:10.012Z</time></trkpt><trkpt lat="42.55230072300437" lon="11.888898184865083"><ele>315.2</ele><time>2026-04-11T13:08:12.012Z</time></trkpt><trkpt lat="42.55238724559709" lon="11.888812738599052"><ele>315.0</ele><time>2026-04-11T13:08:14.012Z</time></trkpt><trkpt lat="42.55247462691819" lon="11.888729890689174"><ele>315.0</ele><time>2026-04-11T13:08:16.012Z</time></trkpt><trkpt lat="42.552565092187855" lon="11.888651905546592"><ele>315.0</ele><time>2026-04-11T13:08:18.012Z</time></trkpt><trkpt lat="42.55266068986086" lon="11.888575635855013"><ele>315.0</ele><time>2026-04-11T13:08:20.012Z</time></trkpt><trkpt lat="42.552761289896615" lon="11.888502693365051"><ele>315.0</ele><time>2026-04-11T13:08:22.012Z</time></trkpt><trkpt lat="42.55286934326121" lon="11.888432306781965"><ele>314.75</ele><time>2026-04-11T13:08:24.012Z</time></trkpt><trkpt lat="42.5529734423869" lon="11.888364703820377"><ele>314.5</ele><time>2026-04-11T13:08:26.012Z</time></trkpt><trkpt lat="42.553080316874684" lon="11.888309391107782"><ele>314.25</ele><time>2026-04-11T13:08:28.012Z</time></trkpt><trkpt lat="42.553192270900425" lon="11.88825774173994"><ele>314.0</ele><time>2026-04-11T13:08:30.012Z</time></trkpt><trkpt lat="42.553307694424554" lon="11.888209217434035"><ele>314.0</ele><time>2026-04-11T13:08:32.012Z</time></trkpt><trkpt lat="42.55337254508185" lon="11.888191001053961"><ele>314.0</ele><time>2026-04-11T13:08:33.012Z</time></trkpt><trkpt lat="42.553491404963076" lon="11.88815338669378"><ele>314.0</ele><time>2026-04-11T13:08:35.012Z</time></trkpt><trkpt lat="42.55355515049941" lon="11.888136245705866"><ele>314.0</ele><time>2026-04-11T13:08:36.012Z</time></trkpt><trkpt lat="42.553666296466325" lon="11.88809476978713"><ele>314.0</ele><time>2026-04-11T13:08:38.012Z</time></trkpt><trkpt lat="42.553733509475336" lon="11.8880718481556"><ele>314.0</ele><time>2026-04-11T13:08:39.012Z</time></trkpt><trkpt lat="42.55379621050704" lon="11.88805664602449"><ele>313.83333333333337</ele><time>2026-04-11T13:08:40.012Z</time></trkpt><trkpt lat="42.553920369304585" lon="11.888025292285443"><ele>313.6666666666667</ele><time>2026-04-11T13:08:42.012Z</time></trkpt><trkpt lat="42.55398478156803" lon="11.888010765693291"><ele>313.5</ele><time>2026-04-11T13:08:43.012Z</time></trkpt><trkpt lat="42.55404897328134" lon="11.887993196723194"><ele>313.3333333333333</ele><time>2026-04-11T13:08:44.012Z</time></trkpt><trkpt lat="42.55411269321699" lon="11.8879746812299"><ele>313.16666666666663</ele><time>2026-04-11T13:08:45.012Z</time></trkpt><trkpt lat="42.55417759387446" lon="11.887953304592829"><ele>313.0</ele><time>2026-04-11T13:08:46.012Z</time></trkpt><trkpt lat="42.55423870487449" lon="11.887929282935403"><ele>313.0</ele><time>2026-04-11T13:08:47.012Z</time></trkpt><trkpt lat="42.55435652545123" lon="11.887882249614211"><ele>313.0</ele><time>2026-04-11T13:08:49.012Z</time></trkpt><trkpt lat="42.554471045589786" lon="11.887831433140908"><ele>313.0</ele><time>2026-04-11T13:08:51.012Z</time></trkpt><trkpt lat="42.55452720485415" lon="11.887791466726414"><ele>313.0</ele><time>2026-04-11T13:08:52.012Z</time></trkpt><trkpt lat="42.554644244801096" lon="11.887731374468295"><ele>313.0</ele><time>2026-04-11T13:08:54.012Z</time></trkpt><trkpt lat="42.55475905666128" lon="11.887670341722034"><ele>312.8</ele><time>2026-04-11T13:08:56.012Z</time></trkpt><trkpt lat="42.554818137114125" lon="11.887636537621544"><ele>312.6</ele><time>2026-04-11T13:08:57.012Z</time></trkpt><trkpt lat="42.55491927640715" lon="11.887553270753049"><ele>312.4</ele><time>2026-04-11T13:08:59.012Z</time></trkpt><trkpt lat="42.55502968916961" lon="11.887479266496012"><ele>312.2</ele><time>2026-04-11T13:09:01.012Z</time></trkpt><trkpt lat="42.55514010640779" lon="11.88742013181889"><ele>312.0</ele><time>2026-04-11T13:09:03.012Z</time></trkpt><trkpt lat="42.55523913983579" lon="11.887347975103907"><ele>312.0</ele><time>2026-04-11T13:09:05.012Z</time></trkpt><trkpt lat="42.555338979624125" lon="11.887281227412949"><ele>312.0</ele><time>2026-04-11T13:09:07.012Z</time></trkpt><trkpt lat="42.555446235486095" lon="11.887217192587235"><ele>312.0</ele><time>2026-04-11T13:09:09.012Z</time></trkpt><trkpt lat="42.55555058336321" lon="11.887145548987743"><ele>312.0</ele><time>2026-04-11T13:09:11.012Z</time></trkpt><trkpt lat="42.55565529211326" lon="11.887077042267872"><ele>312.0</ele><time>2026-04-11T13:09:13.012Z</time></trkpt><trkpt lat="42.55576290217115" lon="11.887003685678893"><ele>312.0</ele><time>2026-04-11T13:09:15.012Z</time></trkpt><trkpt lat="42.55586980444517" lon="11.886945219013308"><ele>312.0</ele><time>2026-04-11T13:09:17.012Z</time></trkpt><trkpt lat="42.555966730006844" lon="11.886866893508886"><ele>312.0</ele><time>2026-04-11T13:09:19.012Z</time></trkpt><trkpt lat="42.55608365317127" lon="11.886796997351466"><ele>312.0</ele><time>2026-04-11T13:09:21.012Z</time></trkpt><trkpt lat="42.55618290036019" lon="11.886712971676015"><ele>312.0</ele><time>2026-04-11T13:09:23.011Z</time></trkpt><trkpt lat="42.55629210973015" lon="11.88662603020377"><ele>312.0</ele><time>2026-04-11T13:09:25.011Z</time></trkpt><trkpt lat="42.556347409865644" lon="11.88658303835601"><ele>312.0</ele><time>2026-04-11T13:09:26.011Z</time></trkpt><trkpt lat="42.55640156225044" lon="11.886536305859057"><ele>312.0</ele><time>2026-04-11T13:09:27.011Z</time></trkpt><trkpt lat="42.55645628703356" lon="11.88648696423933"><ele>312.0</ele><time>2026-04-11T13:09:28.011Z</time></trkpt><trkpt lat="42.556513126297745" lon="11.886439449858777"><ele>312.0</ele><time>2026-04-11T13:09:29.011Z</time></trkpt><trkpt lat="42.55656475426902" lon="11.886387816702763"><ele>312.0</ele><time>2026-04-11T13:09:30.011Z</time></trkpt><trkpt lat="42.556624564078795" lon="11.886329176422786"><ele>312.0</ele><time>2026-04-11T13:09:31.011Z</time></trkpt><trkpt lat="42.55667861848534" lon="11.886272672278405"><ele>312.0</ele><time>2026-04-11T13:09:32.011Z</time></trkpt><trkpt lat="42.55672792037578" lon="11.886218887050438"><ele>312.0</ele><time>2026-04-11T13:09:33.011Z</time></trkpt><trkpt lat="42.556817446738535" lon="11.886099628976785"><ele>312.0</ele><time>2026-04-11T13:09:35.011Z</time></trkpt><trkpt lat="42.55691152928953" lon="11.885985651455293"><ele>312.0</ele><time>2026-04-11T13:09:37.011Z</time></trkpt><trkpt lat="42.55699407216794" lon="11.885871491894113"><ele>312.0</ele><time>2026-04-11T13:09:39.011Z</time></trkpt><trkpt lat="42.557037903727505" lon="11.885808144533913"><ele>312.0</ele><time>2026-04-11T13:09:40.011Z</time></trkpt><trkpt lat="42.557079811898824" lon="11.885742394505092"><ele>312.0</ele><time>2026-04-11T13:09:41.011Z</time></trkpt><trkpt lat="42.557154497557796" lon="11.88561340940801"><ele>312.0</ele><time>2026-04-11T13:09:43.011Z</time></trkpt><trkpt lat="42.55721833467997" lon="11.885492241173942"><ele>311.6</ele><time>2026-04-11T13:09:45.011Z</time></trkpt><trkpt lat="42.5572867398666" lon="11.88538401238023"><ele>311.2</ele><time>2026-04-11T13:09:47.011Z</time></trkpt><trkpt lat="42.55735040342049" lon="11.885272905917459"><ele>310.8</ele><time>2026-04-11T13:09:49.011Z</time></trkpt><trkpt lat="42.55741714623117" lon="11.885162606168278"><ele>310.4</ele><time>2026-04-11T13:09:51.011Z</time></trkpt><trkpt lat="42.55748931638157" lon="11.885072564850091"><ele>310.0</ele><time>2026-04-11T13:09:53.013Z</time></trkpt><trkpt lat="42.557571051219504" lon="11.884982637548491"><ele>310.0</ele><time>2026-04-11T13:09:55.014Z</time></trkpt><trkpt lat="42.55764946431066" lon="11.884894167752499"><ele>310.0</ele><time>2026-04-11T13:09:57.014Z</time></trkpt><trkpt lat="42.557718311249005" lon="11.884802334762393"><ele>310.0</ele><time>2026-04-11T13:09:59.013Z</time></trkpt><trkpt lat="42.55778928085015" lon="11.884715843293494"><ele>310.0</ele><time>2026-04-11T13:10:01.014Z</time></trkpt><trkpt lat="42.557867889286996" lon="11.884637764168064"><ele>310.0</ele><time>2026-04-11T13:10:03.014Z</time></trkpt><trkpt lat="42.55794172536264" lon="11.884564138379234"><ele>309.8</ele><time>2026-04-11T13:10:05.014Z</time></trkpt><trkpt lat="42.55802017475125" lon="11.884477683358881"><ele>309.6</ele><time>2026-04-11T13:10:07.014Z</time></trkpt><trkpt lat="42.55809703991337" lon="11.884403531503187"><ele>309.4</ele><time>2026-04-11T13:10:09.014Z</time></trkpt><trkpt lat="42.55817436782342" lon="11.884324193862419"><ele>309.2</ele><time>2026-04-11T13:10:11.014Z</time></trkpt><trkpt lat="42.55825008433687" lon="11.884245583262485"><ele>309.0</ele><time>2026-04-11T13:10:13.014Z</time></trkpt><trkpt lat="42.55833188507084" lon="11.88416527223276"><ele>309.0</ele><time>2026-04-11T13:10:15.014Z</time></trkpt><trkpt lat="42.558413924361346" lon="11.884084905717609"><ele>309.0</ele><time>2026-04-11T13:10:17.014Z</time></trkpt><trkpt lat="42.55850354746761" lon="11.884009182627196"><ele>309.0</ele><time>2026-04-11T13:10:19.014Z</time></trkpt><trkpt lat="42.55858834876" lon="11.88392473240399"><ele>309.0</ele><time>2026-04-11T13:10:21.014Z</time></trkpt><trkpt lat="42.55866998524933" lon="11.88384897192219"><ele>309.0</ele><time>2026-04-11T13:10:23.014Z</time></trkpt><trkpt lat="42.558758944227584" lon="11.883761024119853"><ele>308.8</ele><time>2026-04-11T13:10:25.014Z</time></trkpt><trkpt lat="42.55884788868847" lon="11.883681966516104"><ele>308.59999999999997</ele><time>2026-04-11T13:10:27.014Z</time></trkpt><trkpt lat="42.558933836075965" lon="11.883596327370407"><ele>308.4</ele><time>2026-04-11T13:10:29.014Z</time></trkpt><trkpt lat="42.55901641366086" lon="11.883514653000676"><ele>308.2</ele><time>2026-04-11T13:10:31.013Z</time></trkpt><trkpt lat="42.55910664359952" lon="11.883431637676592"><ele>308.0</ele><time>2026-04-11T13:10:33.013Z</time></trkpt><trkpt lat="42.559192679742445" lon="11.88334694537607"><ele>308.4</ele><time>2026-04-11T13:10:35.013Z</time></trkpt><trkpt lat="42.55927666923914" lon="11.883273701789438"><ele>308.8</ele><time>2026-04-11T13:10:37.013Z</time></trkpt><trkpt lat="42.559358582362385" lon="11.883194869769092"><ele>309.2</ele><time>2026-04-11T13:10:39.013Z</time></trkpt><trkpt lat="42.55944022177716" lon="11.883116223554705"><ele>309.6</ele><time>2026-04-11T13:10:41.013Z</time></trkpt><trkpt lat="42.55951581278435" lon="11.88304917994178"><ele>310.0</ele><time>2026-04-11T13:10:43.013Z</time></trkpt><trkpt lat="42.559586348023494" lon="11.88296781851836"><ele>310.0</ele><time>2026-04-11T13:10:45.013Z</time></trkpt><trkpt lat="42.55965689365343" lon="11.882902776931859"><ele>310.0</ele><time>2026-04-11T13:10:47.013Z</time></trkpt><trkpt lat="42.55972930362336" lon="11.882842614334434"><ele>310.0</ele><time>2026-04-11T13:10:49.013Z</time></trkpt><trkpt lat="42.55979614301719" lon="11.882780997759019"><ele>310.0</ele><time>2026-04-11T13:10:51.013Z</time></trkpt><trkpt lat="42.559865901636044" lon="11.882722593676942"><ele>310.0</ele><time>2026-04-11T13:10:53.013Z</time></trkpt><trkpt lat="42.559929503390514" lon="11.882654586953931"><ele>310.0</ele><time>2026-04-11T13:10:55.013Z</time></trkpt><trkpt lat="42.559994650360835" lon="11.882597686938743"><ele>310.16666666666663</ele><time>2026-04-11T13:10:57.013Z</time></trkpt><trkpt lat="42.560059821433555" lon="11.882531387404184"><ele>310.3333333333333</ele><time>2026-04-11T13:10:59.013Z</time></trkpt><trkpt lat="42.5601287698726" lon="11.882470060219585"><ele>310.5</ele><time>2026-04-11T13:11:01.013Z</time></trkpt><trkpt lat="42.560202842535816" lon="11.882408419126167"><ele>310.6666666666667</ele><time>2026-04-11T13:11:03.013Z</time></trkpt><trkpt lat="42.560269987122304" lon="11.882348985718208"><ele>310.83333333333337</ele><time>2026-04-11T13:11:05.013Z</time></trkpt><trkpt lat="42.56033774623842" lon="11.882278975698139"><ele>311.0</ele><time>2026-04-11T13:11:07.013Z</time></trkpt><trkpt lat="42.560407201917535" lon="11.882215982382013"><ele>310.6666666666667</ele><time>2026-04-11T13:11:09.013Z</time></trkpt><trkpt lat="42.56047217068363" lon="11.882159241728793"><ele>310.33333333333337</ele><time>2026-04-11T13:11:11.013Z</time></trkpt><trkpt lat="42.56054401420005" lon="11.882098552530518"><ele>310.0</ele><time>2026-04-11T13:11:13.013Z</time></trkpt><trkpt lat="42.56061062785492" lon="11.882031642687732"><ele>309.6666666666667</ele><time>2026-04-11T13:11:15.013Z</time></trkpt><trkpt lat="42.560680624108805" lon="11.881963472870382"><ele>309.3333333333333</ele><time>2026-04-11T13:11:17.013Z</time></trkpt><trkpt lat="42.56074545706475" lon="11.881897342154183"><ele>309.0</ele><time>2026-04-11T13:11:19.013Z</time></trkpt><trkpt lat="42.56081309796666" lon="11.881833386612493"><ele>309.0</ele><time>2026-04-11T13:11:21.013Z</time></trkpt><trkpt lat="42.560885270947665" lon="11.881771165700318"><ele>309.0</ele><time>2026-04-11T13:11:23.013Z</time></trkpt><trkpt lat="42.56095511121587" lon="11.881706307129413"><ele>309.0</ele><time>2026-04-11T13:11:25.013Z</time></trkpt><trkpt lat="42.56102497488881" lon="11.881649363115601"><ele>309.0</ele><time>2026-04-11T13:11:27.013Z</time></trkpt><trkpt lat="42.56109410867258" lon="11.881582899953502"><ele>309.0</ele><time>2026-04-11T13:11:29.013Z</time></trkpt><trkpt lat="42.5611608359718" lon="11.881517852871005"><ele>309.0</ele><time>2026-04-11T13:11:31.013Z</time></trkpt><trkpt lat="42.561239449079075" lon="11.881456318269885"><ele>309.3333333333333</ele><time>2026-04-11T13:11:33.013Z</time></trkpt><trkpt lat="42.561305508900936" lon="11.881404851098928"><ele>309.6666666666667</ele><time>2026-04-11T13:11:35.013Z</time></trkpt><trkpt lat="42.56136754770438" lon="11.881347056237797"><ele>310.0</ele><time>2026-04-11T13:11:37.013Z</time></trkpt><trkpt lat="42.56143237407685" lon="11.88127509288254"><ele>310.33333333333337</ele><time>2026-04-11T13:11:39.013Z</time></trkpt><trkpt lat="42.561495576019944" lon="11.881208151975207"><ele>310.6666666666667</ele><time>2026-04-11T13:11:41.013Z</time></trkpt><trkpt lat="42.56156645806977" lon="11.881150774744574"><ele>311.0</ele><time>2026-04-11T13:11:43.013Z</time></trkpt><trkpt lat="42.56162442443302" lon="11.881092714704456"><ele>311.0</ele><time>2026-04-11T13:11:45.013Z</time></trkpt><trkpt lat="42.561681048233204" lon="11.881043282514607"><ele>311.0</ele><time>2026-04-11T13:11:47.013Z</time></trkpt><trkpt lat="42.561737842664584" lon="11.880986513541512"><ele>311.0</ele><time>2026-04-11T13:11:49.013Z</time></trkpt><trkpt lat="42.561796006644336" lon="11.880940819807217"><ele>311.0</ele><time>2026-04-11T13:11:51.013Z</time></trkpt><trkpt lat="42.56184920477772" lon="11.880888666842003"><ele>311.0</ele><time>2026-04-11T13:11:53.013Z</time></trkpt><trkpt lat="42.56190391828916" lon="11.880838801251507"><ele>311.0</ele><time>2026-04-11T13:11:55.013Z</time></trkpt><trkpt lat="42.56195654931695" lon="11.880788683666902"><ele>311.0</ele><time>2026-04-11T13:11:57.013Z</time></trkpt><trkpt lat="42.56202745909696" lon="11.880727160118866"><ele>312.0</ele><time>2026-04-11T13:12:00.015Z</time></trkpt><trkpt lat="42.562095089188894" lon="11.880655458923597"><ele>313.0</ele><time>2026-04-11T13:12:03.015Z</time></trkpt><trkpt lat="42.56216211511372" lon="11.880599894329757"><ele>314.0</ele><time>2026-04-11T13:12:06.015Z</time></trkpt><trkpt lat="42.562228739588996" lon="11.880538239577215"><ele>315.0</ele><time>2026-04-11T13:12:09.015Z</time></trkpt><trkpt lat="42.562290714684366" lon="11.880480799972583"><ele>316.0</ele><time>2026-04-11T13:12:12.015Z</time></trkpt><trkpt lat="42.562349417335895" lon="11.880426315368403"><ele>317.0</ele><time>2026-04-11T13:12:15.015Z</time></trkpt><trkpt lat="42.5624049837857" lon="11.880369869536665"><ele>317.0</ele><time>2026-04-11T13:12:18.015Z</time></trkpt><trkpt lat="42.562464167962546" lon="11.880318769079338"><ele>317.0</ele><time>2026-04-11T13:12:21.015Z</time></trkpt><trkpt lat="42.56251726387126" lon="11.880261873948225"><ele>317.0</ele><time>2026-04-11T13:12:24.015Z</time></trkpt><trkpt lat="42.5625780293356" lon="11.880214719981502"><ele>317.0</ele><time>2026-04-11T13:12:27.015Z</time></trkpt><trkpt lat="42.56263127021786" lon="11.880155235613367"><ele>317.0</ele><time>2026-04-11T13:12:30.015Z</time></trkpt><trkpt lat="42.56269601654881" lon="11.88010065848292"><ele>317.0</ele><time>2026-04-11T13:12:33.015Z</time></trkpt><trkpt lat="42.5627606340577" lon="11.88005620972448"><ele>317.0</ele><time>2026-04-11T13:12:36.015Z</time></trkpt><trkpt lat="42.56281753400762" lon="11.879992643250588"><ele>317.57142857142856</ele><time>2026-04-11T13:12:39.015Z</time></trkpt><trkpt lat="42.56287056229603" lon="11.879943546747503"><ele>318.1428571428571</ele><time>2026-04-11T13:12:42.015Z</time></trkpt><trkpt lat="42.56292911806668" lon="11.879896891519426"><ele>318.71428571428567</ele><time>2026-04-11T13:12:45.015Z</time></trkpt><trkpt lat="42.56298183024181" lon="11.879839475566941"><ele>319.2857142857143</ele><time>2026-04-11T13:12:48.015Z</time></trkpt><trkpt lat="42.563040109811446" lon="11.879790339715086"><ele>319.85714285714283</ele><time>2026-04-11T13:12:51.015Z</time></trkpt><trkpt lat="42.563101737489085" lon="11.879740575579628"><ele>320.4285714285714</ele><time>2026-04-11T13:12:54.015Z</time></trkpt><trkpt lat="42.56316925500323" lon="11.879676419979864"><ele>321.0</ele><time>2026-04-11T13:12:58.015Z</time></trkpt><trkpt lat="42.56322392676928" lon="11.879622871000992"><ele>320.99999999999994</ele><time>2026-04-11T13:13:01.015Z</time></trkpt><trkpt lat="42.56327671901309" lon="11.879569846958622"><ele>321.0</ele><time>2026-04-11T13:13:04.015Z</time></trkpt><trkpt lat="42.56333257672097" lon="11.87952073290056"><ele>321.0</ele><time>2026-04-11T13:13:07.015Z</time></trkpt><trkpt lat="42.56338482143049" lon="11.879468671803117"><ele>321.0</ele><time>2026-04-11T13:13:10.015Z</time></trkpt><trkpt lat="42.56345546957254" lon="11.879406600635763"><ele>321.0</ele><time>2026-04-11T13:13:14.015Z</time></trkpt><trkpt lat="42.563528633106564" lon="11.879343829818637"><ele>320.99999999999994</ele><time>2026-04-11T13:13:18.014Z</time></trkpt><trkpt lat="42.5635850724291" lon="11.879294601534149"><ele>321.0</ele><time>2026-04-11T13:13:21.014Z</time></trkpt><trkpt lat="42.563654549113295" lon="11.879236885180909"><ele>321.85714285714283</ele><time>2026-04-11T13:13:25.014Z</time></trkpt><trkpt lat="42.56370468425826" lon="11.879178995073378"><ele>322.7142857142857</ele><time>2026-04-11T13:13:28.014Z</time></trkpt><trkpt lat="42.56376186641185" lon="11.879136287381524"><ele>323.57142857142856</ele><time>2026-04-11T13:13:31.014Z</time></trkpt><trkpt lat="42.56382620760303" lon="11.879076272526966"><ele>324.42857142857144</ele><time>2026-04-11T13:13:35.014Z</time></trkpt><trkpt lat="42.56389668624514" lon="11.879020124997588"><ele>325.2857142857143</ele><time>2026-04-11T13:13:39.014Z</time></trkpt><trkpt lat="42.56395155595577" lon="11.87896251838888"><ele>326.1428571428571</ele><time>2026-04-11T13:13:42.014Z</time></trkpt><trkpt lat="42.564009825291556" lon="11.878917012215785"><ele>327.0</ele><time>2026-04-11T13:13:45.014Z</time></trkpt><trkpt lat="42.56406725313687" lon="11.87886328432428"><ele>327.0</ele><time>2026-04-11T13:13:48.014Z</time></trkpt><trkpt lat="42.56412411589159" lon="11.87880847304809"><ele>327.0</ele><time>2026-04-11T13:13:51.014Z</time></trkpt><trkpt lat="42.56418043067033" lon="11.87875246860408"><ele>327.0</ele><time>2026-04-11T13:13:54.014Z</time></trkpt><trkpt lat="42.56423913116741" lon="11.878698016425185"><ele>327.0</ele><time>2026-04-11T13:13:57.014Z</time></trkpt><trkpt lat="42.56430933479364" lon="11.878624511867502"><ele>327.0</ele><time>2026-04-11T13:14:01.014Z</time></trkpt><trkpt lat="42.56436476250344" lon="11.878574970013757"><ele>327.0</ele><time>2026-04-11T13:14:04.016Z</time></trkpt><trkpt lat="42.564421935776465" lon="11.878518624216879"><ele>327.0</ele><time>2026-04-11T13:14:07.016Z</time></trkpt><trkpt lat="42.564476721697154" lon="11.878462257237313"><ele>327.2857142857143</ele><time>2026-04-11T13:14:10.017Z</time></trkpt><trkpt lat="42.56454098925958" lon="11.878392801532689"><ele>327.57142857142856</ele><time>2026-04-11T13:14:14.017Z</time></trkpt><trkpt lat="42.56459004559215" lon="11.878330633640756"><ele>327.8571428571429</ele><time>2026-04-11T13:14:17.017Z</time></trkpt><trkpt lat="42.564645221225405" lon="11.878274914083514"><ele>328.1428571428571</ele><time>2026-04-11T13:14:20.017Z</time></trkpt><trkpt lat="42.56469331919806" lon="11.878214062188661"><ele>328.42857142857144</ele><time>2026-04-11T13:14:23.017Z</time></trkpt><trkpt lat="42.56473774930388" lon="11.878147810589816"><ele>328.7142857142857</ele><time>2026-04-11T13:14:26.017Z</time></trkpt><trkpt lat="42.56478352847622" lon="11.878080079949997"><ele>329.0</ele><time>2026-04-11T13:14:29.017Z</time></trkpt><trkpt lat="42.56482564845698" lon="11.87801284524589"><ele>329.0</ele><time>2026-04-11T13:14:32.016Z</time></trkpt><trkpt lat="42.56487472783178" lon="11.877945363057858"><ele>329.0</ele><time>2026-04-11T13:14:35.016Z</time></trkpt><trkpt lat="42.5649127162035" lon="11.877862219392965"><ele>329.0</ele><time>2026-04-11T13:14:38.016Z</time></trkpt><trkpt lat="42.56496398921191" lon="11.877786135345621"><ele>329.0</ele><time>2026-04-11T13:14:41.016Z</time></trkpt><trkpt lat="42.56501523060159" lon="11.877701762176276"><ele>329.0</ele><time>2026-04-11T13:14:44.016Z</time></trkpt><trkpt lat="42.56506441727109" lon="11.877617278471927"><ele>329.0</ele><time>2026-04-11T13:14:47.016Z</time></trkpt><trkpt lat="42.56510985973666" lon="11.877533047960107"><ele>329.33333333333337</ele><time>2026-04-11T13:14:50.016Z</time></trkpt><trkpt lat="42.56515850958514" lon="11.877450738811751"><ele>329.6666666666667</ele><time>2026-04-11T13:14:53.016Z</time></trkpt><trkpt lat="42.565202879853395" lon="11.877358708750842"><ele>330.0</ele><time>2026-04-11T13:14:56.016Z</time></trkpt><trkpt lat="42.56524025920277" lon="11.877279987076898"><ele>330.3333333333333</ele><time>2026-04-11T13:14:59.016Z</time></trkpt><trkpt lat="42.56529245501145" lon="11.877192813373236"><ele>330.66666666666663</ele><time>2026-04-11T13:15:02.016Z</time></trkpt><trkpt lat="42.56533424280521" lon="11.877103328813043"><ele>331.0</ele><time>2026-04-11T13:15:05.016Z</time></trkpt><trkpt lat="42.56537342529358" lon="11.877021623735773"><ele>331.16666666666663</ele><time>2026-04-11T13:15:08.016Z</time></trkpt><trkpt lat="42.56542760135051" lon="11.876930301399819"><ele>331.3333333333333</ele><time>2026-04-11T13:15:11.016Z</time></trkpt><trkpt lat="42.565471480467465" lon="11.876833375343583"><ele>331.5</ele><time>2026-04-11T13:15:14.016Z</time></trkpt><trkpt lat="42.565522737951895" lon="11.87674395443326"><ele>331.6666666666667</ele><time>2026-04-11T13:15:17.016Z</time></trkpt><trkpt lat="42.565575741213905" lon="11.876648828982969"><ele>331.83333333333337</ele><time>2026-04-11T13:15:20.016Z</time></trkpt><trkpt lat="42.56562114672227" lon="11.876549730376631"><ele>332.0</ele><time>2026-04-11T13:15:23.016Z</time></trkpt><trkpt lat="42.56567247724684" lon="11.876450310322399"><ele>332.0</ele><time>2026-04-11T13:15:26.016Z</time></trkpt><trkpt lat="42.56572864292721" lon="11.876349948011422"><ele>332.0</ele><time>2026-04-11T13:15:29.016Z</time></trkpt><trkpt lat="42.565767989390736" lon="11.876282918981982"><ele>332.0</ele><time>2026-04-11T13:15:31.016Z</time></trkpt><trkpt lat="42.56582175459958" lon="11.876192722736587"><ele>332.0</ele><time>2026-04-11T13:15:34.016Z</time></trkpt><trkpt lat="42.56585894313064" lon="11.876117763703617"><ele>332.0</ele><time>2026-04-11T13:15:36.016Z</time></trkpt><trkpt lat="42.56589424889728" lon="11.876043876011035"><ele>332.0</ele><time>2026-04-11T13:15:38.016Z</time></trkpt><trkpt lat="42.5659221401956" lon="11.87596717548977"><ele>332.0</ele><time>2026-04-11T13:15:40.016Z</time></trkpt><trkpt lat="42.56597852576903" lon="11.875869591591732"><ele>331.85714285714283</ele><time>2026-04-11T13:15:43.016Z</time></trkpt><trkpt lat="42.566021500298966" lon="11.875793853454711"><ele>331.7142857142857</ele><time>2026-04-11T13:15:45.016Z</time></trkpt><trkpt lat="42.56605583345526" lon="11.875716554509316"><ele>331.57142857142856</ele><time>2026-04-11T13:15:47.016Z</time></trkpt><trkpt lat="42.56609728572237" lon="11.875641119844397"><ele>331.42857142857144</ele><time>2026-04-11T13:15:49.016Z</time></trkpt><trkpt lat="42.5661432304605" lon="11.875556583703688"><ele>331.2857142857143</ele><time>2026-04-11T13:15:51.016Z</time></trkpt><trkpt lat="42.566190282440395" lon="11.875473131893783"><ele>331.14285714285717</ele><time>2026-04-11T13:15:53.016Z</time></trkpt><trkpt lat="42.5662286170042" lon="11.875381805642967"><ele>331.0</ele><time>2026-04-11T13:15:55.016Z</time></trkpt><trkpt lat="42.56628232909727" lon="11.875298818416814"><ele>330.66666666666663</ele><time>2026-04-11T13:15:57.016Z</time></trkpt><trkpt lat="42.56632520590586" lon="11.875206616628983"><ele>330.3333333333333</ele><time>2026-04-11T13:15:59.016Z</time></trkpt><trkpt lat="42.56637016458109" lon="11.87512132644361"><ele>330.0</ele><time>2026-04-11T13:16:01.016Z</time></trkpt><trkpt lat="42.566425149219484" lon="11.875031342349178"><ele>329.6666666666667</ele><time>2026-04-11T13:16:03.016Z</time></trkpt><trkpt lat="42.56647012050247" lon="11.87493416078058"><ele>329.33333333333337</ele><time>2026-04-11T13:16:05.016Z</time></trkpt><trkpt lat="42.56652025347296" lon="11.874843107532206"><ele>329.0</ele><time>2026-04-11T13:16:07.015Z</time></trkpt><trkpt lat="42.56656698227112" lon="11.874752063702507"><ele>329.0</ele><time>2026-04-11T13:16:09.015Z</time></trkpt><trkpt lat="42.56661769027774" lon="11.874666480084601"><ele>329.0</ele><time>2026-04-11T13:16:11.018Z</time></trkpt><trkpt lat="42.56665161251411" lon="11.874594297658334"><ele>329.0</ele><time>2026-04-11T13:16:13.018Z</time></trkpt><trkpt lat="42.56669621723399" lon="11.874527710537748"><ele>329.0</ele><time>2026-04-11T13:16:15.018Z</time></trkpt><trkpt lat="42.56674382162751" lon="11.874420310496179"><ele>329.0</ele><time>2026-04-11T13:16:18.017Z</time></trkpt><trkpt lat="42.566784515343464" lon="11.874333526309982"><ele>329.0</ele><time>2026-04-11T13:16:20.018Z</time></trkpt><trkpt lat="42.5668330923909" lon="11.874250126549763"><ele>328.79999999999995</ele><time>2026-04-11T13:16:22.018Z</time></trkpt><trkpt lat="42.56687888568332" lon="11.874152961439517"><ele>328.59999999999997</ele><time>2026-04-11T13:16:24.018Z</time></trkpt><trkpt lat="42.56692565792447" lon="11.874052539792029"><ele>328.4</ele><time>2026-04-11T13:16:26.018Z</time></trkpt><trkpt lat="42.56696812896372" lon="11.873946488654237"><ele>328.2</ele><time>2026-04-11T13:16:28.017Z</time></trkpt><trkpt lat="42.56702244513631" lon="11.873840761421542"><ele>328.0</ele><time>2026-04-11T13:16:30.017Z</time></trkpt><trkpt lat="42.56706957900342" lon="11.873730385146612"><ele>328.0</ele><time>2026-04-11T13:16:32.017Z</time></trkpt><trkpt lat="42.567112156072646" lon="11.873638156807912"><ele>328.0</ele><time>2026-04-11T13:16:34.017Z</time></trkpt><trkpt lat="42.56717611286221" lon="11.873571205608053"><ele>328.0</ele><time>2026-04-11T13:16:36.017Z</time></trkpt><trkpt lat="42.56724711243305" lon="11.873507357821754"><ele>328.0</ele><time>2026-04-11T13:16:38.017Z</time></trkpt><trkpt lat="42.567310135213596" lon="11.87344589742154"><ele>328.0</ele><time>2026-04-11T13:16:40.017Z</time></trkpt><trkpt lat="42.567381951123636" lon="11.873375013486887"><ele>328.0</ele><time>2026-04-11T13:16:42.017Z</time></trkpt><trkpt lat="42.56744802268846" lon="11.873313358737162"><ele>328.5</ele><time>2026-04-11T13:16:44.017Z</time></trkpt><trkpt lat="42.56750386623987" lon="11.87324739937208"><ele>329.0</ele><time>2026-04-11T13:16:46.017Z</time></trkpt><trkpt lat="42.56756764484735" lon="11.873182968447354"><ele>329.5</ele><time>2026-04-11T13:16:48.017Z</time></trkpt><trkpt lat="42.56762400362268" lon="11.873125961479177"><ele>330.0</ele><time>2026-04-11T13:16:50.017Z</time></trkpt><trkpt lat="42.56768273195613" lon="11.873072149859949"><ele>330.5</ele><time>2026-04-11T13:16:52.017Z</time></trkpt><trkpt lat="42.56774092591293" lon="11.8730112781602"><ele>331.0</ele><time>2026-04-11T13:16:54.017Z</time></trkpt><trkpt lat="42.567809374781305" lon="11.872939694254487"><ele>331.16666666666663</ele><time>2026-04-11T13:16:56.017Z</time></trkpt><trkpt lat="42.567876366981416" lon="11.872874805033025"><ele>331.3333333333333</ele><time>2026-04-11T13:16:58.017Z</time></trkpt><trkpt lat="42.567953931926915" lon="11.87280879325703"><ele>331.5</ele><time>2026-04-11T13:17:00.017Z</time></trkpt><trkpt lat="42.56801743041051" lon="11.872743290519049"><ele>331.6666666666667</ele><time>2026-04-11T13:17:02.017Z</time></trkpt><trkpt lat="42.56808234653082" lon="11.872679939264634"><ele>331.83333333333337</ele><time>2026-04-11T13:17:04.017Z</time></trkpt><trkpt lat="42.56814654180708" lon="11.872609706582535"><ele>332.0</ele><time>2026-04-11T13:17:06.017Z</time></trkpt><trkpt lat="42.568214798567084" lon="11.872552949520932"><ele>332.0</ele><time>2026-04-11T13:17:08.017Z</time></trkpt><trkpt lat="42.568279213116995" lon="11.872495513156233"><ele>332.0</ele><time>2026-04-11T13:17:10.017Z</time></trkpt><trkpt lat="42.568340266000426" lon="11.872429798193954"><ele>332.0</ele><time>2026-04-11T13:17:12.017Z</time></trkpt><trkpt lat="42.56840330821316" lon="11.872366018034356"><ele>332.0</ele><time>2026-04-11T13:17:14.017Z</time></trkpt><trkpt lat="42.56846876086398" lon="11.872300144451005"><ele>332.0</ele><time>2026-04-11T13:17:16.017Z</time></trkpt><trkpt lat="42.56853821403964" lon="11.872241104367456"><ele>332.0</ele><time>2026-04-11T13:17:18.017Z</time></trkpt><trkpt lat="42.56860240956339" lon="11.872180939186642"><ele>332.0</ele><time>2026-04-11T13:17:20.017Z</time></trkpt><trkpt lat="42.568664098009656" lon="11.87211970284713"><ele>332.0</ele><time>2026-04-11T13:17:22.017Z</time></trkpt><trkpt lat="42.56871784429241" lon="11.872065796082081"><ele>332.0</ele><time>2026-04-11T13:17:24.017Z</time></trkpt><trkpt lat="42.568779445755595" lon="11.872009446516095"><ele>332.0</ele><time>2026-04-11T13:17:26.017Z</time></trkpt><trkpt lat="42.568842094620656" lon="11.87194925516446"><ele>332.0</ele><time>2026-04-11T13:17:28.017Z</time></trkpt><trkpt lat="42.56891480530495" lon="11.871914118664476"><ele>332.0</ele><time>2026-04-11T13:17:30.017Z</time></trkpt><trkpt lat="42.56896156299455" lon="11.871847986998937"><ele>332.0</ele><time>2026-04-11T13:17:32.017Z</time></trkpt><trkpt lat="42.569020518669" lon="11.871787948127778"><ele>332.4285714285714</ele><time>2026-04-11T13:17:34.017Z</time></trkpt><trkpt lat="42.56907434353249" lon="11.871731591119412"><ele>332.8571428571429</ele><time>2026-04-11T13:17:36.017Z</time></trkpt><trkpt lat="42.5691284113758" lon="11.871680505165093"><ele>333.2857142857143</ele><time>2026-04-11T13:17:38.017Z</time></trkpt><trkpt lat="42.56917883927188" lon="11.871624167029522"><ele>333.71428571428567</ele><time>2026-04-11T13:17:40.017Z</time></trkpt><trkpt lat="42.56923251354352" lon="11.871570515484997"><ele>334.1428571428571</ele><time>2026-04-11T13:17:42.017Z</time></trkpt><trkpt lat="42.569285544638056" lon="11.87152064111039"><ele>334.57142857142856</ele><time>2026-04-11T13:17:44.017Z</time></trkpt><trkpt lat="42.56933574652298" lon="11.871461184546892"><ele>335.0</ele><time>2026-04-11T13:17:46.017Z</time></trkpt><trkpt lat="42.56938614851004" lon="11.87140963559691"><ele>335.0</ele><time>2026-04-11T13:17:48.017Z</time></trkpt><trkpt lat="42.5694570675921" lon="11.871342655396148"><ele>335.0</ele><time>2026-04-11T13:17:51.017Z</time></trkpt><trkpt lat="42.56952478513085" lon="11.871272601766906"><ele>335.0</ele><time>2026-04-11T13:17:54.017Z</time></trkpt><trkpt lat="42.569581724642724" lon="11.87119795588481"><ele>335.0</ele><time>2026-04-11T13:17:57.017Z</time></trkpt><trkpt lat="42.56964424381421" lon="11.871138425728802"><ele>335.0</ele><time>2026-04-11T13:18:00.017Z</time></trkpt><trkpt lat="42.56971530637368" lon="11.871068527724157"><ele>335.0</ele><time>2026-04-11T13:18:03.016Z</time></trkpt><trkpt lat="42.569780617918695" lon="11.871003454325763"><ele>335.57142857142856</ele><time>2026-04-11T13:18:06.016Z</time></trkpt><trkpt lat="42.56984318507409" lon="11.8709492053492"><ele>336.1428571428571</ele><time>2026-04-11T13:18:09.016Z</time></trkpt><trkpt lat="42.56990097020546" lon="11.870901193941041"><ele>336.71428571428567</ele><time>2026-04-11T13:18:12.016Z</time></trkpt><trkpt lat="42.56995573437046" lon="11.87084012717468"><ele>337.2857142857143</ele><time>2026-04-11T13:18:15.019Z</time></trkpt><trkpt lat="42.570017539360535" lon="11.870768714022372"><ele>337.8571428571429</ele><time>2026-04-11T13:18:19.019Z</time></trkpt><trkpt lat="42.57007125647852" lon="11.870712850548507"><ele>338.4285714285714</ele><time>2026-04-11T13:18:22.019Z</time></trkpt><trkpt lat="42.570125166754444" lon="11.870660520345039"><ele>339.0</ele><time>2026-04-11T13:18:25.019Z</time></trkpt><trkpt lat="42.57018539846088" lon="11.870612017727613"><ele>339.0</ele><time>2026-04-11T13:18:29.019Z</time></trkpt><trkpt lat="42.57024516895725" lon="11.870571414630627"><ele>339.0</ele><time>2026-04-11T13:18:33.019Z</time></trkpt><trkpt lat="42.570305451095045" lon="11.870539613706056"><ele>339.0</ele><time>2026-04-11T13:18:37.019Z</time></trkpt><trkpt lat="42.57037339900702" lon="11.8704914464366"><ele>339.0</ele><time>2026-04-11T13:18:42.019Z</time></trkpt><trkpt lat="42.57044392783808" lon="11.870455228501747"><ele>339.0</ele><time>2026-04-11T13:18:47.019Z</time></trkpt><trkpt lat="42.57051916950841" lon="11.87042878832897"><ele>339.0</ele><time>2026-04-11T13:18:52.019Z</time></trkpt><trkpt lat="42.57057802437532" lon="11.87038581368005"><ele>339.0</ele><time>2026-04-11T13:18:57.019Z</time></trkpt><trkpt lat="42.57063919716166" lon="11.870361907341083"><ele>340.0</ele><time>2026-04-11T13:19:01.019Z</time></trkpt><trkpt lat="42.570702948047646" lon="11.870340866777813"><ele>341.0</ele><time>2026-04-11T13:19:05.019Z</time></trkpt><trkpt lat="42.570766122173346" lon="11.870321212936654"><ele>342.0</ele><time>2026-04-11T13:19:09.019Z</time></trkpt><trkpt lat="42.57083741736107" lon="11.870301206978008"><ele>343.0</ele><time>2026-04-11T13:19:13.019Z</time></trkpt><trkpt lat="42.57090842236163" lon="11.870283658567482"><ele>344.0</ele><time>2026-04-11T13:19:17.019Z</time></trkpt><trkpt lat="42.57098260690739" lon="11.870277104283746"><ele>345.0</ele><time>2026-04-11T13:19:21.019Z</time></trkpt><trkpt lat="42.57104440180985" lon="11.870254631678652"><ele>346.0</ele><time>2026-04-11T13:19:25.019Z</time></trkpt><trkpt lat="42.57111409635021" lon="11.870242310835897"><ele>346.0</ele><time>2026-04-11T13:19:29.019Z</time></trkpt><trkpt lat="42.571182624973055" lon="11.870224863542601"><ele>346.0</ele><time>2026-04-11T13:19:33.019Z</time></trkpt><trkpt lat="42.571254077329115" lon="11.870204990382227"><ele>346.0</ele><time>2026-04-11T13:19:37.019Z</time></trkpt><trkpt lat="42.57133395019207" lon="11.870198727704873"><ele>346.0</ele><time>2026-04-11T13:19:42.019Z</time></trkpt><trkpt lat="42.57139287646948" lon="11.870153729677124"><ele>346.0</ele><time>2026-04-11T13:19:46.019Z</time></trkpt><trkpt lat="42.571470886580606" lon="11.870146184200998"><ele>346.0</ele><time>2026-04-11T13:19:50.018Z</time></trkpt><trkpt lat="42.571537522975994" lon="11.870136673836537"><ele>346.0</ele><time>2026-04-11T13:19:53.018Z</time></trkpt><trkpt lat="42.57161110431676" lon="11.870107970343081"><ele>346.7142857142857</ele><time>2026-04-11T13:19:57.018Z</time></trkpt><trkpt lat="42.57167520093751" lon="11.870065288933686"><ele>347.42857142857144</ele><time>2026-04-11T13:20:01.018Z</time></trkpt><trkpt lat="42.57174023453365" lon="11.87003153524442"><ele>348.14285714285717</ele><time>2026-04-11T13:20:04.018Z</time></trkpt><trkpt lat="42.57180702547211" lon="11.870001826358232"><ele>348.8571428571429</ele><time>2026-04-11T13:20:07.018Z</time></trkpt><trkpt lat="42.571877139494966" lon="11.86997792397418"><ele>349.57142857142856</ele><time>2026-04-11T13:20:10.018Z</time></trkpt><trkpt lat="42.57194389104252" lon="11.86994116283268"><ele>350.28571428571433</ele><time>2026-04-11T13:20:13.018Z</time></trkpt><trkpt lat="42.57203091984597" lon="11.869901642741997"><ele>351.0</ele><time>2026-04-11T13:20:16.018Z</time></trkpt><trkpt lat="42.57209892027844" lon="11.869863950249593"><ele>351.0</ele><time>2026-04-11T13:20:18.018Z</time></trkpt><trkpt lat="42.57218719891198" lon="11.869828690898741"><ele>351.0</ele><time>2026-04-11T13:20:20.02Z</time></trkpt><trkpt lat="42.572293576587406" lon="11.869762772047668"><ele>351.0</ele><time>2026-04-11T13:20:22.021Z</time></trkpt><trkpt lat="42.57241914281642" lon="11.86968850128406"><ele>351.0</ele><time>2026-04-11T13:20:24.02Z</time></trkpt><trkpt lat="42.57249144317015" lon="11.869649656261393"><ele>351.0</ele><time>2026-04-11T13:20:25.02Z</time></trkpt><trkpt lat="42.57256645422725" lon="11.869603934850115"><ele>351.0</ele><time>2026-04-11T13:20:26.02Z</time></trkpt><trkpt lat="42.5726452820196" lon="11.869553456140896"><ele>351.0</ele><time>2026-04-11T13:20:27.021Z</time></trkpt><trkpt lat="42.57273088481027" lon="11.869496093724647"><ele>351.0</ele><time>2026-04-11T13:20:28.021Z</time></trkpt><trkpt lat="42.572819998487816" lon="11.869446305368475"><ele>351.0</ele><time>2026-04-11T13:20:29.02Z</time></trkpt><trkpt lat="42.572925024418545" lon="11.869383852576817"><ele>351.0</ele><time>2026-04-11T13:20:30.02Z</time></trkpt><trkpt lat="42.57302298688294" lon="11.869323346449086"><ele>347.0</ele><time>2026-04-11T13:20:31.02Z</time></trkpt><trkpt lat="42.57312485925805" lon="11.869254747633944"><ele>343.0</ele><time>2026-04-11T13:20:32.02Z</time></trkpt><trkpt lat="42.573230295894156" lon="11.86919056643188"><ele>339.0</ele><time>2026-04-11T13:20:33.02Z</time></trkpt><trkpt lat="42.57333150938006" lon="11.869128374460193"><ele>335.0</ele><time>2026-04-11T13:20:34.02Z</time></trkpt><trkpt lat="42.57343524958777" lon="11.869063538072082"><ele>335.0</ele><time>2026-04-11T13:20:35.02Z</time></trkpt><trkpt lat="42.57354801771285" lon="11.868994706388992"><ele>335.0</ele><time>2026-04-11T13:20:36.02Z</time></trkpt><trkpt lat="42.57366440901135" lon="11.868921830537987"><ele>335.0</ele><time>2026-04-11T13:20:37.02Z</time></trkpt><trkpt lat="42.573789375909556" lon="11.868843497519032"><ele>335.0</ele><time>2026-04-11T13:20:38.02Z</time></trkpt><trkpt lat="42.573927237006345" lon="11.868761747125161"><ele>333.0</ele><time>2026-04-11T13:20:39.02Z</time></trkpt><trkpt lat="42.574067522186645" lon="11.868671198247021"><ele>331.0</ele><time>2026-04-11T13:20:40.02Z</time></trkpt><trkpt lat="42.574211402632194" lon="11.868582370740524"><ele>329.0</ele><time>2026-04-11T13:20:41.02Z</time></trkpt><trkpt lat="42.57434920286231" lon="11.86849487231445"><ele>326.33333333333337</ele><time>2026-04-11T13:20:42.02Z</time></trkpt><trkpt lat="42.57448712205188" lon="11.868405548641922"><ele>323.6666666666667</ele><time>2026-04-11T13:20:43.02Z</time></trkpt><trkpt lat="42.574621927852746" lon="11.868315628026235"><ele>321.0</ele><time>2026-04-11T13:20:44.02Z</time></trkpt><trkpt lat="42.57476378273117" lon="11.86823374470513"><ele>319.75</ele><time>2026-04-11T13:20:45.02Z</time></trkpt><trkpt lat="42.57490102418256" lon="11.868154136977006"><ele>318.5</ele><time>2026-04-11T13:20:46.02Z</time></trkpt><trkpt lat="42.575025274447455" lon="11.868071935691257"><ele>317.25</ele><time>2026-04-11T13:20:47.02Z</time></trkpt><trkpt lat="42.57514842719912" lon="11.867994044674834"><ele>316.0</ele><time>2026-04-11T13:20:48.02Z</time></trkpt><trkpt lat="42.575271814850886" lon="11.86792327518316"><ele>314.5</ele><time>2026-04-11T13:20:49.02Z</time></trkpt><trkpt lat="42.575386465156285" lon="11.867850013488239"><ele>313.0</ele><time>2026-04-11T13:20:50.02Z</time></trkpt><trkpt lat="42.57550359606532" lon="11.867782524223195"><ele>311.5</ele><time>2026-04-11T13:20:51.02Z</time></trkpt><trkpt lat="42.575605951400874" lon="11.86771152988527"><ele>310.0</ele><time>2026-04-11T13:20:52.02Z</time></trkpt><trkpt lat="42.57571160416576" lon="11.867640190282573"><ele>310.2</ele><time>2026-04-11T13:20:53.02Z</time></trkpt><trkpt lat="42.57581564341161" lon="11.867578231672919"><ele>310.4</ele><time>2026-04-11T13:20:54.02Z</time></trkpt><trkpt lat="42.575913647705704" lon="11.867526233275273"><ele>310.6</ele><time>2026-04-11T13:20:55.02Z</time></trkpt><trkpt lat="42.576006005996" lon="11.867462248387621"><ele>310.8</ele><time>2026-04-11T13:20:56.02Z</time></trkpt><trkpt lat="42.57609868858497" lon="11.867401712758902"><ele>311.0</ele><time>2026-04-11T13:20:57.02Z</time></trkpt><trkpt lat="42.57618741989317" lon="11.86734517263173"><ele>310.40000000000003</ele><time>2026-04-11T13:20:58.02Z</time></trkpt><trkpt lat="42.57627629120769" lon="11.867290884405433"><ele>309.8</ele><time>2026-04-11T13:20:59.02Z</time></trkpt><trkpt lat="42.5763602975857" lon="11.86723395254197"><ele>309.20000000000005</ele><time>2026-04-11T13:21:00.02Z</time></trkpt><trkpt lat="42.5764437426833" lon="11.867183426763637"><ele>308.6</ele><time>2026-04-11T13:21:01.02Z</time></trkpt><trkpt lat="42.576523852325636" lon="11.867129528271551"><ele>308.0</ele><time>2026-04-11T13:21:02.02Z</time></trkpt><trkpt lat="42.57659814703023" lon="11.867079350150062"><ele>308.0</ele><time>2026-04-11T13:21:03.02Z</time></trkpt><trkpt lat="42.57667106120667" lon="11.867027843696007"><ele>308.0</ele><time>2026-04-11T13:21:04.02Z</time></trkpt><trkpt lat="42.57674695594704" lon="11.86697827644149"><ele>308.0</ele><time>2026-04-11T13:21:05.02Z</time></trkpt><trkpt lat="42.5768189230682" lon="11.866934464629676"><ele>308.0</ele><time>2026-04-11T13:21:06.02Z</time></trkpt><trkpt lat="42.57688467616857" lon="11.866886943666149"><ele>308.0</ele><time>2026-04-11T13:21:07.02Z</time></trkpt><trkpt lat="42.576958651590154" lon="11.866838012241505"><ele>308.0</ele><time>2026-04-11T13:21:08.02Z</time></trkpt><trkpt lat="42.57702550349489" lon="11.866795391676485"><ele>307.83333333333337</ele><time>2026-04-11T13:21:09.02Z</time></trkpt><trkpt lat="42.57709540456282" lon="11.86675797312191"><ele>307.6666666666667</ele><time>2026-04-11T13:21:10.02Z</time></trkpt><trkpt lat="42.577168690813785" lon="11.866731687264517"><ele>307.5</ele><time>2026-04-11T13:21:11.02Z</time></trkpt><trkpt lat="42.57729138760008" lon="11.866736456613802"><ele>307.3333333333333</ele><time>2026-04-11T13:21:13.02Z</time></trkpt><trkpt lat="42.577351352095064" lon="11.866786581627204"><ele>307.16666666666663</ele><time>2026-04-11T13:21:14.02Z</time></trkpt><trkpt lat="42.577401389720265" lon="11.866859399729421"><ele>307.0</ele><time>2026-04-11T13:21:15.02Z</time></trkpt><trkpt lat="42.577443913227135" lon="11.866948460078993"><ele>306.8333333333333</ele><time>2026-04-11T13:21:16.02Z</time></trkpt><trkpt lat="42.577481330240225" lon="11.867038341616636"><ele>306.66666666666663</ele><time>2026-04-11T13:21:17.02Z</time></trkpt><trkpt lat="42.577551377583006" lon="11.867168943447687"><ele>306.5</ele><time>2026-04-11T13:21:19.02Z</time></trkpt><trkpt lat="42.57763215517779" lon="11.86729901310393"><ele>306.3333333333333</ele><time>2026-04-11T13:21:21.02Z</time></trkpt><trkpt lat="42.57766728982558" lon="11.867370216050334"><ele>306.1666666666667</ele><time>2026-04-11T13:21:22.02Z</time></trkpt><trkpt lat="42.57770632508746" lon="11.867438607590515"><ele>306.0</ele><time>2026-04-11T13:21:23.02Z</time></trkpt><trkpt lat="42.57777957996517" lon="11.867541158370319"><ele>306.0</ele><time>2026-04-11T13:21:25.02Z</time></trkpt><trkpt lat="42.577851033029155" lon="11.867654300876202"><ele>306.0</ele><time>2026-04-11T13:21:27.02Z</time></trkpt><trkpt lat="42.577930258727" lon="11.867763792861988"><ele>306.0</ele><time>2026-04-11T13:21:29.02Z</time></trkpt><trkpt lat="42.57800398299556" lon="11.867857796434887"><ele>306.0</ele><time>2026-04-11T13:21:31.019Z</time></trkpt><trkpt lat="42.578100833401" lon="11.867912774965886"><ele>306.0</ele><time>2026-04-11T13:21:33.019Z</time></trkpt><trkpt lat="42.578193348540886" lon="11.867875581709015"><ele>306.0</ele><time>2026-04-11T13:21:35.019Z</time></trkpt><trkpt lat="42.578265254350306" lon="11.86777628653742"><ele>306.0</ele><time>2026-04-11T13:21:37.019Z</time></trkpt><trkpt lat="42.57831922431474" lon="11.867663501986545"><ele>306.0</ele><time>2026-04-11T13:21:39.019Z</time></trkpt><trkpt lat="42.578375452164664" lon="11.86756146196669"><ele>306.0</ele><time>2026-04-11T13:21:41.019Z</time></trkpt><trkpt lat="42.57842371371406" lon="11.86747659317793"><ele>306.0</ele><time>2026-04-11T13:21:43.019Z</time></trkpt><trkpt lat="42.57848697342588" lon="11.867393868671515"><ele>306.0</ele><time>2026-04-11T13:21:45.019Z</time></trkpt><trkpt lat="42.57854980826012" lon="11.867316630913901"><ele>306.0</ele><time>2026-04-11T13:21:47.019Z</time></trkpt><trkpt lat="42.57859044698996" lon="11.867234180918482"><ele>306.0</ele><time>2026-04-11T13:21:49.019Z</time></trkpt><trkpt lat="42.57863250014605" lon="11.867145981997881"><ele>306.0</ele><time>2026-04-11T13:21:51.019Z</time></trkpt><trkpt lat="42.57868344031177" lon="11.867054779441593"><ele>306.0</ele><time>2026-04-11T13:21:53.019Z</time></trkpt><trkpt lat="42.578722918940244" lon="11.866949505895253"><ele>306.0</ele><time>2026-04-11T13:21:55.019Z</time></trkpt><trkpt lat="42.57878064529885" lon="11.866847951803393"><ele>305.6666666666667</ele><time>2026-04-11T13:21:57.019Z</time></trkpt><trkpt lat="42.57885461373058" lon="11.86673866569469"><ele>305.3333333333333</ele><time>2026-04-11T13:21:59.019Z</time></trkpt><trkpt lat="42.57890659622905" lon="11.866658426785937"><ele>305.0</ele><time>2026-04-11T13:22:01.019Z</time></trkpt><trkpt lat="42.57895694974986" lon="11.866564005991458"><ele>304.66666666666663</ele><time>2026-04-11T13:22:03.019Z</time></trkpt><trkpt lat="42.578996559198636" lon="11.86647330064301"><ele>304.3333333333333</ele><time>2026-04-11T13:22:05.019Z</time></trkpt><trkpt lat="42.57904077665665" lon="11.866398441564835"><ele>304.0</ele><time>2026-04-11T13:22:07.019Z</time></trkpt><trkpt lat="42.57908280181407" lon="11.866320484928124"><ele>304.0</ele><time>2026-04-11T13:22:09.019Z</time></trkpt><trkpt lat="42.579144588563196" lon="11.866220877315904"><ele>304.0</ele><time>2026-04-11T13:22:12.019Z</time></trkpt><trkpt lat="42.57919391779476" lon="11.8661429679332"><ele>304.0</ele><time>2026-04-11T13:22:14.019Z</time></trkpt><trkpt lat="42.57923868690255" lon="11.866040790115205"><ele>304.0</ele><time>2026-04-11T13:22:16.019Z</time></trkpt><trkpt lat="42.579297275396755" lon="11.86594259456357"><ele>304.0</ele><time>2026-04-11T13:22:18.019Z</time></trkpt><trkpt lat="42.57935453312997" lon="11.86587663550578"><ele>304.0</ele><time>2026-04-11T13:22:20.019Z</time></trkpt><trkpt lat="42.57939894674228" lon="11.8657949950422"><ele>304.0</ele><time>2026-04-11T13:22:22.019Z</time></trkpt><trkpt lat="42.57945274542885" lon="11.865706425941433"><ele>304.0</ele><time>2026-04-11T13:22:24.019Z</time></trkpt><trkpt lat="42.579509897777555" lon="11.865613378551222"><ele>304.0</ele><time>2026-04-11T13:22:26.021Z</time></trkpt><trkpt lat="42.579562458894685" lon="11.865509637766559"><ele>304.0</ele><time>2026-04-11T13:22:28.022Z</time></trkpt><trkpt lat="42.57961923004174" lon="11.86540267144009"><ele>304.0</ele><time>2026-04-11T13:22:30.022Z</time></trkpt><trkpt lat="42.57967661943711" lon="11.865322049486933"><ele>304.0</ele><time>2026-04-11T13:22:32.022Z</time></trkpt><trkpt lat="42.57971481714385" lon="11.865233665966993"><ele>304.0</ele><time>2026-04-11T13:22:34.021Z</time></trkpt><trkpt lat="42.579748988301404" lon="11.865142709543711"><ele>304.0</ele><time>2026-04-11T13:22:36.021Z</time></trkpt><trkpt lat="42.57980474275059" lon="11.865076991696494"><ele>304.0</ele><time>2026-04-11T13:22:38.021Z</time></trkpt><trkpt lat="42.57985849552748" lon="11.864993129708507"><ele>304.0</ele><time>2026-04-11T13:22:40.022Z</time></trkpt><trkpt lat="42.57990858700703" lon="11.864901948835048"><ele>304.0</ele><time>2026-04-11T13:22:42.022Z</time></trkpt><trkpt lat="42.57996161686174" lon="11.864798192818876"><ele>304.0</ele><time>2026-04-11T13:22:44.022Z</time></trkpt><trkpt lat="42.5800201414115" lon="11.86470049323808"><ele>304.0</ele><time>2026-04-11T13:22:46.022Z</time></trkpt><trkpt lat="42.580081603876756" lon="11.864600614137661"><ele>304.0</ele><time>2026-04-11T13:22:48.022Z</time></trkpt><trkpt lat="42.58013342970616" lon="11.864504504548025"><ele>304.0</ele><time>2026-04-11T13:22:50.022Z</time></trkpt><trkpt lat="42.58018269866289" lon="11.864415000568135"><ele>304.0</ele><time>2026-04-11T13:22:52.022Z</time></trkpt><trkpt lat="42.58022409279751" lon="11.86431652852453"><ele>304.0</ele><time>2026-04-11T13:22:54.021Z</time></trkpt><trkpt lat="42.580285962173974" lon="11.864225362631833"><ele>304.0</ele><time>2026-04-11T13:22:56.021Z</time></trkpt><trkpt lat="42.58034026572941" lon="11.864139810804872"><ele>304.0</ele><time>2026-04-11T13:22:58.021Z</time></trkpt><trkpt lat="42.580400935230045" lon="11.864055307350398"><ele>304.0</ele><time>2026-04-11T13:23:00.021Z</time></trkpt><trkpt lat="42.580441049401244" lon="11.863977257977362"><ele>304.0</ele><time>2026-04-11T13:23:02.021Z</time></trkpt><trkpt lat="42.58049130627481" lon="11.863892531430025"><ele>304.0</ele><time>2026-04-11T13:23:04.021Z</time></trkpt><trkpt lat="42.580543234605386" lon="11.863805570743095"><ele>304.0</ele><time>2026-04-11T13:23:06.021Z</time></trkpt><trkpt lat="42.5805767668311" lon="11.863730168133628"><ele>304.0</ele><time>2026-04-11T13:23:08.021Z</time></trkpt><trkpt lat="42.5806232849702" lon="11.863661760060516"><ele>304.0</ele><time>2026-04-11T13:23:10.021Z</time></trkpt><trkpt lat="42.580674052179155" lon="11.863594219122357"><ele>304.0</ele><time>2026-04-11T13:23:12.021Z</time></trkpt><trkpt lat="42.58072312433134" lon="11.863534092908463"><ele>304.0</ele><time>2026-04-11T13:23:14.021Z</time></trkpt><trkpt lat="42.580771390248756" lon="11.86346182356579"><ele>304.0</ele><time>2026-04-11T13:23:16.021Z</time></trkpt><trkpt lat="42.58082040928676" lon="11.863404072296605"><ele>304.0</ele><time>2026-04-11T13:23:18.021Z</time></trkpt><trkpt lat="42.58087289815012" lon="11.863336565946495"><ele>304.0</ele><time>2026-04-11T13:23:20.021Z</time></trkpt><trkpt lat="42.58091993067164" lon="11.863264592524175"><ele>304.0</ele><time>2026-04-11T13:23:22.021Z</time></trkpt><trkpt lat="42.58098249492829" lon="11.863178354143473"><ele>304.0</ele><time>2026-04-11T13:23:25.021Z</time></trkpt><trkpt lat="42.581045620853494" lon="11.863088145970055"><ele>304.0</ele><time>2026-04-11T13:23:28.021Z</time></trkpt><trkpt lat="42.58109048979924" lon="11.86302408388088"><ele>304.0</ele><time>2026-04-11T13:23:30.021Z</time></trkpt><trkpt lat="42.581137284375664" lon="11.862958905116683"><ele>304.0</ele><time>2026-04-11T13:23:32.021Z</time></trkpt><trkpt lat="42.5811806341475" lon="11.862892471251225"><ele>304.0</ele><time>2026-04-11T13:23:34.021Z</time></trkpt><trkpt lat="42.58123403800672" lon="11.862822280530876"><ele>304.0</ele><time>2026-04-11T13:23:36.021Z</time></trkpt><trkpt lat="42.58127736507115" lon="11.86275838625185"><ele>304.0</ele><time>2026-04-11T13:23:38.021Z</time></trkpt><trkpt lat="42.5813214616974" lon="11.862696505754693"><ele>304.16666666666663</ele><time>2026-04-11T13:23:40.021Z</time></trkpt><trkpt lat="42.58138388629834" lon="11.862599147907975"><ele>304.3333333333333</ele><time>2026-04-11T13:23:43.021Z</time></trkpt><trkpt lat="42.58144405930818" lon="11.862501792582052"><ele>304.5</ele><time>2026-04-11T13:23:46.021Z</time></trkpt><trkpt lat="42.58149335386164" lon="11.86243536244721"><ele>304.6666666666667</ele><time>2026-04-11T13:23:48.021Z</time></trkpt><trkpt lat="42.58154826178651" lon="11.862386912607944"><ele>304.83333333333337</ele><time>2026-04-11T13:23:50.021Z</time></trkpt><trkpt lat="42.581607997140026" lon="11.862323782070092"><ele>305.0</ele><time>2026-04-11T13:23:52.021Z</time></trkpt><trkpt lat="42.58166040543417" lon="11.862252843615416"><ele>305.0</ele><time>2026-04-11T13:23:54.021Z</time></trkpt><trkpt lat="42.58170782888514" lon="11.862184229678233"><ele>305.0</ele><time>2026-04-11T13:23:56.021Z</time></trkpt><trkpt lat="42.581761113684635" lon="11.862108958552254"><ele>305.0</ele><time>2026-04-11T13:23:58.021Z</time></trkpt><trkpt lat="42.581807353926756" lon="11.86204135711661"><ele>305.0</ele><time>2026-04-11T13:24:00.021Z</time></trkpt><trkpt lat="42.58185811613302" lon="11.86197707499834"><ele>305.0</ele><time>2026-04-11T13:24:02.021Z</time></trkpt><trkpt lat="42.5819010072497" lon="11.8619101869711"><ele>305.0</ele><time>2026-04-11T13:24:04.021Z</time></trkpt><trkpt lat="42.58194827346098" lon="11.861841204434667"><ele>305.0</ele><time>2026-04-11T13:24:06.021Z</time></trkpt><trkpt lat="42.58199211514934" lon="11.861776830519993"><ele>305.0</ele><time>2026-04-11T13:24:08.021Z</time></trkpt><trkpt lat="42.58205218191586" lon="11.861692276458596"><ele>305.0</ele><time>2026-04-11T13:24:11.021Z</time></trkpt><trkpt lat="42.58210499352092" lon="11.86161705291716"><ele>305.0</ele><time>2026-04-11T13:24:14.021Z</time></trkpt><trkpt lat="42.5821586868582" lon="11.861543708444389"><ele>305.0</ele><time>2026-04-11T13:24:17.021Z</time></trkpt><trkpt lat="42.582226749648925" lon="11.861457951213485"><ele>305.0</ele><time>2026-04-11T13:24:20.021Z</time></trkpt><trkpt lat="42.582277229600685" lon="11.861396478603863"><ele>305.0</ele><time>2026-04-11T13:24:22.021Z</time></trkpt><trkpt lat="42.58232920206019" lon="11.861329388212312"><ele>305.0</ele><time>2026-04-11T13:24:24.021Z</time></trkpt><trkpt lat="42.582375831107825" lon="11.861265193573788"><ele>305.0</ele><time>2026-04-11T13:24:26.021Z</time></trkpt><trkpt lat="42.582424439750945" lon="11.861201053145296"><ele>305.0</ele><time>2026-04-11T13:24:28.02Z</time></trkpt><trkpt lat="42.582467675027864" lon="11.861134039530231"><ele>305.0</ele><time>2026-04-11T13:24:30.02Z</time></trkpt><trkpt lat="42.58251485351392" lon="11.861075361839085"><ele>305.0</ele><time>2026-04-11T13:24:32.022Z</time></trkpt><trkpt lat="42.5825580385795" lon="11.861012021839558"><ele>305.0</ele><time>2026-04-11T13:24:34.023Z</time></trkpt><trkpt lat="42.58261287521275" lon="11.860956172506665"><ele>305.0</ele><time>2026-04-11T13:24:36.023Z</time></trkpt><trkpt lat="42.58265917045252" lon="11.860895528308193"><ele>305.0</ele><time>2026-04-11T13:24:38.023Z</time></trkpt><trkpt lat="42.582703570935145" lon="11.860825449693607"><ele>305.0</ele><time>2026-04-11T13:24:40.023Z</time></trkpt><trkpt lat="42.582752768495226" lon="11.860767636077325"><ele>305.0</ele><time>2026-04-11T13:24:42.023Z</time></trkpt><trkpt lat="42.5828140502111" lon="11.860680821168538"><ele>305.0</ele><time>2026-04-11T13:24:45.023Z</time></trkpt><trkpt lat="42.582884689710966" lon="11.860613695074223"><ele>305.0</ele><time>2026-04-11T13:24:48.023Z</time></trkpt><trkpt lat="42.582958014864786" lon="11.860548456892742"><ele>305.0</ele><time>2026-04-11T13:24:51.023Z</time></trkpt><trkpt lat="42.583011917709946" lon="11.860494212116244"><ele>305.0</ele><time>2026-04-11T13:24:53.022Z</time></trkpt><trkpt lat="42.5830644869315" lon="11.860438847897273"><ele>305.0</ele><time>2026-04-11T13:24:55.022Z</time></trkpt><trkpt lat="42.583141312858146" lon="11.86036299260013"><ele>305.0</ele><time>2026-04-11T13:24:58.022Z</time></trkpt><trkpt lat="42.58321466922445" lon="11.860373820559328"><ele>305.0</ele><time>2026-04-11T13:25:01.022Z</time></trkpt><trkpt lat="42.58323927335887" lon="11.860470969619044"><ele>305.0</ele><time>2026-04-11T13:25:04.022Z</time></trkpt><trkpt lat="42.58320002876681" lon="11.8605475363608"><ele>305.0</ele><time>2026-04-11T13:25:07.022Z</time></trkpt><trkpt lat="42.58315819306735" lon="11.86061599923441"><ele>305.0</ele><time>2026-04-11T13:25:12.022Z</time></trkpt><trkpt lat="42.583096424591105" lon="11.8606619670935"><ele>305.0</ele><time>2026-04-11T13:25:30.022Z</time></trkpt><trkpt lat="42.583154456675935" lon="11.86059926709502"><ele>305.0</ele><time>2026-04-11T13:27:06.024Z</time></trkpt><trkpt lat="42.583190320982" lon="11.860526657585988"><ele>305.0</ele><time>2026-04-11T13:27:08.024Z</time></trkpt><trkpt lat="42.58322666832655" lon="11.860443594030182"><ele>305.0</ele><time>2026-04-11T13:27:10.024Z</time></trkpt><trkpt lat="42.58318652411847" lon="11.860348967451966"><ele>305.0</ele><time>2026-04-11T13:27:14.024Z</time></trkpt><trkpt lat="42.58322040384684" lon="11.860247991871809"><ele>305.0</ele><time>2026-04-11T13:27:18.024Z</time></trkpt><trkpt lat="42.5832851225266" lon="11.86020883387943"><ele>305.0</ele><time>2026-04-11T13:27:20.024Z</time></trkpt><trkpt lat="42.58336194559501" lon="11.86013590214118"><ele>304.83333333333337</ele><time>2026-04-11T13:27:23.024Z</time></trkpt><trkpt lat="42.583423965905126" lon="11.860079906954995"><ele>304.6666666666667</ele><time>2026-04-11T13:27:25.024Z</time></trkpt><trkpt lat="42.58346968600186" lon="11.860009818158336"><ele>304.5</ele><time>2026-04-11T13:27:27.024Z</time></trkpt><trkpt lat="42.5835257094455" lon="11.85993777178586"><ele>304.3333333333333</ele><time>2026-04-11T13:27:29.024Z</time></trkpt><trkpt lat="42.58358046132684" lon="11.859862868965529"><ele>304.16666666666663</ele><time>2026-04-11T13:27:31.024Z</time></trkpt><trkpt lat="42.58363852980657" lon="11.859785936061943"><ele>304.0</ele><time>2026-04-11T13:27:33.024Z</time></trkpt><trkpt lat="42.58370705300375" lon="11.859713151348997"><ele>304.0</ele><time>2026-04-11T13:27:35.024Z</time></trkpt><trkpt lat="42.58376129427787" lon="11.85964642511051"><ele>304.0</ele><time>2026-04-11T13:27:37.024Z</time></trkpt><trkpt lat="42.58383539453708" lon="11.85958033125976"><ele>304.0</ele><time>2026-04-11T13:27:39.024Z</time></trkpt><trkpt lat="42.58389326292897" lon="11.859512364394604"><ele>304.0</ele><time>2026-04-11T13:27:41.024Z</time></trkpt><trkpt lat="42.58395665503793" lon="11.859443223692704"><ele>304.0</ele><time>2026-04-11T13:27:43.024Z</time></trkpt><trkpt lat="42.58402951540786" lon="11.859371202436106"><ele>304.0</ele><time>2026-04-11T13:27:45.024Z</time></trkpt><trkpt lat="42.584094649179896" lon="11.859300030218186"><ele>304.4</ele><time>2026-04-11T13:27:47.024Z</time></trkpt><trkpt lat="42.5841650916039" lon="11.859222284834964"><ele>304.79999999999995</ele><time>2026-04-11T13:27:49.024Z</time></trkpt><trkpt lat="42.58423687583776" lon="11.859149535632397"><ele>305.20000000000005</ele><time>2026-04-11T13:27:51.024Z</time></trkpt><trkpt lat="42.58430397363922" lon="11.85907177093317"><ele>305.6</ele><time>2026-04-11T13:27:53.024Z</time></trkpt><trkpt lat="42.584378333811536" lon="11.858996457287262"><ele>306.0</ele><time>2026-04-11T13:27:55.024Z</time></trkpt><trkpt lat="42.58444935560471" lon="11.85891768937937"><ele>305.6666666666667</ele><time>2026-04-11T13:27:57.024Z</time></trkpt><trkpt lat="42.584514473560795" lon="11.858843199138326"><ele>305.3333333333333</ele><time>2026-04-11T13:27:59.024Z</time></trkpt><trkpt lat="42.58458149022632" lon="11.85877670187964"><ele>305.0</ele><time>2026-04-11T13:28:01.024Z</time></trkpt><trkpt lat="42.584651181479906" lon="11.858706482409698"><ele>304.66666666666663</ele><time>2026-04-11T13:28:03.024Z</time></trkpt><trkpt lat="42.58472018251105" lon="11.858638949883293"><ele>304.3333333333333</ele><time>2026-04-11T13:28:05.024Z</time></trkpt><trkpt lat="42.584788460191106" lon="11.858563577682999"><ele>304.0</ele><time>2026-04-11T13:28:07.024Z</time></trkpt><trkpt lat="42.58486585898716" lon="11.85849674962266"><ele>304.3333333333333</ele><time>2026-04-11T13:28:09.024Z</time></trkpt><trkpt lat="42.584933005293784" lon="11.858423471241997"><ele>304.66666666666663</ele><time>2026-04-11T13:28:11.023Z</time></trkpt><trkpt lat="42.58500326637685" lon="11.858360215854622"><ele>305.0</ele><time>2026-04-11T13:28:13.023Z</time></trkpt><trkpt lat="42.585070175695506" lon="11.858294934647187"><ele>305.3333333333333</ele><time>2026-04-11T13:28:15.023Z</time></trkpt><trkpt lat="42.58514729641247" lon="11.858234401277903"><ele>305.6666666666667</ele><time>2026-04-11T13:28:17.023Z</time></trkpt><trkpt lat="42.585215293482484" lon="11.85817553159071"><ele>306.0</ele><time>2026-04-11T13:28:19.023Z</time></trkpt><trkpt lat="42.585295380373196" lon="11.858126773670666"><ele>305.6666666666667</ele><time>2026-04-11T13:28:21.023Z</time></trkpt><trkpt lat="42.585356505126384" lon="11.858075295888021"><ele>305.3333333333333</ele><time>2026-04-11T13:28:23.023Z</time></trkpt><trkpt lat="42.58542774183805" lon="11.858017112716762"><ele>305.0</ele><time>2026-04-11T13:28:25.023Z</time></trkpt><trkpt lat="42.585497920810866" lon="11.857976521475715"><ele>304.66666666666663</ele><time>2026-04-11T13:28:27.023Z</time></trkpt><trkpt lat="42.58556934141719" lon="11.857914654451085"><ele>304.3333333333333</ele><time>2026-04-11T13:28:29.023Z</time></trkpt><trkpt lat="42.58564255338509" lon="11.857872109828023"><ele>304.0</ele><time>2026-04-11T13:28:31.023Z</time></trkpt><trkpt lat="42.58571005915264" lon="11.857829223203879"><ele>304.0</ele><time>2026-04-11T13:28:33.023Z</time></trkpt><trkpt lat="42.58577040782056" lon="11.857798611672198"><ele>304.0</ele><time>2026-04-11T13:28:35.023Z</time></trkpt><trkpt lat="42.58584871448894" lon="11.857751040601133"><ele>304.0</ele><time>2026-04-11T13:28:37.023Z</time></trkpt><trkpt lat="42.58591165572693" lon="11.857703077096943"><ele>304.0</ele><time>2026-04-11T13:28:39.023Z</time></trkpt><trkpt lat="42.58597180420461" lon="11.857666412298006"><ele>304.0</ele><time>2026-04-11T13:28:41.023Z</time></trkpt><trkpt lat="42.58604703384904" lon="11.857632163529127"><ele>304.0</ele><time>2026-04-11T13:28:43.023Z</time></trkpt><trkpt lat="42.58610927818383" lon="11.857570886229704"><ele>304.0</ele><time>2026-04-11T13:28:45.025Z</time></trkpt><trkpt lat="42.586177935739705" lon="11.85752811632227"><ele>304.2</ele><time>2026-04-11T13:28:47.025Z</time></trkpt><trkpt lat="42.5862581355759" lon="11.857479516032415"><ele>304.4</ele><time>2026-04-11T13:28:49.026Z</time></trkpt><trkpt lat="42.586345090882595" lon="11.857437733951224"><ele>304.6</ele><time>2026-04-11T13:28:51.025Z</time></trkpt><trkpt lat="42.58642502118534" lon="11.857391289864916"><ele>304.8</ele><time>2026-04-11T13:28:53.026Z</time></trkpt><trkpt lat="42.58651570163985" lon="11.857357956056719"><ele>305.0</ele><time>2026-04-11T13:28:55.025Z</time></trkpt><trkpt lat="42.58660374099386" lon="11.857313218708226"><ele>305.0</ele><time>2026-04-11T13:28:57.026Z</time></trkpt><trkpt lat="42.58668769597026" lon="11.857270870708298"><ele>305.0</ele><time>2026-04-11T13:28:59.026Z</time></trkpt><trkpt lat="42.58678278787631" lon="11.857229702823393"><ele>305.0</ele><time>2026-04-11T13:29:01.026Z</time></trkpt><trkpt lat="42.58686787905059" lon="11.857198736827744"><ele>305.0</ele><time>2026-04-11T13:29:03.025Z</time></trkpt><trkpt lat="42.58695770519715" lon="11.857164006806379"><ele>305.0</ele><time>2026-04-11T13:29:05.025Z</time></trkpt><trkpt lat="42.58704329143736" lon="11.857137427037877"><ele>305.6666666666667</ele><time>2026-04-11T13:29:07.025Z</time></trkpt><trkpt lat="42.58712616099362" lon="11.857111620521582"><ele>306.33333333333337</ele><time>2026-04-11T13:29:09.025Z</time></trkpt><trkpt lat="42.58720180871716" lon="11.857086971576797"><ele>307.0</ele><time>2026-04-11T13:29:11.025Z</time></trkpt><trkpt lat="42.587275612407964" lon="11.857067837112536"><ele>307.6666666666667</ele><time>2026-04-11T13:29:13.025Z</time></trkpt><trkpt lat="42.5873494063624" lon="11.857057128435144"><ele>308.3333333333333</ele><time>2026-04-11T13:29:15.025Z</time></trkpt><trkpt lat="42.58741635650883" lon="11.857046496426767"><ele>309.0</ele><time>2026-04-11T13:29:17.025Z</time></trkpt><trkpt lat="42.5875054375289" lon="11.857051362825901"><ele>309.00000000000006</ele><time>2026-04-11T13:29:20.025Z</time></trkpt><trkpt lat="42.58758170982499" lon="11.857050293428346"><ele>309.0</ele><time>2026-04-11T13:29:23.025Z</time></trkpt><trkpt lat="42.58764763507586" lon="11.857079244504193"><ele>309.0</ele><time>2026-04-11T13:29:26.025Z</time></trkpt><trkpt lat="42.58771546421781" lon="11.857099786978514"><ele>309.0</ele><time>2026-04-11T13:29:29.025Z</time></trkpt><trkpt lat="42.58778128457806" lon="11.85712443918339"><ele>309.0</ele><time>2026-04-11T13:29:32.025Z</time></trkpt><trkpt lat="42.58784490423146" lon="11.857167700178156"><ele>309.00000000000006</ele><time>2026-04-11T13:29:35.025Z</time></trkpt><trkpt lat="42.58793388437877" lon="11.857194638356196"><ele>309.0</ele><time>2026-04-11T13:29:38.025Z</time></trkpt><trkpt lat="42.5880085459277" lon="11.857220899239243"><ele>311.4</ele><time>2026-04-11T13:29:40.025Z</time></trkpt><trkpt lat="42.588087150343384" lon="11.857249449521241"><ele>313.79999999999995</ele><time>2026-04-11T13:29:42.025Z</time></trkpt><trkpt lat="42.588178508939464" lon="11.857294088389681"><ele>316.20000000000005</ele><time>2026-04-11T13:29:44.025Z</time></trkpt><trkpt lat="42.588279553549576" lon="11.857320050914968"><ele>318.6</ele><time>2026-04-11T13:29:46.025Z</time></trkpt><trkpt lat="42.58839092516011" lon="11.857345638382077"><ele>321.0</ele><time>2026-04-11T13:29:48.025Z</time></trkpt><trkpt lat="42.58849337476604" lon="11.857394065351519"><ele>321.0</ele><time>2026-04-11T13:29:50.025Z</time></trkpt><trkpt lat="42.58860181146201" lon="11.857444280816601"><ele>321.0</ele><time>2026-04-11T13:29:52.025Z</time></trkpt><trkpt lat="42.588687723108016" lon="11.857506046516413"><ele>321.0</ele><time>2026-04-11T13:29:54.025Z</time></trkpt><trkpt lat="42.588773915314036" lon="11.85755490369885"><ele>321.0</ele><time>2026-04-11T13:29:56.025Z</time></trkpt><trkpt lat="42.5888387703566" lon="11.857629154465016"><ele>321.0</ele><time>2026-04-11T13:29:58.025Z</time></trkpt><trkpt lat="42.588929298396124" lon="11.857697602645539"><ele>318.6</ele><time>2026-04-11T13:30:00.025Z</time></trkpt><trkpt lat="42.58900248415677" lon="11.857785244445841"><ele>316.20000000000005</ele><time>2026-04-11T13:30:02.025Z</time></trkpt><trkpt lat="42.58908709955552" lon="11.857867123946434"><ele>313.79999999999995</ele><time>2026-04-11T13:30:04.025Z</time></trkpt><trkpt lat="42.58916574424923" lon="11.857930814932915"><ele>311.4</ele><time>2026-04-11T13:30:06.025Z</time></trkpt><trkpt lat="42.589225851948314" lon="11.858003589018919"><ele>309.0</ele><time>2026-04-11T13:30:08.025Z</time></trkpt><trkpt lat="42.58929770373043" lon="11.858082862625123"><ele>309.0</ele><time>2026-04-11T13:30:10.025Z</time></trkpt><trkpt lat="42.58938130725316" lon="11.858192693313883"><ele>309.0</ele><time>2026-04-11T13:30:12.025Z</time></trkpt><trkpt lat="42.58949269214761" lon="11.858273295634927"><ele>309.0</ele><time>2026-04-11T13:30:14.025Z</time></trkpt><trkpt lat="42.58954905379827" lon="11.858317361720333"><ele>309.0</ele><time>2026-04-11T13:30:15.025Z</time></trkpt><trkpt lat="42.58960789734614" lon="11.85836061266553"><ele>309.0</ele><time>2026-04-11T13:30:16.025Z</time></trkpt><trkpt lat="42.58966781483711" lon="11.858401996591203"><ele>309.0</ele><time>2026-04-11T13:30:17.025Z</time></trkpt><trkpt lat="42.589723336575354" lon="11.858457829430854"><ele>309.0</ele><time>2026-04-11T13:30:18.025Z</time></trkpt><trkpt lat="42.589778998022595" lon="11.858509895281994"><ele>309.0</ele><time>2026-04-11T13:30:19.025Z</time></trkpt><trkpt lat="42.58988823130056" lon="11.858589598642821"><ele>309.0</ele><time>2026-04-11T13:30:21.025Z</time></trkpt><trkpt lat="42.58999127597652" lon="11.858671261741957"><ele>309.0</ele><time>2026-04-11T13:30:23.025Z</time></trkpt><trkpt lat="42.59009400667178" lon="11.858750099759888"><ele>309.0</ele><time>2026-04-11T13:30:25.025Z</time></trkpt><trkpt lat="42.590188533301344" lon="11.8588211318967"><ele>309.0</ele><time>2026-04-11T13:30:27.025Z</time></trkpt><trkpt lat="42.59027782960787" lon="11.858918393522147"><ele>309.0</ele><time>2026-04-11T13:30:29.025Z</time></trkpt><trkpt lat="42.59036544990871" lon="11.85900682214983"><ele>309.0</ele><time>2026-04-11T13:30:31.025Z</time></trkpt><trkpt lat="42.590452890122364" lon="11.859103006188787"><ele>309.0</ele><time>2026-04-11T13:30:33.025Z</time></trkpt><trkpt lat="42.59053858022893" lon="11.859194477450568"><ele>309.0</ele><time>2026-04-11T13:30:35.025Z</time></trkpt><trkpt lat="42.590632337028616" lon="11.859289870298817"><ele>309.0</ele><time>2026-04-11T13:30:37.024Z</time></trkpt><trkpt lat="42.590709066494234" lon="11.859395701590476"><ele>309.0</ele><time>2026-04-11T13:30:39.024Z</time></trkpt><trkpt lat="42.59079267516807" lon="11.859497283925842"><ele>309.0</ele><time>2026-04-11T13:30:41.024Z</time></trkpt><trkpt lat="42.5908664249408" lon="11.859608703981682"><ele>309.0</ele><time>2026-04-11T13:30:43.024Z</time></trkpt><trkpt lat="42.59093765719151" lon="11.85973514781315"><ele>309.0</ele><time>2026-04-11T13:30:45.024Z</time></trkpt><trkpt lat="42.590993038389264" lon="11.859859191256158"><ele>309.0</ele><time>2026-04-11T13:30:47.024Z</time></trkpt><trkpt lat="42.59107032041751" lon="11.85997217183977"><ele>309.0</ele><time>2026-04-11T13:30:49.024Z</time></trkpt><trkpt lat="42.59113927354844" lon="11.860090577042094"><ele>309.0</ele><time>2026-04-11T13:30:51.026Z</time></trkpt><trkpt lat="42.591216973552164" lon="11.860187936640632"><ele>309.0</ele><time>2026-04-11T13:30:53.027Z</time></trkpt><trkpt lat="42.591289888737904" lon="11.860289134749861"><ele>309.0</ele><time>2026-04-11T13:30:55.027Z</time></trkpt><trkpt lat="42.59137471891354" lon="11.860374190070909"><ele>308.4</ele><time>2026-04-11T13:30:57.027Z</time></trkpt><trkpt lat="42.59146168481014" lon="11.860450580968207"><ele>307.79999999999995</ele><time>2026-04-11T13:30:59.026Z</time></trkpt><trkpt lat="42.59156003590921" lon="11.86050582329269"><ele>307.20000000000005</ele><time>2026-04-11T13:31:01.026Z</time></trkpt><trkpt lat="42.59164607998475" lon="11.860552092304143"><ele>306.6</ele><time>2026-04-11T13:31:03.026Z</time></trkpt><trkpt lat="42.59174117512064" lon="11.860602446141813"><ele>306.0</ele><time>2026-04-11T13:31:05.026Z</time></trkpt><trkpt lat="42.59183803639054" lon="11.860650985100085"><ele>306.0</ele><time>2026-04-11T13:31:07.026Z</time></trkpt><trkpt lat="42.59192859014064" lon="11.860694157646197"><ele>306.0</ele><time>2026-04-11T13:31:09.026Z</time></trkpt><trkpt lat="42.592022467927684" lon="11.86073979402623"><ele>306.0</ele><time>2026-04-11T13:31:11.026Z</time></trkpt><trkpt lat="42.592115957736134" lon="11.860785243940539"><ele>306.0</ele><time>2026-04-11T13:31:13.026Z</time></trkpt><trkpt lat="42.59222077600716" lon="11.860832967833892"><ele>306.0</ele><time>2026-04-11T13:31:15.026Z</time></trkpt><trkpt lat="42.59231526560928" lon="11.860893251485686"><ele>306.2</ele><time>2026-04-11T13:31:17.026Z</time></trkpt><trkpt lat="42.592417872540416" lon="11.860943700342549"><ele>306.40000000000003</ele><time>2026-04-11T13:31:19.026Z</time></trkpt><trkpt lat="42.59251377356264" lon="11.860995050995237"><ele>306.6</ele><time>2026-04-11T13:31:21.026Z</time></trkpt><trkpt lat="42.592599997334695" lon="11.86105924791202"><ele>306.8</ele><time>2026-04-11T13:31:23.026Z</time></trkpt><trkpt lat="42.59269545163941" lon="11.861125314916366"><ele>307.0</ele><time>2026-04-11T13:31:25.026Z</time></trkpt><trkpt lat="42.59279179391747" lon="11.861186179673759"><ele>307.2</ele><time>2026-04-11T13:31:27.026Z</time></trkpt><trkpt lat="42.59288514765474" lon="11.86126433272647"><ele>307.4</ele><time>2026-04-11T13:31:29.026Z</time></trkpt><trkpt lat="42.5929775150382" lon="11.861333895622451"><ele>307.6</ele><time>2026-04-11T13:31:31.026Z</time></trkpt><trkpt lat="42.59307398283692" lon="11.861406566541994"><ele>307.8</ele><time>2026-04-11T13:31:33.026Z</time></trkpt><trkpt lat="42.59317181535603" lon="11.861481351379073"><ele>308.0</ele><time>2026-04-11T13:31:35.026Z</time></trkpt><trkpt lat="42.59325810626549" lon="11.861564198124588"><ele>308.0</ele><time>2026-04-11T13:31:37.026Z</time></trkpt><trkpt lat="42.59335154324054" lon="11.861638507096597"><ele>308.0</ele><time>2026-04-11T13:31:39.026Z</time></trkpt><trkpt lat="42.59346110440807" lon="11.861710613718868"><ele>308.0</ele><time>2026-04-11T13:31:41.026Z</time></trkpt><trkpt lat="42.59356022060508" lon="11.861785537888116"><ele>308.0</ele><time>2026-04-11T13:31:43.026Z</time></trkpt><trkpt lat="42.59365204727545" lon="11.861868565955435"><ele>308.6</ele><time>2026-04-11T13:31:45.026Z</time></trkpt><trkpt lat="42.5937445830334" lon="11.861936080436992"><ele>309.20000000000005</ele><time>2026-04-11T13:31:47.026Z</time></trkpt><trkpt lat="42.59382725113729" lon="11.862005187930187"><ele>309.8</ele><time>2026-04-11T13:31:49.026Z</time></trkpt><trkpt lat="42.593933671218494" lon="11.862077464186168"><ele>310.40000000000003</ele><time>2026-04-11T13:31:51.026Z</time></trkpt><trkpt lat="42.59403578998209" lon="11.862145645797309"><ele>311.0</ele><time>2026-04-11T13:31:53.026Z</time></trkpt><trkpt lat="42.59412410830742" lon="11.86223405920752"><ele>311.0</ele><time>2026-04-11T13:31:55.026Z</time></trkpt><trkpt lat="42.59422199851158" lon="11.862292466701511"><ele>311.0</ele><time>2026-04-11T13:31:57.026Z</time></trkpt><trkpt lat="42.59432185034083" lon="11.862362991731596"><ele>311.0</ele><time>2026-04-11T13:31:59.026Z</time></trkpt><trkpt lat="42.59441428548401" lon="11.862432998980838"><ele>311.0</ele><time>2026-04-11T13:32:01.026Z</time></trkpt><trkpt lat="42.59450846797325" lon="11.862501414345827"><ele>311.0</ele><time>2026-04-11T13:32:03.026Z</time></trkpt><trkpt lat="42.594602746816555" lon="11.862568336760335"><ele>310.6</ele><time>2026-04-11T13:32:05.026Z</time></trkpt><trkpt lat="42.59469718589949" lon="11.862664799046653"><ele>310.20000000000005</ele><time>2026-04-11T13:32:07.026Z</time></trkpt><trkpt lat="42.59477684261157" lon="11.862756244400526"><ele>309.79999999999995</ele><time>2026-04-11T13:32:09.026Z</time></trkpt><trkpt lat="42.594853234954456" lon="11.862839754933438"><ele>309.4</ele><time>2026-04-11T13:32:11.026Z</time></trkpt><trkpt lat="42.59492910959907" lon="11.862939267706672"><ele>309.0</ele><time>2026-04-11T13:32:13.026Z</time></trkpt><trkpt lat="42.59499717879736" lon="11.863026975912314"><ele>309.0</ele><time>2026-04-11T13:32:15.026Z</time></trkpt><trkpt lat="42.59506446522127" lon="11.863112491165198"><ele>309.0</ele><time>2026-04-11T13:32:17.026Z</time></trkpt><trkpt lat="42.5951398524007" lon="11.863208752750154"><ele>309.0</ele><time>2026-04-11T13:32:19.026Z</time></trkpt><trkpt lat="42.59519961985286" lon="11.863295456079548"><ele>309.0</ele><time>2026-04-11T13:32:21.026Z</time></trkpt><trkpt lat="42.595276480109916" lon="11.863371292353143"><ele>309.0</ele><time>2026-04-11T13:32:23.026Z</time></trkpt><trkpt lat="42.59533484332072" lon="11.86346808622717"><ele>309.6666666666667</ele><time>2026-04-11T13:32:25.026Z</time></trkpt><trkpt lat="42.595402411192616" lon="11.863548255428588"><ele>310.3333333333333</ele><time>2026-04-11T13:32:27.026Z</time></trkpt><trkpt lat="42.59547025321447" lon="11.863631479919814"><ele>311.0</ele><time>2026-04-11T13:32:29.026Z</time></trkpt><trkpt lat="42.595517774390515" lon="11.86370320143724"><ele>311.66666666666663</ele><time>2026-04-11T13:32:31.026Z</time></trkpt><trkpt lat="42.59556776886048" lon="11.863762837834608"><ele>312.3333333333333</ele><time>2026-04-11T13:32:33.026Z</time></trkpt><trkpt lat="42.59563645493841" lon="11.86383434131485"><ele>313.0</ele><time>2026-04-11T13:32:36.025Z</time></trkpt><trkpt lat="42.59570606338483" lon="11.863892913748447"><ele>313.0</ele><time>2026-04-11T13:32:39.025Z</time></trkpt><trkpt lat="42.5957808622582" lon="11.863948222037363"><ele>313.0</ele><time>2026-04-11T13:32:42.025Z</time></trkpt><trkpt lat="42.59585046681008" lon="11.86400781099639"><ele>313.0</ele><time>2026-04-11T13:32:45.025Z</time></trkpt><trkpt lat="42.59592246414404" lon="11.864055346797802"><ele>313.0</ele><time>2026-04-11T13:32:48.025Z</time></trkpt><trkpt lat="42.596001182838414" lon="11.864108554250363"><ele>313.0</ele><time>2026-04-11T13:32:51.025Z</time></trkpt><trkpt lat="42.59606981824981" lon="11.864147276890183"><ele>313.0</ele><time>2026-04-11T13:32:54.025Z</time></trkpt><trkpt lat="42.59612963664753" lon="11.864206988564442"><ele>311.8333333333333</ele><time>2026-04-11T13:32:57.028Z</time></trkpt><trkpt lat="42.59619780322494" lon="11.864265845372856"><ele>310.66666666666663</ele><time>2026-04-11T13:33:00.028Z</time></trkpt><trkpt lat="42.59627113632793" lon="11.864321594815548"><ele>309.5</ele><time>2026-04-11T13:33:03.028Z</time></trkpt><trkpt lat="42.59635367933" lon="11.864379941856512"><ele>308.3333333333333</ele><time>2026-04-11T13:33:06.028Z</time></trkpt><trkpt lat="42.596421518610555" lon="11.86441773208243"><ele>307.1666666666667</ele><time>2026-04-11T13:33:08.028Z</time></trkpt><trkpt lat="42.596495845087766" lon="11.864451431466959"><ele>306.0</ele><time>2026-04-11T13:33:10.028Z</time></trkpt><trkpt lat="42.59658246481261" lon="11.864491727976368"><ele>306.0</ele><time>2026-04-11T13:33:12.028Z</time></trkpt><trkpt lat="42.59667595692393" lon="11.864524945353875"><ele>306.0</ele><time>2026-04-11T13:33:14.028Z</time></trkpt><trkpt lat="42.59678687026162" lon="11.864564461883155"><ele>306.0</ele><time>2026-04-11T13:33:16.028Z</time></trkpt><trkpt lat="42.59684851989399" lon="11.864585602664732"><ele>306.0</ele><time>2026-04-11T13:33:17.028Z</time></trkpt><trkpt lat="42.59697001430002" lon="11.864632210094074"><ele>306.0</ele><time>2026-04-11T13:33:19.028Z</time></trkpt><trkpt lat="42.597099190686556" lon="11.864667726548861"><ele>306.57142857142856</ele><time>2026-04-11T13:33:21.028Z</time></trkpt><trkpt lat="42.5971643622426" lon="11.864689195828118"><ele>307.14285714285717</ele><time>2026-04-11T13:33:22.028Z</time></trkpt><trkpt lat="42.59723308974849" lon="11.864707698416687"><ele>307.7142857142857</ele><time>2026-04-11T13:33:23.028Z</time></trkpt><trkpt lat="42.597294860347674" lon="11.864738322039008"><ele>308.2857142857143</ele><time>2026-04-11T13:33:24.028Z</time></trkpt><trkpt lat="42.597364539456855" lon="11.86475557160808"><ele>308.85714285714283</ele><time>2026-04-11T13:33:25.028Z</time></trkpt><trkpt lat="42.5974336948476" lon="11.86477243123435"><ele>309.42857142857144</ele><time>2026-04-11T13:33:26.028Z</time></trkpt><trkpt lat="42.597503630057666" lon="11.864788159988034"><ele>310.0</ele><time>2026-04-11T13:33:27.028Z</time></trkpt><trkpt lat="42.597570574222864" lon="11.8648144401133"><ele>310.0</ele><time>2026-04-11T13:33:28.028Z</time></trkpt><trkpt lat="42.59763237058176" lon="11.864835897526659"><ele>310.0</ele><time>2026-04-11T13:33:29.028Z</time></trkpt><trkpt lat="42.597696982218636" lon="11.864855053560035"><ele>310.0</ele><time>2026-04-11T13:33:30.028Z</time></trkpt><trkpt lat="42.597814204606514" lon="11.864904390366796"><ele>310.0</ele><time>2026-04-11T13:33:32.028Z</time></trkpt><trkpt lat="42.59787307877731" lon="11.86494199966967"><ele>310.0</ele><time>2026-04-11T13:33:33.028Z</time></trkpt><trkpt lat="42.59798105695361" lon="11.865019079254745"><ele>310.0</ele><time>2026-04-11T13:33:35.028Z</time></trkpt><trkpt lat="42.59808722087872" lon="11.865095043347507"><ele>309.4</ele><time>2026-04-11T13:33:37.028Z</time></trkpt><trkpt lat="42.59818530037032" lon="11.865166460885753"><ele>308.8</ele><time>2026-04-11T13:33:39.028Z</time></trkpt><trkpt lat="42.598284623003025" lon="11.865234905913715"><ele>308.2</ele><time>2026-04-11T13:33:41.028Z</time></trkpt><trkpt lat="42.59839203601831" lon="11.865299579804166"><ele>307.6</ele><time>2026-04-11T13:33:43.028Z</time></trkpt><trkpt lat="42.59849482217758" lon="11.86533346700109"><ele>307.0</ele><time>2026-04-11T13:33:45.028Z</time></trkpt><trkpt lat="42.59860693477943" lon="11.86535615068738"><ele>307.0</ele><time>2026-04-11T13:33:47.028Z</time></trkpt><trkpt lat="42.59871482409884" lon="11.865386486539892"><ele>307.0</ele><time>2026-04-11T13:33:49.028Z</time></trkpt><trkpt lat="42.598825333999734" lon="11.865388173443218"><ele>307.0</ele><time>2026-04-11T13:33:51.028Z</time></trkpt><trkpt lat="42.5989382228013" lon="11.865406376155672"><ele>307.0</ele><time>2026-04-11T13:33:53.028Z</time></trkpt><trkpt lat="42.5990428798227" lon="11.865434457399516"><ele>307.0</ele><time>2026-04-11T13:33:55.028Z</time></trkpt><trkpt lat="42.59915347265376" lon="11.865453453124944"><ele>307.0</ele><time>2026-04-11T13:33:57.028Z</time></trkpt><trkpt lat="42.59925802572827" lon="11.865483145132604"><ele>307.0</ele><time>2026-04-11T13:33:59.028Z</time></trkpt><trkpt lat="42.59935519804442" lon="11.865510908733235"><ele>307.0</ele><time>2026-04-11T13:34:01.028Z</time></trkpt><trkpt lat="42.59945364528419" lon="11.865531353764604"><ele>307.0</ele><time>2026-04-11T13:34:03.028Z</time></trkpt><trkpt lat="42.59955540311555" lon="11.86557074223625"><ele>307.0</ele><time>2026-04-11T13:34:05.028Z</time></trkpt><trkpt lat="42.599649283304046" lon="11.865622167999405"><ele>307.6</ele><time>2026-04-11T13:34:07.028Z</time></trkpt><trkpt lat="42.5997497747102" lon="11.865681441130194"><ele>308.2</ele><time>2026-04-11T13:34:09.028Z</time></trkpt><trkpt lat="42.5998453275512" lon="11.8657344376164"><ele>308.8</ele><time>2026-04-11T13:34:11.028Z</time></trkpt><trkpt lat="42.59993410013684" lon="11.865791263510776"><ele>309.4</ele><time>2026-04-11T13:34:13.028Z</time></trkpt><trkpt lat="42.60003181630592" lon="11.865844153342287"><ele>310.0</ele><time>2026-04-11T13:34:15.028Z</time></trkpt><trkpt lat="42.60013443362433" lon="11.865898805995378"><ele>310.0</ele><time>2026-04-11T13:34:17.028Z</time></trkpt><trkpt lat="42.60024001514073" lon="11.865944430209783"><ele>310.0</ele><time>2026-04-11T13:34:19.028Z</time></trkpt><trkpt lat="42.600346072260116" lon="11.866004895275946"><ele>310.0</ele><time>2026-04-11T13:34:21.027Z</time></trkpt><trkpt lat="42.60044751137328" lon="11.866055082492656"><ele>310.0</ele><time>2026-04-11T13:34:23.027Z</time></trkpt><trkpt lat="42.60054613024985" lon="11.866112882957578"><ele>310.0</ele><time>2026-04-11T13:34:25.027Z</time></trkpt><trkpt lat="42.6006571585784" lon="11.86617604517503"><ele>309.0</ele><time>2026-04-11T13:34:27.027Z</time></trkpt><trkpt lat="42.60077238602083" lon="11.86621275053314"><ele>308.0</ele><time>2026-04-11T13:34:29.027Z</time></trkpt><trkpt lat="42.60087408325719" lon="11.866295821123805"><ele>307.0</ele><time>2026-04-11T13:34:31.027Z</time></trkpt><trkpt lat="42.600981992308036" lon="11.866354758761602"><ele>306.0</ele><time>2026-04-11T13:34:33.027Z</time></trkpt><trkpt lat="42.601096700596564" lon="11.86637259611906"><ele>306.2</ele><time>2026-04-11T13:34:35.027Z</time></trkpt><trkpt lat="42.6011983525206" lon="11.866371098781977"><ele>306.40000000000003</ele><time>2026-04-11T13:34:37.027Z</time></trkpt><trkpt lat="42.601298830419665" lon="11.866359712954749"><ele>306.6</ele><time>2026-04-11T13:34:39.026Z</time></trkpt><trkpt lat="42.60139497128024" lon="11.866361177303624"><ele>306.8</ele><time>2026-04-11T13:34:41.026Z</time></trkpt><trkpt lat="42.60149466787025" lon="11.86635562907387"><ele>307.0</ele><time>2026-04-11T13:34:43.025Z</time></trkpt><trkpt lat="42.601598253999555" lon="11.86637446358719"><ele>307.0</ele><time>2026-04-11T13:34:45.024Z</time></trkpt><trkpt lat="42.60170789669822" lon="11.866384147444382"><ele>307.0</ele><time>2026-04-11T13:34:47.023Z</time></trkpt><trkpt lat="42.60183544370247" lon="11.866391409107397"><ele>307.0</ele><time>2026-04-11T13:34:49.023Z</time></trkpt><trkpt lat="42.601958697776396" lon="11.866409961705989"><ele>307.0</ele><time>2026-04-11T13:34:51.022Z</time></trkpt><trkpt lat="42.602080755633665" lon="11.86643583711179"><ele>307.8</ele><time>2026-04-11T13:34:53.022Z</time></trkpt><trkpt lat="42.60220755949916" lon="11.866462918585869"><ele>308.6</ele><time>2026-04-11T13:34:55.021Z</time></trkpt><trkpt lat="42.60227376489446" lon="11.866471831389678"><ele>309.40000000000003</ele><time>2026-04-11T13:34:56.021Z</time></trkpt><trkpt lat="42.60239414548589" lon="11.866500043929742"><ele>310.2</ele><time>2026-04-11T13:34:58.021Z</time></trkpt><trkpt lat="42.60251348482381" lon="11.86653680427545"><ele>311.0</ele><time>2026-04-11T13:35:00.021Z</time></trkpt><trkpt lat="42.60261479205277" lon="11.866572793059381"><ele>311.0</ele><time>2026-04-11T13:35:02.022Z</time></trkpt><trkpt lat="42.602705661498646" lon="11.866618825568276"><ele>311.0</ele><time>2026-04-11T13:35:04.022Z</time></trkpt><trkpt lat="42.602775220160545" lon="11.866677879005229"><ele>311.0</ele><time>2026-04-11T13:35:06.022Z</time></trkpt><trkpt lat="42.602835005302325" lon="11.866733328447465"><ele>311.0</ele><time>2026-04-11T13:35:08.022Z</time></trkpt><trkpt lat="42.602906137905435" lon="11.866813481969247"><ele>311.0</ele><time>2026-04-11T13:35:11.022Z</time></trkpt><trkpt lat="42.60298690698905" lon="11.866873594664424"><ele>311.0</ele><time>2026-04-11T13:35:14.021Z</time></trkpt><trkpt lat="42.60305731395656" lon="11.866878893013093"><ele>310.0</ele><time>2026-04-11T13:35:16.022Z</time></trkpt><trkpt lat="42.603152090324805" lon="11.866839390212657"><ele>309.0</ele><time>2026-04-11T13:35:19.022Z</time></trkpt><trkpt lat="42.603246847699445" lon="11.866784823171317"><ele>308.0</ele><time>2026-04-11T13:35:21.022Z</time></trkpt><trkpt lat="42.60335277694867" lon="11.866736607774875"><ele>307.0</ele><time>2026-04-11T13:35:23.022Z</time></trkpt><trkpt lat="42.60347345623467" lon="11.866704152979818"><ele>306.0</ele><time>2026-04-11T13:35:25.021Z</time></trkpt><trkpt lat="42.60360007149001" lon="11.866691666480744"><ele>306.0</ele><time>2026-04-11T13:35:27.021Z</time></trkpt><trkpt lat="42.6036644532748" lon="11.866696695697666"><ele>306.0</ele><time>2026-04-11T13:35:28.021Z</time></trkpt><trkpt lat="42.60373391701382" lon="11.866714495078519"><ele>306.0</ele><time>2026-04-11T13:35:29.021Z</time></trkpt><trkpt lat="42.603802559052525" lon="11.866728219127738"><ele>306.0</ele><time>2026-04-11T13:35:30.021Z</time></trkpt><trkpt lat="42.60387525307225" lon="11.866744004211101"><ele>306.0</ele><time>2026-04-11T13:35:31.021Z</time></trkpt><trkpt lat="42.60394681288211" lon="11.86675183571527"><ele>306.0</ele><time>2026-04-11T13:35:32.021Z</time></trkpt><trkpt lat="42.604014698684104" lon="11.866769439166431"><ele>306.0</ele><time>2026-04-11T13:35:33.021Z</time></trkpt><trkpt lat="42.6040874491266" lon="11.866791102681807"><ele>306.0</ele><time>2026-04-11T13:35:34.021Z</time></trkpt><trkpt lat="42.60415885374559" lon="11.866813286648604"><ele>306.0</ele><time>2026-04-11T13:35:35.021Z</time></trkpt><trkpt lat="42.60422988454974" lon="11.866840983737506"><ele>306.0</ele><time>2026-04-11T13:35:36.021Z</time></trkpt><trkpt lat="42.6043028130232" lon="11.866875784060982"><ele>306.0</ele><time>2026-04-11T13:35:37.021Z</time></trkpt><trkpt lat="42.60437272034447" lon="11.866902482631536"><ele>306.0</ele><time>2026-04-11T13:35:38.021Z</time></trkpt><trkpt lat="42.60444457885322" lon="11.86691992163751"><ele>306.0</ele><time>2026-04-11T13:35:39.021Z</time></trkpt><trkpt lat="42.60452180876463" lon="11.86694515047785"><ele>306.0</ele><time>2026-04-11T13:35:40.021Z</time></trkpt><trkpt lat="42.60458960523723" lon="11.866966861569084"><ele>306.2857142857143</ele><time>2026-04-11T13:35:41.021Z</time></trkpt><trkpt lat="42.60465967772245" lon="11.866990504153847"><ele>306.57142857142856</ele><time>2026-04-11T13:35:42.021Z</time></trkpt><trkpt lat="42.604733255007844" lon="11.867018511868414"><ele>306.8571428571429</ele><time>2026-04-11T13:35:43.021Z</time></trkpt><trkpt lat="42.60480523762327" lon="11.867044871400712"><ele>307.1428571428571</ele><time>2026-04-11T13:35:44.021Z</time></trkpt><trkpt lat="42.60487747639987" lon="11.867071584270594"><ele>307.42857142857144</ele><time>2026-04-11T13:35:45.021Z</time></trkpt><trkpt lat="42.60494742277977" lon="11.86709982253988"><ele>307.7142857142857</ele><time>2026-04-11T13:35:46.021Z</time></trkpt><trkpt lat="42.60501626052323" lon="11.867125407183226"><ele>308.0</ele><time>2026-04-11T13:35:47.021Z</time></trkpt><trkpt lat="42.60508412533694" lon="11.867147539888874"><ele>308.0</ele><time>2026-04-11T13:35:48.021Z</time></trkpt><trkpt lat="42.60515277234814" lon="11.867174112373666"><ele>308.0</ele><time>2026-04-11T13:35:49.021Z</time></trkpt><trkpt lat="42.605216414858035" lon="11.867201301385387"><ele>308.0</ele><time>2026-04-11T13:35:50.021Z</time></trkpt><trkpt lat="42.605282897051964" lon="11.867226136476052"><ele>308.0</ele><time>2026-04-11T13:35:51.021Z</time></trkpt><trkpt lat="42.60534597940379" lon="11.867253093606616"><ele>308.0</ele><time>2026-04-11T13:35:52.021Z</time></trkpt><trkpt lat="42.605460226865794" lon="11.867315323294505"><ele>308.0</ele><time>2026-04-11T13:35:54.021Z</time></trkpt><trkpt lat="42.60556917283501" lon="11.867378129835116"><ele>308.0</ele><time>2026-04-11T13:35:56.021Z</time></trkpt><trkpt lat="42.605682146734594" lon="11.867448116078513"><ele>308.0</ele><time>2026-04-11T13:35:58.021Z</time></trkpt><trkpt lat="42.605784927288" lon="11.867517289713582"><ele>308.0</ele><time>2026-04-11T13:36:00.021Z</time></trkpt><trkpt lat="42.605897010283286" lon="11.867575660021553"><ele>308.0</ele><time>2026-04-11T13:36:02.021Z</time></trkpt><trkpt lat="42.60599219697876" lon="11.867637783679921"><ele>307.0</ele><time>2026-04-11T13:36:04.021Z</time></trkpt><trkpt lat="42.6060952323387" lon="11.867694317847548"><ele>306.0</ele><time>2026-04-11T13:36:06.021Z</time></trkpt><trkpt lat="42.6062012636172" lon="11.8677424163689"><ele>305.0</ele><time>2026-04-11T13:36:08.021Z</time></trkpt><trkpt lat="42.60631462215999" lon="11.867782243910682"><ele>304.0</ele><time>2026-04-11T13:36:10.021Z</time></trkpt><trkpt lat="42.6064362039966" lon="11.867799608695512"><ele>304.0</ele><time>2026-04-11T13:36:12.02Z</time></trkpt><trkpt lat="42.60650084897615" lon="11.867803583751448"><ele>304.0</ele><time>2026-04-11T13:36:13.02Z</time></trkpt><trkpt lat="42.60657214264319" lon="11.867803741829402"><ele>304.0</ele><time>2026-04-11T13:36:14.02Z</time></trkpt><trkpt lat="42.606700916252855" lon="11.867772224992718"><ele>304.0</ele><time>2026-04-11T13:36:16.02Z</time></trkpt><trkpt lat="42.6067643911163" lon="11.867765740774583"><ele>304.0</ele><time>2026-04-11T13:36:17.02Z</time></trkpt><trkpt lat="42.60688352336567" lon="11.867723785506742"><ele>304.0</ele><time>2026-04-11T13:36:19.02Z</time></trkpt><trkpt lat="42.60694368707717" lon="11.86769715544915"><ele>304.0</ele><time>2026-04-11T13:36:20.02Z</time></trkpt><trkpt lat="42.60700355685765" lon="11.867670700392441"><ele>304.0</ele><time>2026-04-11T13:36:21.02Z</time></trkpt><trkpt lat="42.60711202794238" lon="11.8676214264662"><ele>304.0</ele><time>2026-04-11T13:36:23.02Z</time></trkpt><trkpt lat="42.607219706579166" lon="11.867574016008659"><ele>304.0</ele><time>2026-04-11T13:36:25.02Z</time></trkpt><trkpt lat="42.607332088053525" lon="11.867525463864004"><ele>305.5</ele><time>2026-04-11T13:36:27.02Z</time></trkpt><trkpt lat="42.60744679389845" lon="11.867474560113006"><ele>307.0</ele><time>2026-04-11T13:36:29.02Z</time></trkpt><trkpt lat="42.60756223587742" lon="11.86743287922115"><ele>308.5</ele><time>2026-04-11T13:36:31.02Z</time></trkpt><trkpt lat="42.607672164831335" lon="11.867396395262537"><ele>310.0</ele><time>2026-04-11T13:36:33.02Z</time></trkpt><trkpt lat="42.60778434746114" lon="11.867370538842884"><ele>310.0</ele><time>2026-04-11T13:36:35.02Z</time></trkpt><trkpt lat="42.60789029954043" lon="11.867353384481024"><ele>310.0</ele><time>2026-04-11T13:36:37.02Z</time></trkpt><trkpt lat="42.60800238992911" lon="11.867335394720806"><ele>310.0</ele><time>2026-04-11T13:36:39.02Z</time></trkpt><trkpt lat="42.608114460002376" lon="11.867319445601954"><ele>310.0</ele><time>2026-04-11T13:36:41.02Z</time></trkpt><trkpt lat="42.60822373221689" lon="11.86730758531227"><ele>310.0</ele><time>2026-04-11T13:36:43.02Z</time></trkpt><trkpt lat="42.608331731500805" lon="11.867296947225705"><ele>310.0</ele><time>2026-04-11T13:36:45.02Z</time></trkpt><trkpt lat="42.60843628518103" lon="11.867289148463778"><ele>310.0</ele><time>2026-04-11T13:36:47.02Z</time></trkpt><trkpt lat="42.60853724056753" lon="11.867273715346201"><ele>310.0</ele><time>2026-04-11T13:36:49.02Z</time></trkpt><trkpt lat="42.60863707288938" lon="11.86726295231949"><ele>310.0</ele><time>2026-04-11T13:36:51.02Z</time></trkpt><trkpt lat="42.60871556252732" lon="11.867234927068644"><ele>310.0</ele><time>2026-04-11T13:36:53.02Z</time></trkpt><trkpt lat="42.608801518021025" lon="11.867201887384184"><ele>309.2857142857143</ele><time>2026-04-11T13:36:55.02Z</time></trkpt><trkpt lat="42.6088616464668" lon="11.867149822250292"><ele>308.57142857142856</ele><time>2026-04-11T13:36:57.02Z</time></trkpt><trkpt lat="42.60890743308813" lon="11.86708524594443"><ele>307.8571428571429</ele><time>2026-04-11T13:37:01.02Z</time></trkpt><trkpt lat="42.608877250024996" lon="11.867166432636514"><ele>307.1428571428571</ele><time>2026-04-11T13:37:08.022Z</time></trkpt><trkpt lat="42.60895506011795" lon="11.867209138515726"><ele>306.4285714285714</ele><time>2026-04-11T13:37:16.021Z</time></trkpt><trkpt lat="42.609010402224015" lon="11.867150824419399"><ele>305.7142857142857</ele><time>2026-04-11T13:37:18.022Z</time></trkpt><trkpt lat="42.60907271529001" lon="11.867135459195064"><ele>305.0</ele><time>2026-04-11T13:37:20.021Z</time></trkpt><trkpt lat="42.609138075763816" lon="11.867128219519884"><ele>305.0</ele><time>2026-04-11T13:37:22.021Z</time></trkpt><trkpt lat="42.60922856214115" lon="11.867101209244767"><ele>305.0</ele><time>2026-04-11T13:37:24.021Z</time></trkpt><trkpt lat="42.609322639626505" lon="11.867083786752067"><ele>305.0</ele><time>2026-04-11T13:37:26.021Z</time></trkpt><trkpt lat="42.60941165745017" lon="11.867069322334686"><ele>305.0</ele><time>2026-04-11T13:37:28.021Z</time></trkpt><trkpt lat="42.60948739943822" lon="11.867038291197051"><ele>305.0</ele><time>2026-04-11T13:37:30.021Z</time></trkpt><trkpt lat="42.60956371551332" lon="11.867005574894275"><ele>305.0</ele><time>2026-04-11T13:37:32.021Z</time></trkpt><trkpt lat="42.60963734091904" lon="11.866988051441158"><ele>304.83333333333337</ele><time>2026-04-11T13:37:34.021Z</time></trkpt><trkpt lat="42.60970283128148" lon="11.8669609330313"><ele>304.6666666666667</ele><time>2026-04-11T13:37:36.021Z</time></trkpt><trkpt lat="42.609778331297505" lon="11.866941758323877"><ele>304.5</ele><time>2026-04-11T13:37:38.021Z</time></trkpt><trkpt lat="42.60984554506186" lon="11.866923639223382"><ele>304.3333333333333</ele><time>2026-04-11T13:37:40.021Z</time></trkpt><trkpt lat="42.609920885745524" lon="11.866901856035593"><ele>304.16666666666663</ele><time>2026-04-11T13:37:42.021Z</time></trkpt><trkpt lat="42.609991647982994" lon="11.866865198904154"><ele>304.0</ele><time>2026-04-11T13:37:44.021Z</time></trkpt><trkpt lat="42.61007448930036" lon="11.866845319337274"><ele>304.0</ele><time>2026-04-11T13:37:46.021Z</time></trkpt><trkpt lat="42.61016582047145" lon="11.8668199117669"><ele>304.0</ele><time>2026-04-11T13:37:48.021Z</time></trkpt><trkpt lat="42.61024801089201" lon="11.866798071998325"><ele>304.0</ele><time>2026-04-11T13:37:50.021Z</time></trkpt><trkpt lat="42.61032765763975" lon="11.86678210700116"><ele>304.0</ele><time>2026-04-11T13:37:52.021Z</time></trkpt><trkpt lat="42.61041600468471" lon="11.866788028922684"><ele>304.0</ele><time>2026-04-11T13:37:54.021Z</time></trkpt><trkpt lat="42.610501976875845" lon="11.866763822105796"><ele>304.0</ele><time>2026-04-11T13:37:56.021Z</time></trkpt><trkpt lat="42.6105924244412" lon="11.866734646826702"><ele>304.8</ele><time>2026-04-11T13:37:58.021Z</time></trkpt><trkpt lat="42.610683266125505" lon="11.86672095439258"><ele>305.59999999999997</ele><time>2026-04-11T13:38:00.021Z</time></trkpt><trkpt lat="42.61078137651759" lon="11.866716109671508"><ele>306.4</ele><time>2026-04-11T13:38:02.021Z</time></trkpt><trkpt lat="42.61087794797828" lon="11.866724112367391"><ele>307.2</ele><time>2026-04-11T13:38:04.021Z</time></trkpt><trkpt lat="42.610963335005934" lon="11.866725375745856"><ele>308.0</ele><time>2026-04-11T13:38:06.021Z</time></trkpt><trkpt lat="42.61106771337557" lon="11.866748216620616"><ele>308.2</ele><time>2026-04-11T13:38:08.021Z</time></trkpt><trkpt lat="42.611168761110086" lon="11.866767394432879"><ele>308.4</ele><time>2026-04-11T13:38:10.021Z</time></trkpt><trkpt lat="42.61125987801882" lon="11.866789619964008"><ele>308.59999999999997</ele><time>2026-04-11T13:38:12.021Z</time></trkpt><trkpt lat="42.611354571886714" lon="11.866815402221482"><ele>308.8</ele><time>2026-04-11T13:38:14.021Z</time></trkpt><trkpt lat="42.61146616613451" lon="11.866850365700396"><ele>309.0</ele><time>2026-04-11T13:38:16.021Z</time></trkpt><trkpt lat="42.611551511804166" lon="11.866885520401482"><ele>308.42857142857144</ele><time>2026-04-11T13:38:18.021Z</time></trkpt><trkpt lat="42.61162450378399" lon="11.86691983511361"><ele>307.8571428571429</ele><time>2026-04-11T13:38:20.021Z</time></trkpt><trkpt lat="42.61168511535114" lon="11.866945509157597"><ele>307.28571428571433</ele><time>2026-04-11T13:38:22.021Z</time></trkpt><trkpt lat="42.611747700540604" lon="11.866958238933536"><ele>306.7142857142857</ele><time>2026-04-11T13:38:24.021Z</time></trkpt><trkpt lat="42.611820296456706" lon="11.866979737230892"><ele>306.1428571428571</ele><time>2026-04-11T13:38:26.021Z</time></trkpt><trkpt lat="42.61188531049956" lon="11.86700342922784"><ele>305.5714285714286</ele><time>2026-04-11T13:38:28.021Z</time></trkpt><trkpt lat="42.611962841687884" lon="11.867009687755797"><ele>305.0</ele><time>2026-04-11T13:38:30.021Z</time></trkpt><trkpt lat="42.61206964082934" lon="11.867045127760322"><ele>305.0</ele><time>2026-04-11T13:38:33.02Z</time></trkpt><trkpt lat="42.61215388131341" lon="11.867054000276916"><ele>305.0</ele><time>2026-04-11T13:38:35.02Z</time></trkpt><trkpt lat="42.6122634582987" lon="11.867050690381513"><ele>305.0</ele><time>2026-04-11T13:38:37.02Z</time></trkpt><trkpt lat="42.61236498288515" lon="11.86707562116258"><ele>305.0</ele><time>2026-04-11T13:38:39.02Z</time></trkpt><trkpt lat="42.61245169915208" lon="11.867096518371957"><ele>305.0</ele><time>2026-04-11T13:38:41.02Z</time></trkpt><trkpt lat="42.61255874925662" lon="11.867101064595046"><ele>305.0</ele><time>2026-04-11T13:38:43.02Z</time></trkpt><trkpt lat="42.61266439350696" lon="11.867115603643636"><ele>305.0</ele><time>2026-04-11T13:38:45.02Z</time></trkpt><trkpt lat="42.61277199225883" lon="11.867128717717344"><ele>305.0</ele><time>2026-04-11T13:38:47.02Z</time></trkpt><trkpt lat="42.61287844769333" lon="11.86716531314823"><ele>305.0</ele><time>2026-04-11T13:38:49.02Z</time></trkpt><trkpt lat="42.612990008004395" lon="11.867179407288129"><ele>305.0</ele><time>2026-04-11T13:38:51.02Z</time></trkpt><trkpt lat="42.613090634597924" lon="11.867224204671112"><ele>305.2</ele><time>2026-04-11T13:38:53.02Z</time></trkpt><trkpt lat="42.61319403550972" lon="11.867256323096612"><ele>305.4</ele><time>2026-04-11T13:38:55.02Z</time></trkpt><trkpt lat="42.613296275613536" lon="11.867317301116508"><ele>305.6</ele><time>2026-04-11T13:38:57.02Z</time></trkpt><trkpt lat="42.61340141364188" lon="11.867371610555494"><ele>305.8</ele><time>2026-04-11T13:38:59.02Z</time></trkpt><trkpt lat="42.61349571162458" lon="11.867426736861438"><ele>306.0</ele><time>2026-04-11T13:39:01.02Z</time></trkpt><trkpt lat="42.61359546492192" lon="11.867482622057217"><ele>306.2</ele><time>2026-04-11T13:39:03.02Z</time></trkpt><trkpt lat="42.61368572079718" lon="11.867559997568115"><ele>306.40000000000003</ele><time>2026-04-11T13:39:05.02Z</time></trkpt><trkpt lat="42.6137821896466" lon="11.867625055920232"><ele>306.6</ele><time>2026-04-11T13:39:07.02Z</time></trkpt><trkpt lat="42.613884818157565" lon="11.867673688033074"><ele>306.8</ele><time>2026-04-11T13:39:09.02Z</time></trkpt><trkpt lat="42.613985468939234" lon="11.867731693478303"><ele>307.0</ele><time>2026-04-11T13:39:11.02Z</time></trkpt><trkpt lat="42.61406932902169" lon="11.867799392862336"><ele>306.8</ele><time>2026-04-11T13:39:13.02Z</time></trkpt><trkpt lat="42.614149542011496" lon="11.867879805825904"><ele>306.6</ele><time>2026-04-11T13:39:15.022Z</time></trkpt><trkpt lat="42.61423291735899" lon="11.867945144111482"><ele>306.40000000000003</ele><time>2026-04-11T13:39:17.023Z</time></trkpt><trkpt lat="42.614320560785245" lon="11.868018644458978"><ele>306.2</ele><time>2026-04-11T13:39:19.022Z</time></trkpt><trkpt lat="42.61441488989688" lon="11.868086819217254"><ele>306.0</ele><time>2026-04-11T13:39:21.023Z</time></trkpt><trkpt lat="42.6144997419477" lon="11.868149952370867"><ele>306.0</ele><time>2026-04-11T13:39:23.023Z</time></trkpt><trkpt lat="42.61458670637065" lon="11.868229172738133"><ele>306.0</ele><time>2026-04-11T13:39:25.023Z</time></trkpt><trkpt lat="42.61467853456603" lon="11.868294131485305"><ele>306.0</ele><time>2026-04-11T13:39:27.023Z</time></trkpt><trkpt lat="42.61475742339134" lon="11.868363050897317"><ele>306.0</ele><time>2026-04-11T13:39:29.023Z</time></trkpt><trkpt lat="42.614845586719944" lon="11.868446764747873"><ele>306.0</ele><time>2026-04-11T13:39:31.023Z</time></trkpt><trkpt lat="42.61491550314775" lon="11.86852474187575"><ele>306.0</ele><time>2026-04-11T13:39:33.023Z</time></trkpt><trkpt lat="42.61499320090526" lon="11.868611383204563"><ele>306.0</ele><time>2026-04-11T13:39:35.023Z</time></trkpt><trkpt lat="42.61506406199224" lon="11.86869519518825"><ele>306.0</ele><time>2026-04-11T13:39:37.023Z</time></trkpt><trkpt lat="42.61512805054714" lon="11.868781867620875"><ele>306.0</ele><time>2026-04-11T13:39:39.023Z</time></trkpt><trkpt lat="42.61519915729969" lon="11.868858300761685"><ele>306.0</ele><time>2026-04-11T13:39:41.022Z</time></trkpt><trkpt lat="42.61526889451027" lon="11.868950557669985"><ele>306.0</ele><time>2026-04-11T13:39:43.022Z</time></trkpt><trkpt lat="42.61534248357578" lon="11.869024526414684"><ele>306.0</ele><time>2026-04-11T13:39:45.022Z</time></trkpt><trkpt lat="42.615409037568135" lon="11.869118902855895"><ele>306.0</ele><time>2026-04-11T13:39:47.022Z</time></trkpt><trkpt lat="42.615474445706404" lon="11.869196745593268"><ele>306.0</ele><time>2026-04-11T13:39:49.022Z</time></trkpt><trkpt lat="42.615537843013996" lon="11.86929619178784"><ele>306.0</ele><time>2026-04-11T13:39:51.022Z</time></trkpt><trkpt lat="42.61560572482688" lon="11.86938385375132"><ele>306.0</ele><time>2026-04-11T13:39:53.022Z</time></trkpt><trkpt lat="42.61566879800289" lon="11.869475940442957"><ele>306.0</ele><time>2026-04-11T13:39:55.022Z</time></trkpt><trkpt lat="42.615744720431806" lon="11.869556157069683"><ele>306.0</ele><time>2026-04-11T13:39:57.022Z</time></trkpt><trkpt lat="42.61581145653634" lon="11.869639079530218"><ele>306.0</ele><time>2026-04-11T13:39:59.022Z</time></trkpt><trkpt lat="42.61588265065784" lon="11.869713994761572"><ele>306.0</ele><time>2026-04-11T13:40:01.022Z</time></trkpt><trkpt lat="42.615952813326224" lon="11.869784422791316"><ele>306.0</ele><time>2026-04-11T13:40:03.022Z</time></trkpt><trkpt lat="42.61602811600863" lon="11.869849929401036"><ele>306.0</ele><time>2026-04-11T13:40:05.022Z</time></trkpt><trkpt lat="42.61609483016447" lon="11.869889811856531"><ele>306.0</ele><time>2026-04-11T13:40:07.022Z</time></trkpt><trkpt lat="42.616182479719576" lon="11.869920428564473"><ele>306.0</ele><time>2026-04-11T13:40:09.022Z</time></trkpt><trkpt lat="42.61625015625817" lon="11.86999619393742"><ele>306.0</ele><time>2026-04-11T13:40:11.022Z</time></trkpt><trkpt lat="42.616331393764355" lon="11.870074572249273"><ele>306.0</ele><time>2026-04-11T13:40:13.022Z</time></trkpt><trkpt lat="42.61642213361852" lon="11.870142956387095"><ele>305.8</ele><time>2026-04-11T13:40:15.022Z</time></trkpt><trkpt lat="42.616497818088284" lon="11.870215341708425"><ele>305.6</ele><time>2026-04-11T13:40:17.022Z</time></trkpt><trkpt lat="42.616589154978854" lon="11.870290724516131"><ele>305.4</ele><time>2026-04-11T13:40:19.022Z</time></trkpt><trkpt lat="42.61668261803129" lon="11.870355257950116"><ele>305.2</ele><time>2026-04-11T13:40:21.022Z</time></trkpt><trkpt lat="42.61677733192868" lon="11.87042513203877"><ele>305.0</ele><time>2026-04-11T13:40:23.022Z</time></trkpt><trkpt lat="42.61688326110553" lon="11.870486004095548"><ele>305.0</ele><time>2026-04-11T13:40:25.022Z</time></trkpt><trkpt lat="42.61697808391953" lon="11.870553280830661"><ele>305.0</ele><time>2026-04-11T13:40:27.022Z</time></trkpt><trkpt lat="42.617065902252975" lon="11.870623355882415"><ele>305.0</ele><time>2026-04-11T13:40:29.022Z</time></trkpt><trkpt lat="42.61716002875904" lon="11.870665209182734"><ele>305.0</ele><time>2026-04-11T13:40:31.022Z</time></trkpt><trkpt lat="42.61723592952152" lon="11.870734526596538"><ele>305.0</ele><time>2026-04-11T13:40:33.022Z</time></trkpt><trkpt lat="42.61732199067993" lon="11.870785700783044"><ele>305.0</ele><time>2026-04-11T13:40:35.022Z</time></trkpt><trkpt lat="42.617404613373985" lon="11.870850836983996"><ele>305.0</ele><time>2026-04-11T13:40:37.022Z</time></trkpt><trkpt lat="42.617488188674116" lon="11.870916110318209"><ele>305.0</ele><time>2026-04-11T13:40:39.022Z</time></trkpt><trkpt lat="42.61756841168591" lon="11.870980016022775"><ele>305.0</ele><time>2026-04-11T13:40:41.022Z</time></trkpt><trkpt lat="42.617654094856924" lon="11.87103539351513"><ele>305.0</ele><time>2026-04-11T13:40:43.022Z</time></trkpt><trkpt lat="42.617724013202334" lon="11.871103714430378"><ele>305.0</ele><time>2026-04-11T13:40:45.022Z</time></trkpt><trkpt lat="42.617794282398904" lon="11.871172920914304"><ele>305.0</ele><time>2026-04-11T13:40:47.022Z</time></trkpt><trkpt lat="42.6178649371839" lon="11.871226886300198"><ele>305.0</ele><time>2026-04-11T13:40:49.022Z</time></trkpt><trkpt lat="42.61794135544458" lon="11.871291829126584"><ele>305.0</ele><time>2026-04-11T13:40:51.022Z</time></trkpt><trkpt lat="42.618009945311975" lon="11.871353577499534"><ele>305.0</ele><time>2026-04-11T13:40:53.021Z</time></trkpt><trkpt lat="42.61808211219733" lon="11.871431505866692"><ele>305.0</ele><time>2026-04-11T13:40:55.021Z</time></trkpt><trkpt lat="42.61815882339193" lon="11.871499688139282"><ele>305.0</ele><time>2026-04-11T13:40:57.021Z</time></trkpt><trkpt lat="42.618226957875876" lon="11.871577340314657"><ele>305.0</ele><time>2026-04-11T13:40:59.021Z</time></trkpt><trkpt lat="42.618296121472035" lon="11.871647938691526"><ele>305.0</ele><time>2026-04-11T13:41:01.021Z</time></trkpt><trkpt lat="42.618368014577094" lon="11.871736045199716"><ele>305.0</ele><time>2026-04-11T13:41:03.021Z</time></trkpt><trkpt lat="42.61844659714838" lon="11.871813375680583"><ele>305.0</ele><time>2026-04-11T13:41:05.021Z</time></trkpt><trkpt lat="42.61853100490093" lon="11.871882936999114"><ele>304.8</ele><time>2026-04-11T13:41:07.021Z</time></trkpt><trkpt lat="42.61861165205425" lon="11.871965555320502"><ele>304.6</ele><time>2026-04-11T13:41:09.021Z</time></trkpt><trkpt lat="42.61869041752791" lon="11.872040430386695"><ele>304.4</ele><time>2026-04-11T13:41:11.021Z</time></trkpt><trkpt lat="42.6187824223549" lon="11.872117919355523"><ele>304.2</ele><time>2026-04-11T13:41:13.021Z</time></trkpt><trkpt lat="42.618867925934246" lon="11.87220132324343"><ele>304.0</ele><time>2026-04-11T13:41:15.021Z</time></trkpt><trkpt lat="42.618957976102884" lon="11.872280090960437"><ele>304.4</ele><time>2026-04-11T13:41:17.021Z</time></trkpt><trkpt lat="42.619034729904314" lon="11.872359867366104"><ele>304.79999999999995</ele><time>2026-04-11T13:41:19.021Z</time></trkpt><trkpt lat="42.61912014284406" lon="11.87244301293003"><ele>305.20000000000005</ele><time>2026-04-11T13:41:21.024Z</time></trkpt><trkpt lat="42.61920554947846" lon="11.872522310466923"><ele>305.6</ele><time>2026-04-11T13:41:23.023Z</time></trkpt><trkpt lat="42.619289498345545" lon="11.872599428772972"><ele>306.0</ele><time>2026-04-11T13:41:25.024Z</time></trkpt><trkpt lat="42.619374473553876" lon="11.872670037752352"><ele>306.0</ele><time>2026-04-11T13:41:27.023Z</time></trkpt><trkpt lat="42.61946186853115" lon="11.872723693964723"><ele>306.0</ele><time>2026-04-11T13:41:29.024Z</time></trkpt><trkpt lat="42.619557786324606" lon="11.872750180148412"><ele>306.0</ele><time>2026-04-11T13:41:31.023Z</time></trkpt><trkpt lat="42.61965399483848" lon="11.872759905175808"><ele>306.0</ele><time>2026-04-11T13:41:33.024Z</time></trkpt><trkpt lat="42.61974118366811" lon="11.872770535216382"><ele>306.0</ele><time>2026-04-11T13:41:35.024Z</time></trkpt><trkpt lat="42.61983079200155" lon="11.87277032243573"><ele>306.0</ele><time>2026-04-11T13:41:37.024Z</time></trkpt><trkpt lat="42.61994652626559" lon="11.872792083363173"><ele>306.0</ele><time>2026-04-11T13:41:39.024Z</time></trkpt><trkpt lat="42.62005277036905" lon="11.87278761339583"><ele>306.0</ele><time>2026-04-11T13:41:41.024Z</time></trkpt><trkpt lat="42.62016735564875" lon="11.872783228722856"><ele>306.0</ele><time>2026-04-11T13:41:43.024Z</time></trkpt><trkpt lat="42.62028138852521" lon="11.872782945209355"><ele>305.6</ele><time>2026-04-11T13:41:45.024Z</time></trkpt><trkpt lat="42.62038411953789" lon="11.872765863203924"><ele>305.20000000000005</ele><time>2026-04-11T13:41:47.024Z</time></trkpt><trkpt lat="42.620491942871226" lon="11.872752498157254"><ele>304.79999999999995</ele><time>2026-04-11T13:41:49.024Z</time></trkpt><trkpt lat="42.620589781268805" lon="11.87272982463026"><ele>304.4</ele><time>2026-04-11T13:41:51.024Z</time></trkpt><trkpt lat="42.62067681105426" lon="11.872721370246843"><ele>304.0</ele><time>2026-04-11T13:41:53.024Z</time></trkpt><trkpt lat="42.62077140035252" lon="11.872709924929383"><ele>304.0</ele><time>2026-04-11T13:41:55.024Z</time></trkpt><trkpt lat="42.62087064781968" lon="11.872723561350258"><ele>304.0</ele><time>2026-04-11T13:41:57.024Z</time></trkpt><trkpt lat="42.620973310809624" lon="11.872735157725083"><ele>304.0</ele><time>2026-04-11T13:41:59.024Z</time></trkpt><trkpt lat="42.62107722060892" lon="11.872759605420072"><ele>304.0</ele><time>2026-04-11T13:42:01.024Z</time></trkpt><trkpt lat="42.62118780524531" lon="11.872777663975432"><ele>304.0</ele><time>2026-04-11T13:42:03.023Z</time></trkpt><trkpt lat="42.62130168492633" lon="11.872800643579083"><ele>304.0</ele><time>2026-04-11T13:42:05.023Z</time></trkpt><trkpt lat="42.621417492170536" lon="11.872824219045112"><ele>304.0</ele><time>2026-04-11T13:42:07.023Z</time></trkpt><trkpt lat="42.62153272932219" lon="11.872854511136584"><ele>304.0</ele><time>2026-04-11T13:42:09.023Z</time></trkpt><trkpt lat="42.621596854141295" lon="11.872870129916723"><ele>304.0</ele><time>2026-04-11T13:42:10.023Z</time></trkpt><trkpt lat="42.62170582256669" lon="11.872904920103831"><ele>304.0</ele><time>2026-04-11T13:42:12.023Z</time></trkpt><trkpt lat="42.62181698758645" lon="11.872951970232522"><ele>304.0</ele><time>2026-04-11T13:42:14.023Z</time></trkpt><trkpt lat="42.62192554872141" lon="11.873008629700331"><ele>304.0</ele><time>2026-04-11T13:42:16.023Z</time></trkpt><trkpt lat="42.622037121445246" lon="11.873063715086376"><ele>304.0</ele><time>2026-04-11T13:42:18.023Z</time></trkpt><trkpt lat="42.62213851898961" lon="11.873120246921546"><ele>304.0</ele><time>2026-04-11T13:42:20.023Z</time></trkpt><trkpt lat="42.62225256133509" lon="11.873189046478366"><ele>304.0</ele><time>2026-04-11T13:42:22.023Z</time></trkpt><trkpt lat="42.62235360421307" lon="11.873262174763033"><ele>304.0</ele><time>2026-04-11T13:42:24.023Z</time></trkpt><trkpt lat="42.62241018545248" lon="11.873309157170322"><ele>304.0</ele><time>2026-04-11T13:42:25.023Z</time></trkpt><trkpt lat="42.62246823233398" lon="11.873351781551916"><ele>304.0</ele><time>2026-04-11T13:42:26.023Z</time></trkpt><trkpt lat="42.62257096963642" lon="11.873437078791438"><ele>304.0</ele><time>2026-04-11T13:42:28.023Z</time></trkpt><trkpt lat="42.62262564553077" lon="11.873481510589869"><ele>304.0</ele><time>2026-04-11T13:42:29.023Z</time></trkpt><trkpt lat="42.62272916960207" lon="11.87356893758137"><ele>304.2</ele><time>2026-04-11T13:42:31.023Z</time></trkpt><trkpt lat="42.62283501609432" lon="11.87363738598929"><ele>304.4</ele><time>2026-04-11T13:42:33.023Z</time></trkpt><trkpt lat="42.62293418667056" lon="11.873703470800356"><ele>304.6</ele><time>2026-04-11T13:42:35.023Z</time></trkpt><trkpt lat="42.623034587108" lon="11.873769254278814"><ele>304.8</ele><time>2026-04-11T13:42:37.023Z</time></trkpt><trkpt lat="42.62313549026219" lon="11.873820969006553"><ele>305.0</ele><time>2026-04-11T13:42:39.023Z</time></trkpt><trkpt lat="42.62324399877286" lon="11.873841390713652"><ele>305.0</ele><time>2026-04-11T13:42:41.023Z</time></trkpt><trkpt lat="42.623344403262784" lon="11.873882667833572"><ele>305.0</ele><time>2026-04-11T13:42:43.023Z</time></trkpt><trkpt lat="42.62344503887188" lon="11.873915176206584"><ele>305.0</ele><time>2026-04-11T13:42:45.023Z</time></trkpt><trkpt lat="42.62355042649429" lon="11.873953290904167"><ele>305.0</ele><time>2026-04-11T13:42:47.023Z</time></trkpt><trkpt lat="42.6236606533753" lon="11.87399128680756"><ele>305.0</ele><time>2026-04-11T13:42:49.023Z</time></trkpt><trkpt lat="42.623766684706155" lon="11.874035086561724"><ele>305.0</ele><time>2026-04-11T13:42:51.023Z</time></trkpt><trkpt lat="42.623876802707066" lon="11.874083270405004"><ele>305.0</ele><time>2026-04-11T13:42:53.023Z</time></trkpt><trkpt lat="42.62397838179843" lon="11.87416405173492"><ele>305.0</ele><time>2026-04-11T13:42:55.023Z</time></trkpt><trkpt lat="42.62408659039129" lon="11.874211021076915"><ele>305.0</ele><time>2026-04-11T13:42:57.023Z</time></trkpt><trkpt lat="42.62418878994375" lon="11.874280980601029"><ele>305.0</ele><time>2026-04-11T13:42:59.023Z</time></trkpt><trkpt lat="42.624288834981165" lon="11.87430998671952"><ele>305.0</ele><time>2026-04-11T13:43:01.023Z</time></trkpt><trkpt lat="42.624392540094135" lon="11.874366779023728"><ele>305.0</ele><time>2026-04-11T13:43:03.023Z</time></trkpt><trkpt lat="42.62448062777703" lon="11.8744173952396"><ele>305.0</ele><time>2026-04-11T13:43:05.023Z</time></trkpt><trkpt lat="42.62457401916947" lon="11.874462461757902"><ele>305.0</ele><time>2026-04-11T13:43:07.023Z</time></trkpt><trkpt lat="42.62467429391015" lon="11.874513898206992"><ele>305.0</ele><time>2026-04-11T13:43:09.023Z</time></trkpt><trkpt lat="42.62477903184634" lon="11.874563298632506"><ele>305.0</ele><time>2026-04-11T13:43:11.023Z</time></trkpt><trkpt lat="42.624875440984574" lon="11.874609599082152"><ele>305.0</ele><time>2026-04-11T13:43:13.023Z</time></trkpt><trkpt lat="42.62496727436201" lon="11.874644765147002"><ele>305.0</ele><time>2026-04-11T13:43:15.022Z</time></trkpt><trkpt lat="42.62506775167603" lon="11.874699809849057"><ele>305.0</ele><time>2026-04-11T13:43:17.022Z</time></trkpt><trkpt lat="42.62516727123821" lon="11.874735855293537"><ele>305.0</ele><time>2026-04-11T13:43:19.022Z</time></trkpt><trkpt lat="42.62525806155692" lon="11.874788547460126"><ele>305.0</ele><time>2026-04-11T13:43:21.022Z</time></trkpt><trkpt lat="42.62535996193553" lon="11.874829052725502"><ele>305.0</ele><time>2026-04-11T13:43:23.022Z</time></trkpt><trkpt lat="42.62544675257746" lon="11.87490282810975"><ele>305.0</ele><time>2026-04-11T13:43:25.022Z</time></trkpt><trkpt lat="42.62553416191384" lon="11.874973707320887"><ele>305.0</ele><time>2026-04-11T13:43:27.025Z</time></trkpt><trkpt lat="42.62562613609928" lon="11.875014308420901"><ele>305.0</ele><time>2026-04-11T13:43:29.024Z</time></trkpt><trkpt lat="42.625718422761096" lon="11.875046802261444"><ele>305.0</ele><time>2026-04-11T13:43:31.025Z</time></trkpt><trkpt lat="42.62581724652567" lon="11.875068191749653"><ele>305.0</ele><time>2026-04-11T13:43:33.025Z</time></trkpt><trkpt lat="42.62592761118392" lon="11.87508366366085"><ele>305.0</ele><time>2026-04-11T13:43:35.024Z</time></trkpt><trkpt lat="42.62603465077596" lon="11.875104318004846"><ele>305.0</ele><time>2026-04-11T13:43:37.025Z</time></trkpt><trkpt lat="42.62614426352221" lon="11.87514313875941"><ele>305.0</ele><time>2026-04-11T13:43:39.025Z</time></trkpt><trkpt lat="42.62624494066157" lon="11.875182602236016"><ele>305.0</ele><time>2026-04-11T13:43:41.025Z</time></trkpt><trkpt lat="42.62635436298248" lon="11.875239914144437"><ele>305.0</ele><time>2026-04-11T13:43:43.025Z</time></trkpt><trkpt lat="42.626442594743644" lon="11.875304126583673"><ele>305.0</ele><time>2026-04-11T13:43:45.025Z</time></trkpt><trkpt lat="42.62653675507772" lon="11.875362642947364"><ele>305.0</ele><time>2026-04-11T13:43:47.025Z</time></trkpt><trkpt lat="42.62663323733425" lon="11.875422905375121"><ele>305.0</ele><time>2026-04-11T13:43:49.025Z</time></trkpt><trkpt lat="42.62673642280489" lon="11.875459765296624"><ele>305.0</ele><time>2026-04-11T13:43:51.025Z</time></trkpt><trkpt lat="42.62683435008716" lon="11.875474910262417"><ele>305.0</ele><time>2026-04-11T13:43:53.025Z</time></trkpt><trkpt lat="42.62692546474906" lon="11.875469605199218"><ele>305.0</ele><time>2026-04-11T13:43:55.025Z</time></trkpt><trkpt lat="42.62703292451945" lon="11.875487163903422"><ele>305.0</ele><time>2026-04-11T13:43:57.025Z</time></trkpt><trkpt lat="42.627134944935015" lon="11.87549712483033"><ele>305.0</ele><time>2026-04-11T13:43:59.025Z</time></trkpt><trkpt lat="42.627237643295636" lon="11.875519115526687"><ele>305.0</ele><time>2026-04-11T13:44:01.025Z</time></trkpt><trkpt lat="42.62734715264938" lon="11.87554560675828"><ele>305.0</ele><time>2026-04-11T13:44:03.025Z</time></trkpt><trkpt lat="42.6274392420466" lon="11.875570623365206"><ele>305.0</ele><time>2026-04-11T13:44:05.025Z</time></trkpt><trkpt lat="42.62755565037955" lon="11.875632968305373"><ele>305.0</ele><time>2026-04-11T13:44:07.025Z</time></trkpt><trkpt lat="42.627667929026096" lon="11.875696510496786"><ele>305.0</ele><time>2026-04-11T13:44:09.025Z</time></trkpt><trkpt lat="42.627725827747284" lon="11.875732743437542"><ele>305.0</ele><time>2026-04-11T13:44:10.025Z</time></trkpt><trkpt lat="42.627831994824845" lon="11.875799994386849"><ele>305.0</ele><time>2026-04-11T13:44:12.025Z</time></trkpt><trkpt lat="42.62793218464596" lon="11.87587627033615"><ele>305.0</ele><time>2026-04-11T13:44:14.024Z</time></trkpt><trkpt lat="42.628039045360026" lon="11.875958018363018"><ele>305.0</ele><time>2026-04-11T13:44:16.024Z</time></trkpt><trkpt lat="42.6281376326625" lon="11.876038139443098"><ele>305.5</ele><time>2026-04-11T13:44:18.024Z</time></trkpt><trkpt lat="42.628234648077076" lon="11.87613280378184"><ele>306.0</ele><time>2026-04-11T13:44:20.024Z</time></trkpt><trkpt lat="42.62832922963445" lon="11.87622878188187"><ele>306.5</ele><time>2026-04-11T13:44:22.024Z</time></trkpt><trkpt lat="42.628434271634944" lon="11.87630154258655"><ele>307.0</ele><time>2026-04-11T13:44:24.024Z</time></trkpt><trkpt lat="42.62853370577607" lon="11.876393570929876"><ele>307.0</ele><time>2026-04-11T13:44:26.024Z</time></trkpt><trkpt lat="42.62862988661067" lon="11.876474839335454"><ele>307.0</ele><time>2026-04-11T13:44:28.024Z</time></trkpt><trkpt lat="42.62868845974585" lon="11.876516117499477"><ele>307.0</ele><time>2026-04-11T13:44:29.024Z</time></trkpt><trkpt lat="42.628787699290555" lon="11.87661791786144"><ele>307.0</ele><time>2026-04-11T13:44:31.024Z</time></trkpt><trkpt lat="42.62888086251138" lon="11.876719182898212"><ele>307.0</ele><time>2026-04-11T13:44:33.024Z</time></trkpt><trkpt lat="42.628972428978905" lon="11.876821686021206"><ele>306.75</ele><time>2026-04-11T13:44:35.024Z</time></trkpt><trkpt lat="42.62905263540458" lon="11.876947088950505"><ele>306.5</ele><time>2026-04-11T13:44:37.024Z</time></trkpt><trkpt lat="42.62914364631398" lon="11.877049659534226"><ele>306.25</ele><time>2026-04-11T13:44:39.024Z</time></trkpt><trkpt lat="42.629239033981214" lon="11.877148880050026"><ele>306.0</ele><time>2026-04-11T13:44:41.024Z</time></trkpt><trkpt lat="42.62932095647434" lon="11.8772601684931"><ele>306.0</ele><time>2026-04-11T13:44:43.024Z</time></trkpt><trkpt lat="42.62940239839152" lon="11.877378739436454"><ele>306.0</ele><time>2026-04-11T13:44:45.024Z</time></trkpt><trkpt lat="42.62947506419604" lon="11.87750362278475"><ele>306.0</ele><time>2026-04-11T13:44:47.024Z</time></trkpt><trkpt lat="42.62954338268788" lon="11.877616880500828"><ele>306.0</ele><time>2026-04-11T13:44:49.024Z</time></trkpt><trkpt lat="42.629618453593466" lon="11.877748236848667"><ele>306.0</ele><time>2026-04-11T13:44:51.024Z</time></trkpt><trkpt lat="42.62968162385174" lon="11.877878646782264"><ele>306.0</ele><time>2026-04-11T13:44:53.024Z</time></trkpt><trkpt lat="42.62975166488387" lon="11.877998592113334"><ele>306.0</ele><time>2026-04-11T13:44:55.024Z</time></trkpt><trkpt lat="42.62982566527839" lon="11.878120711990622"><ele>306.0</ele><time>2026-04-11T13:44:57.024Z</time></trkpt><trkpt lat="42.62990290008476" lon="11.87823855097891"><ele>306.0</ele><time>2026-04-11T13:44:59.024Z</time></trkpt><trkpt lat="42.6299785123963" lon="11.878342620025267"><ele>306.0</ele><time>2026-04-11T13:45:01.024Z</time></trkpt><trkpt lat="42.63005786448604" lon="11.878451111318723"><ele>306.0</ele><time>2026-04-11T13:45:03.024Z</time></trkpt><trkpt lat="42.63013886515995" lon="11.878557037172477"><ele>306.0</ele><time>2026-04-11T13:45:05.024Z</time></trkpt><trkpt lat="42.63020734526076" lon="11.878654429926032"><ele>306.0</ele><time>2026-04-11T13:45:07.024Z</time></trkpt><trkpt lat="42.630277616838285" lon="11.8787579823756"><ele>306.0</ele><time>2026-04-11T13:45:09.024Z</time></trkpt><trkpt lat="42.63035209196333" lon="11.878858733737705"><ele>306.0</ele><time>2026-04-11T13:45:11.024Z</time></trkpt><trkpt lat="42.63042331540707" lon="11.878964003303425"><ele>306.0</ele><time>2026-04-11T13:45:13.024Z</time></trkpt><trkpt lat="42.63047856551021" lon="11.879084975956623"><ele>306.0</ele><time>2026-04-11T13:45:15.024Z</time></trkpt><trkpt lat="42.630534124185594" lon="11.879199938795818"><ele>306.0</ele><time>2026-04-11T13:45:17.024Z</time></trkpt><trkpt lat="42.63059873919638" lon="11.879313601113221"><ele>305.8</ele><time>2026-04-11T13:45:19.024Z</time></trkpt><trkpt lat="42.630673411836824" lon="11.87943459578343"><ele>305.6</ele><time>2026-04-11T13:45:21.024Z</time></trkpt><trkpt lat="42.63073038419861" lon="11.879536499506882"><ele>305.4</ele><time>2026-04-11T13:45:23.024Z</time></trkpt><trkpt lat="42.63078332991686" lon="11.879645286385987"><ele>305.2</ele><time>2026-04-11T13:45:25.024Z</time></trkpt><trkpt lat="42.63084330393463" lon="11.879757195078984"><ele>305.0</ele><time>2026-04-11T13:45:27.023Z</time></trkpt><trkpt lat="42.630909067312075" lon="11.8798555025787"><ele>305.0</ele><time>2026-04-11T13:45:29.023Z</time></trkpt><trkpt lat="42.63095801813968" lon="11.879977918036307"><ele>305.0</ele><time>2026-04-11T13:45:31.023Z</time></trkpt><trkpt lat="42.631015020080255" lon="11.880086828176562"><ele>305.0</ele><time>2026-04-11T13:45:33.026Z</time></trkpt><trkpt lat="42.63108681384152" lon="11.88019663934425"><ele>305.0</ele><time>2026-04-11T13:45:35.026Z</time></trkpt><trkpt lat="42.63112297827144" lon="11.880311395904465"><ele>305.0</ele><time>2026-04-11T13:45:37.026Z</time></trkpt><trkpt lat="42.631160852607394" lon="11.880400665070088"><ele>305.0</ele><time>2026-04-11T13:45:39.025Z</time></trkpt><trkpt lat="42.631209745211" lon="11.88048310755483"><ele>305.0</ele><time>2026-04-11T13:45:41.026Z</time></trkpt><trkpt lat="42.63125201846835" lon="11.88058038243331"><ele>305.0</ele><time>2026-04-11T13:45:43.025Z</time></trkpt><trkpt lat="42.63131964643353" lon="11.880665976668155"><ele>305.0</ele><time>2026-04-11T13:45:45.026Z</time></trkpt><trkpt lat="42.63138147388372" lon="11.880763137302198"><ele>305.0</ele><time>2026-04-11T13:45:47.026Z</time></trkpt><trkpt lat="42.63143196801029" lon="11.880878581279234"><ele>305.0</ele><time>2026-04-11T13:45:49.026Z</time></trkpt><trkpt lat="42.631472413667666" lon="11.880979488521644"><ele>305.0</ele><time>2026-04-11T13:45:51.026Z</time></trkpt><trkpt lat="42.631546030906286" lon="11.881057471034135"><ele>305.0</ele><time>2026-04-11T13:45:53.026Z</time></trkpt><trkpt lat="42.63163416289017" lon="11.88111999479329"><ele>305.0</ele><time>2026-04-11T13:45:55.026Z</time></trkpt><trkpt lat="42.63173374882097" lon="11.881159728858332"><ele>305.0</ele><time>2026-04-11T13:45:57.026Z</time></trkpt><trkpt lat="42.63182588831372" lon="11.881209340529285"><ele>305.0</ele><time>2026-04-11T13:45:59.026Z</time></trkpt><trkpt lat="42.631911231294026" lon="11.88126346585526"><ele>305.8</ele><time>2026-04-11T13:46:01.026Z</time></trkpt><trkpt lat="42.63199220298767" lon="11.881336819753402"><ele>306.6</ele><time>2026-04-11T13:46:03.026Z</time></trkpt><trkpt lat="42.63207524009366" lon="11.881417688887735"><ele>307.4</ele><time>2026-04-11T13:46:05.026Z</time></trkpt><trkpt lat="42.63214913285262" lon="11.88151174423638"><ele>308.2</ele><time>2026-04-11T13:46:07.026Z</time></trkpt><trkpt lat="42.632210443268534" lon="11.881611777115197"><ele>309.0</ele><time>2026-04-11T13:46:09.026Z</time></trkpt><trkpt lat="42.632275812174605" lon="11.881712423284645"><ele>308.4</ele><time>2026-04-11T13:46:11.026Z</time></trkpt><trkpt lat="42.63233885095883" lon="11.881810033470801"><ele>307.79999999999995</ele><time>2026-04-11T13:46:13.026Z</time></trkpt><trkpt lat="42.632404297708945" lon="11.881904183393983"><ele>307.20000000000005</ele><time>2026-04-11T13:46:15.026Z</time></trkpt><trkpt lat="42.63246584812594" lon="11.882005945273383"><ele>306.6</ele><time>2026-04-11T13:46:17.026Z</time></trkpt><trkpt lat="42.63251748054243" lon="11.882099948717766"><ele>306.0</ele><time>2026-04-11T13:46:19.026Z</time></trkpt><trkpt lat="42.63257322856411" lon="11.88219407976534"><ele>306.0</ele><time>2026-04-11T13:46:21.026Z</time></trkpt><trkpt lat="42.63263272602054" lon="11.88226021873201"><ele>306.0</ele><time>2026-04-11T13:46:23.026Z</time></trkpt><trkpt lat="42.63268567933599" lon="11.882343731355524"><ele>306.0</ele><time>2026-04-11T13:46:25.026Z</time></trkpt><trkpt lat="42.632750609827156" lon="11.882433753535055"><ele>306.0</ele><time>2026-04-11T13:46:27.026Z</time></trkpt><trkpt lat="42.63281503550278" lon="11.882506733383604"><ele>306.0</ele><time>2026-04-11T13:46:29.026Z</time></trkpt><trkpt lat="42.632876325312516" lon="11.882551197372317"><ele>306.0</ele><time>2026-04-11T13:46:31.026Z</time></trkpt><trkpt lat="42.632946118294726" lon="11.882604188060013"><ele>306.0</ele><time>2026-04-11T13:46:33.026Z</time></trkpt><trkpt lat="42.63299881541904" lon="11.88265366040542"><ele>306.0</ele><time>2026-04-11T13:46:35.025Z</time></trkpt><trkpt lat="42.633073401540194" lon="11.882659935605385"><ele>306.0</ele><time>2026-04-11T13:46:37.025Z</time></trkpt><trkpt lat="42.63314947300921" lon="11.882716047559782"><ele>306.0</ele><time>2026-04-11T13:46:39.025Z</time></trkpt><trkpt lat="42.63322482004214" lon="11.882760220994845"><ele>306.0</ele><time>2026-04-11T13:46:41.025Z</time></trkpt><trkpt lat="42.63331556940638" lon="11.882788520573564"><ele>306.0</ele><time>2026-04-11T13:46:43.025Z</time></trkpt><trkpt lat="42.63340631719311" lon="11.88285239039357"><ele>306.0</ele><time>2026-04-11T13:46:45.025Z</time></trkpt><trkpt lat="42.63350177303701" lon="11.882902999681809"><ele>306.0</ele><time>2026-04-11T13:46:47.025Z</time></trkpt><trkpt lat="42.63359336804021" lon="11.88295045479838"><ele>306.0</ele><time>2026-04-11T13:46:49.025Z</time></trkpt><trkpt lat="42.63365055400185" lon="11.883006547977482"><ele>306.0</ele><time>2026-04-11T13:46:51.025Z</time></trkpt><trkpt lat="42.633704103670816" lon="11.883067529568624"><ele>306.0</ele><time>2026-04-11T13:46:54.025Z</time></trkpt><trkpt lat="42.63377250888505" lon="11.88312843036032"><ele>306.0</ele><time>2026-04-11T13:46:58.025Z</time></trkpt><trkpt lat="42.63382035440446" lon="11.883194545209909"><ele>306.0</ele><time>2026-04-11T13:47:00.025Z</time></trkpt><trkpt lat="42.63388422518751" lon="11.883260609505344"><ele>306.0</ele><time>2026-04-11T13:47:02.025Z</time></trkpt><trkpt lat="42.6339456755065" lon="11.883326321836789"><ele>306.0</ele><time>2026-04-11T13:47:04.025Z</time></trkpt><trkpt lat="42.63401776133508" lon="11.883398481913494"><ele>306.0</ele><time>2026-04-11T13:47:06.025Z</time></trkpt><trkpt lat="42.63408201202742" lon="11.883494349112066"><ele>306.0</ele><time>2026-04-11T13:47:08.025Z</time></trkpt><trkpt lat="42.63413746300177" lon="11.883600984059182"><ele>306.0</ele><time>2026-04-11T13:47:10.025Z</time></trkpt><trkpt lat="42.63419155317457" lon="11.883697318376305"><ele>306.0</ele><time>2026-04-11T13:47:12.025Z</time></trkpt><trkpt lat="42.63425329154667" lon="11.883788530955727"><ele>306.0</ele><time>2026-04-11T13:47:14.025Z</time></trkpt><trkpt lat="42.63432199601542" lon="11.883864266446544"><ele>306.0</ele><time>2026-04-11T13:47:16.025Z</time></trkpt><trkpt lat="42.63440249332119" lon="11.883956866220435"><ele>306.0</ele><time>2026-04-11T13:47:19.025Z</time></trkpt><trkpt lat="42.63446689366943" lon="11.884045920721382"><ele>306.0</ele><time>2026-04-11T13:47:21.025Z</time></trkpt><trkpt lat="42.634528266033115" lon="11.88413686554413"><ele>306.0</ele><time>2026-04-11T13:47:23.025Z</time></trkpt><trkpt lat="42.634576800474186" lon="11.88424759195061"><ele>306.0</ele><time>2026-04-11T13:47:25.025Z</time></trkpt><trkpt lat="42.63463065995746" lon="11.884346010507814"><ele>306.0</ele><time>2026-04-11T13:47:27.025Z</time></trkpt><trkpt lat="42.634686466468665" lon="11.884450312665571"><ele>306.0</ele><time>2026-04-11T13:47:29.025Z</time></trkpt><trkpt lat="42.63475481906866" lon="11.884533264204663"><ele>306.0</ele><time>2026-04-11T13:47:31.025Z</time></trkpt><trkpt lat="42.63482394803725" lon="11.884638051719861"><ele>306.0</ele><time>2026-04-11T13:47:33.025Z</time></trkpt><trkpt lat="42.63488525918835" lon="11.88474432102821"><ele>306.0</ele><time>2026-04-11T13:47:35.025Z</time></trkpt><trkpt lat="42.63494765728545" lon="11.884837585473313"><ele>306.0</ele><time>2026-04-11T13:47:37.025Z</time></trkpt><trkpt lat="42.63500022698061" lon="11.884941033775993"><ele>306.0</ele><time>2026-04-11T13:47:39.026Z</time></trkpt><trkpt lat="42.63506062099108" lon="11.88503590845948"><ele>306.0</ele><time>2026-04-11T13:47:41.027Z</time></trkpt><trkpt lat="42.635103230064146" lon="11.885150161117851"><ele>306.2</ele><time>2026-04-11T13:47:43.026Z</time></trkpt><trkpt lat="42.63514982991031" lon="11.885255839380084"><ele>306.40000000000003</ele><time>2026-04-11T13:47:45.027Z</time></trkpt><trkpt lat="42.63520852552325" lon="11.885367046249025"><ele>306.6</ele><time>2026-04-11T13:47:47.026Z</time></trkpt><trkpt lat="42.63526558380038" lon="11.885475187692377"><ele>306.8</ele><time>2026-04-11T13:47:49.027Z</time></trkpt><trkpt lat="42.63531204810907" lon="11.885589341279855"><ele>307.0</ele><time>2026-04-11T13:47:51.026Z</time></trkpt><trkpt lat="42.63536029066918" lon="11.88570245028834"><ele>307.0</ele><time>2026-04-11T13:47:53.026Z</time></trkpt><trkpt lat="42.63539985725287" lon="11.885816511099044"><ele>307.0</ele><time>2026-04-11T13:47:55.026Z</time></trkpt><trkpt lat="42.635448359153095" lon="11.885927806993271"><ele>307.0</ele><time>2026-04-11T13:47:57.026Z</time></trkpt><trkpt lat="42.635500146035035" lon="11.886035210504778"><ele>307.0</ele><time>2026-04-11T13:47:59.026Z</time></trkpt><trkpt lat="42.635549774717674" lon="11.886141184899001"><ele>307.0</ele><time>2026-04-11T13:48:01.026Z</time></trkpt><trkpt lat="42.635599720475426" lon="11.886246518995936"><ele>307.0</ele><time>2026-04-11T13:48:03.026Z</time></trkpt><trkpt lat="42.63565156751952" lon="11.886349332819298"><ele>307.0</ele><time>2026-04-11T13:48:05.026Z</time></trkpt><trkpt lat="42.635704894479005" lon="11.886453030123162"><ele>307.0</ele><time>2026-04-11T13:48:07.026Z</time></trkpt><trkpt lat="42.63575879846563" lon="11.886564018557696"><ele>307.0</ele><time>2026-04-11T13:48:09.026Z</time></trkpt><trkpt lat="42.63580796949405" lon="11.88667759310935"><ele>307.0</ele><time>2026-04-11T13:48:11.026Z</time></trkpt><trkpt lat="42.635863831779126" lon="11.886786815430348"><ele>306.8</ele><time>2026-04-11T13:48:13.026Z</time></trkpt><trkpt lat="42.63590548569476" lon="11.886897455563322"><ele>306.6</ele><time>2026-04-11T13:48:15.026Z</time></trkpt><trkpt lat="42.63596533593006" lon="11.887009642277263"><ele>306.40000000000003</ele><time>2026-04-11T13:48:17.026Z</time></trkpt><trkpt lat="42.6360107151051" lon="11.887120150707002"><ele>306.2</ele><time>2026-04-11T13:48:19.026Z</time></trkpt><trkpt lat="42.636057092084876" lon="11.887230768438881"><ele>306.0</ele><time>2026-04-11T13:48:21.026Z</time></trkpt><trkpt lat="42.63610783987889" lon="11.887355336812405"><ele>306.2</ele><time>2026-04-11T13:48:23.026Z</time></trkpt><trkpt lat="42.636156310802264" lon="11.887477056495905"><ele>306.40000000000003</ele><time>2026-04-11T13:48:25.026Z</time></trkpt><trkpt lat="42.63619825154503" lon="11.887593221531334"><ele>306.6</ele><time>2026-04-11T13:48:27.026Z</time></trkpt><trkpt lat="42.636216834034286" lon="11.88770785542334"><ele>306.8</ele><time>2026-04-11T13:48:29.026Z</time></trkpt><trkpt lat="42.63622748891562" lon="11.887814034666835"><ele>307.0</ele><time>2026-04-11T13:48:31.026Z</time></trkpt><trkpt lat="42.63628586260737" lon="11.887942930988464"><ele>306.25</ele><time>2026-04-11T13:48:34.026Z</time></trkpt><trkpt lat="42.63636025185157" lon="11.888018402903288"><ele>305.5</ele><time>2026-04-11T13:48:36.026Z</time></trkpt><trkpt lat="42.63645473880091" lon="11.888126749758076"><ele>304.75</ele><time>2026-04-11T13:48:38.026Z</time></trkpt><trkpt lat="42.636563494345545" lon="11.888207532478097"><ele>304.0</ele><time>2026-04-11T13:48:40.026Z</time></trkpt><trkpt lat="42.63668603497612" lon="11.8882692765313"><ele>304.0</ele><time>2026-04-11T13:48:42.026Z</time></trkpt><trkpt lat="42.63674644256624" lon="11.888296579855814"><ele>304.0</ele><time>2026-04-11T13:48:43.026Z</time></trkpt><trkpt lat="42.63686594789618" lon="11.888342799760377"><ele>304.0</ele><time>2026-04-11T13:48:45.025Z</time></trkpt><trkpt lat="42.63697192466317" lon="11.888396362610212"><ele>304.0</ele><time>2026-04-11T13:48:47.025Z</time></trkpt><trkpt lat="42.63707467891642" lon="11.88846110683824"><ele>304.0</ele><time>2026-04-11T13:48:49.025Z</time></trkpt><trkpt lat="42.63716436699109" lon="11.888535265792266"><ele>304.0</ele><time>2026-04-11T13:48:51.025Z</time></trkpt><trkpt lat="42.63725307532235" lon="11.888593556679151"><ele>304.0</ele><time>2026-04-11T13:48:53.025Z</time></trkpt><trkpt lat="42.63734935442673" lon="11.888628469333982"><ele>304.0</ele><time>2026-04-11T13:48:55.025Z</time></trkpt><trkpt lat="42.63742805860436" lon="11.888687037031339"><ele>304.0</ele><time>2026-04-11T13:48:57.025Z</time></trkpt><trkpt lat="42.637526471789485" lon="11.888753859121184"><ele>304.0</ele><time>2026-04-11T13:48:59.025Z</time></trkpt><trkpt lat="42.63763797824145" lon="11.888814699108101"><ele>304.0</ele><time>2026-04-11T13:49:01.025Z</time></trkpt><trkpt lat="42.63774625401115" lon="11.888873044828285"><ele>304.0</ele><time>2026-04-11T13:49:03.025Z</time></trkpt><trkpt lat="42.63785252176682" lon="11.88894219884881"><ele>304.0</ele><time>2026-04-11T13:49:05.025Z</time></trkpt><trkpt lat="42.637961886613446" lon="11.888991457967593"><ele>304.0</ele><time>2026-04-11T13:49:07.025Z</time></trkpt><trkpt lat="42.63807135792823" lon="11.88902966470832"><ele>304.4</ele><time>2026-04-11T13:49:09.025Z</time></trkpt><trkpt lat="42.63817903362955" lon="11.88906061299666"><ele>304.79999999999995</ele><time>2026-04-11T13:49:11.025Z</time></trkpt><trkpt lat="42.63828265381705" lon="11.889074567085325"><ele>305.20000000000005</ele><time>2026-04-11T13:49:13.025Z</time></trkpt><trkpt lat="42.63838156669798" lon="11.889103335553168"><ele>305.6</ele><time>2026-04-11T13:49:15.025Z</time></trkpt><trkpt lat="42.63847741559959" lon="11.889118097944113"><ele>306.0</ele><time>2026-04-11T13:49:17.025Z</time></trkpt><trkpt lat="42.63856766529171" lon="11.889128713103032"><ele>306.0</ele><time>2026-04-11T13:49:19.025Z</time></trkpt><trkpt lat="42.63865460544585" lon="11.889138867562353"><ele>306.0</ele><time>2026-04-11T13:49:21.025Z</time></trkpt><trkpt lat="42.63874475868404" lon="11.889161758380947"><ele>306.0</ele><time>2026-04-11T13:49:23.025Z</time></trkpt><trkpt lat="42.638841150442936" lon="11.889171451193388"><ele>306.0</ele><time>2026-04-11T13:49:25.025Z</time></trkpt><trkpt lat="42.638946872745" lon="11.889184254169647"><ele>306.0</ele><time>2026-04-11T13:49:27.025Z</time></trkpt><trkpt lat="42.63905685492951" lon="11.88919684585767"><ele>306.0</ele><time>2026-04-11T13:49:29.025Z</time></trkpt><trkpt lat="42.63917233978847" lon="11.889209320537688"><ele>306.0</ele><time>2026-04-11T13:49:31.025Z</time></trkpt><trkpt lat="42.639283830523155" lon="11.889205679727308"><ele>306.0</ele><time>2026-04-11T13:49:33.025Z</time></trkpt><trkpt lat="42.63938459982615" lon="11.889187071471044"><ele>306.0</ele><time>2026-04-11T13:49:35.025Z</time></trkpt><trkpt lat="42.63949544148869" lon="11.889188815390906"><ele>306.0</ele><time>2026-04-11T13:49:37.025Z</time></trkpt><trkpt lat="42.6395961832893" lon="11.889185416827885"><ele>305.8</ele><time>2026-04-11T13:49:39.025Z</time></trkpt><trkpt lat="42.6396937435521" lon="11.88919507512534"><ele>305.6</ele><time>2026-04-11T13:49:41.025Z</time></trkpt><trkpt lat="42.63980250360711" lon="11.889196204381408"><ele>305.4</ele><time>2026-04-11T13:49:43.025Z</time></trkpt><trkpt lat="42.63991051531906" lon="11.889192851292593"><ele>305.2</ele><time>2026-04-11T13:49:45.027Z</time></trkpt><trkpt lat="42.640024939852985" lon="11.889193799589343"><ele>305.0</ele><time>2026-04-11T13:49:47.027Z</time></trkpt><trkpt lat="42.640132208549396" lon="11.889195415863405"><ele>305.0</ele><time>2026-04-11T13:49:49.028Z</time></trkpt><trkpt lat="42.64024531698139" lon="11.88921126009054"><ele>305.0</ele><time>2026-04-11T13:49:51.027Z</time></trkpt><trkpt lat="42.64035402824696" lon="11.889225208994915"><ele>305.0</ele><time>2026-04-11T13:49:53.028Z</time></trkpt><trkpt lat="42.64046186449789" lon="11.889224955658916"><ele>305.0</ele><time>2026-04-11T13:49:55.028Z</time></trkpt><trkpt lat="42.64057540887341" lon="11.889241931337656"><ele>305.0</ele><time>2026-04-11T13:49:57.028Z</time></trkpt><trkpt lat="42.64067982419316" lon="11.889262326162358"><ele>305.0</ele><time>2026-04-11T13:49:59.028Z</time></trkpt><trkpt lat="42.64079319017995" lon="11.889311087231853"><ele>305.0</ele><time>2026-04-11T13:50:01.028Z</time></trkpt><trkpt lat="42.64085248107211" lon="11.88934039997301"><ele>305.0</ele><time>2026-04-11T13:50:02.028Z</time></trkpt><trkpt lat="42.640914382007296" lon="11.889366293806217"><ele>305.0</ele><time>2026-04-11T13:50:03.028Z</time></trkpt><trkpt lat="42.64101850037343" lon="11.889418333219492"><ele>305.0</ele><time>2026-04-11T13:50:05.028Z</time></trkpt><trkpt lat="42.641123039158344" lon="11.889474060697625"><ele>305.0</ele><time>2026-04-11T13:50:07.028Z</time></trkpt><trkpt lat="42.64123408597657" lon="11.889528442208565"><ele>305.0</ele><time>2026-04-11T13:50:09.028Z</time></trkpt><trkpt lat="42.64133762545217" lon="11.889567027546033"><ele>305.0</ele><time>2026-04-11T13:50:11.028Z</time></trkpt><trkpt lat="42.64144307460975" lon="11.889612400219198"><ele>305.0</ele><time>2026-04-11T13:50:13.028Z</time></trkpt><trkpt lat="42.641541168084046" lon="11.889685598997916"><ele>305.0</ele><time>2026-04-11T13:50:15.028Z</time></trkpt><trkpt lat="42.64163319954248" lon="11.889716413047035"><ele>305.0</ele><time>2026-04-11T13:50:17.028Z</time></trkpt><trkpt lat="42.641721552944155" lon="11.889762696441917"><ele>305.0</ele><time>2026-04-11T13:50:19.028Z</time></trkpt><trkpt lat="42.64180690942437" lon="11.889830323304302"><ele>305.0</ele><time>2026-04-11T13:50:21.027Z</time></trkpt><trkpt lat="42.64188493507341" lon="11.88990757914719"><ele>305.0</ele><time>2026-04-11T13:50:23.027Z</time></trkpt><trkpt lat="42.641966326834165" lon="11.889976930314335"><ele>305.0</ele><time>2026-04-11T13:50:25.027Z</time></trkpt><trkpt lat="42.64205163384224" lon="11.890053962239877"><ele>305.0</ele><time>2026-04-11T13:50:27.027Z</time></trkpt><trkpt lat="42.642127152324605" lon="11.890131359418254"><ele>305.0</ele><time>2026-04-11T13:50:29.027Z</time></trkpt><trkpt lat="42.64220083806402" lon="11.890212030496128"><ele>305.0</ele><time>2026-04-11T13:50:31.027Z</time></trkpt><trkpt lat="42.642259799730425" lon="11.890288167933244"><ele>305.0</ele><time>2026-04-11T13:50:33.027Z</time></trkpt><trkpt lat="42.64232089110254" lon="11.890347024034817"><ele>305.0</ele><time>2026-04-11T13:50:35.027Z</time></trkpt><trkpt lat="42.642380351344215" lon="11.890411693161267"><ele>305.0</ele><time>2026-04-11T13:50:37.027Z</time></trkpt><trkpt lat="42.642447188109706" lon="11.890480876991216"><ele>305.0</ele><time>2026-04-11T13:50:39.027Z</time></trkpt><trkpt lat="42.64251031790137" lon="11.890535263364779"><ele>305.0</ele><time>2026-04-11T13:50:41.027Z</time></trkpt><trkpt lat="42.64256851744365" lon="11.890595931883245"><ele>305.0</ele><time>2026-04-11T13:50:43.027Z</time></trkpt><trkpt lat="42.64263544546742" lon="11.890654495068224"><ele>305.0</ele><time>2026-04-11T13:50:45.027Z</time></trkpt><trkpt lat="42.64268878543631" lon="11.890732731351711"><ele>305.0</ele><time>2026-04-11T13:50:47.027Z</time></trkpt><trkpt lat="42.642750766208714" lon="11.890810579252406"><ele>305.0</ele><time>2026-04-11T13:50:49.027Z</time></trkpt><trkpt lat="42.642810979914685" lon="11.890891854926156"><ele>305.0</ele><time>2026-04-11T13:50:51.027Z</time></trkpt><trkpt lat="42.64287473758609" lon="11.890982067205952"><ele>305.0</ele><time>2026-04-11T13:50:53.027Z</time></trkpt><trkpt lat="42.642931794695976" lon="11.891081748730342"><ele>305.0</ele><time>2026-04-11T13:50:55.027Z</time></trkpt><trkpt lat="42.64298073667374" lon="11.891192238249381"><ele>305.0</ele><time>2026-04-11T13:50:57.027Z</time></trkpt><trkpt lat="42.643032841282796" lon="11.891302357022084"><ele>305.0</ele><time>2026-04-11T13:50:59.027Z</time></trkpt><trkpt lat="42.64308169068699" lon="11.891420143454516"><ele>305.0</ele><time>2026-04-11T13:51:01.027Z</time></trkpt><trkpt lat="42.643142196651084" lon="11.89153207193705"><ele>305.0</ele><time>2026-04-11T13:51:03.027Z</time></trkpt><trkpt lat="42.64319278670728" lon="11.891655131701771"><ele>305.0</ele><time>2026-04-11T13:51:05.027Z</time></trkpt><trkpt lat="42.64325038122102" lon="11.891767585567743"><ele>305.0</ele><time>2026-04-11T13:51:07.027Z</time></trkpt><trkpt lat="42.64331834640808" lon="11.891878687668013"><ele>305.0</ele><time>2026-04-11T13:51:09.027Z</time></trkpt><trkpt lat="42.64337035165202" lon="11.89200730203536"><ele>305.0</ele><time>2026-04-11T13:51:11.027Z</time></trkpt><trkpt lat="42.64342346853218" lon="11.892127879742912"><ele>305.0</ele><time>2026-04-11T13:51:13.027Z</time></trkpt><trkpt lat="42.64346407460562" lon="11.892262121656154"><ele>305.0</ele><time>2026-04-11T13:51:15.027Z</time></trkpt><trkpt lat="42.643501427822905" lon="11.892394971694792"><ele>305.0</ele><time>2026-04-11T13:51:17.027Z</time></trkpt><trkpt lat="42.64354357851274" lon="11.892506785530848"><ele>305.0</ele><time>2026-04-11T13:51:19.027Z</time></trkpt><trkpt lat="42.64359246679877" lon="11.892613695557296"><ele>305.0</ele><time>2026-04-11T13:51:21.027Z</time></trkpt><trkpt lat="42.64362901913926" lon="11.892710195123936"><ele>305.0</ele><time>2026-04-11T13:51:23.027Z</time></trkpt><trkpt lat="42.643680979046586" lon="11.892798666869306"><ele>305.0</ele><time>2026-04-11T13:51:25.027Z</time></trkpt><trkpt lat="42.64371597117914" lon="11.89289364620045"><ele>305.0</ele><time>2026-04-11T13:51:27.027Z</time></trkpt><trkpt lat="42.643754858469514" lon="11.892963851786721"><ele>305.0</ele><time>2026-04-11T13:51:29.027Z</time></trkpt><trkpt lat="42.64379282300694" lon="11.89305999599942"><ele>305.0</ele><time>2026-04-11T13:51:31.027Z</time></trkpt><trkpt lat="42.6438224223296" lon="11.893163959489527"><ele>305.33333333333337</ele><time>2026-04-11T13:51:33.026Z</time></trkpt><trkpt lat="42.6438564912819" lon="11.893261255228463"><ele>305.6666666666667</ele><time>2026-04-11T13:51:35.026Z</time></trkpt><trkpt lat="42.6438897760555" lon="11.893366184181424"><ele>306.0</ele><time>2026-04-11T13:51:37.026Z</time></trkpt><trkpt lat="42.64392234390303" lon="11.89348069498591"><ele>306.3333333333333</ele><time>2026-04-11T13:51:39.026Z</time></trkpt><trkpt lat="42.643955131479245" lon="11.893602884049027"><ele>306.66666666666663</ele><time>2026-04-11T13:51:41.026Z</time></trkpt><trkpt lat="42.64399464284969" lon="11.89372657139312"><ele>307.0</ele><time>2026-04-11T13:51:43.026Z</time></trkpt><trkpt lat="42.64405231277553" lon="11.893826143635613"><ele>307.0</ele><time>2026-04-11T13:51:45.026Z</time></trkpt><trkpt lat="42.64410123479314" lon="11.893949744742972"><ele>307.0</ele><time>2026-04-11T13:51:47.026Z</time></trkpt><trkpt lat="42.64413639618376" lon="11.894068366323957"><ele>307.0</ele><time>2026-04-11T13:51:49.026Z</time></trkpt><trkpt lat="42.64417809206925" lon="11.894181906435188"><ele>307.0</ele><time>2026-04-11T13:51:51.029Z</time></trkpt><trkpt lat="42.64424659324846" lon="11.894265752711988"><ele>307.0</ele><time>2026-04-11T13:51:53.028Z</time></trkpt><trkpt lat="42.64433642670382" lon="11.894248185501123"><ele>307.0</ele><time>2026-04-11T13:51:55.029Z</time></trkpt><trkpt lat="42.64442053862431" lon="11.89423212997215"><ele>307.0</ele><time>2026-04-11T13:51:57.029Z</time></trkpt><trkpt lat="42.644485414150225" lon="11.89430548463295"><ele>307.0</ele><time>2026-04-11T13:51:59.029Z</time></trkpt><trkpt lat="42.644514184328806" lon="11.894402718616327"><ele>307.0</ele><time>2026-04-11T13:52:01.029Z</time></trkpt><trkpt lat="42.6445691213146" lon="11.894494332420242"><ele>307.0</ele><time>2026-04-11T13:52:03.029Z</time></trkpt><trkpt lat="42.64460608332915" lon="11.894593615192983"><ele>307.0</ele><time>2026-04-11T13:52:05.028Z</time></trkpt><trkpt lat="42.6446528549177" lon="11.894685387759347"><ele>307.3333333333333</ele><time>2026-04-11T13:52:07.028Z</time></trkpt><trkpt lat="42.64470008047512" lon="11.89477512958914"><ele>307.66666666666663</ele><time>2026-04-11T13:52:09.028Z</time></trkpt><trkpt lat="42.64473099572557" lon="11.89487907262283"><ele>308.0</ele><time>2026-04-11T13:52:11.028Z</time></trkpt><trkpt lat="42.644757870960504" lon="11.894971525477057"><ele>308.3333333333333</ele><time>2026-04-11T13:52:13.028Z</time></trkpt><trkpt lat="42.6447924037604" lon="11.895075388568134"><ele>308.6666666666667</ele><time>2026-04-11T13:52:15.028Z</time></trkpt><trkpt lat="42.644810860704546" lon="11.89519959646136"><ele>309.0</ele><time>2026-04-11T13:52:17.028Z</time></trkpt><trkpt lat="42.64485032740544" lon="11.895323285009948"><ele>308.6666666666667</ele><time>2026-04-11T13:52:19.028Z</time></trkpt><trkpt lat="42.64488678129137" lon="11.89543974864515"><ele>308.3333333333333</ele><time>2026-04-11T13:52:21.028Z</time></trkpt><trkpt lat="42.644919587466916" lon="11.895546657760978"><ele>308.0</ele><time>2026-04-11T13:52:23.028Z</time></trkpt><trkpt lat="42.644944022057985" lon="11.895650784529845"><ele>307.66666666666663</ele><time>2026-04-11T13:52:25.028Z</time></trkpt><trkpt lat="42.64496241888747" lon="11.895746089241392"><ele>307.3333333333333</ele><time>2026-04-11T13:52:27.028Z</time></trkpt><trkpt lat="42.644988895268845" lon="11.895830591978354"><ele>307.0</ele><time>2026-04-11T13:52:29.028Z</time></trkpt><trkpt lat="42.64502673431801" lon="11.89594926743023"><ele>307.0</ele><time>2026-04-11T13:52:32.028Z</time></trkpt><trkpt lat="42.64504777219625" lon="11.896053601249912"><ele>307.0</ele><time>2026-04-11T13:52:34.028Z</time></trkpt><trkpt lat="42.64507782226641" lon="11.896155396471537"><ele>307.0</ele><time>2026-04-11T13:52:36.028Z</time></trkpt><trkpt lat="42.64510718387507" lon="11.896259426741091"><ele>307.0</ele><time>2026-04-11T13:52:38.028Z</time></trkpt><trkpt lat="42.64513312860145" lon="11.896378984582087"><ele>307.0</ele><time>2026-04-11T13:52:40.028Z</time></trkpt><trkpt lat="42.6451478231624" lon="11.896498508589605"><ele>307.0</ele><time>2026-04-11T13:52:42.028Z</time></trkpt><trkpt lat="42.645179719404105" lon="11.89661891978433"><ele>307.0</ele><time>2026-04-11T13:52:44.028Z</time></trkpt><trkpt lat="42.645211872566875" lon="11.896741489934413"><ele>307.0</ele><time>2026-04-11T13:52:46.028Z</time></trkpt><trkpt lat="42.645229248698996" lon="11.89687257377802"><ele>307.0</ele><time>2026-04-11T13:52:48.028Z</time></trkpt><trkpt lat="42.64525182463608" lon="11.897005948340071"><ele>307.0</ele><time>2026-04-11T13:52:50.028Z</time></trkpt><trkpt lat="42.64528286101383" lon="11.897121531701918"><ele>307.0</ele><time>2026-04-11T13:52:52.028Z</time></trkpt><trkpt lat="42.64531110420197" lon="11.897223989405841"><ele>306.66666666666663</ele><time>2026-04-11T13:52:54.028Z</time></trkpt><trkpt lat="42.64533678317162" lon="11.897333383060452"><ele>306.3333333333333</ele><time>2026-04-11T13:52:56.028Z</time></trkpt><trkpt lat="42.64536093066838" lon="11.897448286076061"><ele>306.0</ele><time>2026-04-11T13:52:58.028Z</time></trkpt><trkpt lat="42.6453748524181" lon="11.897557202437692"><ele>305.6666666666667</ele><time>2026-04-11T13:53:00.028Z</time></trkpt><trkpt lat="42.645394042208636" lon="11.897675224568216"><ele>305.33333333333337</ele><time>2026-04-11T13:53:02.028Z</time></trkpt><trkpt lat="42.645421325174766" lon="11.897781080429874"><ele>305.0</ele><time>2026-04-11T13:53:04.028Z</time></trkpt><trkpt lat="42.64543719592146" lon="11.897883553678245"><ele>305.0</ele><time>2026-04-11T13:53:06.028Z</time></trkpt><trkpt lat="42.64544834872021" lon="11.89798333434387"><ele>305.0</ele><time>2026-04-11T13:53:08.028Z</time></trkpt><trkpt lat="42.64548485433443" lon="11.898067705475958"><ele>305.0</ele><time>2026-04-11T13:53:10.028Z</time></trkpt><trkpt lat="42.645526880256426" lon="11.898140225099146"><ele>305.0</ele><time>2026-04-11T13:53:12.028Z</time></trkpt><trkpt lat="42.6455293630685" lon="11.898237634817567"><ele>305.0</ele><time>2026-04-11T13:53:14.028Z</time></trkpt><trkpt lat="42.64552919708144" lon="11.898344726904021"><ele>305.0</ele><time>2026-04-11T13:53:16.028Z</time></trkpt><trkpt lat="42.64555581503186" lon="11.898457075291551"><ele>305.33333333333337</ele><time>2026-04-11T13:53:18.027Z</time></trkpt><trkpt lat="42.6455937380605" lon="11.898572415864054"><ele>305.6666666666667</ele><time>2026-04-11T13:53:20.027Z</time></trkpt><trkpt lat="42.64561374294637" lon="11.89868664157135"><ele>306.0</ele><time>2026-04-11T13:53:22.027Z</time></trkpt><trkpt lat="42.64564454881821" lon="11.898798824975456"><ele>306.3333333333333</ele><time>2026-04-11T13:53:24.027Z</time></trkpt><trkpt lat="42.64565159581111" lon="11.898917225927924"><ele>306.66666666666663</ele><time>2026-04-11T13:53:26.027Z</time></trkpt><trkpt lat="42.645656479088004" lon="11.899019266915092"><ele>307.0</ele><time>2026-04-11T13:53:28.027Z</time></trkpt><trkpt lat="42.64565268460745" lon="11.899120659105014"><ele>307.0</ele><time>2026-04-11T13:53:30.027Z</time></trkpt><trkpt lat="42.645632565745046" lon="11.899224812598534"><ele>307.0</ele><time>2026-04-11T13:53:32.027Z</time></trkpt><trkpt lat="42.64564119563627" lon="11.899340728411145"><ele>307.0</ele><time>2026-04-11T13:53:34.027Z</time></trkpt><trkpt lat="42.645675796692316" lon="11.899466674750157"><ele>307.0</ele><time>2026-04-11T13:53:36.027Z</time></trkpt><trkpt lat="42.64568109203549" lon="11.899593275210151"><ele>307.0</ele><time>2026-04-11T13:53:38.027Z</time></trkpt><trkpt lat="42.64568298223704" lon="11.899718514393225"><ele>307.0</ele><time>2026-04-11T13:53:40.027Z</time></trkpt><trkpt lat="42.64568631369844" lon="11.89983401977217"><ele>307.0</ele><time>2026-04-11T13:53:42.027Z</time></trkpt><trkpt lat="42.645698947680735" lon="11.89994125842982"><ele>307.0</ele><time>2026-04-11T13:53:44.027Z</time></trkpt><trkpt lat="42.64571665556446" lon="11.900047207779796"><ele>307.0</ele><time>2026-04-11T13:53:46.027Z</time></trkpt><trkpt lat="42.645728272467544" lon="11.900145264353936"><ele>307.0</ele><time>2026-04-11T13:53:48.027Z</time></trkpt><trkpt lat="42.645741241489645" lon="11.900231516212278"><ele>307.0</ele><time>2026-04-11T13:53:50.027Z</time></trkpt><trkpt lat="42.64574617860679" lon="11.900348013245699"><ele>307.0</ele><time>2026-04-11T13:53:52.027Z</time></trkpt><trkpt lat="42.64576485592816" lon="11.90045461155748"><ele>307.0</ele><time>2026-04-11T13:53:54.027Z</time></trkpt><trkpt lat="42.64580541793372" lon="11.900571322490851"><ele>307.0</ele><time>2026-04-11T13:53:56.029Z</time></trkpt><trkpt lat="42.64582054805007" lon="11.900691439249355"><ele>307.0</ele><time>2026-04-11T13:53:58.029Z</time></trkpt><trkpt lat="42.645839901920134" lon="11.900802438421048"><ele>307.0</ele><time>2026-04-11T13:54:00.029Z</time></trkpt><trkpt lat="42.645857126812544" lon="11.900891139596245"><ele>307.0</ele><time>2026-04-11T13:54:02.03Z</time></trkpt><trkpt lat="42.64587220509017" lon="11.900991165292458"><ele>307.0</ele><time>2026-04-11T13:54:04.03Z</time></trkpt><trkpt lat="42.64590123869251" lon="11.901103482667843"><ele>307.0</ele><time>2026-04-11T13:54:06.03Z</time></trkpt><trkpt lat="42.64592069858161" lon="11.901224540173104"><ele>307.0</ele><time>2026-04-11T13:54:08.029Z</time></trkpt><trkpt lat="42.645944146375776" lon="11.901326356211355"><ele>307.0</ele><time>2026-04-11T13:54:10.029Z</time></trkpt><trkpt lat="42.645969707513935" lon="11.901438906924334"><ele>307.0</ele><time>2026-04-11T13:54:12.029Z</time></trkpt><trkpt lat="42.64598478735516" lon="11.901532212316045"><ele>307.0</ele><time>2026-04-11T13:54:14.029Z</time></trkpt><trkpt lat="42.64601519476322" lon="11.901633492503004"><ele>307.0</ele><time>2026-04-11T13:54:16.029Z</time></trkpt><trkpt lat="42.64602644865557" lon="11.901759895911283"><ele>306.66666666666663</ele><time>2026-04-11T13:54:18.029Z</time></trkpt><trkpt lat="42.64603435741175" lon="11.90187097012439"><ele>306.3333333333333</ele><time>2026-04-11T13:54:20.029Z</time></trkpt><trkpt lat="42.646054709463606" lon="11.901976526119288"><ele>306.0</ele><time>2026-04-11T13:54:22.029Z</time></trkpt><trkpt lat="42.646069400688035" lon="11.90208811731858"><ele>305.6666666666667</ele><time>2026-04-11T13:54:24.029Z</time></trkpt><trkpt lat="42.646089207414505" lon="11.902181482597717"><ele>305.33333333333337</ele><time>2026-04-11T13:54:26.029Z</time></trkpt><trkpt lat="42.646100122564704" lon="11.902282651571927"><ele>305.0</ele><time>2026-04-11T13:54:28.029Z</time></trkpt><trkpt lat="42.64612272246385" lon="11.902379673216346"><ele>305.0</ele><time>2026-04-11T13:54:30.029Z</time></trkpt><trkpt lat="42.64614027622248" lon="11.90247645457238"><ele>305.0</ele><time>2026-04-11T13:54:32.029Z</time></trkpt><trkpt lat="42.646164211847754" lon="11.902567861051216"><ele>305.0</ele><time>2026-04-11T13:54:34.029Z</time></trkpt><trkpt lat="42.64616557535343" lon="11.902688354281743"><ele>305.0</ele><time>2026-04-11T13:54:37.029Z</time></trkpt><trkpt lat="42.646171672157266" lon="11.902796253425878"><ele>305.0</ele><time>2026-04-11T13:54:41.029Z</time></trkpt><trkpt lat="42.64613589573185" lon="11.902880757019682"><ele>305.0</ele><time>2026-04-11T13:54:45.029Z</time></trkpt><trkpt lat="42.64609118635007" lon="11.902967042460208"><ele>305.0</ele><time>2026-04-11T13:54:48.029Z</time></trkpt><trkpt lat="42.646048663252174" lon="11.903063533386145"><ele>305.0</ele><time>2026-04-11T13:54:51.029Z</time></trkpt><trkpt lat="42.64603268178151" lon="11.903151669943819"><ele>305.0</ele><time>2026-04-11T13:54:55.029Z</time></trkpt><trkpt lat="42.64603025794868" lon="11.903251665480322"><ele>305.0</ele><time>2026-04-11T13:55:00.029Z</time></trkpt><trkpt lat="42.64605320140808" lon="11.90335770278419"><ele>305.0</ele><time>2026-04-11T13:55:05.029Z</time></trkpt><trkpt lat="42.646122637160964" lon="11.90340156754629"><ele>305.0</ele><time>2026-04-11T13:55:07.029Z</time></trkpt><trkpt lat="42.64618282619442" lon="11.903482027411833"><ele>305.0</ele><time>2026-04-11T13:55:10.029Z</time></trkpt><trkpt lat="42.646234069459965" lon="11.903535058133052"><ele>305.0</ele><time>2026-04-11T13:55:13.029Z</time></trkpt><trkpt lat="42.64628731290585" lon="11.903595386410995"><ele>305.0</ele><time>2026-04-11T13:55:16.028Z</time></trkpt><trkpt lat="42.64634476732002" lon="11.903659319431176"><ele>305.0</ele><time>2026-04-11T13:55:19.026Z</time></trkpt><trkpt lat="42.64641305268095" lon="11.903722459474585"><ele>305.0</ele><time>2026-04-11T13:55:22.025Z</time></trkpt><trkpt lat="42.64648005867085" lon="11.903779006641894"><ele>305.0</ele><time>2026-04-11T13:55:25.024Z</time></trkpt><trkpt lat="42.646537469956314" lon="11.903843656356726"><ele>305.0</ele><time>2026-04-11T13:55:28.023Z</time></trkpt><trkpt lat="42.64659432819942" lon="11.903895928171174"><ele>305.0</ele><time>2026-04-11T13:55:31.023Z</time></trkpt><trkpt lat="42.64665605609975" lon="11.90395970182058"><ele>305.0</ele><time>2026-04-11T13:55:35.022Z</time></trkpt><trkpt lat="42.646699436274886" lon="11.90402637964186"><ele>305.0</ele><time>2026-04-11T13:55:39.022Z</time></trkpt><trkpt lat="42.64674660249436" lon="11.904090752128997"><ele>305.0</ele><time>2026-04-11T13:55:42.021Z</time></trkpt><trkpt lat="42.64680246140728" lon="11.904132874268576"><ele>305.0</ele><time>2026-04-11T13:55:45.021Z</time></trkpt><trkpt lat="42.64684811517583" lon="11.904193611608315"><ele>305.0</ele><time>2026-04-11T13:55:48.021Z</time></trkpt><trkpt lat="42.64690161560214" lon="11.904270747646734"><ele>305.0</ele><time>2026-04-11T13:55:51.02Z</time></trkpt><trkpt lat="42.64694618933556" lon="11.904333530384903"><ele>305.1666666666667</ele><time>2026-04-11T13:55:53.02Z</time></trkpt><trkpt lat="42.64697321330981" lon="11.904419244636864"><ele>305.33333333333337</ele><time>2026-04-11T13:55:55.02Z</time></trkpt><trkpt lat="42.64700499209068" lon="11.904501342511272"><ele>305.5</ele><time>2026-04-11T13:55:57.02Z</time></trkpt><trkpt lat="42.64705515943542" lon="11.904593163145679"><ele>305.6666666666667</ele><time>2026-04-11T13:56:00.02Z</time></trkpt><trkpt lat="42.64712543239529" lon="11.90455694867631"><ele>305.8333333333333</ele><time>2026-04-11T13:56:03.023Z</time></trkpt><trkpt lat="42.64718928267268" lon="11.904510991232367"><ele>306.0</ele><time>2026-04-11T13:56:07.022Z</time></trkpt><trkpt lat="42.647264703958854" lon="11.90445606423111"><ele>306.0</ele><time>2026-04-11T13:56:11.022Z</time></trkpt><trkpt lat="42.64732815773108" lon="11.904408082983284"><ele>306.0</ele><time>2026-04-11T13:56:15.022Z</time></trkpt><trkpt lat="42.64740488778435" lon="11.904371714693045"><ele>306.0</ele><time>2026-04-11T13:56:20.022Z</time></trkpt><trkpt lat="42.647466502164264" lon="11.904316015567094"><ele>306.0</ele><time>2026-04-11T13:56:25.022Z</time></trkpt><trkpt lat="42.647539156899285" lon="11.904326736216268"><ele>306.0</ele><time>2026-04-11T13:56:29.022Z</time></trkpt><trkpt lat="42.647585309273" lon="11.904410316206508"><ele>306.0</ele><time>2026-04-11T13:56:32.022Z</time></trkpt><trkpt lat="42.64760992784335" lon="11.904509601929014"><ele>306.0</ele><time>2026-04-11T13:56:35.022Z</time></trkpt><trkpt lat="42.64763330096794" lon="11.904647573721117"><ele>306.0</ele><time>2026-04-11T13:56:38.022Z</time></trkpt><trkpt lat="42.647660646997245" lon="11.90472732864411"><ele>306.0</ele><time>2026-04-11T13:56:40.022Z</time></trkpt><trkpt lat="42.64769472974357" lon="11.904814484518182"><ele>306.0</ele><time>2026-04-11T13:56:42.022Z</time></trkpt><trkpt lat="42.64772116833861" lon="11.904942115843568"><ele>306.0</ele><time>2026-04-11T13:56:45.022Z</time></trkpt><trkpt lat="42.64775686211987" lon="11.905033224067786"><ele>306.0</ele><time>2026-04-11T13:56:47.022Z</time></trkpt><trkpt lat="42.647780679977075" lon="11.905138000332311"><ele>306.0</ele><time>2026-04-11T13:56:49.022Z</time></trkpt><trkpt lat="42.64781365038205" lon="11.905242908401352"><ele>306.0</ele><time>2026-04-11T13:56:51.022Z</time></trkpt><trkpt lat="42.64785010636787" lon="11.905352156545133"><ele>306.0</ele><time>2026-04-11T13:56:53.022Z</time></trkpt><trkpt lat="42.64788455576502" lon="11.905457699421344"><ele>306.0</ele><time>2026-04-11T13:56:55.022Z</time></trkpt><trkpt lat="42.64792273694907" lon="11.905564730273886"><ele>306.0</ele><time>2026-04-11T13:56:57.022Z</time></trkpt><trkpt lat="42.647959355083344" lon="11.905680522387865"><ele>306.0</ele><time>2026-04-11T13:56:59.022Z</time></trkpt><trkpt lat="42.648003987970874" lon="11.905797061699054"><ele>306.0</ele><time>2026-04-11T13:57:01.021Z</time></trkpt><trkpt lat="42.648030636431876" lon="11.905907538502449"><ele>306.0</ele><time>2026-04-11T13:57:03.021Z</time></trkpt><trkpt lat="42.648058106228426" lon="11.906016468322784"><ele>306.0</ele><time>2026-04-11T13:57:05.021Z</time></trkpt><trkpt lat="42.648091211841354" lon="11.906121760120222"><ele>306.0</ele><time>2026-04-11T13:57:07.021Z</time></trkpt><trkpt lat="42.648112614926625" lon="11.906241509090096"><ele>306.0</ele><time>2026-04-11T13:57:09.021Z</time></trkpt><trkpt lat="42.648149011863495" lon="11.906363856222907"><ele>306.0</ele><time>2026-04-11T13:57:11.021Z</time></trkpt><trkpt lat="42.64817929918647" lon="11.906481316798095"><ele>306.0</ele><time>2026-04-11T13:57:13.021Z</time></trkpt><trkpt lat="42.648210938482144" lon="11.906599506085719"><ele>306.0</ele><time>2026-04-11T13:57:15.021Z</time></trkpt><trkpt lat="42.648240620362124" lon="11.906720253352583"><ele>306.0</ele><time>2026-04-11T13:57:17.021Z</time></trkpt><trkpt lat="42.648270458409485" lon="11.906836156254618"><ele>306.0</ele><time>2026-04-11T13:57:19.021Z</time></trkpt><trkpt lat="42.64830872835805" lon="11.906956670674642"><ele>306.0</ele><time>2026-04-11T13:57:21.021Z</time></trkpt><trkpt lat="42.64834577955136" lon="11.907075157241826"><ele>306.0</ele><time>2026-04-11T13:57:23.021Z</time></trkpt><trkpt lat="42.64838586865731" lon="11.907187780420978"><ele>306.0</ele><time>2026-04-11T13:57:25.021Z</time></trkpt><trkpt lat="42.64841651489781" lon="11.907319906724695"><ele>306.0</ele><time>2026-04-11T13:57:27.021Z</time></trkpt><trkpt lat="42.64845333596548" lon="11.907444924310397"><ele>306.0</ele><time>2026-04-11T13:57:29.021Z</time></trkpt><trkpt lat="42.64848510026612" lon="11.90756392347075"><ele>306.0</ele><time>2026-04-11T13:57:31.021Z</time></trkpt><trkpt lat="42.64852512479469" lon="11.907671352449167"><ele>306.0</ele><time>2026-04-11T13:57:33.021Z</time></trkpt><trkpt lat="42.64855910047109" lon="11.90779606849402"><ele>306.0</ele><time>2026-04-11T13:57:35.021Z</time></trkpt><trkpt lat="42.64858505709928" lon="11.907918334052301"><ele>306.0</ele><time>2026-04-11T13:57:37.021Z</time></trkpt><trkpt lat="42.64862054037843" lon="11.908037488417806"><ele>306.0</ele><time>2026-04-11T13:57:39.021Z</time></trkpt><trkpt lat="42.648648755078376" lon="11.90816144454583"><ele>306.0</ele><time>2026-04-11T13:57:41.021Z</time></trkpt><trkpt lat="42.64865408443722" lon="11.908283077367743"><ele>305.8</ele><time>2026-04-11T13:57:43.021Z</time></trkpt><trkpt lat="42.64869033813521" lon="11.908399584139858"><ele>305.6</ele><time>2026-04-11T13:57:45.021Z</time></trkpt><trkpt lat="42.64872711242464" lon="11.908519397563028"><ele>305.4</ele><time>2026-04-11T13:57:47.021Z</time></trkpt><trkpt lat="42.64875385001787" lon="11.908625029100014"><ele>305.2</ele><time>2026-04-11T13:57:49.021Z</time></trkpt><trkpt lat="42.64878628395596" lon="11.908746073007784"><ele>305.0</ele><time>2026-04-11T13:57:51.021Z</time></trkpt><trkpt lat="42.64882004577869" lon="11.908860305057601"><ele>305.0</ele><time>2026-04-11T13:57:53.021Z</time></trkpt><trkpt lat="42.64885082769311" lon="11.908976838168837"><ele>305.0</ele><time>2026-04-11T13:57:55.021Z</time></trkpt><trkpt lat="42.64887935148258" lon="11.909093818395277"><ele>305.0</ele><time>2026-04-11T13:57:57.021Z</time></trkpt><trkpt lat="42.64890723852539" lon="11.9092087250636"><ele>305.0</ele><time>2026-04-11T13:57:59.021Z</time></trkpt><trkpt lat="42.648938384380266" lon="11.909318624753421"><ele>305.0</ele><time>2026-04-11T13:58:01.021Z</time></trkpt><trkpt lat="42.648956574171585" lon="11.909422606421515"><ele>305.0</ele><time>2026-04-11T13:58:03.02Z</time></trkpt><trkpt lat="42.64898509191434" lon="11.909535333851462"><ele>305.1666666666667</ele><time>2026-04-11T13:58:05.02Z</time></trkpt><trkpt lat="42.64901576230032" lon="11.909645754276859"><ele>305.33333333333337</ele><time>2026-04-11T13:58:07.02Z</time></trkpt><trkpt lat="42.649044950841116" lon="11.9097518357962"><ele>305.5</ele><time>2026-04-11T13:58:09.023Z</time></trkpt><trkpt lat="42.64906970586315" lon="11.90986861751097"><ele>305.6666666666667</ele><time>2026-04-11T13:58:11.023Z</time></trkpt><trkpt lat="42.649092489575295" lon="11.909984074731096"><ele>305.8333333333333</ele><time>2026-04-11T13:58:13.023Z</time></trkpt><trkpt lat="42.64912103004088" lon="11.910087706648127"><ele>306.0</ele><time>2026-04-11T13:58:15.023Z</time></trkpt><trkpt lat="42.64914679581717" lon="11.910201323707561"><ele>306.0</ele><time>2026-04-11T13:58:17.023Z</time></trkpt><trkpt lat="42.64917624484217" lon="11.910311211788237"><ele>306.0</ele><time>2026-04-11T13:58:19.024Z</time></trkpt><trkpt lat="42.649198379803565" lon="11.91041852291976"><ele>306.0</ele><time>2026-04-11T13:58:21.023Z</time></trkpt><trkpt lat="42.64921743362013" lon="11.910533443460343"><ele>306.0</ele><time>2026-04-11T13:58:23.023Z</time></trkpt><trkpt lat="42.64924238292037" lon="11.910643150209204"><ele>306.0</ele><time>2026-04-11T13:58:25.023Z</time></trkpt><trkpt lat="42.649257717936145" lon="11.910754499773635"><ele>306.0</ele><time>2026-04-11T13:58:27.023Z</time></trkpt><trkpt lat="42.649281430972316" lon="11.910863736823393"><ele>306.1666666666667</ele><time>2026-04-11T13:58:29.023Z</time></trkpt><trkpt lat="42.649301432483554" lon="11.910963195509868"><ele>306.3333333333333</ele><time>2026-04-11T13:58:31.023Z</time></trkpt><trkpt lat="42.649337376623166" lon="11.911063985880075"><ele>306.5</ele><time>2026-04-11T13:58:33.023Z</time></trkpt><trkpt lat="42.64935344090789" lon="11.911171223533088"><ele>306.66666666666663</ele><time>2026-04-11T13:58:35.023Z</time></trkpt><trkpt lat="42.649385649307696" lon="11.911277655358452"><ele>306.8333333333333</ele><time>2026-04-11T13:58:37.023Z</time></trkpt><trkpt lat="42.64940563079419" lon="11.91137333855186"><ele>307.0</ele><time>2026-04-11T13:58:39.023Z</time></trkpt><trkpt lat="42.64942878556649" lon="11.911485439575985"><ele>307.0</ele><time>2026-04-11T13:58:41.023Z</time></trkpt><trkpt lat="42.64945443057679" lon="11.911599665678468"><ele>307.0</ele><time>2026-04-11T13:58:43.023Z</time></trkpt><trkpt lat="42.649463777447025" lon="11.91171329731506"><ele>307.0</ele><time>2026-04-11T13:58:45.023Z</time></trkpt><trkpt lat="42.649479909742446" lon="11.911811542885538"><ele>307.0</ele><time>2026-04-11T13:58:47.023Z</time></trkpt><trkpt lat="42.649504670835256" lon="11.911896949321084"><ele>307.0</ele><time>2026-04-11T13:58:49.023Z</time></trkpt><trkpt lat="42.64952952242393" lon="11.912001457072051"><ele>307.0</ele><time>2026-04-11T13:58:51.023Z</time></trkpt><trkpt lat="42.64955482278787" lon="11.91210425589369"><ele>307.0</ele><time>2026-04-11T13:58:53.023Z</time></trkpt><trkpt lat="42.64956542609758" lon="11.912212011877244"><ele>307.0</ele><time>2026-04-11T13:58:55.023Z</time></trkpt><trkpt lat="42.64958781922541" lon="11.912320675807461"><ele>307.0</ele><time>2026-04-11T13:58:57.023Z</time></trkpt><trkpt lat="42.64962405149805" lon="11.912423001811304"><ele>307.0</ele><time>2026-04-11T13:58:59.023Z</time></trkpt><trkpt lat="42.649667469173366" lon="11.912494561014551"><ele>307.0</ele><time>2026-04-11T13:59:01.023Z</time></trkpt><trkpt lat="42.649732857077694" lon="11.912540897352669"><ele>307.0</ele><time>2026-04-11T13:59:03.023Z</time></trkpt><trkpt lat="42.649807205460846" lon="11.912573790508832"><ele>307.0</ele><time>2026-04-11T13:59:05.023Z</time></trkpt><trkpt lat="42.64989417666956" lon="11.912552115280326"><ele>307.0</ele><time>2026-04-11T13:59:07.023Z</time></trkpt><trkpt lat="42.649971948992075" lon="11.912547849398665"><ele>307.0</ele><time>2026-04-11T13:59:09.023Z</time></trkpt><trkpt lat="42.65004994563384" lon="11.912544158554317"><ele>307.0</ele><time>2026-04-11T13:59:11.023Z</time></trkpt><trkpt lat="42.65014326545159" lon="11.912532432675192"><ele>307.0</ele><time>2026-04-11T13:59:13.023Z</time></trkpt><trkpt lat="42.65023903205384" lon="11.912513333702016"><ele>307.0</ele><time>2026-04-11T13:59:15.023Z</time></trkpt><trkpt lat="42.65033653896677" lon="11.912515407629286"><ele>306.8</ele><time>2026-04-11T13:59:17.023Z</time></trkpt><trkpt lat="42.65042514480124" lon="11.912508762165897"><ele>306.6</ele><time>2026-04-11T13:59:19.023Z</time></trkpt><trkpt lat="42.65052128994818" lon="11.912510575454643"><ele>306.40000000000003</ele><time>2026-04-11T13:59:21.023Z</time></trkpt><trkpt lat="42.65061246745644" lon="11.912500617441777"><ele>306.2</ele><time>2026-04-11T13:59:23.022Z</time></trkpt><trkpt lat="42.6507140100023" lon="11.912504180474004"><ele>306.0</ele><time>2026-04-11T13:59:25.022Z</time></trkpt><trkpt lat="42.65080835637547" lon="11.912490923363647"><ele>306.0</ele><time>2026-04-11T13:59:27.022Z</time></trkpt><trkpt lat="42.650904131102735" lon="11.91248449336906"><ele>306.0</ele><time>2026-04-11T13:59:29.022Z</time></trkpt><trkpt lat="42.651001914299194" lon="11.912485041266475"><ele>306.0</ele><time>2026-04-11T13:59:31.022Z</time></trkpt><trkpt lat="42.651096648492654" lon="11.912475847450128"><ele>306.0</ele><time>2026-04-11T13:59:33.022Z</time></trkpt><trkpt lat="42.651197092640615" lon="11.912453980814224"><ele>306.0</ele><time>2026-04-11T13:59:35.022Z</time></trkpt><trkpt lat="42.65129094281801" lon="11.912434643093173"><ele>306.0</ele><time>2026-04-11T13:59:37.022Z</time></trkpt><trkpt lat="42.65138929242423" lon="11.912410866096671"><ele>306.0</ele><time>2026-04-11T13:59:39.022Z</time></trkpt><trkpt lat="42.65147996900042" lon="11.912377176663956"><ele>306.0</ele><time>2026-04-11T13:59:41.022Z</time></trkpt><trkpt lat="42.651575051635334" lon="11.912358137261991"><ele>306.0</ele><time>2026-04-11T13:59:43.022Z</time></trkpt><trkpt lat="42.65167084878157" lon="11.912333031268679"><ele>306.0</ele><time>2026-04-11T13:59:45.022Z</time></trkpt><trkpt lat="42.65176184191182" lon="11.912306002833086"><ele>306.0</ele><time>2026-04-11T13:59:47.022Z</time></trkpt><trkpt lat="42.651859625126306" lon="11.912290390448739"><ele>306.0</ele><time>2026-04-11T13:59:49.022Z</time></trkpt><trkpt lat="42.65195618892346" lon="11.912275653361073"><ele>306.0</ele><time>2026-04-11T13:59:51.022Z</time></trkpt><trkpt lat="42.65204735701449" lon="11.912264217384173"><ele>306.0</ele><time>2026-04-11T13:59:53.022Z</time></trkpt><trkpt lat="42.652143449428735" lon="11.912257143786672"><ele>306.0</ele><time>2026-04-11T13:59:55.022Z</time></trkpt><trkpt lat="42.652236161653825" lon="11.912245831140641"><ele>306.2</ele><time>2026-04-11T13:59:57.022Z</time></trkpt><trkpt lat="42.652332171915376" lon="11.912247785133886"><ele>306.40000000000003</ele><time>2026-04-11T13:59:59.022Z</time></trkpt><trkpt lat="42.652420532371856" lon="11.912238991022907"><ele>306.6</ele><time>2026-04-11T14:00:01.022Z</time></trkpt><trkpt lat="42.65251525338121" lon="11.912231296829171"><ele>306.8</ele><time>2026-04-11T14:00:03.022Z</time></trkpt><trkpt lat="42.65260183381476" lon="11.912237735256609"><ele>307.0</ele><time>2026-04-11T14:00:05.022Z</time></trkpt><trkpt lat="42.65268794964281" lon="11.91225944070111"><ele>307.0</ele><time>2026-04-11T14:00:07.022Z</time></trkpt><trkpt lat="42.65278565072568" lon="11.912271656816204"><ele>307.0</ele><time>2026-04-11T14:00:09.022Z</time></trkpt><trkpt lat="42.65287645274385" lon="11.912289783726013"><ele>307.0</ele><time>2026-04-11T14:00:11.022Z</time></trkpt><trkpt lat="42.65296399764159" lon="11.91232383200789"><ele>307.0</ele><time>2026-04-11T14:00:13.022Z</time></trkpt><trkpt lat="42.653051667304425" lon="11.912351978605901"><ele>307.0</ele><time>2026-04-11T14:00:15.023Z</time></trkpt><trkpt lat="42.65313682871155" lon="11.912377193899015"><ele>307.2</ele><time>2026-04-11T14:00:17.024Z</time></trkpt><trkpt lat="42.65322674245739" lon="11.912402416535086"><ele>307.4</ele><time>2026-04-11T14:00:19.024Z</time></trkpt><trkpt lat="42.65331266847707" lon="11.912446420929719"><ele>307.6</ele><time>2026-04-11T14:00:21.024Z</time></trkpt><trkpt lat="42.653409953040054" lon="11.912469197329967"><ele>307.8</ele><time>2026-04-11T14:00:23.024Z</time></trkpt><trkpt lat="42.65349729692791" lon="11.91250310046739"><ele>308.0</ele><time>2026-04-11T14:00:25.024Z</time></trkpt><trkpt lat="42.65358586500445" lon="11.912537399363117"><ele>308.0</ele><time>2026-04-11T14:00:27.024Z</time></trkpt><trkpt lat="42.65367602634265" lon="11.912562246598059"><ele>308.0</ele><time>2026-04-11T14:00:29.024Z</time></trkpt><trkpt lat="42.653772078628926" lon="11.912595206000693"><ele>308.0</ele><time>2026-04-11T14:00:31.024Z</time></trkpt><trkpt lat="42.65386643073017" lon="11.912614436304917"><ele>308.0</ele><time>2026-04-11T14:00:33.024Z</time></trkpt><trkpt lat="42.6539596992391" lon="11.912628444361811"><ele>308.0</ele><time>2026-04-11T14:00:35.024Z</time></trkpt><trkpt lat="42.65405015705323" lon="11.912618080776022"><ele>308.0</ele><time>2026-04-11T14:00:37.024Z</time></trkpt><trkpt lat="42.65414176097179" lon="11.912599786326522"><ele>308.0</ele><time>2026-04-11T14:00:39.024Z</time></trkpt><trkpt lat="42.65423115799428" lon="11.912569396639377"><ele>308.0</ele><time>2026-04-11T14:00:41.024Z</time></trkpt><trkpt lat="42.654315106241185" lon="11.912508564789167"><ele>308.0</ele><time>2026-04-11T14:00:43.024Z</time></trkpt><trkpt lat="42.65439288617679" lon="11.912458105170739"><ele>308.0</ele><time>2026-04-11T14:00:45.024Z</time></trkpt><trkpt lat="42.654477492386576" lon="11.912422543455655"><ele>308.1666666666667</ele><time>2026-04-11T14:00:47.023Z</time></trkpt><trkpt lat="42.65455944074616" lon="11.912396841210592"><ele>308.33333333333337</ele><time>2026-04-11T14:00:49.023Z</time></trkpt><trkpt lat="42.65463790296996" lon="11.912367214576141"><ele>308.5</ele><time>2026-04-11T14:00:51.023Z</time></trkpt><trkpt lat="42.65471678239706" lon="11.912331371974183"><ele>308.6666666666667</ele><time>2026-04-11T14:00:53.023Z</time></trkpt><trkpt lat="42.65478627997112" lon="11.912289797372964"><ele>308.8333333333333</ele><time>2026-04-11T14:00:55.023Z</time></trkpt><trkpt lat="42.65486319933196" lon="11.912256866955182"><ele>309.0</ele><time>2026-04-11T14:00:57.023Z</time></trkpt><trkpt lat="42.6549425875812" lon="11.912217490965363"><ele>309.00000000000006</ele><time>2026-04-11T14:00:59.023Z</time></trkpt><trkpt lat="42.65501747600441" lon="11.912187873976874"><ele>309.0</ele><time>2026-04-11T14:01:01.023Z</time></trkpt><trkpt lat="42.65508409490692" lon="11.912155099421653"><ele>309.0</ele><time>2026-04-11T14:01:03.023Z</time></trkpt><trkpt lat="42.655146865044394" lon="11.912126897359386"><ele>309.0</ele><time>2026-04-11T14:01:05.023Z</time></trkpt><trkpt lat="42.65520800906541" lon="11.912095968758514"><ele>309.0</ele><time>2026-04-11T14:01:07.023Z</time></trkpt><trkpt lat="42.65527072781257" lon="11.912068043208649"><ele>309.00000000000006</ele><time>2026-04-11T14:01:09.023Z</time></trkpt><trkpt lat="42.655356470828394" lon="11.912031091379966"><ele>309.0</ele><time>2026-04-11T14:01:12.023Z</time></trkpt><trkpt lat="42.655433985444745" lon="11.911996253929583"><ele>309.3333333333333</ele><time>2026-04-11T14:01:15.023Z</time></trkpt><trkpt lat="42.65551531849252" lon="11.911961589927285"><ele>309.6666666666667</ele><time>2026-04-11T14:01:18.023Z</time></trkpt><trkpt lat="42.65559590262578" lon="11.91191644162758"><ele>310.0</ele><time>2026-04-11T14:01:21.023Z</time></trkpt><trkpt lat="42.65568014821933" lon="11.911862854857167"><ele>310.33333333333337</ele><time>2026-04-11T14:01:24.023Z</time></trkpt><trkpt lat="42.655765444119766" lon="11.9118119855813"><ele>310.6666666666667</ele><time>2026-04-11T14:01:27.023Z</time></trkpt><trkpt lat="42.655827388097634" lon="11.911775781267433"><ele>311.0</ele><time>2026-04-11T14:01:29.023Z</time></trkpt><trkpt lat="42.65588077510707" lon="11.91172880199799"><ele>311.0</ele><time>2026-04-11T14:01:31.023Z</time></trkpt><trkpt lat="42.65594272431215" lon="11.91168594188891"><ele>311.0</ele><time>2026-04-11T14:01:33.023Z</time></trkpt><trkpt lat="42.65600810170784" lon="11.911646275051181"><ele>311.0</ele><time>2026-04-11T14:01:35.023Z</time></trkpt><trkpt lat="42.65607109544868" lon="11.911608145180985"><ele>311.0</ele><time>2026-04-11T14:01:37.023Z</time></trkpt><trkpt lat="42.65613613207429" lon="11.911566175215652"><ele>311.0</ele><time>2026-04-11T14:01:39.023Z</time></trkpt><trkpt lat="42.65620123962606" lon="11.911515628004127"><ele>311.0</ele><time>2026-04-11T14:01:41.023Z</time></trkpt><trkpt lat="42.65626450061227" lon="11.911472360488961"><ele>311.0</ele><time>2026-04-11T14:01:43.023Z</time></trkpt><trkpt lat="42.65633451354194" lon="11.91141436144882"><ele>311.1666666666667</ele><time>2026-04-11T14:01:45.023Z</time></trkpt><trkpt lat="42.65640428550124" lon="11.911366472664843"><ele>311.33333333333337</ele><time>2026-04-11T14:01:47.023Z</time></trkpt><trkpt lat="42.656480664529234" lon="11.911311607368352"><ele>311.5</ele><time>2026-04-11T14:01:49.022Z</time></trkpt><trkpt lat="42.656561168331876" lon="11.911256969973698"><ele>311.6666666666667</ele><time>2026-04-11T14:01:51.022Z</time></trkpt><trkpt lat="42.656640027809786" lon="11.911192218391982"><ele>311.8333333333333</ele><time>2026-04-11T14:01:53.022Z</time></trkpt><trkpt lat="42.65672642937267" lon="11.911135076437525"><ele>312.0</ele><time>2026-04-11T14:01:55.022Z</time></trkpt><trkpt lat="42.656814692644" lon="11.911068565012604"><ele>312.0</ele><time>2026-04-11T14:01:57.022Z</time></trkpt><trkpt lat="42.656904539220754" lon="11.910999500710618"><ele>312.0</ele><time>2026-04-11T14:01:59.022Z</time></trkpt><trkpt lat="42.65700161912985" lon="11.910941728173857"><ele>312.0</ele><time>2026-04-11T14:02:01.022Z</time></trkpt><trkpt lat="42.65708894371762" lon="11.910876512752033"><ele>312.0</ele><time>2026-04-11T14:02:03.022Z</time></trkpt><trkpt lat="42.65717670260052" lon="11.910809735033485"><ele>312.0</ele><time>2026-04-11T14:02:05.022Z</time></trkpt><trkpt lat="42.65727391352368" lon="11.910745169208587"><ele>311.8</ele><time>2026-04-11T14:02:07.022Z</time></trkpt><trkpt lat="42.657364135664714" lon="11.91068202002421"><ele>311.6</ele><time>2026-04-11T14:02:09.022Z</time></trkpt><trkpt lat="42.65745485325076" lon="11.91061754271829"><ele>311.40000000000003</ele><time>2026-04-11T14:02:11.022Z</time></trkpt><trkpt lat="42.65754274351641" lon="11.910565352467623"><ele>311.2</ele><time>2026-04-11T14:02:13.022Z</time></trkpt><trkpt lat="42.6576349100885" lon="11.910509058911767"><ele>311.0</ele><time>2026-04-11T14:02:15.022Z</time></trkpt><trkpt lat="42.657732938348765" lon="11.910469893050815"><ele>311.40000000000003</ele><time>2026-04-11T14:02:17.022Z</time></trkpt><trkpt lat="42.6578297764283" lon="11.91043995037262"><ele>311.8</ele><time>2026-04-11T14:02:19.025Z</time></trkpt><trkpt lat="42.657920406440645" lon="11.910422897172566"><ele>312.20000000000005</ele><time>2026-04-11T14:02:21.025Z</time></trkpt><trkpt lat="42.658012565691315" lon="11.910400029745082"><ele>312.6</ele><time>2026-04-11T14:02:23.025Z</time></trkpt><trkpt lat="42.658104167297644" lon="11.910398910717674"><ele>313.0</ele><time>2026-04-11T14:02:25.024Z</time></trkpt><trkpt lat="42.65818689142584" lon="11.910436722956158"><ele>313.0</ele><time>2026-04-11T14:02:27.024Z</time></trkpt><trkpt lat="42.65823340931963" lon="11.910535636126744"><ele>313.0</ele><time>2026-04-11T14:02:29.024Z</time></trkpt><trkpt lat="42.65823834235144" lon="11.910641216530424"><ele>313.0</ele><time>2026-04-11T14:02:31.024Z</time></trkpt><trkpt lat="42.65819165979194" lon="11.91074082462072"><ele>313.0</ele><time>2026-04-11T14:02:33.025Z</time></trkpt><trkpt lat="42.658139777558695" lon="11.910820848872563"><ele>313.0</ele><time>2026-04-11T14:02:35.025Z</time></trkpt><trkpt lat="42.658097572097525" lon="11.910907346431859"><ele>313.0</ele><time>2026-04-11T14:02:37.025Z</time></trkpt><trkpt lat="42.65805415289549" lon="11.91100084264144"><ele>313.3333333333333</ele><time>2026-04-11T14:02:39.024Z</time></trkpt><trkpt lat="42.658009896771674" lon="11.911094881090946"><ele>313.66666666666663</ele><time>2026-04-11T14:02:41.024Z</time></trkpt><trkpt lat="42.65796751161404" lon="11.91118954722693"><ele>314.0</ele><time>2026-04-11T14:02:43.024Z</time></trkpt><trkpt lat="42.6579307144241" lon="11.911286903185712"><ele>314.3333333333333</ele><time>2026-04-11T14:02:45.024Z</time></trkpt><trkpt lat="42.65789354986415" lon="11.911384360854324"><ele>314.6666666666667</ele><time>2026-04-11T14:02:47.024Z</time></trkpt><trkpt lat="42.657866117568005" lon="11.911484875600644"><ele>315.0</ele><time>2026-04-11T14:02:49.024Z</time></trkpt><trkpt lat="42.657832392608526" lon="11.911584917329836"><ele>315.0</ele><time>2026-04-11T14:02:51.024Z</time></trkpt><trkpt lat="42.65778769982437" lon="11.911717852298061"><ele>315.0</ele><time>2026-04-11T14:02:54.024Z</time></trkpt><trkpt lat="42.65774900073652" lon="11.91179725897291"><ele>315.0</ele><time>2026-04-11T14:02:56.024Z</time></trkpt><trkpt lat="42.65771577285738" lon="11.911904882998384"><ele>315.0</ele><time>2026-04-11T14:02:59.024Z</time></trkpt><trkpt lat="42.65767083994666" lon="11.912000842881998"><ele>315.0</ele><time>2026-04-11T14:03:02.024Z</time></trkpt><trkpt lat="42.65763482690616" lon="11.912109874943758"><ele>315.0</ele><time>2026-04-11T14:03:05.024Z</time></trkpt><trkpt lat="42.657589003152474" lon="11.912191716919573"><ele>315.0</ele><time>2026-04-11T14:03:07.024Z</time></trkpt><trkpt lat="42.65755278270895" lon="11.912268862145826"><ele>315.0</ele><time>2026-04-11T14:03:09.024Z</time></trkpt><trkpt lat="42.65751760936506" lon="11.912345237892831"><ele>315.0</ele><time>2026-04-11T14:03:11.024Z</time></trkpt><trkpt lat="42.657480373209594" lon="11.912427101688978"><ele>315.0</ele><time>2026-04-11T14:03:13.024Z</time></trkpt><trkpt lat="42.65744017311547" lon="11.912507253239799"><ele>315.0</ele><time>2026-04-11T14:03:15.024Z</time></trkpt><trkpt lat="42.6573970676868" lon="11.912585621630074"><ele>315.0</ele><time>2026-04-11T14:03:17.024Z</time></trkpt><trkpt lat="42.657353959586715" lon="11.912665298764074"><ele>315.0</ele><time>2026-04-11T14:03:19.024Z</time></trkpt><trkpt lat="42.65731941944912" lon="11.912749217338039"><ele>315.3333333333333</ele><time>2026-04-11T14:03:21.024Z</time></trkpt><trkpt lat="42.6572762614058" lon="11.912845775682607"><ele>315.6666666666667</ele><time>2026-04-11T14:03:24.024Z</time></trkpt><trkpt lat="42.65722602201848" lon="11.91295118707367"><ele>316.0</ele><time>2026-04-11T14:03:27.024Z</time></trkpt><trkpt lat="42.657179862195264" lon="11.913024853878397"><ele>316.33333333333337</ele><time>2026-04-11T14:03:29.024Z</time></trkpt><trkpt lat="42.657139195000596" lon="11.913120569210054"><ele>316.6666666666667</ele><time>2026-04-11T14:03:31.024Z</time></trkpt><trkpt lat="42.65708509770151" lon="11.913225718610887"><ele>317.0</ele><time>2026-04-11T14:03:33.024Z</time></trkpt><trkpt lat="42.65703663592182" lon="11.913332563253254"><ele>316.8</ele><time>2026-04-11T14:03:35.024Z</time></trkpt><trkpt lat="42.65698576063135" lon="11.913450531909023"><ele>316.6</ele><time>2026-04-11T14:03:37.024Z</time></trkpt><trkpt lat="42.656932502545075" lon="11.913557267727578"><ele>316.40000000000003</ele><time>2026-04-11T14:03:39.024Z</time></trkpt><trkpt lat="42.65687825017623" lon="11.913679463164337"><ele>316.2</ele><time>2026-04-11T14:03:41.023Z</time></trkpt><trkpt lat="42.65681422428917" lon="11.913801084131848"><ele>316.0</ele><time>2026-04-11T14:03:43.023Z</time></trkpt><trkpt lat="42.65675794958864" lon="11.913928180402198"><ele>315.5</ele><time>2026-04-11T14:03:45.023Z</time></trkpt><trkpt lat="42.656698185698616" lon="11.914059772808104"><ele>315.0</ele><time>2026-04-11T14:03:47.023Z</time></trkpt><trkpt lat="42.656640221040774" lon="11.914192060284197"><ele>314.5</ele><time>2026-04-11T14:03:49.023Z</time></trkpt><trkpt lat="42.6565779362385" lon="11.914327718652261"><ele>314.0</ele><time>2026-04-11T14:03:51.023Z</time></trkpt><trkpt lat="42.6565130876489" lon="11.914459303398276"><ele>314.0</ele><time>2026-04-11T14:03:53.023Z</time></trkpt><trkpt lat="42.65644957999588" lon="11.914586751437946"><ele>314.0</ele><time>2026-04-11T14:03:55.023Z</time></trkpt><trkpt lat="42.65639283955612" lon="11.914724970988138"><ele>314.0</ele><time>2026-04-11T14:03:57.023Z</time></trkpt><trkpt lat="42.656341456221874" lon="11.914867952083583"><ele>314.0</ele><time>2026-04-11T14:03:59.023Z</time></trkpt><trkpt lat="42.656287932817804" lon="11.915013530245327"><ele>314.0</ele><time>2026-04-11T14:04:01.023Z</time></trkpt><trkpt lat="42.656240677703785" lon="11.915166340731046"><ele>314.0</ele><time>2026-04-11T14:04:03.023Z</time></trkpt><trkpt lat="42.656220667593026" lon="11.915251925210978"><ele>314.0</ele><time>2026-04-11T14:04:04.023Z</time></trkpt><trkpt lat="42.656172492589356" lon="11.915409783852272"><ele>314.0</ele><time>2026-04-11T14:04:06.023Z</time></trkpt><trkpt lat="42.65612395519407" lon="11.915568152675728"><ele>314.0</ele><time>2026-04-11T14:04:08.023Z</time></trkpt><trkpt lat="42.65609849387937" lon="11.915653418799048"><ele>313.57142857142856</ele><time>2026-04-11T14:04:09.023Z</time></trkpt><trkpt lat="42.6560752071942" lon="11.915743777208531"><ele>313.1428571428571</ele><time>2026-04-11T14:04:10.023Z</time></trkpt><trkpt lat="42.65604560731805" lon="11.915833356944798"><ele>312.71428571428567</ele><time>2026-04-11T14:04:11.023Z</time></trkpt><trkpt lat="42.6560204176172" lon="11.915921297308284"><ele>312.2857142857143</ele><time>2026-04-11T14:04:12.023Z</time></trkpt><trkpt lat="42.6559935440406" lon="11.916008543701585"><ele>311.8571428571429</ele><time>2026-04-11T14:04:13.023Z</time></trkpt><trkpt lat="42.655975737735304" lon="11.916105918815965"><ele>311.4285714285714</ele><time>2026-04-11T14:04:14.023Z</time></trkpt><trkpt lat="42.65595034137945" lon="11.916200330406374"><ele>311.0</ele><time>2026-04-11T14:04:15.023Z</time></trkpt><trkpt lat="42.65592306613667" lon="11.916295085986182"><ele>310.85714285714283</ele><time>2026-04-11T14:04:16.023Z</time></trkpt><trkpt lat="42.65589698867024" lon="11.916387997265558"><ele>310.7142857142857</ele><time>2026-04-11T14:04:17.023Z</time></trkpt><trkpt lat="42.65587165333263" lon="11.916481159500986"><ele>310.57142857142856</ele><time>2026-04-11T14:04:18.023Z</time></trkpt><trkpt lat="42.655845835391176" lon="11.916573377715329"><ele>310.42857142857144</ele><time>2026-04-11T14:04:19.023Z</time></trkpt><trkpt lat="42.65582322657604" lon="11.916666364632425"><ele>310.2857142857143</ele><time>2026-04-11T14:04:20.023Z</time></trkpt><trkpt lat="42.65580092158756" lon="11.916759759672958"><ele>310.14285714285717</ele><time>2026-04-11T14:04:21.023Z</time></trkpt><trkpt lat="42.6557782142527" lon="11.916851714845627"><ele>310.0</ele><time>2026-04-11T14:04:22.023Z</time></trkpt><trkpt lat="42.655753364863976" lon="11.916939944175416"><ele>310.0</ele><time>2026-04-11T14:04:23.023Z</time></trkpt><trkpt lat="42.655732579648955" lon="11.91702989786539"><ele>310.0</ele><time>2026-04-11T14:04:24.023Z</time></trkpt><trkpt lat="42.65571523391192" lon="11.917120218964751"><ele>310.0</ele><time>2026-04-11T14:04:25.025Z</time></trkpt><trkpt lat="42.65569150879183" lon="11.917207151671569"><ele>310.0</ele><time>2026-04-11T14:04:26.025Z</time></trkpt><trkpt lat="42.655669296279854" lon="11.917295328376747"><ele>310.0</ele><time>2026-04-11T14:04:27.025Z</time></trkpt><trkpt lat="42.65565107121924" lon="11.917382435112193"><ele>310.0</ele><time>2026-04-11T14:04:28.025Z</time></trkpt><trkpt lat="42.6556311507234" lon="11.917465653349264"><ele>310.0</ele><time>2026-04-11T14:04:29.025Z</time></trkpt><trkpt lat="42.65561622170165" lon="11.917550496530955"><ele>310.25</ele><time>2026-04-11T14:04:30.025Z</time></trkpt><trkpt lat="42.655583571867226" lon="11.91771120487994"><ele>310.5</ele><time>2026-04-11T14:04:32.025Z</time></trkpt><trkpt lat="42.65555995437308" lon="11.9178715889223"><ele>310.75</ele><time>2026-04-11T14:04:34.025Z</time></trkpt><trkpt lat="42.65554387655666" lon="11.918023511519445"><ele>311.0</ele><time>2026-04-11T14:04:36.025Z</time></trkpt><trkpt lat="42.65551507900313" lon="11.918173631528166"><ele>311.0</ele><time>2026-04-11T14:04:38.025Z</time></trkpt><trkpt lat="42.655498019590944" lon="11.91831855698518"><ele>311.0</ele><time>2026-04-11T14:04:40.025Z</time></trkpt><trkpt lat="42.655489237344035" lon="11.918470438452061"><ele>311.0</ele><time>2026-04-11T14:04:42.025Z</time></trkpt><trkpt lat="42.65547887962115" lon="11.918608959119133"><ele>311.0</ele><time>2026-04-11T14:04:44.025Z</time></trkpt><trkpt lat="42.655475122518965" lon="11.918746521892945"><ele>311.0</ele><time>2026-04-11T14:04:46.025Z</time></trkpt><trkpt lat="42.65548846485421" lon="11.918901359765373"><ele>310.8</ele><time>2026-04-11T14:04:48.025Z</time></trkpt><trkpt lat="42.655496703007195" lon="11.919045978300378"><ele>310.6</ele><time>2026-04-11T14:04:50.025Z</time></trkpt><trkpt lat="42.65550823319619" lon="11.919195783262117"><ele>310.4</ele><time>2026-04-11T14:04:52.025Z</time></trkpt><trkpt lat="42.65552182077651" lon="11.919344503282458"><ele>310.2</ele><time>2026-04-11T14:04:54.025Z</time></trkpt><trkpt lat="42.65552940752667" lon="11.919490456500542"><ele>310.0</ele><time>2026-04-11T14:04:56.025Z</time></trkpt><trkpt lat="42.655546302867094" lon="11.919639261900526"><ele>309.8</ele><time>2026-04-11T14:04:58.025Z</time></trkpt><trkpt lat="42.65555778697822" lon="11.919784370844633"><ele>309.6</ele><time>2026-04-11T14:05:00.024Z</time></trkpt><trkpt lat="42.65558178831178" lon="11.919920941680116"><ele>309.4</ele><time>2026-04-11T14:05:02.024Z</time></trkpt><trkpt lat="42.655595030625825" lon="11.920059469024883"><ele>309.2</ele><time>2026-04-11T14:05:04.024Z</time></trkpt><trkpt lat="42.65561623097372" lon="11.920193780717376"><ele>309.0</ele><time>2026-04-11T14:05:06.024Z</time></trkpt><trkpt lat="42.655635241240724" lon="11.920332076693079"><ele>308.8</ele><time>2026-04-11T14:05:08.024Z</time></trkpt><trkpt lat="42.65566017116828" lon="11.92047763975927"><ele>308.59999999999997</ele><time>2026-04-11T14:05:10.024Z</time></trkpt><trkpt lat="42.65567907132363" lon="11.920616621355444"><ele>308.4</ele><time>2026-04-11T14:05:12.024Z</time></trkpt><trkpt lat="42.655702463398434" lon="11.920752788852278"><ele>308.2</ele><time>2026-04-11T14:05:14.024Z</time></trkpt><trkpt lat="42.65572319594442" lon="11.920893918065252"><ele>308.0</ele><time>2026-04-11T14:05:16.024Z</time></trkpt><trkpt lat="42.655745390305" lon="11.921032562786818"><ele>308.4</ele><time>2026-04-11T14:05:18.024Z</time></trkpt><trkpt lat="42.65576850168711" lon="11.921166004852997"><ele>308.8</ele><time>2026-04-11T14:05:20.024Z</time></trkpt><trkpt lat="42.655788865560005" lon="11.921302042145369"><ele>309.2</ele><time>2026-04-11T14:05:22.024Z</time></trkpt><trkpt lat="42.65581362529065" lon="11.92143619854706"><ele>309.6</ele><time>2026-04-11T14:05:24.024Z</time></trkpt><trkpt lat="42.655831835172926" lon="11.921570796931059"><ele>310.0</ele><time>2026-04-11T14:05:26.024Z</time></trkpt><trkpt lat="42.65585222575423" lon="11.921706389060173"><ele>310.0</ele><time>2026-04-11T14:05:28.024Z</time></trkpt><trkpt lat="42.65587559664565" lon="11.921832576111733"><ele>310.0</ele><time>2026-04-11T14:05:30.024Z</time></trkpt><trkpt lat="42.6559071497824" lon="11.921955664441883"><ele>310.0</ele><time>2026-04-11T14:05:32.024Z</time></trkpt><trkpt lat="42.65593140366971" lon="11.92207573531723"><ele>310.0</ele><time>2026-04-11T14:05:34.024Z</time></trkpt><trkpt lat="42.655958036172294" lon="11.922200541799414"><ele>310.0</ele><time>2026-04-11T14:05:36.024Z</time></trkpt><trkpt lat="42.65598459955788" lon="11.922323318839"><ele>310.0</ele><time>2026-04-11T14:05:38.024Z</time></trkpt><trkpt lat="42.65601630489657" lon="11.92244952187381"><ele>310.0</ele><time>2026-04-11T14:05:40.024Z</time></trkpt><trkpt lat="42.65604683849548" lon="11.922580274480548"><ele>310.0</ele><time>2026-04-11T14:05:42.024Z</time></trkpt><trkpt lat="42.656076615347345" lon="11.922708075791556"><ele>310.0</ele><time>2026-04-11T14:05:44.024Z</time></trkpt><trkpt lat="42.65610802454925" lon="11.922831743146379"><ele>310.0</ele><time>2026-04-11T14:05:46.024Z</time></trkpt><trkpt lat="42.656147696217765" lon="11.9229501404934"><ele>310.2</ele><time>2026-04-11T14:05:48.024Z</time></trkpt><trkpt lat="42.65617054873563" lon="11.923077416451008"><ele>310.4</ele><time>2026-04-11T14:05:50.024Z</time></trkpt><trkpt lat="42.65619309396349" lon="11.923194168130523"><ele>310.6</ele><time>2026-04-11T14:05:52.024Z</time></trkpt><trkpt lat="42.656216028691375" lon="11.92332035696634"><ele>310.8</ele><time>2026-04-11T14:05:54.024Z</time></trkpt><trkpt lat="42.65621468829493" lon="11.923450875942981"><ele>311.0</ele><time>2026-04-11T14:05:56.024Z</time></trkpt><trkpt lat="42.65624031496993" lon="11.923565016755612"><ele>311.2</ele><time>2026-04-11T14:05:58.024Z</time></trkpt><trkpt lat="42.65624957918378" lon="11.923684954796146"><ele>311.40000000000003</ele><time>2026-04-11T14:06:00.024Z</time></trkpt><trkpt lat="42.65625056210965" lon="11.923804911742137"><ele>311.6</ele><time>2026-04-11T14:06:02.023Z</time></trkpt><trkpt lat="42.65626460974116" lon="11.923926639230759"><ele>311.8</ele><time>2026-04-11T14:06:04.023Z</time></trkpt><trkpt lat="42.65626937444103" lon="11.924055003380161"><ele>312.0</ele><time>2026-04-11T14:06:06.023Z</time></trkpt><trkpt lat="42.6562699889452" lon="11.924187622547183"><ele>311.8</ele><time>2026-04-11T14:06:08.023Z</time></trkpt><trkpt lat="42.656270821857106" lon="11.924314205571056"><ele>311.6</ele><time>2026-04-11T14:06:10.023Z</time></trkpt><trkpt lat="42.65626812417706" lon="11.924443426713212"><ele>311.40000000000003</ele><time>2026-04-11T14:06:12.023Z</time></trkpt><trkpt lat="42.6562602532523" lon="11.924569297143169"><ele>311.2</ele><time>2026-04-11T14:06:14.023Z</time></trkpt><trkpt lat="42.65625839888278" lon="11.924699303974478"><ele>311.0</ele><time>2026-04-11T14:06:16.023Z</time></trkpt><trkpt lat="42.65625615931345" lon="11.924819060096954"><ele>311.0</ele><time>2026-04-11T14:06:18.023Z</time></trkpt><trkpt lat="42.656253812050814" lon="11.924931770069252"><ele>311.0</ele><time>2026-04-11T14:06:20.023Z</time></trkpt><trkpt lat="42.65625966135084" lon="11.92504646971829"><ele>311.0</ele><time>2026-04-11T14:06:22.023Z</time></trkpt><trkpt lat="42.65626025039698" lon="11.925152471450758"><ele>311.0</ele><time>2026-04-11T14:06:24.023Z</time></trkpt><trkpt lat="42.656261301036714" lon="11.925264396108032"><ele>311.0</ele><time>2026-04-11T14:06:26.023Z</time></trkpt><trkpt lat="42.65626866739421" lon="11.925382912083897"><ele>311.0</ele><time>2026-04-11T14:06:28.023Z</time></trkpt><trkpt lat="42.65627381067808" lon="11.925503892233923"><ele>311.0</ele><time>2026-04-11T14:06:30.023Z</time></trkpt><trkpt lat="42.65628345049264" lon="11.925619618253686"><ele>311.0</ele><time>2026-04-11T14:06:32.026Z</time></trkpt><trkpt lat="42.65628434273858" lon="11.925748357078643"><ele>311.0</ele><time>2026-04-11T14:06:34.025Z</time></trkpt><trkpt lat="42.656290197469026" lon="11.925868999797196"><ele>311.0</ele><time>2026-04-11T14:06:36.025Z</time></trkpt><trkpt lat="42.65629521564917" lon="11.925992606086687"><ele>311.0</ele><time>2026-04-11T14:06:38.026Z</time></trkpt><trkpt lat="42.656298293155245" lon="11.926117421957944"><ele>311.0</ele><time>2026-04-11T14:06:40.026Z</time></trkpt><trkpt lat="42.65629883213292" lon="11.926245462838486"><ele>311.0</ele><time>2026-04-11T14:06:42.026Z</time></trkpt><trkpt lat="42.65630275863952" lon="11.92637880918372"><ele>311.0</ele><time>2026-04-11T14:06:44.026Z</time></trkpt><trkpt lat="42.65630483206089" lon="11.926512630302357"><ele>311.0</ele><time>2026-04-11T14:06:46.026Z</time></trkpt><trkpt lat="42.65631237777835" lon="11.926649798190104"><ele>311.0</ele><time>2026-04-11T14:06:48.026Z</time></trkpt><trkpt lat="42.656316782531896" lon="11.926788237941745"><ele>311.2</ele><time>2026-04-11T14:06:50.026Z</time></trkpt><trkpt lat="42.65633034848653" lon="11.926921351410938"><ele>311.40000000000003</ele><time>2026-04-11T14:06:52.026Z</time></trkpt><trkpt lat="42.656335315448686" lon="11.92706816213377"><ele>311.6</ele><time>2026-04-11T14:06:54.026Z</time></trkpt><trkpt lat="42.65634184757888" lon="11.92721638261862"><ele>311.8</ele><time>2026-04-11T14:06:56.026Z</time></trkpt><trkpt lat="42.656355580732196" lon="11.927362190418695"><ele>312.0</ele><time>2026-04-11T14:06:58.026Z</time></trkpt><trkpt lat="42.65636592748057" lon="11.927521444748216"><ele>311.8</ele><time>2026-04-11T14:07:00.026Z</time></trkpt><trkpt lat="42.6563749997282" lon="11.927676428956193"><ele>311.6</ele><time>2026-04-11T14:07:02.025Z</time></trkpt><trkpt lat="42.65638436055649" lon="11.92782343356469"><ele>311.40000000000003</ele><time>2026-04-11T14:07:04.025Z</time></trkpt><trkpt lat="42.656393554786575" lon="11.927974287673427"><ele>311.2</ele><time>2026-04-11T14:07:06.025Z</time></trkpt><trkpt lat="42.65640627329071" lon="11.928123531300121"><ele>311.0</ele><time>2026-04-11T14:07:08.025Z</time></trkpt><trkpt lat="42.65642210961808" lon="11.928271954160365"><ele>311.2</ele><time>2026-04-11T14:07:10.025Z</time></trkpt><trkpt lat="42.65643621946722" lon="11.928410265486178"><ele>311.40000000000003</ele><time>2026-04-11T14:07:12.025Z</time></trkpt><trkpt lat="42.65645175284464" lon="11.928544642453954"><ele>311.6</ele><time>2026-04-11T14:07:14.025Z</time></trkpt><trkpt lat="42.65646152190129" lon="11.928664044633342"><ele>311.8</ele><time>2026-04-11T14:07:16.025Z</time></trkpt><trkpt lat="42.65647469150038" lon="11.928791195229218"><ele>312.0</ele><time>2026-04-11T14:07:18.025Z</time></trkpt><trkpt lat="42.65648684894899" lon="11.928905342432287"><ele>312.0</ele><time>2026-04-11T14:07:20.025Z</time></trkpt><trkpt lat="42.65648717136094" lon="11.929014359242267"><ele>312.0</ele><time>2026-04-11T14:07:22.025Z</time></trkpt><trkpt lat="42.65649609928063" lon="11.929130412245481"><ele>312.0</ele><time>2026-04-11T14:07:24.025Z</time></trkpt><trkpt lat="42.656496531316684" lon="11.92923953445998"><ele>312.0</ele><time>2026-04-11T14:07:26.025Z</time></trkpt><trkpt lat="42.65648933058641" lon="11.929359519583764"><ele>312.0</ele><time>2026-04-11T14:07:28.025Z</time></trkpt><trkpt lat="42.65649428464111" lon="11.929471812907568"><ele>312.0</ele><time>2026-04-11T14:07:30.025Z</time></trkpt><trkpt lat="42.65649446212863" lon="11.929597366190238"><ele>311.6</ele><time>2026-04-11T14:07:32.025Z</time></trkpt><trkpt lat="42.65648980289241" lon="11.929728652534692"><ele>311.2</ele><time>2026-04-11T14:07:34.025Z</time></trkpt><trkpt lat="42.65649032831328" lon="11.929866804450384"><ele>310.8</ele><time>2026-04-11T14:07:36.025Z</time></trkpt><trkpt lat="42.65648887090155" lon="11.930006437791796"><ele>310.4</ele><time>2026-04-11T14:07:38.025Z</time></trkpt><trkpt lat="42.656483256716776" lon="11.930151102623054"><ele>310.0</ele><time>2026-04-11T14:07:40.025Z</time></trkpt><trkpt lat="42.656483678867716" lon="11.930288647485751"><ele>310.0</ele><time>2026-04-11T14:07:42.025Z</time></trkpt><trkpt lat="42.656474354349825" lon="11.93042469279849"><ele>310.0</ele><time>2026-04-11T14:07:44.025Z</time></trkpt><trkpt lat="42.656473267112524" lon="11.930575974767596"><ele>310.0</ele><time>2026-04-11T14:07:46.025Z</time></trkpt><trkpt lat="42.656474752155" lon="11.930715092409503"><ele>310.0</ele><time>2026-04-11T14:07:48.025Z</time></trkpt><trkpt lat="42.65646705310426" lon="11.930874891165407"><ele>310.0</ele><time>2026-04-11T14:07:50.025Z</time></trkpt><trkpt lat="42.65647526083735" lon="11.931025219174861"><ele>310.0</ele><time>2026-04-11T14:07:52.025Z</time></trkpt><trkpt lat="42.65648692606466" lon="11.93118162606419"><ele>310.0</ele><time>2026-04-11T14:07:54.025Z</time></trkpt><trkpt lat="42.656490707094704" lon="11.931336980595603"><ele>310.0</ele><time>2026-04-11T14:07:56.025Z</time></trkpt><trkpt lat="42.6565023929283" lon="11.931500091471392"><ele>310.0</ele><time>2026-04-11T14:07:58.025Z</time></trkpt><trkpt lat="42.65652176192351" lon="11.931654448889189"><ele>310.4</ele><time>2026-04-11T14:08:00.025Z</time></trkpt><trkpt lat="42.65653655462173" lon="11.931806169064629"><ele>310.8</ele><time>2026-04-11T14:08:02.024Z</time></trkpt><trkpt lat="42.65654992172683" lon="11.931956918089288"><ele>311.2</ele><time>2026-04-11T14:08:04.024Z</time></trkpt><trkpt lat="42.65656366800296" lon="11.932105449549145"><ele>311.6</ele><time>2026-04-11T14:08:06.024Z</time></trkpt><trkpt lat="42.6565712863973" lon="11.932257468653098"><ele>312.0</ele><time>2026-04-11T14:08:08.024Z</time></trkpt><trkpt lat="42.6565853148009" lon="11.932400126351698"><ele>312.0</ele><time>2026-04-11T14:08:10.024Z</time></trkpt><trkpt lat="42.6565969248659" lon="11.932536826216458"><ele>312.0</ele><time>2026-04-11T14:08:12.024Z</time></trkpt><trkpt lat="42.65660632237907" lon="11.932670462967334"><ele>312.0</ele><time>2026-04-11T14:08:14.024Z</time></trkpt><trkpt lat="42.656612361343726" lon="11.932809657286695"><ele>312.0</ele><time>2026-04-11T14:08:16.024Z</time></trkpt><trkpt lat="42.65661311047607" lon="11.932938016097157"><ele>312.0</ele><time>2026-04-11T14:08:18.024Z</time></trkpt><trkpt lat="42.65661145475519" lon="11.933060524994747"><ele>312.0</ele><time>2026-04-11T14:08:20.024Z</time></trkpt><trkpt lat="42.6566119597029" lon="11.933182706925894"><ele>312.0</ele><time>2026-04-11T14:08:22.024Z</time></trkpt><trkpt lat="42.65661174925984" lon="11.933300673676591"><ele>312.0</ele><time>2026-04-11T14:08:24.024Z</time></trkpt><trkpt lat="42.65660757049623" lon="11.933413062002433"><ele>312.0</ele><time>2026-04-11T14:08:26.024Z</time></trkpt><trkpt lat="42.656602593615936" lon="11.933535223542261"><ele>312.0</ele><time>2026-04-11T14:08:28.024Z</time></trkpt><trkpt lat="42.65659660672099" lon="11.933655766271887"><ele>312.0</ele><time>2026-04-11T14:08:30.024Z</time></trkpt><trkpt lat="42.656594489470734" lon="11.93377382463497"><ele>311.8</ele><time>2026-04-11T14:08:32.024Z</time></trkpt><trkpt lat="42.65659112189799" lon="11.933895146334143"><ele>311.6</ele><time>2026-04-11T14:08:34.024Z</time></trkpt><trkpt lat="42.65658107937614" lon="11.93401638820168"><ele>311.40000000000003</ele><time>2026-04-11T14:08:36.024Z</time></trkpt><trkpt lat="42.65657423613881" lon="11.934146448649859"><ele>311.2</ele><time>2026-04-11T14:08:38.027Z</time></trkpt><trkpt lat="42.656567795337" lon="11.934276792536348"><ele>311.0</ele><time>2026-04-11T14:08:40.027Z</time></trkpt><trkpt lat="42.65655806030795" lon="11.93440025593358"><ele>311.0</ele><time>2026-04-11T14:08:42.027Z</time></trkpt><trkpt lat="42.656553936332955" lon="11.934528154153886"><ele>311.0</ele><time>2026-04-11T14:08:44.027Z</time></trkpt><trkpt lat="42.65654047236912" lon="11.934656235194572"><ele>311.0</ele><time>2026-04-11T14:08:46.027Z</time></trkpt><trkpt lat="42.6565342921311" lon="11.934785031645834"><ele>311.0</ele><time>2026-04-11T14:08:48.027Z</time></trkpt><trkpt lat="42.65652375115233" lon="11.934911658150629"><ele>311.0</ele><time>2026-04-11T14:08:50.027Z</time></trkpt><trkpt lat="42.656513218792654" lon="11.935033470351712"><ele>311.2</ele><time>2026-04-11T14:08:52.027Z</time></trkpt><trkpt lat="42.656508361387836" lon="11.935156833721006"><ele>311.40000000000003</ele><time>2026-04-11T14:08:54.027Z</time></trkpt><trkpt lat="42.65649690054295" lon="11.935277454329938"><ele>311.6</ele><time>2026-04-11T14:08:56.027Z</time></trkpt><trkpt lat="42.65648715159132" lon="11.935398525688646"><ele>311.8</ele><time>2026-04-11T14:08:58.027Z</time></trkpt><trkpt lat="42.65648122111207" lon="11.93552476211749"><ele>312.0</ele><time>2026-04-11T14:09:00.027Z</time></trkpt><trkpt lat="42.656464501555966" lon="11.935654605771319"><ele>312.0</ele><time>2026-04-11T14:09:02.026Z</time></trkpt><trkpt lat="42.6564546199121" lon="11.935782369737543"><ele>312.0</ele><time>2026-04-11T14:09:04.026Z</time></trkpt><trkpt lat="42.656446714288975" lon="11.93589950286975"><ele>312.0</ele><time>2026-04-11T14:09:06.026Z</time></trkpt><trkpt lat="42.65643119430122" lon="11.936024465438013"><ele>312.0</ele><time>2026-04-11T14:09:08.026Z</time></trkpt><trkpt lat="42.656414912688376" lon="11.936150232688046"><ele>312.0</ele><time>2026-04-11T14:09:10.026Z</time></trkpt><trkpt lat="42.65639256793262" lon="11.936286349293798"><ele>311.8</ele><time>2026-04-11T14:09:12.026Z</time></trkpt><trkpt lat="42.65636062577302" lon="11.936416903480028"><ele>311.6</ele><time>2026-04-11T14:09:14.026Z</time></trkpt><trkpt lat="42.65632498251403" lon="11.936547547479883"><ele>311.40000000000003</ele><time>2026-04-11T14:09:16.026Z</time></trkpt><trkpt lat="42.65628189266512" lon="11.93667605431909"><ele>311.2</ele><time>2026-04-11T14:09:18.026Z</time></trkpt><trkpt lat="42.65623505409034" lon="11.936794606812798"><ele>311.0</ele><time>2026-04-11T14:09:20.026Z</time></trkpt><trkpt lat="42.65619266068123" lon="11.936901963793249"><ele>311.0</ele><time>2026-04-11T14:09:22.026Z</time></trkpt><trkpt lat="42.656145522356546" lon="11.937022394435084"><ele>311.0</ele><time>2026-04-11T14:09:24.026Z</time></trkpt><trkpt lat="42.6561004647663" lon="11.93714545628445"><ele>311.0</ele><time>2026-04-11T14:09:26.026Z</time></trkpt><trkpt lat="42.656057166056456" lon="11.937252556604253"><ele>311.0</ele><time>2026-04-11T14:09:28.026Z</time></trkpt><trkpt lat="42.656012475238605" lon="11.93734969571477"><ele>311.0</ele><time>2026-04-11T14:09:30.026Z</time></trkpt><trkpt lat="42.655972291058866" lon="11.937460980534878"><ele>310.6</ele><time>2026-04-11T14:09:32.026Z</time></trkpt><trkpt lat="42.65592621622485" lon="11.93757601507428"><ele>310.20000000000005</ele><time>2026-04-11T14:09:34.026Z</time></trkpt><trkpt lat="42.65587471246795" lon="11.93769269783055"><ele>309.79999999999995</ele><time>2026-04-11T14:09:36.026Z</time></trkpt><trkpt lat="42.65582928415343" lon="11.937808562998413"><ele>309.4</ele><time>2026-04-11T14:09:38.026Z</time></trkpt><trkpt lat="42.65577996341344" lon="11.937935290477894"><ele>309.0</ele><time>2026-04-11T14:09:40.026Z</time></trkpt><trkpt lat="42.655731306586375" lon="11.938065706073784"><ele>309.0</ele><time>2026-04-11T14:09:42.026Z</time></trkpt><trkpt lat="42.655678447518234" lon="11.938195475211693"><ele>309.0</ele><time>2026-04-11T14:09:44.026Z</time></trkpt><trkpt lat="42.65562390453961" lon="11.938320440848582"><ele>309.0</ele><time>2026-04-11T14:09:46.026Z</time></trkpt><trkpt lat="42.65556981578054" lon="11.938451142408155"><ele>309.0</ele><time>2026-04-11T14:09:48.026Z</time></trkpt><trkpt lat="42.65551724589791" lon="11.938583391394053"><ele>309.0</ele><time>2026-04-11T14:09:50.026Z</time></trkpt><trkpt lat="42.655463113047226" lon="11.938714427974586"><ele>309.0</ele><time>2026-04-11T14:09:52.026Z</time></trkpt><trkpt lat="42.655413769361786" lon="11.938849675284125"><ele>309.0</ele><time>2026-04-11T14:09:54.026Z</time></trkpt><trkpt lat="42.65535599256457" lon="11.938970756100327"><ele>309.0</ele><time>2026-04-11T14:09:56.026Z</time></trkpt><trkpt lat="42.65530680945126" lon="11.939109650074007"><ele>309.0</ele><time>2026-04-11T14:09:58.026Z</time></trkpt><trkpt lat="42.65523943900513" lon="11.939231439911037"><ele>309.0</ele><time>2026-04-11T14:10:00.026Z</time></trkpt><trkpt lat="42.65518880282612" lon="11.939364745567946"><ele>309.0</ele><time>2026-04-11T14:10:02.026Z</time></trkpt><trkpt lat="42.65513227291365" lon="11.939493056634161"><ele>309.0</ele><time>2026-04-11T14:10:04.025Z</time></trkpt><trkpt lat="42.655079495528234" lon="11.939604699184699"><ele>309.0</ele><time>2026-04-11T14:10:06.025Z</time></trkpt><trkpt lat="42.65502977995065" lon="11.939736551380067"><ele>309.0</ele><time>2026-04-11T14:10:08.025Z</time></trkpt><trkpt lat="42.65498557335152" lon="11.939874996425697"><ele>309.0</ele><time>2026-04-11T14:10:10.025Z</time></trkpt><trkpt lat="42.654957037318226" lon="11.939987947199842"><ele>308.59999999999997</ele><time>2026-04-11T14:10:12.025Z</time></trkpt><trkpt lat="42.65489857562928" lon="11.94010453754335"><ele>308.2</ele><time>2026-04-11T14:10:14.025Z</time></trkpt><trkpt lat="42.65484928941848" lon="11.94023798951724"><ele>307.79999999999995</ele><time>2026-04-11T14:10:16.025Z</time></trkpt><trkpt lat="42.65480074895545" lon="11.940370154781638"><ele>307.4</ele><time>2026-04-11T14:10:18.025Z</time></trkpt><trkpt lat="42.65474976747125" lon="11.9404893793663"><ele>307.0</ele><time>2026-04-11T14:10:19.959Z</time></trkpt><trkpt lat="42.65470283863205" lon="11.940612597147117"><ele>307.0</ele><time>2026-04-11T14:10:21.959Z</time></trkpt><trkpt lat="42.6546545739637" lon="11.940737642337613"><ele>307.0</ele><time>2026-04-11T14:10:23.959Z</time></trkpt><trkpt lat="42.65460526714713" lon="11.940866238519563"><ele>307.0</ele><time>2026-04-11T14:10:25.959Z</time></trkpt><trkpt lat="42.654560257836906" lon="11.94098885075507"><ele>307.0</ele><time>2026-04-11T14:10:27.959Z</time></trkpt><trkpt lat="42.654512391426614" lon="11.941117069467976"><ele>307.0</ele><time>2026-04-11T14:10:29.959Z</time></trkpt><trkpt lat="42.65446370062842" lon="11.941244706426057"><ele>307.0</ele><time>2026-04-11T14:10:31.959Z</time></trkpt><trkpt lat="42.654415357538035" lon="11.941372817186013"><ele>307.0</ele><time>2026-04-11T14:10:33.959Z</time></trkpt><trkpt lat="42.654362775531084" lon="11.941495951116577"><ele>307.0</ele><time>2026-04-11T14:10:35.959Z</time></trkpt><trkpt lat="42.654319626496324" lon="11.941625143935347"><ele>307.0</ele><time>2026-04-11T14:10:37.959Z</time></trkpt><trkpt lat="42.65426995595426" lon="11.941746139550753"><ele>307.0</ele><time>2026-04-11T14:10:39.959Z</time></trkpt><trkpt lat="42.6542261988742" lon="11.941866342907527"><ele>306.6</ele><time>2026-04-11T14:10:41.959Z</time></trkpt><trkpt lat="42.65418263674705" lon="11.941975460696971"><ele>306.2</ele><time>2026-04-11T14:10:43.961Z</time></trkpt><trkpt lat="42.65414203760196" lon="11.94208299037356"><ele>305.8</ele><time>2026-04-11T14:10:45.961Z</time></trkpt><trkpt lat="42.65410045479556" lon="11.942194034536977"><ele>305.4</ele><time>2026-04-11T14:10:47.961Z</time></trkpt><trkpt lat="42.65405880245561" lon="11.94230260023216"><ele>305.0</ele><time>2026-04-11T14:10:49.961Z</time></trkpt><trkpt lat="42.654016014929596" lon="11.942419077617076"><ele>305.0</ele><time>2026-04-11T14:10:51.961Z</time></trkpt><trkpt lat="42.65396786679073" lon="11.942539742494713"><ele>305.0</ele><time>2026-04-11T14:10:53.961Z</time></trkpt><trkpt lat="42.65391704292616" lon="11.94265414239795"><ele>305.0</ele><time>2026-04-11T14:10:55.961Z</time></trkpt><trkpt lat="42.653875876180415" lon="11.942774212182231"><ele>305.0</ele><time>2026-04-11T14:10:57.961Z</time></trkpt><trkpt lat="42.65382753379116" lon="11.942892243636187"><ele>305.0</ele><time>2026-04-11T14:10:59.961Z</time></trkpt><trkpt lat="42.65378353134243" lon="11.9430068357264"><ele>305.4</ele><time>2026-04-11T14:11:01.961Z</time></trkpt><trkpt lat="42.65373426951339" lon="11.943130060478548"><ele>305.8</ele><time>2026-04-11T14:11:03.961Z</time></trkpt><trkpt lat="42.65368650567022" lon="11.943255011710246"><ele>306.2</ele><time>2026-04-11T14:11:05.961Z</time></trkpt><trkpt lat="42.65363865186617" lon="11.943368593519855"><ele>306.6</ele><time>2026-04-11T14:11:07.961Z</time></trkpt><trkpt lat="42.65359157992696" lon="11.943499871595124"><ele>307.0</ele><time>2026-04-11T14:11:09.961Z</time></trkpt><trkpt lat="42.6535384301415" lon="11.943620869508054"><ele>307.0</ele><time>2026-04-11T14:11:11.961Z</time></trkpt><trkpt lat="42.65349286372789" lon="11.943743873483154"><ele>307.0</ele><time>2026-04-11T14:11:13.961Z</time></trkpt><trkpt lat="42.653436851199956" lon="11.943866720310684"><ele>307.0</ele><time>2026-04-11T14:11:15.961Z</time></trkpt><trkpt lat="42.65339574471301" lon="11.943986136478143"><ele>307.0</ele><time>2026-04-11T14:11:17.961Z</time></trkpt><trkpt lat="42.65334514852784" lon="11.94411417340351"><ele>307.0</ele><time>2026-04-11T14:11:19.961Z</time></trkpt><trkpt lat="42.65328944113141" lon="11.944241981355505"><ele>307.0</ele><time>2026-04-11T14:11:21.961Z</time></trkpt><trkpt lat="42.65323861427949" lon="11.944377531587506"><ele>307.0</ele><time>2026-04-11T14:11:23.961Z</time></trkpt><trkpt lat="42.653183094715224" lon="11.944514893383271"><ele>307.0</ele><time>2026-04-11T14:11:25.961Z</time></trkpt><trkpt lat="42.65312168788612" lon="11.94464624441579"><ele>307.0</ele><time>2026-04-11T14:11:27.961Z</time></trkpt><trkpt lat="42.65307120962228" lon="11.944779220595509"><ele>307.0</ele><time>2026-04-11T14:11:29.96Z</time></trkpt><trkpt lat="42.653012528470164" lon="11.944914226603167"><ele>307.0</ele><time>2026-04-11T14:11:31.96Z</time></trkpt><trkpt lat="42.6529568335042" lon="11.945038685301162"><ele>307.0</ele><time>2026-04-11T14:11:33.96Z</time></trkpt><trkpt lat="42.65290394353635" lon="11.945165135720968"><ele>307.0</ele><time>2026-04-11T14:11:35.96Z</time></trkpt><trkpt lat="42.652846081511264" lon="11.945295118869403"><ele>307.0</ele><time>2026-04-11T14:11:37.96Z</time></trkpt><trkpt lat="42.65279758628618" lon="11.945416647881363"><ele>307.0</ele><time>2026-04-11T14:11:39.96Z</time></trkpt><trkpt lat="42.65274908234365" lon="11.945537688611989"><ele>307.0</ele><time>2026-04-11T14:11:41.96Z</time></trkpt><trkpt lat="42.652703819187664" lon="11.945655827794978"><ele>307.0</ele><time>2026-04-11T14:11:43.96Z</time></trkpt><trkpt lat="42.652659413670555" lon="11.945774948932092"><ele>307.0</ele><time>2026-04-11T14:11:45.96Z</time></trkpt><trkpt lat="42.65261610582944" lon="11.945896420485651"><ele>307.0</ele><time>2026-04-11T14:11:47.96Z</time></trkpt><trkpt lat="42.65259162600458" lon="11.94600870361823"><ele>306.8</ele><time>2026-04-11T14:11:49.96Z</time></trkpt><trkpt lat="42.65257274886223" lon="11.946119698212408"><ele>306.6</ele><time>2026-04-11T14:11:51.96Z</time></trkpt><trkpt lat="42.652561412633766" lon="11.94623884313414"><ele>306.40000000000003</ele><time>2026-04-11T14:11:53.96Z</time></trkpt><trkpt lat="42.65256197617778" lon="11.946362752468497"><ele>306.2</ele><time>2026-04-11T14:11:55.96Z</time></trkpt><trkpt lat="42.652545663875806" lon="11.946494936451618"><ele>306.0</ele><time>2026-04-11T14:11:57.96Z</time></trkpt><trkpt lat="42.65254506514299" lon="11.946620862885124"><ele>305.8333333333333</ele><time>2026-04-11T14:11:59.959Z</time></trkpt><trkpt lat="42.652537980641924" lon="11.946753457334077"><ele>305.6666666666667</ele><time>2026-04-11T14:12:01.959Z</time></trkpt><trkpt lat="42.652534035277164" lon="11.946877105237046"><ele>305.5</ele><time>2026-04-11T14:12:03.959Z</time></trkpt><trkpt lat="42.6525281379718" lon="11.947001365063931"><ele>305.33333333333337</ele><time>2026-04-11T14:12:05.959Z</time></trkpt><trkpt lat="42.652524678762774" lon="11.947118533693784"><ele>305.1666666666667</ele><time>2026-04-11T14:12:07.959Z</time></trkpt><trkpt lat="42.652514973871504" lon="11.947222069530223"><ele>305.0</ele><time>2026-04-11T14:12:09.959Z</time></trkpt><trkpt lat="42.652506248564045" lon="11.947328779438184"><ele>305.0</ele><time>2026-04-11T14:12:11.959Z</time></trkpt><trkpt lat="42.65249811975855" lon="11.94743455335399"><ele>305.0</ele><time>2026-04-11T14:12:13.959Z</time></trkpt><trkpt lat="42.652493709074896" lon="11.94755040557641"><ele>305.0</ele><time>2026-04-11T14:12:15.959Z</time></trkpt><trkpt lat="42.65248364803893" lon="11.947665052551782"><ele>305.0</ele><time>2026-04-11T14:12:17.959Z</time></trkpt><trkpt lat="42.65247950944286" lon="11.947780922552713"><ele>305.0</ele><time>2026-04-11T14:12:19.959Z</time></trkpt><trkpt lat="42.65246799445873" lon="11.947895846573864"><ele>305.0</ele><time>2026-04-11T14:12:21.959Z</time></trkpt><trkpt lat="42.65246045964566" lon="11.948018404720028"><ele>305.0</ele><time>2026-04-11T14:12:23.959Z</time></trkpt><trkpt lat="42.652450285867545" lon="11.948135868689304"><ele>305.0</ele><time>2026-04-11T14:12:25.959Z</time></trkpt><trkpt lat="42.65244337830561" lon="11.948257768445334"><ele>305.0</ele><time>2026-04-11T14:12:27.959Z</time></trkpt><trkpt lat="42.652431197840045" lon="11.94837950864045"><ele>305.0</ele><time>2026-04-11T14:12:29.959Z</time></trkpt><trkpt lat="42.65242459847412" lon="11.948505846277916"><ele>305.0</ele><time>2026-04-11T14:12:31.958Z</time></trkpt><trkpt lat="42.65241481936704" lon="11.948626290292651"><ele>305.2</ele><time>2026-04-11T14:12:33.958Z</time></trkpt><trkpt lat="42.652400877870384" lon="11.948750675994875"><ele>305.4</ele><time>2026-04-11T14:12:35.958Z</time></trkpt><trkpt lat="42.65239681797484" lon="11.948868014050303"><ele>305.6</ele><time>2026-04-11T14:12:37.958Z</time></trkpt><trkpt lat="42.6523898771212" lon="11.948993228103387"><ele>305.8</ele><time>2026-04-11T14:12:39.958Z</time></trkpt><trkpt lat="42.65237535908295" lon="11.949115372806457"><ele>306.0</ele><time>2026-04-11T14:12:41.958Z</time></trkpt><trkpt lat="42.65236504982558" lon="11.94923822526698"><ele>306.0</ele><time>2026-04-11T14:12:43.958Z</time></trkpt><trkpt lat="42.652354516873274" lon="11.94936575477471"><ele>306.0</ele><time>2026-04-11T14:12:45.958Z</time></trkpt><trkpt lat="42.65234489382821" lon="11.949485815980486"><ele>306.0</ele><time>2026-04-11T14:12:47.96Z</time></trkpt><trkpt lat="42.652334469276596" lon="11.949604808129676"><ele>306.0</ele><time>2026-04-11T14:12:49.96Z</time></trkpt><trkpt lat="42.652327504235224" lon="11.9497194188049"><ele>306.0</ele><time>2026-04-11T14:12:51.96Z</time></trkpt><trkpt lat="42.65231621204972" lon="11.949824358469519"><ele>306.0</ele><time>2026-04-11T14:12:53.96Z</time></trkpt><trkpt lat="42.65230648792893" lon="11.94993780110047"><ele>306.0</ele><time>2026-04-11T14:12:55.96Z</time></trkpt><trkpt lat="42.65229422347431" lon="11.950040665064597"><ele>306.0</ele><time>2026-04-11T14:12:57.96Z</time></trkpt><trkpt lat="42.652285068855484" lon="11.950153621228841"><ele>306.0</ele><time>2026-04-11T14:12:59.96Z</time></trkpt><trkpt lat="42.65227821429955" lon="11.950260494075154"><ele>306.0</ele><time>2026-04-11T14:13:01.96Z</time></trkpt><trkpt lat="42.65227128205546" lon="11.950366284883202"><ele>306.0</ele><time>2026-04-11T14:13:03.96Z</time></trkpt><trkpt lat="42.65225825494207" lon="11.950463506283041"><ele>306.0</ele><time>2026-04-11T14:13:05.96Z</time></trkpt><trkpt lat="42.65224885454584" lon="11.950574370949928"><ele>306.0</ele><time>2026-04-11T14:13:07.96Z</time></trkpt><trkpt lat="42.652239442702076" lon="11.950675096020287"><ele>306.0</ele><time>2026-04-11T14:13:09.96Z</time></trkpt><trkpt lat="42.65223621346056" lon="11.950778988328453"><ele>306.0</ele><time>2026-04-11T14:13:11.959Z</time></trkpt><trkpt lat="42.65222512479034" lon="11.950882519721127"><ele>306.0</ele><time>2026-04-11T14:13:13.959Z</time></trkpt><trkpt lat="42.652215745672045" lon="11.950986390632389"><ele>306.0</ele><time>2026-04-11T14:13:15.959Z</time></trkpt><trkpt lat="42.6522105414041" lon="11.95108961127763"><ele>306.0</ele><time>2026-04-11T14:13:17.959Z</time></trkpt><trkpt lat="42.65220107279869" lon="11.951192259669869"><ele>306.0</ele><time>2026-04-11T14:13:19.959Z</time></trkpt><trkpt lat="42.65218945306534" lon="11.951297989337945"><ele>306.0</ele><time>2026-04-11T14:13:21.959Z</time></trkpt><trkpt lat="42.652180879003744" lon="11.951401064058325"><ele>306.0</ele><time>2026-04-11T14:13:23.959Z</time></trkpt><trkpt lat="42.652172179572815" lon="11.951506965508827"><ele>306.0</ele><time>2026-04-11T14:13:25.959Z</time></trkpt><trkpt lat="42.652161583365036" lon="11.951607413697458"><ele>306.0</ele><time>2026-04-11T14:13:27.959Z</time></trkpt><trkpt lat="42.652150739780424" lon="11.95171562686966"><ele>306.0</ele><time>2026-04-11T14:13:29.959Z</time></trkpt><trkpt lat="42.65214457111006" lon="11.951831360186906"><ele>306.1666666666667</ele><time>2026-04-11T14:13:31.959Z</time></trkpt><trkpt lat="42.652130185252894" lon="11.951951416242233"><ele>306.3333333333333</ele><time>2026-04-11T14:13:33.959Z</time></trkpt><trkpt lat="42.6521172887224" lon="11.952069025024308"><ele>306.5</ele><time>2026-04-11T14:13:35.959Z</time></trkpt><trkpt lat="42.65210856837747" lon="11.952188523819348"><ele>306.66666666666663</ele><time>2026-04-11T14:13:37.959Z</time></trkpt><trkpt lat="42.65210194474239" lon="11.952308506465755"><ele>306.8333333333333</ele><time>2026-04-11T14:13:39.959Z</time></trkpt><trkpt lat="42.65209256167221" lon="11.95243085931894"><ele>307.0</ele><time>2026-04-11T14:13:41.959Z</time></trkpt><trkpt lat="42.65208029263746" lon="11.952547300821264"><ele>307.0</ele><time>2026-04-11T14:13:43.958Z</time></trkpt><trkpt lat="42.652071835645074" lon="11.952666649157683"><ele>307.0</ele><time>2026-04-11T14:13:45.958Z</time></trkpt><trkpt lat="42.65205869297457" lon="11.952794229992275"><ele>307.0</ele><time>2026-04-11T14:13:47.958Z</time></trkpt><trkpt lat="42.6520440517191" lon="11.952920453116919"><ele>307.0</ele><time>2026-04-11T14:13:49.958Z</time></trkpt><trkpt lat="42.65202487021642" lon="11.953046667633222"><ele>307.0</ele><time>2026-04-11T14:13:51.958Z</time></trkpt><trkpt lat="42.65200762538605" lon="11.953171115511333"><ele>307.0</ele><time>2026-04-11T14:13:53.958Z</time></trkpt><trkpt lat="42.65199363912127" lon="11.953294895755674"><ele>307.0</ele><time>2026-04-11T14:13:55.958Z</time></trkpt><trkpt lat="42.65197682679386" lon="11.953421269034147"><ele>307.0</ele><time>2026-04-11T14:13:57.958Z</time></trkpt><trkpt lat="42.65195838245018" lon="11.953546906122012"><ele>307.0</ele><time>2026-04-11T14:13:59.958Z</time></trkpt><trkpt lat="42.65194112456441" lon="11.953672825720247"><ele>307.0</ele><time>2026-04-11T14:14:01.958Z</time></trkpt><trkpt lat="42.65192675956431" lon="11.95380077152376"><ele>307.0</ele><time>2026-04-11T14:14:03.958Z</time></trkpt><trkpt lat="42.65191210293719" lon="11.95393144908925"><ele>307.0</ele><time>2026-04-11T14:14:05.958Z</time></trkpt><trkpt lat="42.65189154025452" lon="11.95405558719683"><ele>307.0</ele><time>2026-04-11T14:14:07.958Z</time></trkpt><trkpt lat="42.65187748398443" lon="11.954185875302437"><ele>307.0</ele><time>2026-04-11T14:14:09.958Z</time></trkpt><trkpt lat="42.65186076936898" lon="11.95431337210938"><ele>307.0</ele><time>2026-04-11T14:14:11.958Z</time></trkpt><trkpt lat="42.65184592308705" lon="11.954440862401448"><ele>307.0</ele><time>2026-04-11T14:14:13.957Z</time></trkpt><trkpt lat="42.651828640934134" lon="11.954571005551282"><ele>307.0</ele><time>2026-04-11T14:14:15.957Z</time></trkpt><trkpt lat="42.651807917197715" lon="11.954697173108181"><ele>307.0</ele><time>2026-04-11T14:14:17.957Z</time></trkpt><trkpt lat="42.65178808353328" lon="11.954826366365182"><ele>307.0</ele><time>2026-04-11T14:14:19.957Z</time></trkpt><trkpt lat="42.651768407549575" lon="11.954964055072253"><ele>307.0</ele><time>2026-04-11T14:14:21.957Z</time></trkpt><trkpt lat="42.65175822761754" lon="11.955085471548665"><ele>307.4</ele><time>2026-04-11T14:14:23.957Z</time></trkpt><trkpt lat="42.65174267171582" lon="11.955214685594868"><ele>307.79999999999995</ele><time>2026-04-11T14:14:25.957Z</time></trkpt><trkpt lat="42.651729705756054" lon="11.955340179386317"><ele>308.2</ele><time>2026-04-11T14:14:27.957Z</time></trkpt><trkpt lat="42.6517127723603" lon="11.95547141463853"><ele>308.59999999999997</ele><time>2026-04-11T14:14:29.957Z</time></trkpt><trkpt lat="42.65170332036013" lon="11.955598991315604"><ele>309.0</ele><time>2026-04-11T14:14:31.957Z</time></trkpt><trkpt lat="42.651679733285256" lon="11.955721545384252"><ele>309.0</ele><time>2026-04-11T14:14:33.957Z</time></trkpt><trkpt lat="42.65165827993805" lon="11.955849884976"><ele>309.0</ele><time>2026-04-11T14:14:35.957Z</time></trkpt><trkpt lat="42.6516413283251" lon="11.95597371841708"><ele>309.0</ele><time>2026-04-11T14:14:37.957Z</time></trkpt><trkpt lat="42.65162068353327" lon="11.956105759276655"><ele>309.0</ele><time>2026-04-11T14:14:39.957Z</time></trkpt><trkpt lat="42.65160170731113" lon="11.95623438367028"><ele>309.0</ele><time>2026-04-11T14:14:41.957Z</time></trkpt><trkpt lat="42.651583403115616" lon="11.956368909651681"><ele>308.8</ele><time>2026-04-11T14:14:43.957Z</time></trkpt><trkpt lat="42.65156347053848" lon="11.95650135447207"><ele>308.59999999999997</ele><time>2026-04-11T14:14:45.956Z</time></trkpt><trkpt lat="42.65154634570843" lon="11.956632589792807"><ele>308.4</ele><time>2026-04-11T14:14:47.956Z</time></trkpt><trkpt lat="42.65152597654855" lon="11.956766171018256"><ele>308.2</ele><time>2026-04-11T14:14:49.956Z</time></trkpt><trkpt lat="42.65150752630573" lon="11.9568965038272"><ele>308.0</ele><time>2026-04-11T14:14:51.956Z</time></trkpt><trkpt lat="42.651493832392205" lon="11.957030122364126"><ele>307.8</ele><time>2026-04-11T14:14:53.959Z</time></trkpt><trkpt lat="42.65147510943991" lon="11.957165823054396"><ele>307.6</ele><time>2026-04-11T14:14:55.959Z</time></trkpt><trkpt lat="42.65145816361239" lon="11.95730211850201"><ele>307.4</ele><time>2026-04-11T14:14:57.959Z</time></trkpt><trkpt lat="42.65143791204668" lon="11.95744659879593"><ele>307.2</ele><time>2026-04-11T14:14:59.959Z</time></trkpt><trkpt lat="42.651417352961985" lon="11.957586527176991"><ele>307.0</ele><time>2026-04-11T14:15:01.959Z</time></trkpt><trkpt lat="42.651402237458264" lon="11.95772145443486"><ele>306.8</ele><time>2026-04-11T14:15:03.959Z</time></trkpt><trkpt lat="42.65138501766909" lon="11.957858420919223"><ele>306.6</ele><time>2026-04-11T14:15:05.959Z</time></trkpt><trkpt lat="42.65136652297629" lon="11.957991130811823"><ele>306.40000000000003</ele><time>2026-04-11T14:15:07.958Z</time></trkpt><trkpt lat="42.65135093142528" lon="11.958121671022798"><ele>306.2</ele><time>2026-04-11T14:15:09.958Z</time></trkpt><trkpt lat="42.65133561983462" lon="11.958255378779695"><ele>306.0</ele><time>2026-04-11T14:15:11.958Z</time></trkpt><trkpt lat="42.65131648489463" lon="11.958402666686368"><ele>306.0</ele><time>2026-04-11T14:15:13.958Z</time></trkpt><trkpt lat="42.65129783622107" lon="11.958548298352152"><ele>306.0</ele><time>2026-04-11T14:15:15.958Z</time></trkpt><trkpt lat="42.65127835462388" lon="11.958698237644072"><ele>306.0</ele><time>2026-04-11T14:15:17.958Z</time></trkpt><trkpt lat="42.65125819332014" lon="11.95884676383133"><ele>306.0</ele><time>2026-04-11T14:15:19.958Z</time></trkpt><trkpt lat="42.65123597503589" lon="11.958992498221283"><ele>306.0</ele><time>2026-04-11T14:15:21.958Z</time></trkpt><trkpt lat="42.65121743816674" lon="11.95913903025915"><ele>306.2</ele><time>2026-04-11T14:15:23.958Z</time></trkpt><trkpt lat="42.65119914516318" lon="11.959283383047355"><ele>306.40000000000003</ele><time>2026-04-11T14:15:25.958Z</time></trkpt><trkpt lat="42.651178108722036" lon="11.959427104080685"><ele>306.6</ele><time>2026-04-11T14:15:27.958Z</time></trkpt><trkpt lat="42.651164932636796" lon="11.95956959917411"><ele>306.8</ele><time>2026-04-11T14:15:29.958Z</time></trkpt><trkpt lat="42.651145629011864" lon="11.959710384114056"><ele>307.0</ele><time>2026-04-11T14:15:31.957Z</time></trkpt><trkpt lat="42.6511275483471" lon="11.959843693299936"><ele>306.8</ele><time>2026-04-11T14:15:33.957Z</time></trkpt><trkpt lat="42.65110926728958" lon="11.959982117880392"><ele>306.6</ele><time>2026-04-11T14:15:35.957Z</time></trkpt><trkpt lat="42.6510930172358" lon="11.960114117515664"><ele>306.40000000000003</ele><time>2026-04-11T14:15:37.957Z</time></trkpt><trkpt lat="42.65107991955969" lon="11.960248243887278"><ele>306.2</ele><time>2026-04-11T14:15:39.957Z</time></trkpt><trkpt lat="42.651062058595464" lon="11.960386842467388"><ele>306.0</ele><time>2026-04-11T14:15:41.957Z</time></trkpt><trkpt lat="42.65104821909707" lon="11.960501941657865"><ele>306.0</ele><time>2026-04-11T14:15:43.957Z</time></trkpt><trkpt lat="42.65103282596613" lon="11.960628234173457"><ele>306.0</ele><time>2026-04-11T14:15:45.957Z</time></trkpt><trkpt lat="42.65101609716723" lon="11.96075896196193"><ele>306.0</ele><time>2026-04-11T14:15:47.957Z</time></trkpt><trkpt lat="42.65100229108339" lon="11.960889152798707"><ele>306.0</ele><time>2026-04-11T14:15:49.957Z</time></trkpt><trkpt lat="42.65098982136478" lon="11.961015251142419"><ele>306.0</ele><time>2026-04-11T14:15:51.957Z</time></trkpt><trkpt lat="42.65097434191575" lon="11.96114186604668"><ele>306.2</ele><time>2026-04-11T14:15:53.957Z</time></trkpt><trkpt lat="42.650953020146495" lon="11.96127345383444"><ele>306.40000000000003</ele><time>2026-04-11T14:15:55.957Z</time></trkpt><trkpt lat="42.65094152520741" lon="11.961390932740265"><ele>306.6</ele><time>2026-04-11T14:15:57.957Z</time></trkpt><trkpt lat="42.65092775431537" lon="11.96151393786945"><ele>306.8</ele><time>2026-04-11T14:15:59.957Z</time></trkpt><trkpt lat="42.65091117446739" lon="11.96163646125301"><ele>307.0</ele><time>2026-04-11T14:16:01.957Z</time></trkpt><trkpt lat="42.65090264004094" lon="11.961745330255996"><ele>307.0</ele><time>2026-04-11T14:16:03.956Z</time></trkpt><trkpt lat="42.650889755480236" lon="11.961865076445987"><ele>307.0</ele><time>2026-04-11T14:16:05.956Z</time></trkpt><trkpt lat="42.65087691707223" lon="11.961984881885765"><ele>307.0</ele><time>2026-04-11T14:16:07.956Z</time></trkpt><trkpt lat="42.65086356370053" lon="11.962097759112643"><ele>307.0</ele><time>2026-04-11T14:16:09.956Z</time></trkpt><trkpt lat="42.650847217021266" lon="11.962220201487943"><ele>307.0</ele><time>2026-04-11T14:16:11.956Z</time></trkpt><trkpt lat="42.65083361880609" lon="11.962350449160924"><ele>307.0</ele><time>2026-04-11T14:16:13.956Z</time></trkpt><trkpt lat="42.650813807030005" lon="11.962481835368413"><ele>307.0</ele><time>2026-04-11T14:16:15.956Z</time></trkpt><trkpt lat="42.65079513988202" lon="11.96261910405379"><ele>307.0</ele><time>2026-04-11T14:16:17.956Z</time></trkpt><trkpt lat="42.650775361951574" lon="11.962760474434992"><ele>307.0</ele><time>2026-04-11T14:16:19.956Z</time></trkpt><trkpt lat="42.650759401737" lon="11.962901590357479"><ele>307.0</ele><time>2026-04-11T14:16:21.956Z</time></trkpt><trkpt lat="42.6507356050977" lon="11.963045458691255"><ele>307.0</ele><time>2026-04-11T14:16:23.956Z</time></trkpt><trkpt lat="42.65072092803027" lon="11.963194315408169"><ele>307.0</ele><time>2026-04-11T14:16:25.956Z</time></trkpt><trkpt lat="42.65069736187928" lon="11.963325106093015"><ele>307.0</ele><time>2026-04-11T14:16:27.956Z</time></trkpt><trkpt lat="42.65068126647097" lon="11.963473171015854"><ele>307.0</ele><time>2026-04-11T14:16:29.956Z</time></trkpt><trkpt lat="42.65066759164771" lon="11.963614125081872"><ele>307.0</ele><time>2026-04-11T14:16:31.956Z</time></trkpt><trkpt lat="42.65064735751425" lon="11.963756820180683"><ele>307.0</ele><time>2026-04-11T14:16:33.955Z</time></trkpt><trkpt lat="42.650632963895546" lon="11.963891758488497"><ele>307.0</ele><time>2026-04-11T14:16:35.955Z</time></trkpt><trkpt lat="42.650616013777174" lon="11.964029636931784"><ele>307.0</ele><time>2026-04-11T14:16:37.955Z</time></trkpt><trkpt lat="42.65059765804825" lon="11.9641762665068"><ele>307.0</ele><time>2026-04-11T14:16:39.955Z</time></trkpt><trkpt lat="42.6505839178824" lon="11.964312974620247"><ele>307.0</ele><time>2026-04-11T14:16:41.955Z</time></trkpt><trkpt lat="42.65056509688692" lon="11.964448477279905"><ele>307.0</ele><time>2026-04-11T14:16:43.955Z</time></trkpt><trkpt lat="42.650546594348945" lon="11.96457765443646"><ele>307.0</ele><time>2026-04-11T14:16:45.955Z</time></trkpt><trkpt lat="42.650538842957985" lon="11.964704699336483"><ele>307.0</ele><time>2026-04-11T14:16:47.955Z</time></trkpt><trkpt lat="42.65051632928347" lon="11.964841346902674"><ele>307.0</ele><time>2026-04-11T14:16:49.955Z</time></trkpt><trkpt lat="42.65049976029499" lon="11.964977426585339"><ele>307.0</ele><time>2026-04-11T14:16:51.955Z</time></trkpt><trkpt lat="42.65047728423184" lon="11.96511391126204"><ele>307.0</ele><time>2026-04-11T14:16:53.955Z</time></trkpt><trkpt lat="42.65045825740148" lon="11.965267283444316"><ele>307.0</ele><time>2026-04-11T14:16:55.955Z</time></trkpt><trkpt lat="42.65043661731047" lon="11.96539715556841"><ele>307.0</ele><time>2026-04-11T14:16:57.955Z</time></trkpt><trkpt lat="42.650416044639734" lon="11.96554264942113"><ele>307.0</ele><time>2026-04-11T14:16:59.958Z</time></trkpt><trkpt lat="42.650393816368165" lon="11.965679194646276"><ele>307.0</ele><time>2026-04-11T14:17:01.958Z</time></trkpt><trkpt lat="42.650370378777566" lon="11.9658169545916"><ele>307.0</ele><time>2026-04-11T14:17:03.958Z</time></trkpt><trkpt lat="42.650351991071915" lon="11.965951384919977"><ele>307.0</ele><time>2026-04-11T14:17:05.958Z</time></trkpt><trkpt lat="42.650330882496256" lon="11.966087076736429"><ele>307.0</ele><time>2026-04-11T14:17:07.957Z</time></trkpt><trkpt lat="42.65030898892427" lon="11.966220373128785"><ele>307.0</ele><time>2026-04-11T14:17:09.958Z</time></trkpt><trkpt lat="42.65028961120878" lon="11.966359538351387"><ele>307.0</ele><time>2026-04-11T14:17:11.957Z</time></trkpt><trkpt lat="42.65026849977192" lon="11.96649131769739"><ele>307.0</ele><time>2026-04-11T14:17:13.957Z</time></trkpt><trkpt lat="42.65024749862009" lon="11.966621802271378"><ele>307.0</ele><time>2026-04-11T14:17:15.957Z</time></trkpt><trkpt lat="42.650227304249015" lon="11.966753902716396"><ele>307.0</ele><time>2026-04-11T14:17:17.957Z</time></trkpt><trkpt lat="42.650201582612034" lon="11.966884287366119"><ele>307.0</ele><time>2026-04-11T14:17:19.957Z</time></trkpt><trkpt lat="42.65017913163096" lon="11.967025501586349"><ele>307.0</ele><time>2026-04-11T14:17:21.957Z</time></trkpt><trkpt lat="42.650153220602" lon="11.967158873858777"><ele>307.0</ele><time>2026-04-11T14:17:23.957Z</time></trkpt><trkpt lat="42.65012697067748" lon="11.967288803925454"><ele>307.0</ele><time>2026-04-11T14:17:25.957Z</time></trkpt><trkpt lat="42.65010906584305" lon="11.967432834978323"><ele>307.0</ele><time>2026-04-11T14:17:27.957Z</time></trkpt><trkpt lat="42.65008262171738" lon="11.967567041799132"><ele>307.0</ele><time>2026-04-11T14:17:29.957Z</time></trkpt><trkpt lat="42.650059284721436" lon="11.967703514318902"><ele>307.0</ele><time>2026-04-11T14:17:31.957Z</time></trkpt><trkpt lat="42.65002989831685" lon="11.967837233456565"><ele>307.0</ele><time>2026-04-11T14:17:33.957Z</time></trkpt><trkpt lat="42.64999643310795" lon="11.967975815634551"><ele>307.0</ele><time>2026-04-11T14:17:35.956Z</time></trkpt><trkpt lat="42.64997183286682" lon="11.968105445871851"><ele>307.0</ele><time>2026-04-11T14:17:37.956Z</time></trkpt><trkpt lat="42.64994334721947" lon="11.968240421170185"><ele>307.0</ele><time>2026-04-11T14:17:39.956Z</time></trkpt><trkpt lat="42.649914869948674" lon="11.968375137829092"><ele>307.0</ele><time>2026-04-11T14:17:41.956Z</time></trkpt><trkpt lat="42.64989095691133" lon="11.968505980513063"><ele>307.0</ele><time>2026-04-11T14:17:43.956Z</time></trkpt><trkpt lat="42.64986035980272" lon="11.968634487815114"><ele>307.0</ele><time>2026-04-11T14:17:45.956Z</time></trkpt><trkpt lat="42.649837573874876" lon="11.968759043241835"><ele>307.0</ele><time>2026-04-11T14:17:47.956Z</time></trkpt><trkpt lat="42.64980494018606" lon="11.968890061406613"><ele>307.0</ele><time>2026-04-11T14:17:49.956Z</time></trkpt><trkpt lat="42.649772671747215" lon="11.96902322752647"><ele>307.0</ele><time>2026-04-11T14:17:51.956Z</time></trkpt><trkpt lat="42.64974496286561" lon="11.969148973569666"><ele>306.8</ele><time>2026-04-11T14:17:53.956Z</time></trkpt><trkpt lat="42.649709892273776" lon="11.969289327330259"><ele>306.6</ele><time>2026-04-11T14:17:55.956Z</time></trkpt><trkpt lat="42.649676759811975" lon="11.96941445114041"><ele>306.40000000000003</ele><time>2026-04-11T14:17:57.956Z</time></trkpt><trkpt lat="42.64964467290561" lon="11.969550203537267"><ele>306.2</ele><time>2026-04-11T14:17:59.956Z</time></trkpt><trkpt lat="42.64960981633486" lon="11.969674453296419"><ele>306.0</ele><time>2026-04-11T14:18:01.956Z</time></trkpt><trkpt lat="42.64957984968888" lon="11.969803946057413"><ele>306.0</ele><time>2026-04-11T14:18:03.956Z</time></trkpt><trkpt lat="42.64955009196436" lon="11.969936642019501"><ele>306.0</ele><time>2026-04-11T14:18:05.955Z</time></trkpt><trkpt lat="42.64951544254203" lon="11.970066487053467"><ele>306.0</ele><time>2026-04-11T14:18:07.955Z</time></trkpt><trkpt lat="42.64948345575811" lon="11.970207156102228"><ele>306.0</ele><time>2026-04-11T14:18:09.955Z</time></trkpt><trkpt lat="42.6494433309198" lon="11.97033740477796"><ele>306.0</ele><time>2026-04-11T14:18:11.955Z</time></trkpt><trkpt lat="42.64941249708415" lon="11.970473599321604"><ele>306.0</ele><time>2026-04-11T14:18:13.955Z</time></trkpt><trkpt lat="42.64937420948518" lon="11.970603259365268"><ele>306.0</ele><time>2026-04-11T14:18:15.955Z</time></trkpt><trkpt lat="42.649341500996115" lon="11.970736137608602"><ele>306.0</ele><time>2026-04-11T14:18:17.955Z</time></trkpt><trkpt lat="42.64930843653985" lon="11.970868020840461"><ele>306.0</ele><time>2026-04-11T14:18:19.955Z</time></trkpt><trkpt lat="42.64927875874138" lon="11.9709927567631"><ele>306.0</ele><time>2026-04-11T14:18:21.955Z</time></trkpt><trkpt lat="42.64924589861004" lon="11.971118084289692"><ele>306.0</ele><time>2026-04-11T14:18:23.955Z</time></trkpt><trkpt lat="42.64921434671546" lon="11.971243725097292"><ele>306.0</ele><time>2026-04-11T14:18:25.955Z</time></trkpt><trkpt lat="42.64918047548328" lon="11.971368195727933"><ele>306.0</ele><time>2026-04-11T14:18:27.955Z</time></trkpt><trkpt lat="42.649150147890985" lon="11.971489520544063"><ele>306.0</ele><time>2026-04-11T14:18:29.955Z</time></trkpt><trkpt lat="42.64911990638624" lon="11.971615875186828"><ele>306.0</ele><time>2026-04-11T14:18:31.955Z</time></trkpt><trkpt lat="42.649088447824" lon="11.971732574058162"><ele>306.0</ele><time>2026-04-11T14:18:33.955Z</time></trkpt><trkpt lat="42.649060957108986" lon="11.9718513042271"><ele>306.0</ele><time>2026-04-11T14:18:35.955Z</time></trkpt><trkpt lat="42.64902911275545" lon="11.971969940146906"><ele>306.0</ele><time>2026-04-11T14:18:37.954Z</time></trkpt><trkpt lat="42.64899893696197" lon="11.97209401040745"><ele>306.0</ele><time>2026-04-11T14:18:39.954Z</time></trkpt><trkpt lat="42.64897309232423" lon="11.972208995702532"><ele>306.0</ele><time>2026-04-11T14:18:41.954Z</time></trkpt><trkpt lat="42.64894608157858" lon="11.972338375740588"><ele>306.0</ele><time>2026-04-11T14:18:43.954Z</time></trkpt><trkpt lat="42.64892114211147" lon="11.972452776753736"><ele>306.0</ele><time>2026-04-11T14:18:45.954Z</time></trkpt><trkpt lat="42.648893729977914" lon="11.972572994628555"><ele>306.0</ele><time>2026-04-11T14:18:47.954Z</time></trkpt><trkpt lat="42.64886899300075" lon="11.972696637592282"><ele>306.0</ele><time>2026-04-11T14:18:49.954Z</time></trkpt><trkpt lat="42.64884961087282" lon="11.972813718778394"><ele>306.0</ele><time>2026-04-11T14:18:51.954Z</time></trkpt><trkpt lat="42.6488199572032" lon="11.9729290265784"><ele>306.1666666666667</ele><time>2026-04-11T14:18:53.954Z</time></trkpt><trkpt lat="42.6487969779005" lon="11.973052711719046"><ele>306.3333333333333</ele><time>2026-04-11T14:18:55.954Z</time></trkpt><trkpt lat="42.64877135945472" lon="11.973169021166312"><ele>306.5</ele><time>2026-04-11T14:18:57.954Z</time></trkpt><trkpt lat="42.64874531903437" lon="11.973282922007789"><ele>306.66666666666663</ele><time>2026-04-11T14:18:59.954Z</time></trkpt><trkpt lat="42.648722903045346" lon="11.973401331832578"><ele>306.8333333333333</ele><time>2026-04-11T14:19:01.954Z</time></trkpt><trkpt lat="42.64869639632106" lon="11.97351346306872"><ele>307.0</ele><time>2026-04-11T14:19:03.954Z</time></trkpt><trkpt lat="42.64867690532826" lon="11.9736273818203"><ele>307.16666666666663</ele><time>2026-04-11T14:19:05.956Z</time></trkpt><trkpt lat="42.648650804536" lon="11.973734556404963"><ele>307.3333333333333</ele><time>2026-04-11T14:19:07.961Z</time></trkpt><trkpt lat="42.64862182115236" lon="11.973852032699646"><ele>307.5</ele><time>2026-04-11T14:19:09.966Z</time></trkpt><trkpt lat="42.648600744353566" lon="11.973958556872534"><ele>307.6666666666667</ele><time>2026-04-11T14:19:11.971Z</time></trkpt><trkpt lat="42.648578662299684" lon="11.974071137963735"><ele>307.83333333333337</ele><time>2026-04-11T14:19:13.975Z</time></trkpt><trkpt lat="42.64855851528203" lon="11.97418297288328"><ele>308.0</ele><time>2026-04-11T14:19:15.978Z</time></trkpt><trkpt lat="42.64853178494939" lon="11.974288517423808"><ele>308.0</ele><time>2026-04-11T14:19:17.981Z</time></trkpt><trkpt lat="42.64850784506794" lon="11.974396747374595"><ele>308.0</ele><time>2026-04-11T14:19:19.984Z</time></trkpt><trkpt lat="42.648484793363004" lon="11.974507421546534"><ele>308.0</ele><time>2026-04-11T14:19:21.986Z</time></trkpt><trkpt lat="42.648465404961776" lon="11.974602008223975"><ele>308.0</ele><time>2026-04-11T14:19:23.988Z</time></trkpt><trkpt lat="42.648441971205756" lon="11.974699996758595"><ele>308.0</ele><time>2026-04-11T14:19:25.989Z</time></trkpt><trkpt lat="42.64841340223138" lon="11.97480448103749"><ele>308.0</ele><time>2026-04-11T14:19:27.991Z</time></trkpt><trkpt lat="42.648381643617924" lon="11.97490480789025"><ele>308.0</ele><time>2026-04-11T14:19:29.992Z</time></trkpt><trkpt lat="42.64835635314063" lon="11.975002632100596"><ele>308.0</ele><time>2026-04-11T14:19:31.993Z</time></trkpt><trkpt lat="42.648333989802204" lon="11.975114848902901"><ele>308.0</ele><time>2026-04-11T14:19:33.994Z</time></trkpt><trkpt lat="42.64831003199808" lon="11.975215704690815"><ele>308.0</ele><time>2026-04-11T14:19:35.995Z</time></trkpt><trkpt lat="42.64828769819982" lon="11.975315500334052"><ele>308.0</ele><time>2026-04-11T14:19:37.996Z</time></trkpt><trkpt lat="42.648256422504396" lon="11.97541351232571"><ele>308.0</ele><time>2026-04-11T14:19:39.996Z</time></trkpt><trkpt lat="42.64823309348207" lon="11.97550843457643"><ele>308.1666666666667</ele><time>2026-04-11T14:19:41.997Z</time></trkpt><trkpt lat="42.64820780291786" lon="11.975609639962912"><ele>308.33333333333337</ele><time>2026-04-11T14:19:43.997Z</time></trkpt><trkpt lat="42.64818998312478" lon="11.975709082160181"><ele>308.5</ele><time>2026-04-11T14:19:45.998Z</time></trkpt><trkpt lat="42.64816461608709" lon="11.97580214557929"><ele>308.6666666666667</ele><time>2026-04-11T14:19:47.998Z</time></trkpt><trkpt lat="42.64814343616599" lon="11.975899606415213"><ele>308.8333333333333</ele><time>2026-04-11T14:19:49.998Z</time></trkpt><trkpt lat="42.64811937635832" lon="11.975995988177111"><ele>309.0</ele><time>2026-04-11T14:19:51.999Z</time></trkpt><trkpt lat="42.64809000340609" lon="11.976094087852877"><ele>309.28571428571433</ele><time>2026-04-11T14:19:53.999Z</time></trkpt><trkpt lat="42.648065533866486" lon="11.97619082381708"><ele>309.57142857142856</ele><time>2026-04-11T14:19:55.999Z</time></trkpt><trkpt lat="42.64804218667234" lon="11.976288424165368"><ele>309.8571428571429</ele><time>2026-04-11T14:19:57.999Z</time></trkpt><trkpt lat="42.64801930306782" lon="11.976383074844126"><ele>310.14285714285717</ele><time>2026-04-11T14:19:59.999Z</time></trkpt><trkpt lat="42.64799712306587" lon="11.97647508341219"><ele>310.42857142857144</ele><time>2026-04-11T14:20:02Z</time></trkpt><trkpt lat="42.647969324857186" lon="11.976568070182713"><ele>310.7142857142857</ele><time>2026-04-11T14:20:04Z</time></trkpt><trkpt lat="42.647950190580175" lon="11.97665826121897"><ele>311.0</ele><time>2026-04-11T14:20:06Z</time></trkpt><trkpt lat="42.64792980472277" lon="11.976748881499022"><ele>311.0</ele><time>2026-04-11T14:20:08Z</time></trkpt><trkpt lat="42.64790627465024" lon="11.976832677251277"><ele>311.0</ele><time>2026-04-11T14:20:10Z</time></trkpt><trkpt lat="42.647885618506606" lon="11.976919795129067"><ele>311.0</ele><time>2026-04-11T14:20:12Z</time></trkpt><trkpt lat="42.6478605414992" lon="11.977007415461713"><ele>311.0</ele><time>2026-04-11T14:20:14Z</time></trkpt><trkpt lat="42.647839421715986" lon="11.97709895388687"><ele>311.0</ele><time>2026-04-11T14:20:16Z</time></trkpt><trkpt lat="42.64781234677924" lon="11.977196032726205"><ele>311.0</ele><time>2026-04-11T14:20:18Z</time></trkpt><trkpt lat="42.64778926338148" lon="11.977283899002007"><ele>311.0</ele><time>2026-04-11T14:20:20Z</time></trkpt><trkpt lat="42.64776411634234" lon="11.977375093831961"><ele>311.0</ele><time>2026-04-11T14:20:22Z</time></trkpt><trkpt lat="42.64774405860308" lon="11.977469118892863"><ele>311.0</ele><time>2026-04-11T14:20:24Z</time></trkpt><trkpt lat="42.6477198636906" lon="11.977559988641831"><ele>311.0</ele><time>2026-04-11T14:20:26Z</time></trkpt><trkpt lat="42.64769413524752" lon="11.977652688158924"><ele>311.0</ele><time>2026-04-11T14:20:28Z</time></trkpt><trkpt lat="42.647669652340376" lon="11.977745213838855"><ele>311.0</ele><time>2026-04-11T14:20:30Z</time></trkpt><trkpt lat="42.647647114695985" lon="11.97784091736195"><ele>311.0</ele><time>2026-04-11T14:20:32Z</time></trkpt><trkpt lat="42.64762294370034" lon="11.977934132008583"><ele>311.0</ele><time>2026-04-11T14:20:34Z</time></trkpt><trkpt lat="42.64760285099192" lon="11.978028794711369"><ele>311.2857142857143</ele><time>2026-04-11T14:20:36Z</time></trkpt><trkpt lat="42.647575537781044" lon="11.978124185997771"><ele>311.5714285714286</ele><time>2026-04-11T14:20:38Z</time></trkpt><trkpt lat="42.64755191541574" lon="11.978215956356184"><ele>311.8571428571429</ele><time>2026-04-11T14:20:40Z</time></trkpt><trkpt lat="42.647530674524745" lon="11.978301783824383"><ele>312.1428571428571</ele><time>2026-04-11T14:20:42Z</time></trkpt><trkpt lat="42.64750938505187" lon="11.978390299136658"><ele>312.42857142857144</ele><time>2026-04-11T14:20:44Z</time></trkpt><trkpt lat="42.647487581693824" lon="11.978478076349113"><ele>312.7142857142857</ele><time>2026-04-11T14:20:46Z</time></trkpt><trkpt lat="42.647464046177724" lon="11.978570031946877"><ele>313.0</ele><time>2026-04-11T14:20:48Z</time></trkpt><trkpt lat="42.647439260247495" lon="11.9786586490724"><ele>313.1428571428571</ele><time>2026-04-11T14:20:50Z</time></trkpt><trkpt lat="42.6474174909489" lon="11.978754678982765"><ele>313.2857142857143</ele><time>2026-04-11T14:20:52Z</time></trkpt><trkpt lat="42.647396154693986" lon="11.978844761110716"><ele>313.42857142857144</ele><time>2026-04-11T14:20:54Z</time></trkpt><trkpt lat="42.647372280519924" lon="11.97893244170251"><ele>313.57142857142856</ele><time>2026-04-11T14:20:56Z</time></trkpt><trkpt lat="42.64735377924922" lon="11.979019696229464"><ele>313.7142857142857</ele><time>2026-04-11T14:20:58Z</time></trkpt><trkpt lat="42.64732685276355" lon="11.979111923975927"><ele>313.85714285714283</ele><time>2026-04-11T14:21:00Z</time></trkpt><trkpt lat="42.6473099383029" lon="11.979199903"><ele>314.0</ele><time>2026-04-11T14:21:01.999Z</time></trkpt><trkpt lat="42.64728250903754" lon="11.979292119982457"><ele>314.71428571428567</ele><time>2026-04-11T14:21:03.999Z</time></trkpt><trkpt lat="42.64726093794751" lon="11.979385373187112"><ele>315.42857142857144</ele><time>2026-04-11T14:21:05.999Z</time></trkpt><trkpt lat="42.64723573233272" lon="11.979473477258864"><ele>316.1428571428571</ele><time>2026-04-11T14:21:07.999Z</time></trkpt><trkpt lat="42.64720947056209" lon="11.97955914205742"><ele>316.85714285714283</ele><time>2026-04-11T14:21:09.999Z</time></trkpt><trkpt lat="42.64719207856872" lon="11.979644092675898"><ele>317.57142857142856</ele><time>2026-04-11T14:21:12.002Z</time></trkpt><trkpt lat="42.64716017707186" lon="11.979730961624629"><ele>318.2857142857143</ele><time>2026-04-11T14:21:14.002Z</time></trkpt><trkpt lat="42.64714396419109" lon="11.97981897838367"><ele>319.0</ele><time>2026-04-11T14:21:16.001Z</time></trkpt><trkpt lat="42.64712109050349" lon="11.979903257563581"><ele>319.0</ele><time>2026-04-11T14:21:18.001Z</time></trkpt><trkpt lat="42.647099396579" lon="11.979995593240652"><ele>319.0</ele><time>2026-04-11T14:21:20.001Z</time></trkpt><trkpt lat="42.647079847022674" lon="11.980087855915214"><ele>319.0</ele><time>2026-04-11T14:21:22.001Z</time></trkpt><trkpt lat="42.64705330952347" lon="11.980184509387932"><ele>319.0</ele><time>2026-04-11T14:21:24.001Z</time></trkpt><trkpt lat="42.64702521504265" lon="11.980286783250445"><ele>319.0</ele><time>2026-04-11T14:21:26.001Z</time></trkpt><trkpt lat="42.646991424855386" lon="11.980385087608063"><ele>319.0</ele><time>2026-04-11T14:21:28.001Z</time></trkpt><trkpt lat="42.646968274161885" lon="11.980491343593958"><ele>318.66666666666663</ele><time>2026-04-11T14:21:30.001Z</time></trkpt><trkpt lat="42.64693927589332" lon="11.980594917893466"><ele>318.3333333333333</ele><time>2026-04-11T14:21:32.001Z</time></trkpt><trkpt lat="42.64691079976493" lon="11.980706276634372"><ele>318.0</ele><time>2026-04-11T14:21:34.001Z</time></trkpt><trkpt lat="42.64688533302056" lon="11.980815866044544"><ele>317.6666666666667</ele><time>2026-04-11T14:21:36Z</time></trkpt><trkpt lat="42.64685482536097" lon="11.980928272655763"><ele>317.33333333333337</ele><time>2026-04-11T14:21:38Z</time></trkpt><trkpt lat="42.646826157919214" lon="11.981038076797256"><ele>317.0</ele><time>2026-04-11T14:21:40Z</time></trkpt><trkpt lat="42.646800661761716" lon="11.98114609684661"><ele>317.0</ele><time>2026-04-11T14:21:42Z</time></trkpt><trkpt lat="42.64677203289626" lon="11.981248866207396"><ele>317.0</ele><time>2026-04-11T14:21:44Z</time></trkpt><trkpt lat="42.64674448895061" lon="11.981345028403917"><ele>317.0</ele><time>2026-04-11T14:21:46Z</time></trkpt><trkpt lat="42.64671322058124" lon="11.981451034122681"><ele>317.0</ele><time>2026-04-11T14:21:48Z</time></trkpt><trkpt lat="42.64668583932149" lon="11.98155780844088"><ele>317.0</ele><time>2026-04-11T14:21:50Z</time></trkpt><trkpt lat="42.64665675434082" lon="11.98164659198022"><ele>317.0</ele><time>2026-04-11T14:21:52Z</time></trkpt><trkpt lat="42.646575802018866" lon="11.981656733252521"><ele>317.0</ele><time>2026-04-11T14:21:55Z</time></trkpt><trkpt lat="42.64648246870797" lon="11.981623076194902"><ele>317.0</ele><time>2026-04-11T14:21:58Z</time></trkpt><trkpt lat="42.64641817808983" lon="11.981567023941876"><ele>317.0</ele><time>2026-04-11T14:22:00Z</time></trkpt><trkpt lat="42.64634711101969" lon="11.981514345330726"><ele>317.0</ele><time>2026-04-11T14:22:02Z</time></trkpt><trkpt lat="42.646264508804634" lon="11.981461391421336"><ele>317.0</ele><time>2026-04-11T14:22:04Z</time></trkpt><trkpt lat="42.64618535659189" lon="11.981388149685852"><ele>317.0</ele><time>2026-04-11T14:22:06Z</time></trkpt><trkpt lat="42.64610932812768" lon="11.981303549710395"><ele>316.6</ele><time>2026-04-11T14:22:08Z</time></trkpt><trkpt lat="42.64603048635674" lon="11.981248235698722"><ele>316.2</ele><time>2026-04-11T14:22:09.999Z</time></trkpt><trkpt lat="42.645939132823365" lon="11.981197050902201"><ele>315.8</ele><time>2026-04-11T14:22:11.999Z</time></trkpt><trkpt lat="42.64585847521692" lon="11.981126614599178"><ele>315.4</ele><time>2026-04-11T14:22:13.999Z</time></trkpt><trkpt lat="42.64577031376476" lon="11.981064972893272"><ele>315.0</ele><time>2026-04-11T14:22:15.999Z</time></trkpt><trkpt lat="42.64568024812423" lon="11.98099921193668"><ele>315.0</ele><time>2026-04-11T14:22:17.999Z</time></trkpt><trkpt lat="42.64558550201929" lon="11.980922144356029"><ele>315.0</ele><time>2026-04-11T14:22:19.999Z</time></trkpt><trkpt lat="42.6454853803897" lon="11.98085485905291"><ele>315.0</ele><time>2026-04-11T14:22:21.999Z</time></trkpt><trkpt lat="42.64539970236628" lon="11.980788566837624"><ele>315.0</ele><time>2026-04-11T14:22:23.999Z</time></trkpt><trkpt lat="42.645310666627715" lon="11.980709635820183"><ele>315.0</ele><time>2026-04-11T14:22:25.999Z</time></trkpt><trkpt lat="42.645221127376374" lon="11.980629876279854"><ele>314.4</ele><time>2026-04-11T14:22:27.999Z</time></trkpt><trkpt lat="42.64513557528279" lon="11.980542439715917"><ele>313.8</ele><time>2026-04-11T14:22:29.999Z</time></trkpt><trkpt lat="42.645040551446634" lon="11.980471213443781"><ele>313.2</ele><time>2026-04-11T14:22:31.999Z</time></trkpt><trkpt lat="42.6449512147651" lon="11.980403584107759"><ele>312.6</ele><time>2026-04-11T14:22:33.999Z</time></trkpt><trkpt lat="42.644860148404454" lon="11.98032057081923"><ele>312.0</ele><time>2026-04-11T14:22:35.999Z</time></trkpt><trkpt lat="42.64476512413812" lon="11.98025633037727"><ele>312.0</ele><time>2026-04-11T14:22:37.999Z</time></trkpt><trkpt lat="42.64467511972632" lon="11.980182307174218"><ele>312.0</ele><time>2026-04-11T14:22:39.999Z</time></trkpt><trkpt lat="42.64458875158912" lon="11.980109828709574"><ele>312.0</ele><time>2026-04-11T14:22:41.999Z</time></trkpt><trkpt lat="42.644491235023565" lon="11.980041460522067"><ele>312.0</ele><time>2026-04-11T14:22:43.999Z</time></trkpt><trkpt lat="42.64440111877131" lon="11.979968138595552"><ele>312.0</ele><time>2026-04-11T14:22:45.999Z</time></trkpt><trkpt lat="42.64431334804619" lon="11.979897437036644"><ele>311.6</ele><time>2026-04-11T14:22:47.999Z</time></trkpt><trkpt lat="42.644222075919" lon="11.97983857235376"><ele>311.2</ele><time>2026-04-11T14:22:49.999Z</time></trkpt><trkpt lat="42.64412999344059" lon="11.979769736448523"><ele>310.8</ele><time>2026-04-11T14:22:51.999Z</time></trkpt><trkpt lat="42.64404234713957" lon="11.979695326312156"><ele>310.4</ele><time>2026-04-11T14:22:53.998Z</time></trkpt><trkpt lat="42.64395050160014" lon="11.979619073131163"><ele>310.0</ele><time>2026-04-11T14:22:55.998Z</time></trkpt><trkpt lat="42.64386937653265" lon="11.979556626032906"><ele>310.0</ele><time>2026-04-11T14:22:57.998Z</time></trkpt><trkpt lat="42.64378029695335" lon="11.979489372550658"><ele>310.0</ele><time>2026-04-11T14:22:59.998Z</time></trkpt><trkpt lat="42.64368661869493" lon="11.979430475330854"><ele>310.0</ele><time>2026-04-11T14:23:01.998Z</time></trkpt><trkpt lat="42.64360766981924" lon="11.97935207618002"><ele>310.0</ele><time>2026-04-11T14:23:03.998Z</time></trkpt><trkpt lat="42.643528053789126" lon="11.979277205557832"><ele>310.0</ele><time>2026-04-11T14:23:05.998Z</time></trkpt><trkpt lat="42.64344560064066" lon="11.979210650778944"><ele>310.0</ele><time>2026-04-11T14:23:07.998Z</time></trkpt><trkpt lat="42.643351514489524" lon="11.979150108507115"><ele>310.0</ele><time>2026-04-11T14:23:09.998Z</time></trkpt><trkpt lat="42.64328615006525" lon="11.979079490193412"><ele>310.0</ele><time>2026-04-11T14:23:11.998Z</time></trkpt><trkpt lat="42.64322728186" lon="11.979031240611723"><ele>310.0</ele><time>2026-04-11T14:23:14.998Z</time></trkpt><trkpt lat="42.64315971065677" lon="11.979083726979637"><ele>310.0</ele><time>2026-04-11T14:23:19Z</time></trkpt><trkpt lat="42.64311120592423" lon="11.979175293196622"><ele>310.0</ele><time>2026-04-11T14:23:21Z</time></trkpt><trkpt lat="42.64307647893124" lon="11.979280157947715"><ele>310.0</ele><time>2026-04-11T14:23:23Z</time></trkpt><trkpt lat="42.6430397190549" lon="11.979369777536997"><ele>310.0</ele><time>2026-04-11T14:23:25Z</time></trkpt><trkpt lat="42.643000960532454" lon="11.97946427021261"><ele>310.0</ele><time>2026-04-11T14:23:27Z</time></trkpt><trkpt lat="42.64296309876535" lon="11.979553399787145"><ele>310.0</ele><time>2026-04-11T14:23:29Z</time></trkpt><trkpt lat="42.64292159418841" lon="11.979644580960512"><ele>310.0</ele><time>2026-04-11T14:23:31Z</time></trkpt><trkpt lat="42.642879511145054" lon="11.979736439655872"><ele>310.0</ele><time>2026-04-11T14:23:33Z</time></trkpt><trkpt lat="42.64284195269775" lon="11.979834216887692"><ele>309.8333333333333</ele><time>2026-04-11T14:23:35Z</time></trkpt><trkpt lat="42.642797686496124" lon="11.979917371243726"><ele>309.66666666666663</ele><time>2026-04-11T14:23:37Z</time></trkpt><trkpt lat="42.64276265750793" lon="11.979994843878536"><ele>309.5</ele><time>2026-04-11T14:23:39Z</time></trkpt><trkpt lat="42.64272221908449" lon="11.980075302702376"><ele>309.3333333333333</ele><time>2026-04-11T14:23:41Z</time></trkpt><trkpt lat="42.6427022844619" lon="11.980169375299175"><ele>309.1666666666667</ele><time>2026-04-11T14:23:43Z</time></trkpt><trkpt lat="42.642654566793" lon="11.980264372749023"><ele>309.0</ele><time>2026-04-11T14:23:45Z</time></trkpt><trkpt lat="42.64260424041924" lon="11.980354563333007"><ele>308.6666666666667</ele><time>2026-04-11T14:23:47Z</time></trkpt><trkpt lat="42.6425631483327" lon="11.980445161561939"><ele>308.3333333333333</ele><time>2026-04-11T14:23:49Z</time></trkpt><trkpt lat="42.642536089416765" lon="11.980528821414378"><ele>308.0</ele><time>2026-04-11T14:23:51Z</time></trkpt><trkpt lat="42.6425043133537" lon="11.980614592769207"><ele>307.66666666666663</ele><time>2026-04-11T14:23:53Z</time></trkpt><trkpt lat="42.6424489428345" lon="11.980709833551654"><ele>307.3333333333333</ele><time>2026-04-11T14:23:56Z</time></trkpt><trkpt lat="42.64241301921022" lon="11.98081997115437"><ele>307.0</ele><time>2026-04-11T14:23:59Z</time></trkpt><trkpt lat="42.642379498497384" lon="11.980902813617384"><ele>307.0</ele><time>2026-04-11T14:24:01Z</time></trkpt><trkpt lat="42.642346818794735" lon="11.980993090292323"><ele>307.0</ele><time>2026-04-11T14:24:03Z</time></trkpt><trkpt lat="42.64230374441307" lon="11.98106482714427"><ele>307.0</ele><time>2026-04-11T14:24:05Z</time></trkpt><trkpt lat="42.64225764158447" lon="11.98114692739473"><ele>307.0</ele><time>2026-04-11T14:24:07Z</time></trkpt><trkpt lat="42.642202078699185" lon="11.981242331262306"><ele>307.0</ele><time>2026-04-11T14:24:10Z</time></trkpt><trkpt lat="42.64214345128203" lon="11.981332751049043"><ele>307.0</ele><time>2026-04-11T14:24:12Z</time></trkpt><trkpt lat="42.64207012205663" lon="11.981418385070999"><ele>306.99999999999994</ele><time>2026-04-11T14:24:13.999Z</time></trkpt><trkpt lat="42.64201909717032" lon="11.981470016899294"><ele>307.0</ele><time>2026-04-11T14:24:15.999Z</time></trkpt><trkpt lat="42.6419480202675" lon="11.981528434780111"><ele>307.0</ele><time>2026-04-11T14:24:17.999Z</time></trkpt><trkpt lat="42.64187810435026" lon="11.981576653007659"><ele>307.0</ele><time>2026-04-11T14:24:19.999Z</time></trkpt><trkpt lat="42.6418129246758" lon="11.981620909180442"><ele>307.0</ele><time>2026-04-11T14:24:21.999Z</time></trkpt><trkpt lat="42.641754999120266" lon="11.981676612190306"><ele>306.99999999999994</ele><time>2026-04-11T14:24:23.999Z</time></trkpt><trkpt lat="42.64169553511593" lon="11.981736748943103"><ele>307.0</ele><time>2026-04-11T14:24:25.999Z</time></trkpt><trkpt lat="42.64162039713397" lon="11.981792090815652"><ele>307.16666666666663</ele><time>2026-04-11T14:24:27.999Z</time></trkpt><trkpt lat="42.64155126709955" lon="11.98185462307712"><ele>307.3333333333333</ele><time>2026-04-11T14:24:29.999Z</time></trkpt><trkpt lat="42.641480776178774" lon="11.98191009846349"><ele>307.5</ele><time>2026-04-11T14:24:31.999Z</time></trkpt><trkpt lat="42.64140370087112" lon="11.981969747145293"><ele>307.6666666666667</ele><time>2026-04-11T14:24:33.999Z</time></trkpt><trkpt lat="42.64133806597811" lon="11.982032893233763"><ele>307.83333333333337</ele><time>2026-04-11T14:24:35.999Z</time></trkpt><trkpt lat="42.64127328518579" lon="11.982105334791603"><ele>308.0</ele><time>2026-04-11T14:24:37.999Z</time></trkpt><trkpt lat="42.64119305534309" lon="11.982129353790757"><ele>308.1666666666667</ele><time>2026-04-11T14:24:39.999Z</time></trkpt><trkpt lat="42.64112482521065" lon="11.982159645203536"><ele>308.33333333333337</ele><time>2026-04-11T14:24:41.999Z</time></trkpt><trkpt lat="42.641033186207096" lon="11.98220262019899"><ele>308.5</ele><time>2026-04-11T14:24:44.999Z</time></trkpt><trkpt lat="42.64096265800332" lon="11.982268918183236"><ele>308.6666666666667</ele><time>2026-04-11T14:24:47.999Z</time></trkpt><trkpt lat="42.64091895744559" lon="11.982335417138527"><ele>308.8333333333333</ele><time>2026-04-11T14:24:49.999Z</time></trkpt><trkpt lat="42.64087233216955" lon="11.982403528199267"><ele>309.0</ele><time>2026-04-11T14:24:52.999Z</time></trkpt><trkpt lat="42.64082652807354" lon="11.982484609178663"><ele>308.6666666666667</ele><time>2026-04-11T14:24:55.999Z</time></trkpt><trkpt lat="42.64077175254864" lon="11.982556189837707"><ele>308.3333333333333</ele><time>2026-04-11T14:24:59.998Z</time></trkpt><trkpt lat="42.6407108879057" lon="11.982624936826898"><ele>308.0</ele><time>2026-04-11T14:25:03.998Z</time></trkpt><trkpt lat="42.640672252286244" lon="11.982693778036118"><ele>307.66666666666663</ele><time>2026-04-11T14:25:05.998Z</time></trkpt><trkpt lat="42.640623895790206" lon="11.982775110171435"><ele>307.3333333333333</ele><time>2026-04-11T14:25:08.998Z</time></trkpt><trkpt lat="42.640568175081725" lon="11.982835421665431"><ele>307.0</ele><time>2026-04-11T14:25:10.998Z</time></trkpt><trkpt lat="42.640505277895905" lon="11.982914397344993"><ele>307.0</ele><time>2026-04-11T14:25:12.998Z</time></trkpt><trkpt lat="42.64044752111686" lon="11.98297040298347"><ele>307.0</ele><time>2026-04-11T14:25:14.998Z</time></trkpt><trkpt lat="42.64039344232007" lon="11.983042357184914"><ele>307.0</ele><time>2026-04-11T14:25:17.998Z</time></trkpt><trkpt lat="42.6404287564904" lon="11.982956892909446"><ele>307.0</ele><time>2026-04-11T14:25:29Z</time></trkpt><trkpt lat="42.640469809122244" lon="11.982878292426514"><ele>307.0</ele><time>2026-04-11T14:25:33Z</time></trkpt><trkpt lat="42.640543748587184" lon="11.982812206390673"><ele>307.0</ele><time>2026-04-11T14:25:36Z</time></trkpt><trkpt lat="42.64058746755626" lon="11.982735093943326"><ele>306.99999999999994</ele><time>2026-04-11T14:25:39Z</time></trkpt><trkpt lat="42.64064238654341" lon="11.982688040093262"><ele>307.0</ele><time>2026-04-11T14:25:44Z</time></trkpt><trkpt lat="42.64070243986275" lon="11.982632083531593"><ele>307.0</ele><time>2026-04-11T14:25:51Z</time></trkpt><trkpt lat="42.6407739150977" lon="11.982655959654585"><ele>307.0</ele><time>2026-04-11T14:25:56Z</time></trkpt><trkpt lat="42.6408154777552" lon="11.982725113779109"><ele>307.0</ele><time>2026-04-11T14:26:00Z</time></trkpt><trkpt lat="42.64087138853479" lon="11.982772644769412"><ele>306.99999999999994</ele><time>2026-04-11T14:26:05Z</time></trkpt><trkpt lat="42.64092988727502" lon="11.982820268825165"><ele>307.0</ele><time>2026-04-11T14:26:09Z</time></trkpt><trkpt lat="42.64100153911996" lon="11.982853873009716"><ele>306.99999999999994</ele><time>2026-04-11T14:26:12Z</time></trkpt><trkpt lat="42.64106526349919" lon="11.982868559672106"><ele>307.0</ele><time>2026-04-11T14:26:14Z</time></trkpt><trkpt lat="42.641126008524445" lon="11.982829992926655"><ele>307.0</ele><time>2026-04-11T14:26:16Z</time></trkpt><trkpt lat="42.641181577609615" lon="11.98276305868724"><ele>307.0</ele><time>2026-04-11T14:26:19Z</time></trkpt><trkpt lat="42.641167167285495" lon="11.982671279121764"><ele>307.0</ele><time>2026-04-11T14:26:22Z</time></trkpt><trkpt lat="42.64112096581864" lon="11.982602339868537"><ele>306.99999999999994</ele><time>2026-04-11T14:26:24.999Z</time></trkpt><trkpt lat="42.641088977587984" lon="11.982521679074605"><ele>307.0</ele><time>2026-04-11T14:26:27.999Z</time></trkpt><trkpt lat="42.6410249136104" lon="11.98245617464448"><ele>306.99999999999994</ele><time>2026-04-11T14:26:31.999Z</time></trkpt><trkpt lat="42.640975090802456" lon="11.9823907729143"><ele>307.0</ele><time>2026-04-11T14:26:35.999Z</time></trkpt><trkpt lat="42.64092184409161" lon="11.982340625788254"><ele>307.0</ele><time>2026-04-11T14:26:41.999Z</time></trkpt><trkpt lat="42.64086596786624" lon="11.98241069601823"><ele>307.0</ele><time>2026-04-11T14:26:46.999Z</time></trkpt><trkpt lat="42.64081253082109" lon="11.982475957585182"><ele>307.0</ele><time>2026-04-11T14:26:49.999Z</time></trkpt><trkpt lat="42.64076520801647" lon="11.982536273952647"><ele>306.99999999999994</ele><time>2026-04-11T14:26:51.999Z</time></trkpt><trkpt lat="42.64071633106497" lon="11.982629297672247"><ele>307.0</ele><time>2026-04-11T14:26:55.999Z</time></trkpt><trkpt lat="42.64063195259685" lon="11.982710026385904"><ele>307.0</ele><time>2026-04-11T14:26:58.999Z</time></trkpt><trkpt lat="42.6405654595324" lon="11.982800546470838"><ele>307.0</ele><time>2026-04-11T14:27:00.999Z</time></trkpt><trkpt lat="42.6405162128909" lon="11.982877734031455"><ele>307.0</ele><time>2026-04-11T14:27:02.999Z</time></trkpt><trkpt lat="42.64046553604149" lon="11.982943071961015"><ele>307.0</ele><time>2026-04-11T14:27:04.999Z</time></trkpt><trkpt lat="42.64042275985044" lon="11.983015383491693"><ele>307.0</ele><time>2026-04-11T14:27:06.999Z</time></trkpt><trkpt lat="42.64036338680554" lon="11.98308935470636"><ele>307.0</ele><time>2026-04-11T14:27:08.998Z</time></trkpt><trkpt lat="42.64031223096204" lon="11.983156333728283"><ele>306.8333333333333</ele><time>2026-04-11T14:27:10.998Z</time></trkpt><trkpt lat="42.64026505700674" lon="11.983237868237747"><ele>306.66666666666663</ele><time>2026-04-11T14:27:17.998Z</time></trkpt><trkpt lat="42.640217237757845" lon="11.983294613765883"><ele>306.5</ele><time>2026-04-11T14:27:19.998Z</time></trkpt><trkpt lat="42.64015818049048" lon="11.983357131240211"><ele>306.3333333333333</ele><time>2026-04-11T14:27:22.998Z</time></trkpt><trkpt lat="42.6400969131231" lon="11.983456532342057"><ele>306.1666666666667</ele><time>2026-04-11T14:27:25.998Z</time></trkpt><trkpt lat="42.64001606514742" lon="11.983541623915132"><ele>306.0</ele><time>2026-04-11T14:27:28.998Z</time></trkpt><trkpt lat="42.63995869544359" lon="11.983613442731846"><ele>306.0</ele><time>2026-04-11T14:27:31.001Z</time></trkpt><trkpt lat="42.639900800793725" lon="11.983717555348305"><ele>306.0</ele><time>2026-04-11T14:27:34.001Z</time></trkpt><trkpt lat="42.63983198219818" lon="11.983777835440703"><ele>306.0</ele><time>2026-04-11T14:27:36.001Z</time></trkpt><trkpt lat="42.63977347048656" lon="11.98386723819129"><ele>306.0</ele><time>2026-04-11T14:27:38Z</time></trkpt><trkpt lat="42.63971974062914" lon="11.983941342477754"><ele>306.0</ele><time>2026-04-11T14:27:40.001Z</time></trkpt><trkpt lat="42.63964428218196" lon="11.984010902530907"><ele>306.0</ele><time>2026-04-11T14:27:42.001Z</time></trkpt><trkpt lat="42.639569538744524" lon="11.984085020359169"><ele>306.0</ele><time>2026-04-11T14:27:44.001Z</time></trkpt><trkpt lat="42.639504322021246" lon="11.984155894508383"><ele>306.0</ele><time>2026-04-11T14:27:46Z</time></trkpt><trkpt lat="42.63943449295727" lon="11.984252027853877"><ele>306.0</ele><time>2026-04-11T14:27:48Z</time></trkpt><trkpt lat="42.639352893991656" lon="11.984316994031033"><ele>306.0</ele><time>2026-04-11T14:27:50Z</time></trkpt><trkpt lat="42.63927444425202" lon="11.984373390726224"><ele>306.0</ele><time>2026-04-11T14:27:52Z</time></trkpt><trkpt lat="42.63920861724801" lon="11.98442439656646"><ele>306.0</ele><time>2026-04-11T14:27:54Z</time></trkpt><trkpt lat="42.639134423044126" lon="11.98447641893772"><ele>306.0</ele><time>2026-04-11T14:27:56Z</time></trkpt><trkpt lat="42.63904737658244" lon="11.984533676747938"><ele>306.0</ele><time>2026-04-11T14:27:58Z</time></trkpt><trkpt lat="42.638971191929464" lon="11.984583645086975"><ele>306.0</ele><time>2026-04-11T14:28:00Z</time></trkpt><trkpt lat="42.638884668052995" lon="11.984628335866665"><ele>306.0</ele><time>2026-04-11T14:28:02Z</time></trkpt><trkpt lat="42.63879306270837" lon="11.98465633295185"><ele>306.0</ele><time>2026-04-11T14:28:04Z</time></trkpt><trkpt lat="42.638705840854314" lon="11.984674336627078"><ele>306.0</ele><time>2026-04-11T14:28:06Z</time></trkpt><trkpt lat="42.638627220196895" lon="11.984691936493423"><ele>306.0</ele><time>2026-04-11T14:28:08Z</time></trkpt><trkpt lat="42.63855174938624" lon="11.98473398633064"><ele>306.0</ele><time>2026-04-11T14:28:10Z</time></trkpt><trkpt lat="42.638491284479514" lon="11.984768394874614"><ele>306.0</ele><time>2026-04-11T14:28:12Z</time></trkpt><trkpt lat="42.63841285374092" lon="11.984790044027237"><ele>306.0</ele><time>2026-04-11T14:28:14Z</time></trkpt><trkpt lat="42.638341028944765" lon="11.984813298240377"><ele>306.0</ele><time>2026-04-11T14:28:16Z</time></trkpt><trkpt lat="42.638252778323526" lon="11.98481546700612"><ele>306.0</ele><time>2026-04-11T14:28:18Z</time></trkpt><trkpt lat="42.638166878003744" lon="11.984810832623198"><ele>306.0</ele><time>2026-04-11T14:28:20Z</time></trkpt><trkpt lat="42.63806533948594" lon="11.984783429360078"><ele>306.0</ele><time>2026-04-11T14:28:22Z</time></trkpt><trkpt lat="42.63797186691631" lon="11.984747627363905"><ele>306.0</ele><time>2026-04-11T14:28:24Z</time></trkpt><trkpt lat="42.637883513353124" lon="11.984718665358065"><ele>306.0</ele><time>2026-04-11T14:28:26Z</time></trkpt><trkpt lat="42.63779754852241" lon="11.984699172902017"><ele>306.0</ele><time>2026-04-11T14:28:27.999Z</time></trkpt><trkpt lat="42.63771014985048" lon="11.98465165527438"><ele>306.0</ele><time>2026-04-11T14:28:29.999Z</time></trkpt><trkpt lat="42.63762510988106" lon="11.984581398689782"><ele>306.0</ele><time>2026-04-11T14:28:31.999Z</time></trkpt><trkpt lat="42.63754910770665" lon="11.984525896453293"><ele>306.0</ele><time>2026-04-11T14:28:33.999Z</time></trkpt><trkpt lat="42.63747202423844" lon="11.984447586008915"><ele>306.0</ele><time>2026-04-11T14:28:35.999Z</time></trkpt><trkpt lat="42.637406532280814" lon="11.984368544280146"><ele>306.0</ele><time>2026-04-11T14:28:37.999Z</time></trkpt><trkpt lat="42.637340082970994" lon="11.98430325607118"><ele>306.0</ele><time>2026-04-11T14:28:39.999Z</time></trkpt><trkpt lat="42.63726208465342" lon="11.984214581514763"><ele>306.0</ele><time>2026-04-11T14:28:41.999Z</time></trkpt><trkpt lat="42.63717720295409" lon="11.98415080527329"><ele>306.0</ele><time>2026-04-11T14:28:43.999Z</time></trkpt><trkpt lat="42.63709515665631" lon="11.984097023030504"><ele>306.0</ele><time>2026-04-11T14:28:45.999Z</time></trkpt><trkpt lat="42.637014622770884" lon="11.984069865432502"><ele>306.0</ele><time>2026-04-11T14:28:47.999Z</time></trkpt><trkpt lat="42.63692297540152" lon="11.984052240613666"><ele>306.0</ele><time>2026-04-11T14:28:49.999Z</time></trkpt><trkpt lat="42.63683546476292" lon="11.984041206251238"><ele>306.0</ele><time>2026-04-11T14:28:51.999Z</time></trkpt><trkpt lat="42.63676932870782" lon="11.984082580458805"><ele>306.0</ele><time>2026-04-11T14:28:53.999Z</time></trkpt><trkpt lat="42.63670372576806" lon="11.98414830605709"><ele>306.0</ele><time>2026-04-11T14:28:55.999Z</time></trkpt><trkpt lat="42.63664495261293" lon="11.98421657292007"><ele>306.0</ele><time>2026-04-11T14:28:57.999Z</time></trkpt><trkpt lat="42.63659742552954" lon="11.98428360885602"><ele>306.0</ele><time>2026-04-11T14:28:59.999Z</time></trkpt><trkpt lat="42.636565684166094" lon="11.984372355007928"><ele>306.0</ele><time>2026-04-11T14:29:01.999Z</time></trkpt><trkpt lat="42.63653097663284" lon="11.984487829082385"><ele>306.0</ele><time>2026-04-11T14:29:03.999Z</time></trkpt><trkpt lat="42.63648079884153" lon="11.984612795700484"><ele>306.0</ele><time>2026-04-11T14:29:05.999Z</time></trkpt><trkpt lat="42.636444648537314" lon="11.984748190776012"><ele>306.0</ele><time>2026-04-11T14:29:07.999Z</time></trkpt><trkpt lat="42.63639573312919" lon="11.984877229219116"><ele>306.0</ele><time>2026-04-11T14:29:09.999Z</time></trkpt><trkpt lat="42.63636914444905" lon="11.984998050819442"><ele>306.0</ele><time>2026-04-11T14:29:11.999Z</time></trkpt><trkpt lat="42.63632423634699" lon="11.985110311231782"><ele>306.0</ele><time>2026-04-11T14:29:13.998Z</time></trkpt><trkpt lat="42.63628747542503" lon="11.985210860139988"><ele>306.0</ele><time>2026-04-11T14:29:15.998Z</time></trkpt><trkpt lat="42.63626140074778" lon="11.9853181876257"><ele>306.0</ele><time>2026-04-11T14:29:17.998Z</time></trkpt><trkpt lat="42.63622314061891" lon="11.98539639833081"><ele>306.0</ele><time>2026-04-11T14:29:19.998Z</time></trkpt><trkpt lat="42.63619169703874" lon="11.985473159803663"><ele>306.0</ele><time>2026-04-11T14:29:21.998Z</time></trkpt><trkpt lat="42.63615397589258" lon="11.98556285130367"><ele>306.0</ele><time>2026-04-11T14:29:23.998Z</time></trkpt><trkpt lat="42.63610087812949" lon="11.985673897370546"><ele>306.0</ele><time>2026-04-11T14:29:25.998Z</time></trkpt><trkpt lat="42.63605686695855" lon="11.985779003847808"><ele>306.0</ele><time>2026-04-11T14:29:27.998Z</time></trkpt><trkpt lat="42.63600480218375" lon="11.98587756658097"><ele>306.0</ele><time>2026-04-11T14:29:29.998Z</time></trkpt><trkpt lat="42.63596200111201" lon="11.985981590744737"><ele>306.0</ele><time>2026-04-11T14:29:31.998Z</time></trkpt><trkpt lat="42.63592786713175" lon="11.986095061820025"><ele>306.0</ele><time>2026-04-11T14:29:33.998Z</time></trkpt><trkpt lat="42.63589881589041" lon="11.986194830412034"><ele>306.0</ele><time>2026-04-11T14:29:36Z</time></trkpt><trkpt lat="42.6358670757891" lon="11.986288459125591"><ele>306.0</ele><time>2026-04-11T14:29:38Z</time></trkpt><trkpt lat="42.635836047911354" lon="11.98637711530772"><ele>306.0</ele><time>2026-04-11T14:29:40Z</time></trkpt><trkpt lat="42.63578481284583" lon="11.986452179439627"><ele>306.0</ele><time>2026-04-11T14:29:42Z</time></trkpt><trkpt lat="42.63572997536999" lon="11.986515359243649"><ele>306.0</ele><time>2026-04-11T14:29:44Z</time></trkpt><trkpt lat="42.63569319481865" lon="11.986610661091621"><ele>305.8333333333333</ele><time>2026-04-11T14:29:46.001Z</time></trkpt><trkpt lat="42.63566035829568" lon="11.986715984898069"><ele>305.6666666666667</ele><time>2026-04-11T14:29:48.001Z</time></trkpt><trkpt lat="42.63559635096409" lon="11.986801554522042"><ele>305.5</ele><time>2026-04-11T14:29:50Z</time></trkpt><trkpt lat="42.6355390548013" lon="11.986882954785328"><ele>305.33333333333337</ele><time>2026-04-11T14:29:52Z</time></trkpt><trkpt lat="42.63548521797799" lon="11.986960549621868"><ele>305.1666666666667</ele><time>2026-04-11T14:29:54Z</time></trkpt><trkpt lat="42.635436410265505" lon="11.987040899832092"><ele>305.0</ele><time>2026-04-11T14:29:56Z</time></trkpt><trkpt lat="42.6353886426184" lon="11.987121850178886"><ele>305.0</ele><time>2026-04-11T14:29:58Z</time></trkpt><trkpt lat="42.635341086221345" lon="11.987195030275469"><ele>305.0</ele><time>2026-04-11T14:30:00Z</time></trkpt><trkpt lat="42.63529341236262" lon="11.987261235375168"><ele>305.0</ele><time>2026-04-11T14:30:02Z</time></trkpt><trkpt lat="42.63523281859098" lon="11.987318514766937"><ele>305.0</ele><time>2026-04-11T14:30:04Z</time></trkpt><trkpt lat="42.63517939142597" lon="11.987394667317133"><ele>305.0</ele><time>2026-04-11T14:30:06Z</time></trkpt><trkpt lat="42.635121298678705" lon="11.987458270234477"><ele>305.0</ele><time>2026-04-11T14:30:08Z</time></trkpt><trkpt lat="42.635070449681315" lon="11.987523500541533"><ele>305.0</ele><time>2026-04-11T14:30:10Z</time></trkpt><trkpt lat="42.63501913970164" lon="11.98761369471547"><ele>305.14285714285717</ele><time>2026-04-11T14:30:13Z</time></trkpt><trkpt lat="42.6349795325289" lon="11.987702679449518"><ele>305.2857142857143</ele><time>2026-04-11T14:30:15Z</time></trkpt><trkpt lat="42.63494125602087" lon="11.987783063505823"><ele>305.42857142857144</ele><time>2026-04-11T14:30:17Z</time></trkpt><trkpt lat="42.63490599415445" lon="11.98786013804533"><ele>305.57142857142856</ele><time>2026-04-11T14:30:19Z</time></trkpt><trkpt lat="42.63487113122315" lon="11.987948897147074"><ele>305.7142857142857</ele><time>2026-04-11T14:30:21Z</time></trkpt><trkpt lat="42.63484209739957" lon="11.988056102274657"><ele>305.85714285714283</ele><time>2026-04-11T14:30:23Z</time></trkpt><trkpt lat="42.63479965749485" lon="11.988142586717366"><ele>306.0</ele><time>2026-04-11T14:30:25Z</time></trkpt><trkpt lat="42.63475105734244" lon="11.98823685604434"><ele>306.0</ele><time>2026-04-11T14:30:27.999Z</time></trkpt><trkpt lat="42.634717404306805" lon="11.988329379297761"><ele>306.0</ele><time>2026-04-11T14:30:29.999Z</time></trkpt><trkpt lat="42.634672983998904" lon="11.98843167987249"><ele>306.0</ele><time>2026-04-11T14:30:31.999Z</time></trkpt><trkpt lat="42.63463606312773" lon="11.988506484853815"><ele>306.0</ele><time>2026-04-11T14:30:33.999Z</time></trkpt><trkpt lat="42.63458742739436" lon="11.988617215989606"><ele>306.0</ele><time>2026-04-11T14:30:36.998Z</time></trkpt><trkpt lat="42.63455552211505" lon="11.988710411912855"><ele>306.0</ele><time>2026-04-11T14:30:38.998Z</time></trkpt><trkpt lat="42.634508277916154" lon="11.98877244770259"><ele>305.85714285714283</ele><time>2026-04-11T14:30:40.998Z</time></trkpt><trkpt lat="42.63446893442443" lon="11.988862481509033"><ele>305.7142857142857</ele><time>2026-04-11T14:30:42.998Z</time></trkpt><trkpt lat="42.634423470337595" lon="11.988934496342905"><ele>305.57142857142856</ele><time>2026-04-11T14:30:44.998Z</time></trkpt><trkpt lat="42.63438151723537" lon="11.98902262262286"><ele>305.42857142857144</ele><time>2026-04-11T14:30:46.998Z</time></trkpt><trkpt lat="42.63434355119345" lon="11.98912079206241"><ele>305.2857142857143</ele><time>2026-04-11T14:30:49.998Z</time></trkpt><trkpt lat="42.634305635382894" lon="11.989190482170596"><ele>305.14285714285717</ele><time>2026-04-11T14:30:51.998Z</time></trkpt><trkpt lat="42.634256260840345" lon="11.989266995307776"><ele>305.0</ele><time>2026-04-11T14:30:53.998Z</time></trkpt><trkpt lat="42.63421225945186" lon="11.98935420818231"><ele>305.0</ele><time>2026-04-11T14:30:55.998Z</time></trkpt><trkpt lat="42.63416892995155" lon="11.989441979035256"><ele>305.0</ele><time>2026-04-11T14:30:57.998Z</time></trkpt><trkpt lat="42.634124307156235" lon="11.989530891657717"><ele>305.0</ele><time>2026-04-11T14:30:59.998Z</time></trkpt><trkpt lat="42.63407461415408" lon="11.989612230350357"><ele>305.0</ele><time>2026-04-11T14:31:01.998Z</time></trkpt><trkpt lat="42.63403725256917" lon="11.989694065973374"><ele>305.0</ele><time>2026-04-11T14:31:03.998Z</time></trkpt><trkpt lat="42.633998221334124" lon="11.989764756106329"><ele>305.0</ele><time>2026-04-11T14:31:05.998Z</time></trkpt><trkpt lat="42.63393788056519" lon="11.98984690664433"><ele>305.0</ele><time>2026-04-11T14:31:08.998Z</time></trkpt><trkpt lat="42.633886818077094" lon="11.989902208090037"><ele>305.0</ele><time>2026-04-11T14:31:11.998Z</time></trkpt><trkpt lat="42.633836524501596" lon="11.98999126886657"><ele>305.0</ele><time>2026-04-11T14:31:14.998Z</time></trkpt><trkpt lat="42.63376494377231" lon="11.990094499593733"><ele>305.0</ele><time>2026-04-11T14:31:17.998Z</time></trkpt><trkpt lat="42.63370341139024" lon="11.990150403769881"><ele>305.0</ele><time>2026-04-11T14:31:19.998Z</time></trkpt><trkpt lat="42.633641816608055" lon="11.990214262402707"><ele>305.0</ele><time>2026-04-11T14:31:22.997Z</time></trkpt><trkpt lat="42.63358699028334" lon="11.9902859434811"><ele>305.0</ele><time>2026-04-11T14:31:27.997Z</time></trkpt><trkpt lat="42.63353341787217" lon="11.99035220879281"><ele>305.0</ele><time>2026-04-11T14:31:34.997Z</time></trkpt><trkpt lat="42.63348767892639" lon="11.990440997641546"><ele>305.0</ele><time>2026-04-11T14:31:39.997Z</time></trkpt><trkpt lat="42.633430048729934" lon="11.990496870089427"><ele>305.0</ele><time>2026-04-11T14:31:43.999Z</time></trkpt><trkpt lat="42.63338620760969" lon="11.990576925931267"><ele>305.0</ele><time>2026-04-11T14:31:48Z</time></trkpt><trkpt lat="42.63333440820609" lon="11.990625816999188"><ele>305.0</ele><time>2026-04-11T14:31:51Z</time></trkpt><trkpt lat="42.63327936594868" lon="11.990696754638991"><ele>305.0</ele><time>2026-04-11T14:31:55Z</time></trkpt><trkpt lat="42.63322428566872" lon="11.990758320715274"><ele>305.0</ele><time>2026-04-11T14:31:57.999Z</time></trkpt><trkpt lat="42.63316643617011" lon="11.990818968196734"><ele>305.0</ele><time>2026-04-11T14:32:00.999Z</time></trkpt><trkpt lat="42.63310647942121" lon="11.990870832042996"><ele>305.0</ele><time>2026-04-11T14:32:03.999Z</time></trkpt><trkpt lat="42.633038214705564" lon="11.990929233985039"><ele>305.0</ele><time>2026-04-11T14:32:09.999Z</time></trkpt><trkpt lat="42.632966151455456" lon="11.990966150456035"><ele>305.0</ele><time>2026-04-11T14:32:12.999Z</time></trkpt><trkpt lat="42.63290649008703" lon="11.990994137101115"><ele>305.0</ele><time>2026-04-11T14:32:16.999Z</time></trkpt><trkpt lat="42.63284325721491" lon="11.99101983741986"><ele>305.0</ele><time>2026-04-11T14:32:23.999Z</time></trkpt><trkpt lat="42.63277458170846" lon="11.991039193003756"><ele>305.0</ele><time>2026-04-11T14:32:33.999Z</time></trkpt><trkpt lat="42.6327133676967" lon="11.991090046476597"><ele>305.0</ele><time>2026-04-11T14:32:56.998Z</time></trkpt><trkpt lat="42.63267842786816" lon="11.991184998892722"><ele>305.0</ele><time>2026-04-11T14:32:59.998Z</time></trkpt><trkpt lat="42.63266902747199" lon="11.991272596998876"><ele>305.0</ele><time>2026-04-11T14:33:03.998Z</time></trkpt><trkpt lat="42.63263838627089" lon="11.991364102045063"><ele>305.0</ele><time>2026-04-11T14:33:07.998Z</time></trkpt><trkpt lat="42.63258708729477" lon="11.991432553730965"><ele>305.0</ele><time>2026-04-11T14:33:10.998Z</time></trkpt><trkpt lat="42.632540738560046" lon="11.991494005495802"><ele>305.0</ele><time>2026-04-11T14:33:12.998Z</time></trkpt><trkpt lat="42.63247039230006" lon="11.991580145151136"><ele>305.0</ele><time>2026-04-11T14:33:15.998Z</time></trkpt><trkpt lat="42.632403652096414" lon="11.991638025009488"><ele>305.0</ele><time>2026-04-11T14:33:18.998Z</time></trkpt><trkpt lat="42.63234527942528" lon="11.991714650678993"><ele>305.0</ele><time>2026-04-11T14:33:21.998Z</time></trkpt><trkpt lat="42.63228743599703" lon="11.991803496659205"><ele>305.0</ele><time>2026-04-11T14:33:24.998Z</time></trkpt><trkpt lat="42.63221194467728" lon="11.991887043256233"><ele>305.0</ele><time>2026-04-11T14:33:27.997Z</time></trkpt><trkpt lat="42.632167087124444" lon="11.991953145949173"><ele>305.0</ele><time>2026-04-11T14:33:29.997Z</time></trkpt><trkpt lat="42.63211830926178" lon="11.992017654358706"><ele>305.0</ele><time>2026-04-11T14:33:31.997Z</time></trkpt><trkpt lat="42.6320644025901" lon="11.992097610999737"><ele>305.0</ele><time>2026-04-11T14:33:33.997Z</time></trkpt><trkpt lat="42.632014113538574" lon="11.992178599224045"><ele>305.0</ele><time>2026-04-11T14:33:35.997Z</time></trkpt><trkpt lat="42.63196600416795" lon="11.992246660709952"><ele>305.0</ele><time>2026-04-11T14:33:37.997Z</time></trkpt><trkpt lat="42.63191363999884" lon="11.992327696188852"><ele>305.0</ele><time>2026-04-11T14:33:39.997Z</time></trkpt><trkpt lat="42.63185362004007" lon="11.992404556223068"><ele>305.0</ele><time>2026-04-11T14:33:41.997Z</time></trkpt><trkpt lat="42.63179916709394" lon="11.992473778141179"><ele>305.33333333333337</ele><time>2026-04-11T14:33:43.997Z</time></trkpt><trkpt lat="42.631756878085575" lon="11.992540826191641"><ele>305.6666666666667</ele><time>2026-04-11T14:33:45.997Z</time></trkpt><trkpt lat="42.63170191768289" lon="11.992619958123305"><ele>306.0</ele><time>2026-04-11T14:33:48.999Z</time></trkpt><trkpt lat="42.631648829972875" lon="11.992684756692498"><ele>306.3333333333333</ele><time>2026-04-11T14:33:52Z</time></trkpt><trkpt lat="42.63157985584061" lon="11.992755970519607"><ele>306.66666666666663</ele><time>2026-04-11T14:33:54Z</time></trkpt><trkpt lat="42.63150885539866" lon="11.992824149719864"><ele>307.0</ele><time>2026-04-11T14:33:56Z</time></trkpt><trkpt lat="42.63145018202086" lon="11.992890820944847"><ele>306.99999999999994</ele><time>2026-04-11T14:33:58Z</time></trkpt><trkpt lat="42.631389579554025" lon="11.992937591425783"><ele>307.0</ele><time>2026-04-11T14:34:00Z</time></trkpt><trkpt lat="42.631336631094655" lon="11.992998761730645"><ele>307.0</ele><time>2026-04-11T14:34:02Z</time></trkpt><trkpt lat="42.631282259477516" lon="11.99306174312545"><ele>307.0</ele><time>2026-04-11T14:34:03.999Z</time></trkpt><trkpt lat="42.631218003569906" lon="11.993113372046711"><ele>307.0</ele><time>2026-04-11T14:34:05.999Z</time></trkpt><trkpt lat="42.631162547884465" lon="11.993161347806087"><ele>306.99999999999994</ele><time>2026-04-11T14:34:07.999Z</time></trkpt><trkpt lat="42.631105189001914" lon="11.993206499823238"><ele>307.0</ele><time>2026-04-11T14:34:10.999Z</time></trkpt><trkpt lat="42.631042923122635" lon="11.993269046755442"><ele>307.0</ele><time>2026-04-11T14:34:12.999Z</time></trkpt><trkpt lat="42.63099477510228" lon="11.993327489651792"><ele>307.0</ele><time>2026-04-11T14:34:14.999Z</time></trkpt><trkpt lat="42.6309133424414" lon="11.993361576895387"><ele>307.0</ele><time>2026-04-11T14:34:16.999Z</time></trkpt><trkpt lat="42.630841408385876" lon="11.993390776458487"><ele>307.0</ele><time>2026-04-11T14:34:18.999Z</time></trkpt><trkpt lat="42.63078095672724" lon="11.993441641188989"><ele>307.0</ele><time>2026-04-11T14:34:20.999Z</time></trkpt><trkpt lat="42.630705989421955" lon="11.993498546255422"><ele>307.0</ele><time>2026-04-11T14:34:23.999Z</time></trkpt><trkpt lat="42.630630073298526" lon="11.993536435464158"><ele>306.8333333333333</ele><time>2026-04-11T14:34:26.999Z</time></trkpt><trkpt lat="42.63056493049569" lon="11.993600291724329"><ele>306.66666666666663</ele><time>2026-04-11T14:34:29.999Z</time></trkpt><trkpt lat="42.63052200017586" lon="11.993705063303695"><ele>306.5</ele><time>2026-04-11T14:34:32.999Z</time></trkpt><trkpt lat="42.63056242681621" lon="11.993814960810012"><ele>306.3333333333333</ele><time>2026-04-11T14:34:35.999Z</time></trkpt><trkpt lat="42.630614929870724" lon="11.99389506468542"><ele>306.1666666666667</ele><time>2026-04-11T14:34:37.999Z</time></trkpt><trkpt lat="42.63065672266202" lon="11.99396609706478"><ele>306.0</ele><time>2026-04-11T14:34:39.999Z</time></trkpt><trkpt lat="42.63072171942989" lon="11.99405544323311"><ele>306.0</ele><time>2026-04-11T14:34:41.999Z</time></trkpt><trkpt lat="42.630784485315424" lon="11.994144642115822"><ele>306.0</ele><time>2026-04-11T14:34:43.999Z</time></trkpt><trkpt lat="42.63084008959672" lon="11.994212419399787"><ele>306.0</ele><time>2026-04-11T14:34:45.998Z</time></trkpt><trkpt lat="42.630896884945656" lon="11.994272722532925"><ele>306.0</ele><time>2026-04-11T14:34:47.998Z</time></trkpt><trkpt lat="42.63095262620222" lon="11.994345515272846"><ele>306.0</ele><time>2026-04-11T14:34:49.998Z</time></trkpt><trkpt lat="42.63100643146635" lon="11.994423277324666"><ele>306.0</ele><time>2026-04-11T14:34:51.998Z</time></trkpt><trkpt lat="42.631058048482174" lon="11.994494855242284"><ele>306.0</ele><time>2026-04-11T14:34:53.998Z</time></trkpt><trkpt lat="42.63111232561541" lon="11.994564452467664"><ele>306.0</ele><time>2026-04-11T14:34:55.998Z</time></trkpt><trkpt lat="42.631154417508874" lon="11.994636471713658"><ele>306.0</ele><time>2026-04-11T14:34:57.998Z</time></trkpt><trkpt lat="42.63121554957246" lon="11.994732268614431"><ele>306.0</ele><time>2026-04-11T14:35:00.998Z</time></trkpt><trkpt lat="42.631260191124575" lon="11.994797548005538"><ele>306.0</ele><time>2026-04-11T14:35:02.998Z</time></trkpt><trkpt lat="42.63131111420814" lon="11.994884969958548"><ele>306.0</ele><time>2026-04-11T14:35:05.998Z</time></trkpt><trkpt lat="42.63136482790296" lon="11.994940786258002"><ele>306.1666666666667</ele><time>2026-04-11T14:35:07.998Z</time></trkpt><trkpt lat="42.63141598819577" lon="11.994993797087762"><ele>306.3333333333333</ele><time>2026-04-11T14:35:09.998Z</time></trkpt><trkpt lat="42.63147799235855" lon="11.995069588163613"><ele>306.5</ele><time>2026-04-11T14:35:12.998Z</time></trkpt><trkpt lat="42.63153520967035" lon="11.995127664591596"><ele>306.66666666666663</ele><time>2026-04-11T14:35:15.998Z</time></trkpt><trkpt lat="42.63159049847272" lon="11.995205542817159"><ele>306.8333333333333</ele><time>2026-04-11T14:35:18.998Z</time></trkpt><trkpt lat="42.631658735746555" lon="11.995284340171077"><ele>307.0</ele><time>2026-04-11T14:35:21.998Z</time></trkpt><trkpt lat="42.631733770387626" lon="11.995356530820137"><ele>307.16666666666663</ele><time>2026-04-11T14:35:24.998Z</time></trkpt><trkpt lat="42.63180037630015" lon="11.995433686539638"><ele>307.3333333333333</ele><time>2026-04-11T14:35:27.998Z</time></trkpt><trkpt lat="42.63186111590251" lon="11.9955147957249"><ele>307.5</ele><time>2026-04-11T14:35:30.998Z</time></trkpt><trkpt lat="42.63193097741408" lon="11.995571790858998"><ele>307.6666666666667</ele><time>2026-04-11T14:35:33.997Z</time></trkpt><trkpt lat="42.63199291278085" lon="11.995651171091511"><ele>307.83333333333337</ele><time>2026-04-11T14:35:36.997Z</time></trkpt><trkpt lat="42.632055701453" lon="11.995739747842782"><ele>308.0</ele><time>2026-04-11T14:35:39.997Z</time></trkpt><trkpt lat="42.63211404709085" lon="11.995834967607976"><ele>309.6666666666667</ele><time>2026-04-11T14:35:42.997Z</time></trkpt><trkpt lat="42.632169287035644" lon="11.995933604623996"><ele>311.33333333333337</ele><time>2026-04-11T14:35:45.997Z</time></trkpt><trkpt lat="42.632219133320916" lon="11.9960304600005"><ele>313.0</ele><time>2026-04-11T14:35:48.997Z</time></trkpt><trkpt lat="42.63227232776215" lon="11.99611000162648"><ele>314.6666666666667</ele><time>2026-04-11T14:35:51.997Z</time></trkpt><trkpt lat="42.6323115130235" lon="11.996189659482726"><ele>316.3333333333333</ele><time>2026-04-11T14:35:54.999Z</time></trkpt><trkpt lat="42.63233749886359" lon="11.996288397722243"><ele>318.0</ele><time>2026-04-11T14:35:58Z</time></trkpt><trkpt lat="42.63236931938244" lon="11.996370978219659"><ele>318.0</ele><time>2026-04-11T14:36:01Z</time></trkpt><trkpt lat="42.6324057634472" lon="11.996453812636295"><ele>318.0</ele><time>2026-04-11T14:36:04Z</time></trkpt><trkpt lat="42.63242217565136" lon="11.996564240102597"><ele>318.0</ele><time>2026-04-11T14:36:08Z</time></trkpt><trkpt lat="42.63245430973317" lon="11.996645761987212"><ele>318.0</ele><time>2026-04-11T14:36:10.999Z</time></trkpt><trkpt lat="42.63246969158673" lon="11.996742339040937"><ele>318.0</ele><time>2026-04-11T14:36:15.999Z</time></trkpt><trkpt lat="42.63245054994654" lon="11.996837410912496"><ele>318.0</ele><time>2026-04-11T14:36:20.999Z</time></trkpt><trkpt lat="42.632432295845575" lon="11.996927944502154"><ele>318.0</ele><time>2026-04-11T14:36:25.999Z</time></trkpt><trkpt lat="42.632381859883566" lon="11.997001589485834"><ele>319.5</ele><time>2026-04-11T14:36:30.999Z</time></trkpt><trkpt lat="42.632323679778374" lon="11.99704508737825"><ele>321.0</ele><time>2026-04-11T14:36:34.999Z</time></trkpt><trkpt lat="42.63225996266474" lon="11.997078203336725"><ele>322.5</ele><time>2026-04-11T14:36:37.999Z</time></trkpt><trkpt lat="42.63218738934507" lon="11.997126257188235"><ele>324.0</ele><time>2026-04-11T14:36:40.999Z</time></trkpt><trkpt lat="42.63210745840245" lon="11.997185686135923"><ele>325.5</ele><time>2026-04-11T14:36:43.999Z</time></trkpt><trkpt lat="42.63203040395021" lon="11.997239231652022"><ele>327.0</ele><time>2026-04-11T14:36:46.999Z</time></trkpt><trkpt lat="42.63195541658031" lon="11.997287645977728"><ele>327.0</ele><time>2026-04-11T14:36:49.999Z</time></trkpt><trkpt lat="42.63187836559816" lon="11.997334333936884"><ele>327.0</ele><time>2026-04-11T14:36:52.999Z</time></trkpt><trkpt lat="42.63178693793019" lon="11.997376105186309"><ele>327.0</ele><time>2026-04-11T14:36:55.998Z</time></trkpt><trkpt lat="42.63171852721788" lon="11.99741423655958"><ele>327.0</ele><time>2026-04-11T14:36:57.998Z</time></trkpt><trkpt lat="42.631648861158354" lon="11.99744979694277"><ele>327.0</ele><time>2026-04-11T14:36:59.998Z</time></trkpt><trkpt lat="42.63157766827089" lon="11.997501223160471"><ele>327.0</ele><time>2026-04-11T14:37:01.998Z</time></trkpt><trkpt lat="42.63151161801749" lon="11.997540388288114"><ele>329.0</ele><time>2026-04-11T14:37:03.998Z</time></trkpt><trkpt lat="42.631437753665736" lon="11.997590954079888"><ele>331.0</ele><time>2026-04-11T14:37:05.998Z</time></trkpt><trkpt lat="42.63136376409594" lon="11.997633074730748"><ele>333.0</ele><time>2026-04-11T14:37:07.998Z</time></trkpt><trkpt lat="42.631295207353936" lon="11.997684024323542"><ele>335.0</ele><time>2026-04-11T14:37:09.998Z</time></trkpt><trkpt lat="42.63121724191592" lon="11.997731859439787"><ele>337.0</ele><time>2026-04-11T14:37:11.998Z</time></trkpt><trkpt lat="42.63114140175162" lon="11.997772449418987"><ele>339.0</ele><time>2026-04-11T14:37:13.998Z</time></trkpt><trkpt lat="42.63105502828029" lon="11.997817942213189"><ele>339.0</ele><time>2026-04-11T14:37:15.998Z</time></trkpt><trkpt lat="42.6309739264378" lon="11.997857804756272"><ele>339.0</ele><time>2026-04-11T14:37:17.998Z</time></trkpt><trkpt lat="42.63088803869387" lon="11.99790329040895"><ele>339.0</ele><time>2026-04-11T14:37:19.998Z</time></trkpt><trkpt lat="42.63080387680705" lon="11.997953547981691"><ele>339.0</ele><time>2026-04-11T14:37:21.998Z</time></trkpt><trkpt lat="42.63070980093818" lon="11.99798545660087"><ele>339.0</ele><time>2026-04-11T14:37:23.998Z</time></trkpt><trkpt lat="42.63061024687375" lon="11.998023794154884"><ele>339.0</ele><time>2026-04-11T14:37:25.998Z</time></trkpt><trkpt lat="42.63051443016381" lon="11.998059484197437"><ele>339.0</ele><time>2026-04-11T14:37:27.998Z</time></trkpt><trkpt lat="42.63042417938844" lon="11.99808594315038"><ele>339.0</ele><time>2026-04-11T14:37:29.998Z</time></trkpt><trkpt lat="42.630345178672485" lon="11.998118390112273"><ele>339.0</ele><time>2026-04-11T14:37:31.998Z</time></trkpt><trkpt lat="42.63026356165452" lon="11.998149720380967"><ele>339.0</ele><time>2026-04-11T14:37:33.998Z</time></trkpt><trkpt lat="42.63018027609153" lon="11.998173375803315"><ele>339.0</ele><time>2026-04-11T14:37:35.998Z</time></trkpt><trkpt lat="42.63009899728303" lon="11.998194040135084"><ele>336.8333333333333</ele><time>2026-04-11T14:37:37.998Z</time></trkpt><trkpt lat="42.63001007844908" lon="11.99822024766878"><ele>334.6666666666667</ele><time>2026-04-11T14:37:39.998Z</time></trkpt><trkpt lat="42.629920283215725" lon="11.99823834364744"><ele>332.5</ele><time>2026-04-11T14:37:41.997Z</time></trkpt><trkpt lat="42.62983627069871" lon="11.998258114749408"><ele>330.33333333333337</ele><time>2026-04-11T14:37:43.997Z</time></trkpt><trkpt lat="42.62974921842433" lon="11.998262388983296"><ele>328.1666666666667</ele><time>2026-04-11T14:37:45.997Z</time></trkpt><trkpt lat="42.62966224307071" lon="11.998271225136733"><ele>326.0</ele><time>2026-04-11T14:37:47.997Z</time></trkpt><trkpt lat="42.62957409766699" lon="11.998283483046642"><ele>326.0</ele><time>2026-04-11T14:37:49.997Z</time></trkpt><trkpt lat="42.629493474157584" lon="11.99829020455921"><ele>326.0</ele><time>2026-04-11T14:37:51.997Z</time></trkpt><trkpt lat="42.629413807533915" lon="11.998275955735878"><ele>326.0</ele><time>2026-04-11T14:37:53.997Z</time></trkpt><trkpt lat="42.62933704332816" lon="11.99828660509378"><ele>326.0</ele><time>2026-04-11T14:37:55.997Z</time></trkpt><trkpt lat="42.62926118360036" lon="11.998290636389966"><ele>326.0</ele><time>2026-04-11T14:37:57.997Z</time></trkpt><trkpt lat="42.629193717144176" lon="11.998303837503048"><ele>326.0</ele><time>2026-04-11T14:38:00Z</time></trkpt><trkpt lat="42.6291219167526" lon="11.998322891254636"><ele>327.1666666666667</ele><time>2026-04-11T14:38:02Z</time></trkpt><trkpt lat="42.6290456882907" lon="11.998341763074565"><ele>328.33333333333337</ele><time>2026-04-11T14:38:04Z</time></trkpt><trkpt lat="42.62897127143264" lon="11.998355477955775"><ele>329.5</ele><time>2026-04-11T14:38:06Z</time></trkpt><trkpt lat="42.62888784658446" lon="11.998377824653453"><ele>330.6666666666667</ele><time>2026-04-11T14:38:08Z</time></trkpt><trkpt lat="42.628805703677536" lon="11.998398300617291"><ele>331.8333333333333</ele><time>2026-04-11T14:38:10Z</time></trkpt><trkpt lat="42.6287215806255" lon="11.998423601337954"><ele>333.0</ele><time>2026-04-11T14:38:12Z</time></trkpt><trkpt lat="42.62864199262093" lon="11.9984519775575"><ele>333.0</ele><time>2026-04-11T14:38:14Z</time></trkpt><trkpt lat="42.628564734033624" lon="11.99846819474595"><ele>333.0</ele><time>2026-04-11T14:38:16Z</time></trkpt><trkpt lat="42.628485819975495" lon="11.998483903253524"><ele>333.0</ele><time>2026-04-11T14:38:17.999Z</time></trkpt><trkpt lat="42.62840027971238" lon="11.99850990135128"><ele>333.0</ele><time>2026-04-11T14:38:19.999Z</time></trkpt><trkpt lat="42.62831659502781" lon="11.99853775276352"><ele>333.0</ele><time>2026-04-11T14:38:21.999Z</time></trkpt><trkpt lat="42.62823555226786" lon="11.998577486342251"><ele>333.0</ele><time>2026-04-11T14:38:23.999Z</time></trkpt><trkpt lat="42.628163097152026" lon="11.99861795870173"><ele>333.0</ele><time>2026-04-11T14:38:25.999Z</time></trkpt><trkpt lat="42.628091436419425" lon="11.998645200102157"><ele>333.0</ele><time>2026-04-11T14:38:27.999Z</time></trkpt><trkpt lat="42.62801610562438" lon="11.998692769349452"><ele>333.0</ele><time>2026-04-11T14:38:29.999Z</time></trkpt><trkpt lat="42.62794661022175" lon="11.998731447809316"><ele>333.0</ele><time>2026-04-11T14:38:31.999Z</time></trkpt><trkpt lat="42.6278709558041" lon="11.998758113159035"><ele>333.0</ele><time>2026-04-11T14:38:33.999Z</time></trkpt><trkpt lat="42.62779913141472" lon="11.99879053389902"><ele>333.0</ele><time>2026-04-11T14:38:35.999Z</time></trkpt><trkpt lat="42.627722014526526" lon="11.998827347326142"><ele>332.14285714285717</ele><time>2026-04-11T14:38:37.999Z</time></trkpt><trkpt lat="42.627648784899414" lon="11.998848483615667"><ele>331.2857142857143</ele><time>2026-04-11T14:38:39.999Z</time></trkpt><trkpt lat="42.62757930992745" lon="11.998886474788428"><ele>330.42857142857144</ele><time>2026-04-11T14:38:41.999Z</time></trkpt><trkpt lat="42.62751434755116" lon="11.998913136745193"><ele>329.57142857142856</ele><time>2026-04-11T14:38:43.999Z</time></trkpt><trkpt lat="42.62744296823316" lon="11.998938218794747"><ele>328.7142857142857</ele><time>2026-04-11T14:38:45.999Z</time></trkpt><trkpt lat="42.62737284392718" lon="11.99896793288844"><ele>327.85714285714283</ele><time>2026-04-11T14:38:47.999Z</time></trkpt><trkpt lat="42.627303313313575" lon="11.998993907296162"><ele>327.0</ele><time>2026-04-11T14:38:49.999Z</time></trkpt><trkpt lat="42.627233937321456" lon="11.999017493830651"><ele>327.0</ele><time>2026-04-11T14:38:51.999Z</time></trkpt><trkpt lat="42.62716546160538" lon="11.999039438023429"><ele>327.0</ele><time>2026-04-11T14:38:53.999Z</time></trkpt><trkpt lat="42.62709983740661" lon="11.999064675037493"><ele>327.0</ele><time>2026-04-11T14:38:55.999Z</time></trkpt><trkpt lat="42.62703431196748" lon="11.999094176613792"><ele>327.0</ele><time>2026-04-11T14:38:57.999Z</time></trkpt><trkpt lat="42.62694303455307" lon="11.999127794542934"><ele>327.0</ele><time>2026-04-11T14:39:00.999Z</time></trkpt><trkpt lat="42.62687731399645" lon="11.999150677676331"><ele>327.0</ele><time>2026-04-11T14:39:02.999Z</time></trkpt><trkpt lat="42.62681394849024" lon="11.999175771134476"><ele>327.0</ele><time>2026-04-11T14:39:04.998Z</time></trkpt><trkpt lat="42.626749829319174" lon="11.999199083958636"><ele>330.7142857142857</ele><time>2026-04-11T14:39:06.998Z</time></trkpt><trkpt lat="42.62668340570893" lon="11.9992234897763"><ele>334.42857142857144</ele><time>2026-04-11T14:39:08.998Z</time></trkpt><trkpt lat="42.62661450860406" lon="11.999243017025808"><ele>338.1428571428571</ele><time>2026-04-11T14:39:10.998Z</time></trkpt><trkpt lat="42.62654346885997" lon="11.999255376234656"><ele>341.8571428571429</ele><time>2026-04-11T14:39:12.998Z</time></trkpt><trkpt lat="42.62647087595436" lon="11.999271493418886"><ele>345.5714285714286</ele><time>2026-04-11T14:39:14.998Z</time></trkpt><trkpt lat="42.626390047371224" lon="11.999279017581637"><ele>349.2857142857143</ele><time>2026-04-11T14:39:16.998Z</time></trkpt><trkpt lat="42.62630621695616" lon="11.999285319305507"><ele>353.0</ele><time>2026-04-11T14:39:18.998Z</time></trkpt><trkpt lat="42.62622513468481" lon="11.999296886558671"><ele>353.0</ele><time>2026-04-11T14:39:20.998Z</time></trkpt><trkpt lat="42.626146779401765" lon="11.999304304070028"><ele>353.0</ele><time>2026-04-11T14:39:22.998Z</time></trkpt><trkpt lat="42.62605710586012" lon="11.999311610618665"><ele>353.0</ele><time>2026-04-11T14:39:24.998Z</time></trkpt><trkpt lat="42.625970055464336" lon="11.999306858056901"><ele>353.0</ele><time>2026-04-11T14:39:26.998Z</time></trkpt><trkpt lat="42.625883863995575" lon="11.999312261305509"><ele>353.0</ele><time>2026-04-11T14:39:28.998Z</time></trkpt><trkpt lat="42.625799838529936" lon="11.999314183397235"><ele>353.0</ele><time>2026-04-11T14:39:30.998Z</time></trkpt><trkpt lat="42.62571715433106" lon="11.999311016839647"><ele>351.57142857142856</ele><time>2026-04-11T14:39:32.998Z</time></trkpt><trkpt lat="42.625636729721094" lon="11.999315330862826"><ele>350.14285714285717</ele><time>2026-04-11T14:39:34.998Z</time></trkpt><trkpt lat="42.62555753916414" lon="11.999322741614508"><ele>348.7142857142857</ele><time>2026-04-11T14:39:36.998Z</time></trkpt><trkpt lat="42.625484059489565" lon="11.999326630474267"><ele>347.2857142857143</ele><time>2026-04-11T14:39:38.998Z</time></trkpt><trkpt lat="42.6254088475534" lon="11.99931960303025"><ele>345.8571428571429</ele><time>2026-04-11T14:39:40.998Z</time></trkpt><trkpt lat="42.625342329634115" lon="11.999317389159671"><ele>344.42857142857144</ele><time>2026-04-11T14:39:42.998Z</time></trkpt><trkpt lat="42.62527225493189" lon="11.999323771919746"><ele>343.0</ele><time>2026-04-11T14:39:44.998Z</time></trkpt><trkpt lat="42.62520415822835" lon="11.999322857321001"><ele>341.2857142857143</ele><time>2026-04-11T14:39:46.998Z</time></trkpt><trkpt lat="42.62513937134329" lon="11.999322533542168"><ele>339.57142857142856</ele><time>2026-04-11T14:39:48.998Z</time></trkpt><trkpt lat="42.625070334203016" lon="11.999326457688959"><ele>337.8571428571429</ele><time>2026-04-11T14:39:50.997Z</time></trkpt><trkpt lat="42.62500243426497" lon="11.999329224358744"><ele>336.1428571428571</ele><time>2026-04-11T14:39:52.997Z</time></trkpt><trkpt lat="42.62493629134265" lon="11.999324597840637"><ele>334.42857142857144</ele><time>2026-04-11T14:39:54.997Z</time></trkpt><trkpt lat="42.62487307730947" lon="11.99932797103854"><ele>332.7142857142857</ele><time>2026-04-11T14:39:56.997Z</time></trkpt><trkpt lat="42.6248080417555" lon="11.999334684072753"><ele>331.0</ele><time>2026-04-11T14:39:58.997Z</time></trkpt><trkpt lat="42.62474182005519" lon="11.999336716962391"><ele>331.0</ele><time>2026-04-11T14:40:00.997Z</time></trkpt><trkpt lat="42.62467494226366" lon="11.999344851361672"><ele>331.0</ele><time>2026-04-11T14:40:02.997Z</time></trkpt><trkpt lat="42.624604629008765" lon="11.999345508263561"><ele>331.0</ele><time>2026-04-11T14:40:04.997Z</time></trkpt><trkpt lat="42.62453478822075" lon="11.99934487756083"><ele>331.0</ele><time>2026-04-11T14:40:07Z</time></trkpt><trkpt lat="42.62446595414128" lon="11.999348314211986"><ele>331.0</ele><time>2026-04-11T14:40:09Z</time></trkpt><trkpt lat="42.62439632635369" lon="11.99935334933595"><ele>331.0</ele><time>2026-04-11T14:40:11Z</time></trkpt><trkpt lat="42.62432754000982" lon="11.999355694165626"><ele>331.0</ele><time>2026-04-11T14:40:13Z</time></trkpt><trkpt lat="42.62426135834244" lon="11.999349527964876"><ele>330.0</ele><time>2026-04-11T14:40:15Z</time></trkpt><trkpt lat="42.62415607060965" lon="11.999359538906988"><ele>329.0</ele><time>2026-04-11T14:40:18Z</time></trkpt><trkpt lat="42.62408998433602" lon="11.99936407618667"><ele>328.0</ele><time>2026-04-11T14:40:20Z</time></trkpt><trkpt lat="42.62401925577241" lon="11.99936513314327"><ele>327.0</ele><time>2026-04-11T14:40:22Z</time></trkpt><trkpt lat="42.62395216750923" lon="11.999362542938218"><ele>326.0</ele><time>2026-04-11T14:40:23.999Z</time></trkpt><trkpt lat="42.62388157814568" lon="11.999350711859236"><ele>325.0</ele><time>2026-04-11T14:40:25.999Z</time></trkpt><trkpt lat="42.623809414539636" lon="11.999346746432057"><ele>325.0</ele><time>2026-04-11T14:40:27.999Z</time></trkpt><trkpt lat="42.623739797379855" lon="11.999337896757607"><ele>325.0</ele><time>2026-04-11T14:40:29.999Z</time></trkpt><trkpt lat="42.623666209897934" lon="11.999314013211977"><ele>325.0</ele><time>2026-04-11T14:40:31.999Z</time></trkpt><trkpt lat="42.623588583067736" lon="11.999297393570803"><ele>325.0</ele><time>2026-04-11T14:40:33.999Z</time></trkpt><trkpt lat="42.62351061769079" lon="11.999264199893219"><ele>325.0</ele><time>2026-04-11T14:40:35.999Z</time></trkpt><trkpt lat="42.623427508871764" lon="11.999218362489069"><ele>325.0</ele><time>2026-04-11T14:40:37.999Z</time></trkpt><trkpt lat="42.62334243266526" lon="11.999162081586993"><ele>323.5</ele><time>2026-04-11T14:40:39.999Z</time></trkpt><trkpt lat="42.62325344175636" lon="11.99909973104586"><ele>322.0</ele><time>2026-04-11T14:40:41.999Z</time></trkpt><trkpt lat="42.623154486767966" lon="11.999013483716837"><ele>320.5</ele><time>2026-04-11T14:40:43.999Z</time></trkpt><trkpt lat="42.623057546398336" lon="11.998917906628408"><ele>319.0</ele><time>2026-04-11T14:40:45.999Z</time></trkpt><trkpt lat="42.62297285495675" lon="11.998814790448186"><ele>319.0</ele><time>2026-04-11T14:40:47.999Z</time></trkpt><trkpt lat="42.62288991111496" lon="11.998701455289162"><ele>319.0</ele><time>2026-04-11T14:40:49.999Z</time></trkpt><trkpt lat="42.62281791199165" lon="11.99858680652589"><ele>319.0</ele><time>2026-04-11T14:40:51.999Z</time></trkpt><trkpt lat="42.62275032635362" lon="11.998485394026707"><ele>319.0</ele><time>2026-04-11T14:40:53.999Z</time></trkpt><trkpt lat="42.62265454150115" lon="11.998403293766449"><ele>319.0</ele><time>2026-04-11T14:40:55.999Z</time></trkpt><trkpt lat="42.62256331824724" lon="11.998333470977576"><ele>318.59999999999997</ele><time>2026-04-11T14:40:57.999Z</time></trkpt><trkpt lat="42.62246036468594" lon="11.99827961735758"><ele>318.2</ele><time>2026-04-11T14:40:59.999Z</time></trkpt><trkpt lat="42.62236118041521" lon="11.998231995556853"><ele>317.79999999999995</ele><time>2026-04-11T14:41:01.999Z</time></trkpt><trkpt lat="42.62224457129165" lon="11.99821351291532"><ele>317.4</ele><time>2026-04-11T14:41:03.999Z</time></trkpt><trkpt lat="42.62213323855174" lon="11.998199246933162"><ele>317.0</ele><time>2026-04-11T14:41:05.999Z</time></trkpt><trkpt lat="42.62202602045169" lon="11.998182994703972"><ele>317.2</ele><time>2026-04-11T14:41:07.999Z</time></trkpt><trkpt lat="42.621914566646225" lon="11.998173715163697"><ele>317.4</ele><time>2026-04-11T14:41:09.998Z</time></trkpt><trkpt lat="42.62181193050984" lon="11.998162082063807"><ele>317.6</ele><time>2026-04-11T14:41:11.998Z</time></trkpt><trkpt lat="42.621709706003564" lon="11.998152186109005"><ele>317.8</ele><time>2026-04-11T14:41:13.998Z</time></trkpt><trkpt lat="42.62162088971447" lon="11.998146455217013"><ele>318.0</ele><time>2026-04-11T14:41:15.998Z</time></trkpt><trkpt lat="42.62153989008096" lon="11.99813365697391"><ele>318.0</ele><time>2026-04-11T14:41:17.998Z</time></trkpt><trkpt lat="42.62146088152959" lon="11.998122230278604"><ele>318.0</ele><time>2026-04-11T14:41:19.998Z</time></trkpt><trkpt lat="42.62138945458602" lon="11.998113565676814"><ele>318.0</ele><time>2026-04-11T14:41:21.998Z</time></trkpt><trkpt lat="42.62131074421938" lon="11.998124347763197"><ele>318.0</ele><time>2026-04-11T14:41:23.998Z</time></trkpt><trkpt lat="42.62124584400482" lon="11.998110890831525"><ele>318.0</ele><time>2026-04-11T14:41:25.998Z</time></trkpt><trkpt lat="42.62117190674295" lon="11.99810104224293"><ele>318.0</ele><time>2026-04-11T14:41:27.998Z</time></trkpt><trkpt lat="42.621107954514876" lon="11.998100722322224"><ele>318.0</ele><time>2026-04-11T14:41:29.998Z</time></trkpt><trkpt lat="42.62104223189733" lon="11.998105694579678"><ele>318.1428571428571</ele><time>2026-04-11T14:41:31.998Z</time></trkpt><trkpt lat="42.620977658913574" lon="11.998102604331452"><ele>318.28571428571433</ele><time>2026-04-11T14:41:33.998Z</time></trkpt><trkpt lat="42.62088571947916" lon="11.998094910820152"><ele>318.42857142857144</ele><time>2026-04-11T14:41:36.998Z</time></trkpt><trkpt lat="42.62079732962043" lon="11.998079451563223"><ele>318.57142857142856</ele><time>2026-04-11T14:41:39.998Z</time></trkpt><trkpt lat="42.62073381915779" lon="11.99806471912117"><ele>318.71428571428567</ele><time>2026-04-11T14:41:41.998Z</time></trkpt><trkpt lat="42.62067066152928" lon="11.998056633964932"><ele>318.8571428571429</ele><time>2026-04-11T14:41:43.998Z</time></trkpt><trkpt lat="42.62060278342263" lon="11.998054203554384"><ele>319.0</ele><time>2026-04-11T14:41:45.998Z</time></trkpt><trkpt lat="42.620509356267156" lon="11.998045810586428"><ele>319.0</ele><time>2026-04-11T14:41:48.998Z</time></trkpt><trkpt lat="42.62044373495735" lon="11.998039616541199"><ele>319.0</ele><time>2026-04-11T14:41:50.998Z</time></trkpt><trkpt lat="42.620365036399185" lon="11.998033492486556"><ele>319.0</ele><time>2026-04-11T14:41:52.998Z</time></trkpt><trkpt lat="42.62028209101568" lon="11.998032082334761"><ele>319.0</ele><time>2026-04-11T14:41:54.997Z</time></trkpt><trkpt lat="42.62019042784576" lon="11.998009172288018"><ele>319.0</ele><time>2026-04-11T14:41:56.997Z</time></trkpt><trkpt lat="42.62009139941842" lon="11.997977180888784"><ele>319.0</ele><time>2026-04-11T14:41:58.997Z</time></trkpt><trkpt lat="42.61998550968361" lon="11.99793679393511"><ele>319.79999999999995</ele><time>2026-04-11T14:42:00.997Z</time></trkpt><trkpt lat="42.619887002085825" lon="11.997876705430293"><ele>320.59999999999997</ele><time>2026-04-11T14:42:02.997Z</time></trkpt><trkpt lat="42.61978852005208" lon="11.99780602706699"><ele>321.4</ele><time>2026-04-11T14:42:04.997Z</time></trkpt><trkpt lat="42.61969224204604" lon="11.9977285084785"><ele>322.2</ele><time>2026-04-11T14:42:06.997Z</time></trkpt><trkpt lat="42.619593541594675" lon="11.99764907880696"><ele>323.0</ele><time>2026-04-11T14:42:08.997Z</time></trkpt><trkpt lat="42.61949288088413" lon="11.997556294258562"><ele>321.83333333333337</ele><time>2026-04-11T14:42:10.997Z</time></trkpt><trkpt lat="42.61938737729116" lon="11.997468452435948"><ele>320.6666666666667</ele><time>2026-04-11T14:42:12.997Z</time></trkpt><trkpt lat="42.61928259962549" lon="11.997379328795747"><ele>319.5</ele><time>2026-04-11T14:42:14.997Z</time></trkpt><trkpt lat="42.619227651998855" lon="11.997332184781849"><ele>318.3333333333333</ele><time>2026-04-11T14:42:15.997Z</time></trkpt><trkpt lat="42.619169327552974" lon="11.997290819339156"><ele>317.16666666666663</ele><time>2026-04-11T14:42:16.997Z</time></trkpt><trkpt lat="42.61911292288703" lon="11.997252287385374"><ele>316.0</ele><time>2026-04-11T14:42:17.997Z</time></trkpt><trkpt lat="42.61905256450377" lon="11.997218883121883"><ele>316.0</ele><time>2026-04-11T14:42:18.997Z</time></trkpt><trkpt lat="42.61893153807223" lon="11.997176231442353"><ele>316.0</ele><time>2026-04-11T14:42:20.997Z</time></trkpt><trkpt lat="42.618870610482375" lon="11.997153519821834"><ele>316.0</ele><time>2026-04-11T14:42:21.997Z</time></trkpt><trkpt lat="42.618808499469395" lon="11.997135563152316"><ele>316.0</ele><time>2026-04-11T14:42:22.997Z</time></trkpt><trkpt lat="42.61874529629897" lon="11.99712222570403"><ele>316.0</ele><time>2026-04-11T14:42:23.997Z</time></trkpt><trkpt lat="42.61862305514364" lon="11.997087548168698"><ele>316.0</ele><time>2026-04-11T14:42:25.997Z</time></trkpt><trkpt lat="42.61855875100351" lon="11.997064861205057"><ele>316.0</ele><time>2026-04-11T14:42:26.997Z</time></trkpt><trkpt lat="42.61843962434256" lon="11.997035573889844"><ele>316.0</ele><time>2026-04-11T14:42:28.997Z</time></trkpt><trkpt lat="42.618316639686256" lon="11.99699914762749"><ele>316.0</ele><time>2026-04-11T14:42:30.997Z</time></trkpt><trkpt lat="42.61820049609123" lon="11.996974273124772"><ele>316.0</ele><time>2026-04-11T14:42:32.997Z</time></trkpt><trkpt lat="42.618085446027145" lon="11.996940273385693"><ele>316.0</ele><time>2026-04-11T14:42:34.997Z</time></trkpt><trkpt lat="42.617974562595684" lon="11.996909982396458"><ele>316.0</ele><time>2026-04-11T14:42:36.997Z</time></trkpt><trkpt lat="42.617878062866346" lon="11.9968869151946"><ele>316.0</ele><time>2026-04-11T14:42:38.997Z</time></trkpt><trkpt lat="42.61776782953419" lon="11.996854166956972"><ele>316.0</ele><time>2026-04-11T14:42:40.996Z</time></trkpt><trkpt lat="42.617666197011495" lon="11.996820626024336"><ele>316.0</ele><time>2026-04-11T14:42:42.996Z</time></trkpt><trkpt lat="42.617551242604186" lon="11.99679127171698"><ele>316.25</ele><time>2026-04-11T14:42:44.996Z</time></trkpt><trkpt lat="42.61743840777893" lon="11.996764589705473"><ele>316.5</ele><time>2026-04-11T14:42:46.996Z</time></trkpt><trkpt lat="42.617323755176756" lon="11.996734735772241"><ele>316.75</ele><time>2026-04-11T14:42:48.996Z</time></trkpt><trkpt lat="42.617215306776956" lon="11.996705224549729"><ele>317.0</ele><time>2026-04-11T14:42:50.996Z</time></trkpt><trkpt lat="42.617097948314075" lon="11.996675810442987"><ele>316.0</ele><time>2026-04-11T14:42:52.996Z</time></trkpt><trkpt lat="42.61698064187627" lon="11.996653928737521"><ele>315.0</ele><time>2026-04-11T14:42:54.996Z</time></trkpt><trkpt lat="42.61687990133776" lon="11.996615637032665"><ele>314.0</ele><time>2026-04-11T14:42:56.996Z</time></trkpt><trkpt lat="42.61676830741682" lon="11.996570735027056"><ele>313.0</ele><time>2026-04-11T14:42:58.996Z</time></trkpt><trkpt lat="42.616662629294154" lon="11.996525210866215"><ele>313.0</ele><time>2026-04-11T14:43:00.996Z</time></trkpt><trkpt lat="42.61656942201439" lon="11.996455344804227"><ele>313.0</ele><time>2026-04-11T14:43:02.996Z</time></trkpt><trkpt lat="42.61646884020137" lon="11.996387959581407"><ele>313.0</ele><time>2026-04-11T14:43:04.996Z</time></trkpt><trkpt lat="42.61637248632924" lon="11.996319331066893"><ele>313.0</ele><time>2026-04-11T14:43:06.996Z</time></trkpt><trkpt lat="42.6162770836154" lon="11.996246068891818"><ele>313.0</ele><time>2026-04-11T14:43:08.996Z</time></trkpt><trkpt lat="42.61618091956745" lon="11.996173433845213"><ele>312.6</ele><time>2026-04-11T14:43:10.996Z</time></trkpt><trkpt lat="42.616086040790414" lon="11.996093076851524"><ele>312.20000000000005</ele><time>2026-04-11T14:43:12.996Z</time></trkpt><trkpt lat="42.616001391648815" lon="11.996011256661268"><ele>311.8</ele><time>2026-04-11T14:43:14.996Z</time></trkpt><trkpt lat="42.61591728354736" lon="11.995932642121698"><ele>311.40000000000003</ele><time>2026-04-11T14:43:16.996Z</time></trkpt><trkpt lat="42.615836821135936" lon="11.995872883389415"><ele>311.0</ele><time>2026-04-11T14:43:18.996Z</time></trkpt><trkpt lat="42.61574947868426" lon="11.995831387634933"><ele>311.0</ele><time>2026-04-11T14:43:20.996Z</time></trkpt><trkpt lat="42.61566132330856" lon="11.995808307946724"><ele>311.0</ele><time>2026-04-11T14:43:22.996Z</time></trkpt><trkpt lat="42.61557503032012" lon="11.995811254119296"><ele>311.0</ele><time>2026-04-11T14:43:24.996Z</time></trkpt><trkpt lat="42.615473486070066" lon="11.995842011921729"><ele>311.0</ele><time>2026-04-11T14:43:26.995Z</time></trkpt><trkpt lat="42.61538478866215" lon="11.995916290045578"><ele>311.0</ele><time>2026-04-11T14:43:28.995Z</time></trkpt><trkpt lat="42.615297972787346" lon="11.996013511752672"><ele>311.8</ele><time>2026-04-11T14:43:30.995Z</time></trkpt><trkpt lat="42.615214722269016" lon="11.996122553474663"><ele>312.6</ele><time>2026-04-11T14:43:32.995Z</time></trkpt><trkpt lat="42.61513513313333" lon="11.996221233027889"><ele>313.4</ele><time>2026-04-11T14:43:34.995Z</time></trkpt><trkpt lat="42.615061076588766" lon="11.996316100092564"><ele>314.2</ele><time>2026-04-11T14:43:36.995Z</time></trkpt><trkpt lat="42.614978045225556" lon="11.99640138217578"><ele>315.0</ele><time>2026-04-11T14:43:38.995Z</time></trkpt><trkpt lat="42.61490004186686" lon="11.996476387462605"><ele>315.0</ele><time>2026-04-11T14:43:40.995Z</time></trkpt><trkpt lat="42.61482510601205" lon="11.996548088879747"><ele>315.0</ele><time>2026-04-11T14:43:42.995Z</time></trkpt><trkpt lat="42.61475330969138" lon="11.996616364750679"><ele>315.0</ele><time>2026-04-11T14:43:44.995Z</time></trkpt><trkpt lat="42.61467671665512" lon="11.996672794309498"><ele>315.0</ele><time>2026-04-11T14:43:46.995Z</time></trkpt><trkpt lat="42.614599278114824" lon="11.99673351978246"><ele>315.0</ele><time>2026-04-11T14:43:48.995Z</time></trkpt><trkpt lat="42.61452073490265" lon="11.996791082961167"><ele>315.0</ele><time>2026-04-11T14:43:50.995Z</time></trkpt><trkpt lat="42.61444007797283" lon="11.996851831643681"><ele>316.6</ele><time>2026-04-11T14:43:52.995Z</time></trkpt><trkpt lat="42.61435077926645" lon="11.996911283573352"><ele>318.2</ele><time>2026-04-11T14:43:54.995Z</time></trkpt><trkpt lat="42.6142702266099" lon="11.996983888037532"><ele>319.79999999999995</ele><time>2026-04-11T14:43:56.995Z</time></trkpt><trkpt lat="42.61417929150612" lon="11.997037071911317"><ele>321.4</ele><time>2026-04-11T14:43:58.995Z</time></trkpt><trkpt lat="42.61409527151263" lon="11.997082935475555"><ele>323.0</ele><time>2026-04-11T14:44:00.995Z</time></trkpt><trkpt lat="42.61400371820667" lon="11.997134360743079"><ele>323.0</ele><time>2026-04-11T14:44:02.995Z</time></trkpt><trkpt lat="42.613911304590694" lon="11.997185694099134"><ele>323.0</ele><time>2026-04-11T14:44:04.995Z</time></trkpt><trkpt lat="42.61381754288342" lon="11.997238800946846"><ele>323.0</ele><time>2026-04-11T14:44:06.995Z</time></trkpt><trkpt lat="42.61372133312675" lon="11.997278099266161"><ele>323.0</ele><time>2026-04-11T14:44:08.995Z</time></trkpt><trkpt lat="42.61362565742161" lon="11.9973163967088"><ele>323.0</ele><time>2026-04-11T14:44:10.995Z</time></trkpt><trkpt lat="42.613539292351156" lon="11.997354639905312"><ele>321.5</ele><time>2026-04-11T14:44:12.994Z</time></trkpt><trkpt lat="42.61344777405457" lon="11.99739163347989"><ele>320.0</ele><time>2026-04-11T14:44:14.994Z</time></trkpt><trkpt lat="42.613359612370445" lon="11.99742261719315"><ele>318.5</ele><time>2026-04-11T14:44:16.994Z</time></trkpt><trkpt lat="42.61326696917429" lon="11.99745001624711"><ele>317.0</ele><time>2026-04-11T14:44:18.994Z</time></trkpt><trkpt lat="42.61318081200722" lon="11.997473967664211"><ele>315.5</ele><time>2026-04-11T14:44:20.994Z</time></trkpt><trkpt lat="42.613103674243845" lon="11.997495308272997"><ele>314.0</ele><time>2026-04-11T14:44:22.994Z</time></trkpt><trkpt lat="42.61301725205243" lon="11.997505934322385"><ele>318.33333333333337</ele><time>2026-04-11T14:44:24.994Z</time></trkpt><trkpt lat="42.61293834310853" lon="11.997517646167918"><ele>322.6666666666667</ele><time>2026-04-11T14:44:26.994Z</time></trkpt><trkpt lat="42.612856329618324" lon="11.99752297709842"><ele>327.0</ele><time>2026-04-11T14:44:28.994Z</time></trkpt><trkpt lat="42.612783468182094" lon="11.99753162839181"><ele>331.3333333333333</ele><time>2026-04-11T14:44:30.994Z</time></trkpt><trkpt lat="42.612705058964906" lon="11.997531134447343"><ele>335.66666666666663</ele><time>2026-04-11T14:44:32.994Z</time></trkpt><trkpt lat="42.612620678344065" lon="11.997529965553541"><ele>340.0</ele><time>2026-04-11T14:44:34.994Z</time></trkpt><trkpt lat="42.61254702421774" lon="11.9975208008723"><ele>335.66666666666663</ele><time>2026-04-11T14:44:36.994Z</time></trkpt><trkpt lat="42.6124683240399" lon="11.997501666115761"><ele>331.3333333333333</ele><time>2026-04-11T14:44:38.994Z</time></trkpt><trkpt lat="42.612395254916514" lon="11.997485849600091"><ele>327.0</ele><time>2026-04-11T14:44:40.994Z</time></trkpt><trkpt lat="42.612323298608665" lon="11.997456550922633"><ele>322.6666666666667</ele><time>2026-04-11T14:44:42.994Z</time></trkpt><trkpt lat="42.612251827507976" lon="11.997422876093767"><ele>318.33333333333337</ele><time>2026-04-11T14:44:44.994Z</time></trkpt><trkpt lat="42.61217608720177" lon="11.99739769344196"><ele>314.0</ele><time>2026-04-11T14:44:46.994Z</time></trkpt><trkpt lat="42.61210331611576" lon="11.997367105812227"><ele>314.0</ele><time>2026-04-11T14:44:48.994Z</time></trkpt><trkpt lat="42.612028587600456" lon="11.997332272649153"><ele>314.0</ele><time>2026-04-11T14:44:50.994Z</time></trkpt><trkpt lat="42.611954513975235" lon="11.997291552408358"><ele>314.0</ele><time>2026-04-11T14:44:52.994Z</time></trkpt><trkpt lat="42.611884219319606" lon="11.997248018996746"><ele>314.0</ele><time>2026-04-11T14:44:54.994Z</time></trkpt><trkpt lat="42.61181200865526" lon="11.997211487638662"><ele>314.0</ele><time>2026-04-11T14:44:56.994Z</time></trkpt><trkpt lat="42.611738383250945" lon="11.997175524335505"><ele>314.0</ele><time>2026-04-11T14:44:58.993Z</time></trkpt><trkpt lat="42.611662389780996" lon="11.997134459564158"><ele>315.5</ele><time>2026-04-11T14:45:00.993Z</time></trkpt><trkpt lat="42.61157986939153" lon="11.997090762511922"><ele>317.0</ele><time>2026-04-11T14:45:02.993Z</time></trkpt><trkpt lat="42.61149940202787" lon="11.99704974617225"><ele>318.5</ele><time>2026-04-11T14:45:04.993Z</time></trkpt><trkpt lat="42.61141463667299" lon="11.99700891217496"><ele>320.0</ele><time>2026-04-11T14:45:06.993Z</time></trkpt><trkpt lat="42.61133168820358" lon="11.99696217797355"><ele>321.5</ele><time>2026-04-11T14:45:08.993Z</time></trkpt><trkpt lat="42.611249736194864" lon="11.996916177144373"><ele>323.0</ele><time>2026-04-11T14:45:10.993Z</time></trkpt><trkpt lat="42.61116391092272" lon="11.99687811213109"><ele>324.33333333333337</ele><time>2026-04-11T14:45:12.993Z</time></trkpt><trkpt lat="42.61108710882674" lon="11.996835912850102"><ele>325.6666666666667</ele><time>2026-04-11T14:45:14.993Z</time></trkpt><trkpt lat="42.61100395855817" lon="11.996794558610125"><ele>327.0</ele><time>2026-04-11T14:45:16.993Z</time></trkpt><trkpt lat="42.610920645185736" lon="11.996774772943224"><ele>328.3333333333333</ele><time>2026-04-11T14:45:18.993Z</time></trkpt><trkpt lat="42.61083547617426" lon="11.996758636454956"><ele>329.66666666666663</ele><time>2026-04-11T14:45:20.993Z</time></trkpt><trkpt lat="42.61074837327108" lon="11.996746857566865"><ele>331.0</ele><time>2026-04-11T14:45:22.993Z</time></trkpt><trkpt lat="42.61065016686239" lon="11.996757319101048"><ele>331.0</ele><time>2026-04-11T14:45:24.993Z</time></trkpt><trkpt lat="42.610557916699904" lon="11.996748172340338"><ele>331.0</ele><time>2026-04-11T14:45:26.993Z</time></trkpt><trkpt lat="42.610466044421564" lon="11.996746678181465"><ele>331.0</ele><time>2026-04-11T14:45:28.993Z</time></trkpt><trkpt lat="42.610372937409394" lon="11.99676419192229"><ele>331.0</ele><time>2026-04-11T14:45:30.993Z</time></trkpt><trkpt lat="42.61027427621551" lon="11.996765293850194"><ele>331.0</ele><time>2026-04-11T14:45:32.993Z</time></trkpt><trkpt lat="42.610173099117354" lon="11.9967672725698"><ele>331.6</ele><time>2026-04-11T14:45:34.993Z</time></trkpt><trkpt lat="42.610079919493664" lon="11.99677775351251"><ele>332.20000000000005</ele><time>2026-04-11T14:45:36.993Z</time></trkpt><trkpt lat="42.60998033216699" lon="11.996774256972104"><ele>332.79999999999995</ele><time>2026-04-11T14:45:38.993Z</time></trkpt><trkpt lat="42.60989365989124" lon="11.996778264362197"><ele>333.4</ele><time>2026-04-11T14:45:40.993Z</time></trkpt><trkpt lat="42.60980706485535" lon="11.996792554642715"><ele>334.0</ele><time>2026-04-11T14:45:42.993Z</time></trkpt><trkpt lat="42.60970533712441" lon="11.996790561470215"><ele>334.0</ele><time>2026-04-11T14:45:44.992Z</time></trkpt><trkpt lat="42.60961400569071" lon="11.996785761438522"><ele>334.0</ele><time>2026-04-11T14:45:46.992Z</time></trkpt><trkpt lat="42.609520878784586" lon="11.996790231301384"><ele>334.0</ele><time>2026-04-11T14:45:48.992Z</time></trkpt><trkpt lat="42.609441241342985" lon="11.996810831375097"><ele>334.0</ele><time>2026-04-11T14:45:50.992Z</time></trkpt><trkpt lat="42.60934779841523" lon="11.996801363789938"><ele>334.0</ele><time>2026-04-11T14:45:52.992Z</time></trkpt><trkpt lat="42.609262603835326" lon="11.996785004859458"><ele>334.0</ele><time>2026-04-11T14:45:54.992Z</time></trkpt><trkpt lat="42.60918429046804" lon="11.99678820943022"><ele>332.1428571428571</ele><time>2026-04-11T14:45:56.992Z</time></trkpt><trkpt lat="42.609108513074816" lon="11.99678060309427"><ele>330.2857142857143</ele><time>2026-04-11T14:45:58.992Z</time></trkpt><trkpt lat="42.609035656199964" lon="11.99676750001209"><ele>328.42857142857144</ele><time>2026-04-11T14:46:00.992Z</time></trkpt><trkpt lat="42.60896445707229" lon="11.996759012397934"><ele>326.57142857142856</ele><time>2026-04-11T14:46:02.992Z</time></trkpt><trkpt lat="42.6088946850968" lon="11.996748577798625"><ele>324.7142857142857</ele><time>2026-04-11T14:46:04.992Z</time></trkpt><trkpt lat="42.60882835789206" lon="11.996736403290505"><ele>322.85714285714283</ele><time>2026-04-11T14:46:06.992Z</time></trkpt><trkpt lat="42.60876216992931" lon="11.99673297594777"><ele>321.0</ele><time>2026-04-11T14:46:08.992Z</time></trkpt><trkpt lat="42.60869571883529" lon="11.996726746519888"><ele>320.2857142857143</ele><time>2026-04-11T14:46:10.992Z</time></trkpt><trkpt lat="42.60862794407113" lon="11.996718135652044"><ele>319.57142857142856</ele><time>2026-04-11T14:46:12.992Z</time></trkpt><trkpt lat="42.608562599205285" lon="11.996709981182443"><ele>318.8571428571429</ele><time>2026-04-11T14:46:14.992Z</time></trkpt><trkpt lat="42.60849002483981" lon="11.996702079571696"><ele>318.1428571428571</ele><time>2026-04-11T14:46:16.992Z</time></trkpt><trkpt lat="42.60841672136172" lon="11.996691752246175"><ele>317.42857142857144</ele><time>2026-04-11T14:46:18.992Z</time></trkpt><trkpt lat="42.60834798359701" lon="11.996681995249755"><ele>316.7142857142857</ele><time>2026-04-11T14:46:20.992Z</time></trkpt><trkpt lat="42.608280564497136" lon="11.996671562813953"><ele>316.0</ele><time>2026-04-11T14:46:22.992Z</time></trkpt><trkpt lat="42.60821233383157" lon="11.99666213263259"><ele>315.42857142857144</ele><time>2026-04-11T14:46:24.992Z</time></trkpt><trkpt lat="42.60814241794988" lon="11.996657674577493"><ele>314.8571428571429</ele><time>2026-04-11T14:46:26.992Z</time></trkpt><trkpt lat="42.60806767756813" lon="11.996644294892706"><ele>314.28571428571433</ele><time>2026-04-11T14:46:28.992Z</time></trkpt><trkpt lat="42.60799949374468" lon="11.996639692338462"><ele>313.7142857142857</ele><time>2026-04-11T14:46:30.991Z</time></trkpt><trkpt lat="42.60792578549853" lon="11.996632991886603"><ele>313.1428571428571</ele><time>2026-04-11T14:46:32.991Z</time></trkpt><trkpt lat="42.60784950405808" lon="11.996623661481127"><ele>312.5714285714286</ele><time>2026-04-11T14:46:34.991Z</time></trkpt><trkpt lat="42.60777561318802" lon="11.99662479931926"><ele>312.0</ele><time>2026-04-11T14:46:36.991Z</time></trkpt><trkpt lat="42.60769812618197" lon="11.996616378018485"><ele>312.0</ele><time>2026-04-11T14:46:38.991Z</time></trkpt><trkpt lat="42.607621471727605" lon="11.99660312558768"><ele>312.0</ele><time>2026-04-11T14:46:40.991Z</time></trkpt><trkpt lat="42.60754442506332" lon="11.996594846769996"><ele>312.0</ele><time>2026-04-11T14:46:42.991Z</time></trkpt><trkpt lat="42.60747134916256" lon="11.99658607073238"><ele>312.0</ele><time>2026-04-11T14:46:44.991Z</time></trkpt><trkpt lat="42.60739269530275" lon="11.996577616253013"><ele>312.0</ele><time>2026-04-11T14:46:46.991Z</time></trkpt><trkpt lat="42.607315203595824" lon="11.996574956629264"><ele>312.0</ele><time>2026-04-11T14:46:48.991Z</time></trkpt><trkpt lat="42.607238400167056" lon="11.9965600399638"><ele>312.0</ele><time>2026-04-11T14:46:50.991Z</time></trkpt><trkpt lat="42.607154104071675" lon="11.99655668576632"><ele>312.0</ele><time>2026-04-11T14:46:52.991Z</time></trkpt><trkpt lat="42.607070002853504" lon="11.99654834402492"><ele>312.0</ele><time>2026-04-11T14:46:54.991Z</time></trkpt><trkpt lat="42.60698578254717" lon="11.99654172374834"><ele>312.0</ele><time>2026-04-11T14:46:56.991Z</time></trkpt><trkpt lat="42.60690094140199" lon="11.996527038897037"><ele>312.0</ele><time>2026-04-11T14:46:58.991Z</time></trkpt><trkpt lat="42.606811897635396" lon="11.996522857116286"><ele>312.0</ele><time>2026-04-11T14:47:00.991Z</time></trkpt><trkpt lat="42.6067222937381" lon="11.996519362328184"><ele>312.0</ele><time>2026-04-11T14:47:02.991Z</time></trkpt><trkpt lat="42.606627911058034" lon="11.99651390470262"><ele>312.0</ele><time>2026-04-11T14:47:04.991Z</time></trkpt><trkpt lat="42.606531920077366" lon="11.996509944704167"><ele>312.0</ele><time>2026-04-11T14:47:06.991Z</time></trkpt><trkpt lat="42.606442065263636" lon="11.99650630993971"><ele>312.0</ele><time>2026-04-11T14:47:08.991Z</time></trkpt><trkpt lat="42.60634173436962" lon="11.996497289271906"><ele>312.0</ele><time>2026-04-11T14:47:10.991Z</time></trkpt><trkpt lat="42.606261592941415" lon="11.996502580723346"><ele>312.2</ele><time>2026-04-11T14:47:12.991Z</time></trkpt><trkpt lat="42.60616131372301" lon="11.996488518465668"><ele>312.4</ele><time>2026-04-11T14:47:14.991Z</time></trkpt><trkpt lat="42.60606221631313" lon="11.99648916296565"><ele>312.6</ele><time>2026-04-11T14:47:16.99Z</time></trkpt><trkpt lat="42.60597015880364" lon="11.996487879153955"><ele>312.8</ele><time>2026-04-11T14:47:18.99Z</time></trkpt><trkpt lat="42.605878210401414" lon="11.99647656183025"><ele>313.0</ele><time>2026-04-11T14:47:20.99Z</time></trkpt><trkpt lat="42.60579104837767" lon="11.996467750694489"><ele>313.0</ele><time>2026-04-11T14:47:22.99Z</time></trkpt><trkpt lat="42.60571008228472" lon="11.996466753591713"><ele>313.0</ele><time>2026-04-11T14:47:24.99Z</time></trkpt><trkpt lat="42.60563636685918" lon="11.996457121475693"><ele>313.0</ele><time>2026-04-11T14:47:26.99Z</time></trkpt><trkpt lat="42.60556068638706" lon="11.996456298091811"><ele>313.0</ele><time>2026-04-11T14:47:28.99Z</time></trkpt><trkpt lat="42.60548914709552" lon="11.996451284309593"><ele>313.0</ele><time>2026-04-11T14:47:30.99Z</time></trkpt><trkpt lat="42.605411416684554" lon="11.996435189679412"><ele>313.0</ele><time>2026-04-11T14:47:32.99Z</time></trkpt><trkpt lat="42.60534207567958" lon="11.996432927425701"><ele>313.42857142857144</ele><time>2026-04-11T14:47:34.99Z</time></trkpt><trkpt lat="42.605263126257306" lon="11.996429908993685"><ele>313.8571428571429</ele><time>2026-04-11T14:47:36.99Z</time></trkpt><trkpt lat="42.605190366788705" lon="11.996422477379364"><ele>314.28571428571433</ele><time>2026-04-11T14:47:38.99Z</time></trkpt><trkpt lat="42.60511515781807" lon="11.996412249231167"><ele>314.7142857142857</ele><time>2026-04-11T14:47:40.99Z</time></trkpt><trkpt lat="42.60504021041232" lon="11.996405094287585"><ele>315.14285714285717</ele><time>2026-04-11T14:47:42.99Z</time></trkpt><trkpt lat="42.60497306401922" lon="11.996396846132265"><ele>315.5714285714286</ele><time>2026-04-11T14:47:44.99Z</time></trkpt><trkpt lat="42.60490712278019" lon="11.996393119418611"><ele>316.0</ele><time>2026-04-11T14:47:46.99Z</time></trkpt><trkpt lat="42.60483749495968" lon="11.996391448949698"><ele>316.0</ele><time>2026-04-11T14:47:48.99Z</time></trkpt><trkpt lat="42.60476761626916" lon="11.996399168651507"><ele>316.0</ele><time>2026-04-11T14:47:50.99Z</time></trkpt><trkpt lat="42.604702053318434" lon="11.996410303559154"><ele>316.0</ele><time>2026-04-11T14:47:52.99Z</time></trkpt><trkpt lat="42.604638473290954" lon="11.996430613123026"><ele>316.0</ele><time>2026-04-11T14:47:54.99Z</time></trkpt><trkpt lat="42.60455532205073" lon="11.996484665268307"><ele>316.0</ele><time>2026-04-11T14:47:57.99Z</time></trkpt><trkpt lat="42.60446911991588" lon="11.996542565740342"><ele>316.0</ele><time>2026-04-11T14:48:00.99Z</time></trkpt><trkpt lat="42.6043864270192" lon="11.996607821726375"><ele>315.66666666666663</ele><time>2026-04-11T14:48:03.989Z</time></trkpt><trkpt lat="42.60431468508324" lon="11.996665484287854"><ele>315.3333333333333</ele><time>2026-04-11T14:48:06.989Z</time></trkpt><trkpt lat="42.60425094830658" lon="11.996723111360684"><ele>315.0</ele><time>2026-04-11T14:48:09.989Z</time></trkpt><trkpt lat="42.60418475459446" lon="11.996775900886803"><ele>314.6666666666667</ele><time>2026-04-11T14:48:12.989Z</time></trkpt><trkpt lat="42.604124921452105" lon="11.996839064769098"><ele>314.33333333333337</ele><time>2026-04-11T14:48:15.989Z</time></trkpt><trkpt lat="42.60406290557198" lon="11.996888652917324"><ele>314.0</ele><time>2026-04-11T14:48:18.989Z</time></trkpt><trkpt lat="42.604006762573576" lon="11.996935972363262"><ele>314.57142857142856</ele><time>2026-04-11T14:48:21.989Z</time></trkpt><trkpt lat="42.60395018717599" lon="11.99698548752561"><ele>315.1428571428571</ele><time>2026-04-11T14:48:24.989Z</time></trkpt><trkpt lat="42.603901037245016" lon="11.997040623501372"><ele>315.71428571428567</ele><time>2026-04-11T14:48:27.989Z</time></trkpt><trkpt lat="42.60383726418139" lon="11.997090326528204"><ele>316.2857142857143</ele><time>2026-04-11T14:48:30.989Z</time></trkpt><trkpt lat="42.6037750435143" lon="11.997143051781563"><ele>316.8571428571429</ele><time>2026-04-11T14:48:33.989Z</time></trkpt><trkpt lat="42.60371763293518" lon="11.99719506412123"><ele>317.4285714285714</ele><time>2026-04-11T14:48:36.989Z</time></trkpt><trkpt lat="42.60366028140677" lon="11.997240750685739"><ele>318.0</ele><time>2026-04-11T14:48:39.989Z</time></trkpt><trkpt lat="42.603604296644" lon="11.997297698531138"><ele>318.2857142857143</ele><time>2026-04-11T14:48:42.989Z</time></trkpt><trkpt lat="42.60354807495678" lon="11.997350941716839"><ele>318.5714285714286</ele><time>2026-04-11T14:48:45.989Z</time></trkpt><trkpt lat="42.603482290733986" lon="11.997399607937751"><ele>318.8571428571429</ele><time>2026-04-11T14:48:48.988Z</time></trkpt><trkpt lat="42.60343176745896" lon="11.997453797920382"><ele>319.1428571428571</ele><time>2026-04-11T14:48:51.988Z</time></trkpt><trkpt lat="42.603378002790606" lon="11.997504483028678"><ele>319.42857142857144</ele><time>2026-04-11T14:48:54.988Z</time></trkpt><trkpt lat="42.60331038031669" lon="11.997564430582237"><ele>319.7142857142857</ele><time>2026-04-11T14:48:58.988Z</time></trkpt><trkpt lat="42.60325920089124" lon="11.99761657000896"><ele>320.0</ele><time>2026-04-11T14:49:01.988Z</time></trkpt><trkpt lat="42.60320500161235" lon="11.997663556092817"><ele>321.1428571428571</ele><time>2026-04-11T14:49:04.988Z</time></trkpt><trkpt lat="42.60314195941444" lon="11.997716591154393"><ele>322.2857142857143</ele><time>2026-04-11T14:49:07.988Z</time></trkpt><trkpt lat="42.60308786053517" lon="11.997778985411315"><ele>323.42857142857144</ele><time>2026-04-11T14:49:10.988Z</time></trkpt><trkpt lat="42.603021575478486" lon="11.997823853627121"><ele>324.57142857142856</ele><time>2026-04-11T14:49:13.988Z</time></trkpt><trkpt lat="42.60295880558069" lon="11.997868797613325"><ele>325.7142857142857</ele><time>2026-04-11T14:49:16.988Z</time></trkpt><trkpt lat="42.60289766477556" lon="11.99791529194087"><ele>326.85714285714283</ele><time>2026-04-11T14:49:19.988Z</time></trkpt><trkpt lat="42.602832471825245" lon="11.99795381014061"><ele>328.0</ele><time>2026-04-11T14:49:22.988Z</time></trkpt><trkpt lat="42.60276327494566" lon="11.997985686905972"><ele>328.0</ele><time>2026-04-11T14:49:25.988Z</time></trkpt><trkpt lat="42.602690540515226" lon="11.998012218939333"><ele>328.0</ele><time>2026-04-11T14:49:28.988Z</time></trkpt><trkpt lat="42.602615374881935" lon="11.998034137282213"><ele>328.0</ele><time>2026-04-11T14:49:31.988Z</time></trkpt><trkpt lat="42.602538928253125" lon="11.998045223008571"><ele>328.0</ele><time>2026-04-11T14:49:34.987Z</time></trkpt><trkpt lat="42.602462772995274" lon="11.99807266462016"><ele>328.0</ele><time>2026-04-11T14:49:37.987Z</time></trkpt><trkpt lat="42.60238541104558" lon="11.998074636075328"><ele>328.0</ele><time>2026-04-11T14:49:40.987Z</time></trkpt><trkpt lat="42.602291798132846" lon="11.998089505935539"><ele>328.0</ele><time>2026-04-11T14:49:43.987Z</time></trkpt><trkpt lat="42.60220779296561" lon="11.998096097843721"><ele>328.0</ele><time>2026-04-11T14:49:46.987Z</time></trkpt><trkpt lat="42.602114866109595" lon="11.998113949818588"><ele>328.0</ele><time>2026-04-11T14:49:49.987Z</time></trkpt><trkpt lat="42.602026065778546" lon="11.998126806721233"><ele>328.0</ele><time>2026-04-11T14:49:52.987Z</time></trkpt><trkpt lat="42.60195580173326" lon="11.998141190770093"><ele>328.0</ele><time>2026-04-11T14:49:54.987Z</time></trkpt><trkpt lat="42.60188256119908" lon="11.998146813975373"><ele>328.0</ele><time>2026-04-11T14:49:56.987Z</time></trkpt><trkpt lat="42.60181149680401" lon="11.998157673558575"><ele>328.16666666666663</ele><time>2026-04-11T14:49:58.987Z</time></trkpt><trkpt lat="42.60173568144342" lon="11.998175299807496"><ele>328.3333333333333</ele><time>2026-04-11T14:50:00.987Z</time></trkpt><trkpt lat="42.601662654511145" lon="11.998186831943668"><ele>328.5</ele><time>2026-04-11T14:50:02.987Z</time></trkpt><trkpt lat="42.601583920426805" lon="11.998197101893172"><ele>328.6666666666667</ele><time>2026-04-11T14:50:04.987Z</time></trkpt><trkpt lat="42.60150837290916" lon="11.998209945840237"><ele>328.83333333333337</ele><time>2026-04-11T14:50:06.987Z</time></trkpt><trkpt lat="42.60143725292616" lon="11.998220985194582"><ele>329.0</ele><time>2026-04-11T14:50:08.987Z</time></trkpt><trkpt lat="42.601364490671955" lon="11.998252358933032"><ele>329.0</ele><time>2026-04-11T14:50:10.987Z</time></trkpt><trkpt lat="42.601288924872044" lon="11.998262470035083"><ele>329.0</ele><time>2026-04-11T14:50:12.987Z</time></trkpt><trkpt lat="42.60120951057302" lon="11.99828307130799"><ele>329.0</ele><time>2026-04-11T14:50:14.987Z</time></trkpt><trkpt lat="42.601135909936694" lon="11.99829976026856"><ele>329.0</ele><time>2026-04-11T14:50:16.987Z</time></trkpt><trkpt lat="42.60105930735866" lon="11.998309835627788"><ele>329.0</ele><time>2026-04-11T14:50:18.987Z</time></trkpt><trkpt lat="42.600983289166145" lon="11.99832923932126"><ele>329.0</ele><time>2026-04-11T14:50:20.986Z</time></trkpt><trkpt lat="42.60090557129159" lon="11.998342225250054"><ele>330.57142857142856</ele><time>2026-04-11T14:50:22.986Z</time></trkpt><trkpt lat="42.600838032071685" lon="11.998356201098067"><ele>332.1428571428571</ele><time>2026-04-11T14:50:24.986Z</time></trkpt><trkpt lat="42.600773272860785" lon="11.998367804250154"><ele>333.7142857142857</ele><time>2026-04-11T14:50:26.986Z</time></trkpt><trkpt lat="42.60069868527737" lon="11.998392313577792"><ele>335.2857142857143</ele><time>2026-04-11T14:50:28.986Z</time></trkpt><trkpt lat="42.60063180521661" lon="11.998405861567932"><ele>336.85714285714283</ele><time>2026-04-11T14:50:30.986Z</time></trkpt><trkpt lat="42.600561447633055" lon="11.998410363134347"><ele>338.42857142857144</ele><time>2026-04-11T14:50:32.986Z</time></trkpt><trkpt lat="42.600489124855336" lon="11.998440479327897"><ele>340.0</ele><time>2026-04-11T14:50:34.986Z</time></trkpt><trkpt lat="42.60041919322362" lon="11.998441224674904"><ele>340.0</ele><time>2026-04-11T14:50:36.986Z</time></trkpt><trkpt lat="42.60035262626405" lon="11.998449877187912"><ele>340.0</ele><time>2026-04-11T14:50:38.986Z</time></trkpt><trkpt lat="42.60028371939507" lon="11.998460869343722"><ele>340.0</ele><time>2026-04-11T14:50:40.986Z</time></trkpt><trkpt lat="42.6002127636564" lon="11.998476114150948"><ele>340.0</ele><time>2026-04-11T14:50:42.986Z</time></trkpt><trkpt lat="42.60011670464857" lon="11.998487129231131"><ele>340.0</ele><time>2026-04-11T14:50:45.986Z</time></trkpt><trkpt lat="42.60003780293119" lon="11.99851245384974"><ele>340.0</ele><time>2026-04-11T14:50:48.986Z</time></trkpt><trkpt lat="42.599964107065944" lon="11.998530916464663"><ele>339.7142857142857</ele><time>2026-04-11T14:50:51.986Z</time></trkpt><trkpt lat="42.59989843388123" lon="11.998543784291481"><ele>339.4285714285714</ele><time>2026-04-11T14:50:54.986Z</time></trkpt><trkpt lat="42.59983568401414" lon="11.998569677256338"><ele>339.1428571428571</ele><time>2026-04-11T14:50:57.986Z</time></trkpt><trkpt lat="42.59976983301043" lon="11.998592705299338"><ele>338.8571428571429</ele><time>2026-04-11T14:51:00.986Z</time></trkpt><trkpt lat="42.59970445668033" lon="11.998625161256612"><ele>338.57142857142856</ele><time>2026-04-11T14:51:03.986Z</time></trkpt><trkpt lat="42.599643897454754" lon="11.998660306856005"><ele>338.2857142857143</ele><time>2026-04-11T14:51:06.985Z</time></trkpt><trkpt lat="42.59957919038415" lon="11.998701425396652"><ele>338.0</ele><time>2026-04-11T14:51:09.985Z</time></trkpt><trkpt lat="42.59951245175663" lon="11.998733850443827"><ele>337.8571428571429</ele><time>2026-04-11T14:51:12.985Z</time></trkpt><trkpt lat="42.59945109607191" lon="11.99877542035194"><ele>337.7142857142857</ele><time>2026-04-11T14:51:15.985Z</time></trkpt><trkpt lat="42.5993823613386" lon="11.998815630310624"><ele>337.57142857142856</ele><time>2026-04-11T14:51:18.985Z</time></trkpt><trkpt lat="42.59931179764882" lon="11.998859998169484"><ele>337.42857142857144</ele><time>2026-04-11T14:51:21.985Z</time></trkpt><trkpt lat="42.599246517966655" lon="11.998899775070049"><ele>337.2857142857143</ele><time>2026-04-11T14:51:24.985Z</time></trkpt><trkpt lat="42.59918172065788" lon="11.998947088498463"><ele>337.14285714285717</ele><time>2026-04-11T14:51:27.985Z</time></trkpt><trkpt lat="42.59912135879683" lon="11.998988852221933"><ele>337.0</ele><time>2026-04-11T14:51:30.985Z</time></trkpt><trkpt lat="42.599056932012154" lon="11.999029631515107"><ele>337.00000000000006</ele><time>2026-04-11T14:51:33.985Z</time></trkpt><trkpt lat="42.59899794210944" lon="11.99906896656253"><ele>337.0</ele><time>2026-04-11T14:51:36.985Z</time></trkpt><trkpt lat="42.59893140882421" lon="11.999101268504969"><ele>337.0</ele><time>2026-04-11T14:51:39.985Z</time></trkpt><trkpt lat="42.59887457266544" lon="11.999148992518984"><ele>337.0</ele><time>2026-04-11T14:51:42.985Z</time></trkpt><trkpt lat="42.59881160191449" lon="11.999190377945713"><ele>337.0</ele><time>2026-04-11T14:51:45.985Z</time></trkpt><trkpt lat="42.59873881709251" lon="11.999237134929507"><ele>337.00000000000006</ele><time>2026-04-11T14:51:48.985Z</time></trkpt><trkpt lat="42.59866773362128" lon="11.999281791174363"><ele>337.0</ele><time>2026-04-11T14:51:51.985Z</time></trkpt><trkpt lat="42.59859640509849" lon="11.999327418109662"><ele>338.8333333333333</ele><time>2026-04-11T14:51:54.984Z</time></trkpt><trkpt lat="42.59852269899246" lon="11.999371719708245"><ele>340.66666666666663</ele><time>2026-04-11T14:51:57.984Z</time></trkpt><trkpt lat="42.59844890580895" lon="11.999406952176619"><ele>342.5</ele><time>2026-04-11T14:52:00.984Z</time></trkpt><trkpt lat="42.59836058977614" lon="11.999432568857749"><ele>344.3333333333333</ele><time>2026-04-11T14:52:03.984Z</time></trkpt><trkpt lat="42.598269361451" lon="11.999465236843774"><ele>346.1666666666667</ele><time>2026-04-11T14:52:06.984Z</time></trkpt><trkpt lat="42.59820675692881" lon="11.99948030235812"><ele>348.0</ele><time>2026-04-11T14:52:08.984Z</time></trkpt><trkpt lat="42.598144576488" lon="11.999496394204044"><ele>348.0</ele><time>2026-04-11T14:52:10.984Z</time></trkpt><trkpt lat="42.5980743454757" lon="11.999505132206725"><ele>348.0</ele><time>2026-04-11T14:52:12.984Z</time></trkpt><trkpt lat="42.59800606219314" lon="11.999511238959485"><ele>348.0</ele><time>2026-04-11T14:52:14.984Z</time></trkpt><trkpt lat="42.597936856829676" lon="11.999513779865755"><ele>348.0</ele><time>2026-04-11T14:52:16.984Z</time></trkpt><trkpt lat="42.59786857114361" lon="11.999504715831307"><ele>348.0</ele><time>2026-04-11T14:52:18.984Z</time></trkpt><trkpt lat="42.59780434732746" lon="11.99950553559931"><ele>348.0</ele><time>2026-04-11T14:52:20.984Z</time></trkpt><trkpt lat="42.59770601319638" lon="11.999503803183861"><ele>348.0</ele><time>2026-04-11T14:52:23.984Z</time></trkpt><trkpt lat="42.59762167038853" lon="11.999500133300657"><ele>348.1428571428571</ele><time>2026-04-11T14:52:26.984Z</time></trkpt><trkpt lat="42.59754166941278" lon="11.999493069488455"><ele>348.2857142857143</ele><time>2026-04-11T14:52:29.984Z</time></trkpt><trkpt lat="42.59747012264654" lon="11.999481770022129"><ele>348.42857142857144</ele><time>2026-04-11T14:52:32.984Z</time></trkpt><trkpt lat="42.597398652376945" lon="11.999467016857288"><ele>348.57142857142856</ele><time>2026-04-11T14:52:35.984Z</time></trkpt><trkpt lat="42.59733079792413" lon="11.999464996994735"><ele>348.7142857142857</ele><time>2026-04-11T14:52:38.983Z</time></trkpt><trkpt lat="42.59725210317208" lon="11.999460624103067"><ele>348.85714285714283</ele><time>2026-04-11T14:52:42.983Z</time></trkpt><trkpt lat="42.5971894316131" lon="11.999445733317373"><ele>349.0</ele><time>2026-04-11T14:52:45.983Z</time></trkpt><trkpt lat="42.59711196238843" lon="11.999437528000593"><ele>348.99999999999994</ele><time>2026-04-11T14:52:49.983Z</time></trkpt><trkpt lat="42.59704566373959" lon="11.99943659094111"><ele>349.0</ele><time>2026-04-11T14:52:52.983Z</time></trkpt><trkpt lat="42.59696383378554" lon="11.999438101964206"><ele>349.0</ele><time>2026-04-11T14:52:56.983Z</time></trkpt><trkpt lat="42.59688837178594" lon="11.99944288018665"><ele>349.0</ele><time>2026-04-11T14:53:00.983Z</time></trkpt><trkpt lat="42.59681815182623" lon="11.999449428629104"><ele>349.0</ele><time>2026-04-11T14:53:03.983Z</time></trkpt><trkpt lat="42.59675318120464" lon="11.999455618256974"><ele>348.99999999999994</ele><time>2026-04-11T14:53:06.983Z</time></trkpt><trkpt lat="42.5966858553322" lon="11.999464932186829"><ele>349.0</ele><time>2026-04-11T14:53:09.983Z</time></trkpt><trkpt lat="42.59662049784662" lon="11.999482471484706"><ele>349.2857142857143</ele><time>2026-04-11T14:53:12.983Z</time></trkpt><trkpt lat="42.59653538204958" lon="11.999501324195958"><ele>349.57142857142856</ele><time>2026-04-11T14:53:16.983Z</time></trkpt><trkpt lat="42.596474357033046" lon="11.999526816147519"><ele>349.8571428571429</ele><time>2026-04-11T14:53:19.983Z</time></trkpt><trkpt lat="42.596403468547386" lon="11.999560403653273"><ele>350.1428571428571</ele><time>2026-04-11T14:53:23.983Z</time></trkpt><trkpt lat="42.59633716944242" lon="11.999589773979546"><ele>350.42857142857144</ele><time>2026-04-11T14:53:26.982Z</time></trkpt><trkpt lat="42.59627613216297" lon="11.999627556042578"><ele>350.7142857142857</ele><time>2026-04-11T14:53:29.982Z</time></trkpt><trkpt lat="42.59621042897934" lon="11.999661036108924"><ele>351.0</ele><time>2026-04-11T14:53:32.982Z</time></trkpt><trkpt lat="42.596145221358015" lon="11.999695847189214"><ele>351.00000000000006</ele><time>2026-04-11T14:53:35.982Z</time></trkpt><trkpt lat="42.596065061941644" lon="11.99974116102691"><ele>351.0</ele><time>2026-04-11T14:53:39.982Z</time></trkpt><trkpt lat="42.59600182663459" lon="11.999782192034795"><ele>351.0</ele><time>2026-04-11T14:53:42.982Z</time></trkpt><trkpt lat="42.59592804549199" lon="11.9998299040889"><ele>351.0</ele><time>2026-04-11T14:53:46.982Z</time></trkpt><trkpt lat="42.59586131142936" lon="11.999873782399208"><ele>351.0</ele><time>2026-04-11T14:53:50.982Z</time></trkpt><trkpt lat="42.595802826354934" lon="11.999915329480286"><ele>351.00000000000006</ele><time>2026-04-11T14:53:53.982Z</time></trkpt><trkpt lat="42.59574309756432" lon="11.999945090193584"><ele>351.0</ele><time>2026-04-11T14:53:56.982Z</time></trkpt><trkpt lat="42.595680300387215" lon="12.00000284679826"><ele>351.00000000000006</ele><time>2026-04-11T14:54:00.982Z</time></trkpt><trkpt lat="42.595616578407316" lon="12.000042149930055"><ele>351.0</ele><time>2026-04-11T14:54:05.982Z</time></trkpt><trkpt lat="42.5955572703642" lon="12.000089024686217"><ele>351.0</ele><time>2026-04-11T14:54:14.981Z</time></trkpt><trkpt lat="42.59549414786519" lon="12.000134301797257"><ele>351.0</ele><time>2026-04-11T14:54:20.981Z</time></trkpt><trkpt lat="42.59543198954533" lon="12.000176802183745"><ele>351.0</ele><time>2026-04-11T14:54:27.981Z</time></trkpt><trkpt lat="42.59537999759329" lon="12.000226506737455"><ele>351.00000000000006</ele><time>2026-04-11T14:54:32.981Z</time></trkpt><trkpt lat="42.59530729188629" lon="12.000265355775168"><ele>351.0</ele><time>2026-04-11T14:54:35.981Z</time></trkpt><trkpt lat="42.59523357471595" lon="12.0003060921414"><ele>351.14285714285717</ele><time>2026-04-11T14:54:38.981Z</time></trkpt><trkpt lat="42.59516759432633" lon="12.000338178038133"><ele>351.2857142857143</ele><time>2026-04-11T14:54:41.981Z</time></trkpt><trkpt lat="42.595102730677496" lon="12.000367111619088"><ele>351.42857142857144</ele><time>2026-04-11T14:54:44.981Z</time></trkpt><trkpt lat="42.59503155961975" lon="12.000385857264924"><ele>351.57142857142856</ele><time>2026-04-11T14:54:47.981Z</time></trkpt><trkpt lat="42.59495972467962" lon="12.000411034528318"><ele>351.7142857142857</ele><time>2026-04-11T14:54:50.981Z</time></trkpt><trkpt lat="42.59489151904031" lon="12.000423941952565"><ele>351.8571428571429</ele><time>2026-04-11T14:54:53.981Z</time></trkpt><trkpt lat="42.59481920532" lon="12.000431203285265"><ele>352.0</ele><time>2026-04-11T14:54:56.98Z</time></trkpt><trkpt lat="42.594752078207726" lon="12.000442249220475"><ele>352.0</ele><time>2026-04-11T14:54:59.98Z</time></trkpt><trkpt lat="42.59468592035328" lon="12.00044575267395"><ele>352.0</ele><time>2026-04-11T14:55:02.98Z</time></trkpt><trkpt lat="42.59462213251719" lon="12.000461465375476"><ele>352.0</ele><time>2026-04-11T14:55:05.98Z</time></trkpt><trkpt lat="42.594559360432875" lon="12.000477069539397"><ele>352.0</ele><time>2026-04-11T14:55:08.98Z</time></trkpt><trkpt lat="42.59447696146408" lon="12.000482055411746"><ele>352.0</ele><time>2026-04-11T14:55:12.98Z</time></trkpt><trkpt lat="42.594410600636074" lon="12.000491366224042"><ele>352.0</ele><time>2026-04-11T14:55:15.98Z</time></trkpt><trkpt lat="42.59433521444144" lon="12.000506611784328"><ele>352.0</ele><time>2026-04-11T14:55:19.98Z</time></trkpt><trkpt lat="42.59426258507207" lon="12.00051326842942"><ele>352.2857142857143</ele><time>2026-04-11T14:55:22.98Z</time></trkpt><trkpt lat="42.5941921901939" lon="12.00051462315774"><ele>352.57142857142856</ele><time>2026-04-11T14:55:25.98Z</time></trkpt><trkpt lat="42.59412992162161" lon="12.000532443995647"><ele>352.8571428571429</ele><time>2026-04-11T14:55:28.98Z</time></trkpt><trkpt lat="42.5940491925466" lon="12.000535556593018"><ele>353.1428571428571</ele><time>2026-04-11T14:55:32.98Z</time></trkpt><trkpt lat="42.5939804221835" lon="12.000535460878154"><ele>353.4285714285714</ele><time>2026-04-11T14:55:35.98Z</time></trkpt><trkpt lat="42.59391692037114" lon="12.000544105549796"><ele>353.7142857142857</ele><time>2026-04-11T14:55:38.98Z</time></trkpt><trkpt lat="42.593839175057056" lon="12.000535469050895"><ele>354.0</ele><time>2026-04-11T14:55:42.979Z</time></trkpt><trkpt lat="42.59376879080162" lon="12.000539474684087"><ele>354.0</ele><time>2026-04-11T14:55:45.979Z</time></trkpt><trkpt lat="42.593706048622884" lon="12.000551887223416"><ele>354.0</ele><time>2026-04-11T14:55:48.979Z</time></trkpt><trkpt lat="42.5936293371903" lon="12.000556942493274"><ele>354.0</ele><time>2026-04-11T14:55:52.979Z</time></trkpt><trkpt lat="42.593563463206195" lon="12.000564674347018"><ele>354.0</ele><time>2026-04-11T14:55:55.979Z</time></trkpt><trkpt lat="42.59348549318827" lon="12.000571232837048"><ele>354.0</ele><time>2026-04-11T14:55:59.979Z</time></trkpt><trkpt lat="42.5934141547065" lon="12.00059094379558"><ele>354.0</ele><time>2026-04-11T14:56:02.979Z</time></trkpt><trkpt lat="42.59335039908794" lon="12.000596752524821"><ele>354.0</ele><time>2026-04-11T14:56:05.979Z</time></trkpt><trkpt lat="42.59328682810762" lon="12.000599580661477"><ele>354.3333333333333</ele><time>2026-04-11T14:56:08.979Z</time></trkpt><trkpt lat="42.593208746232214" lon="12.00061407707702"><ele>354.6666666666667</ele><time>2026-04-11T14:56:11.979Z</time></trkpt><trkpt lat="42.59313339344126" lon="12.0006215156584"><ele>355.0</ele><time>2026-04-11T14:56:15.979Z</time></trkpt><trkpt lat="42.593055799576874" lon="12.000634144574894"><ele>355.33333333333337</ele><time>2026-04-11T14:56:18.979Z</time></trkpt><trkpt lat="42.592977540524565" lon="12.000630938337478"><ele>355.6666666666667</ele><time>2026-04-11T14:56:22.979Z</time></trkpt><trkpt lat="42.59290777551976" lon="12.000648719243864"><ele>356.0</ele><time>2026-04-11T14:56:25.979Z</time></trkpt><trkpt lat="42.59283892593338" lon="12.000664205097356"><ele>356.5</ele><time>2026-04-11T14:56:28.978Z</time></trkpt><trkpt lat="42.59276389102049" lon="12.00068178953551"><ele>357.0</ele><time>2026-04-11T14:56:31.978Z</time></trkpt><trkpt lat="42.592690935190184" lon="12.000697893033216"><ele>357.5</ele><time>2026-04-11T14:56:34.978Z</time></trkpt><trkpt lat="42.59261160942045" lon="12.000747887381564"><ele>358.0</ele><time>2026-04-11T14:56:37.978Z</time></trkpt><trkpt lat="42.59254555550164" lon="12.000751169460713"><ele>358.5</ele><time>2026-04-11T14:56:40.978Z</time></trkpt><trkpt lat="42.592480569403484" lon="12.000753896044912"><ele>359.0</ele><time>2026-04-11T14:56:43.978Z</time></trkpt><trkpt lat="42.59239612084616" lon="12.000767887250877"><ele>359.0</ele><time>2026-04-11T14:56:47.978Z</time></trkpt><trkpt lat="42.59232669429209" lon="12.000786651235288"><ele>359.0</ele><time>2026-04-11T14:56:51.978Z</time></trkpt><trkpt lat="42.59224698499868" lon="12.000798329620297"><ele>359.0</ele><time>2026-04-11T14:56:55.978Z</time></trkpt><trkpt lat="42.59216733500964" lon="12.000806831002052"><ele>359.0</ele><time>2026-04-11T14:56:59.978Z</time></trkpt><trkpt lat="42.5921038895326" lon="12.000812564805754"><ele>359.0</ele><time>2026-04-11T14:57:02.978Z</time></trkpt><trkpt lat="42.592036241749256" lon="12.000822084623746"><ele>359.0</ele><time>2026-04-11T14:57:05.978Z</time></trkpt><trkpt lat="42.59195287678023" lon="12.000824256643265"><ele>359.0</ele><time>2026-04-11T14:57:09.978Z</time></trkpt><trkpt lat="42.591866661054006" lon="12.00082192765764"><ele>360.14285714285717</ele><time>2026-04-11T14:57:13.978Z</time></trkpt><trkpt lat="42.59178531697648" lon="12.000811195179601"><ele>361.28571428571433</ele><time>2026-04-11T14:57:17.977Z</time></trkpt><trkpt lat="42.59172150432532" lon="12.000790546209013"><ele>362.42857142857144</ele><time>2026-04-11T14:57:20.977Z</time></trkpt><trkpt lat="42.59165269951306" lon="12.000783964610337"><ele>363.57142857142856</ele><time>2026-04-11T14:57:23.977Z</time></trkpt><trkpt lat="42.591584022412334" lon="12.000771143577532"><ele>364.7142857142857</ele><time>2026-04-11T14:57:26.977Z</time></trkpt><trkpt lat="42.59152220734062" lon="12.000748891183518"><ele>365.85714285714283</ele><time>2026-04-11T14:57:29.977Z</time></trkpt><trkpt lat="42.59145748509242" lon="12.000731660797157"><ele>367.0</ele><time>2026-04-11T14:57:32.977Z</time></trkpt><trkpt lat="42.591392688507426" lon="12.000723420932099"><ele>367.0</ele><time>2026-04-11T14:57:35.977Z</time></trkpt><trkpt lat="42.59132234889781" lon="12.00071751896751"><ele>367.0</ele><time>2026-04-11T14:57:38.977Z</time></trkpt><trkpt lat="42.59124292953861" lon="12.000688616451407"><ele>367.0</ele><time>2026-04-11T14:57:42.977Z</time></trkpt><trkpt lat="42.5911620162454" lon="12.000685813792884"><ele>367.0</ele><time>2026-04-11T14:57:46.977Z</time></trkpt><trkpt lat="42.59109676246715" lon="12.000684336372759"><ele>367.0</ele><time>2026-04-11T14:57:49.977Z</time></trkpt><trkpt lat="42.59101855196036" lon="12.000658999507726"><ele>367.0</ele><time>2026-04-11T14:57:53.977Z</time></trkpt><trkpt lat="42.59094198157093" lon="12.00064823649693"><ele>368.0</ele><time>2026-04-11T14:57:57.977Z</time></trkpt><trkpt lat="42.59085993817354" lon="12.000647579619276"><ele>369.0</ele><time>2026-04-11T14:58:01.976Z</time></trkpt><trkpt lat="42.590785088954384" lon="12.000648876772637"><ele>370.0</ele><time>2026-04-11T14:58:05.976Z</time></trkpt><trkpt lat="42.59069938817898" lon="12.00063696975495"><ele>371.0</ele><time>2026-04-11T14:58:09.976Z</time></trkpt><trkpt lat="42.59062795214573" lon="12.00063250406626"><ele>372.0</ele><time>2026-04-11T14:58:12.976Z</time></trkpt><trkpt lat="42.59054441372601" lon="12.000611079976922"><ele>373.0</ele><time>2026-04-11T14:58:16.976Z</time></trkpt><trkpt lat="42.59047279419887" lon="12.000592970359067"><ele>373.0</ele><time>2026-04-11T14:58:20.976Z</time></trkpt><trkpt lat="42.59039747896668" lon="12.000644392533255"><ele>373.0</ele><time>2026-04-11T14:58:24.976Z</time></trkpt><trkpt lat="42.59033202190718" lon="12.000664082481197"><ele>373.0</ele><time>2026-04-11T14:58:27.976Z</time></trkpt><trkpt lat="42.59026658480838" lon="12.000688874677737"><ele>373.0</ele><time>2026-04-11T14:58:30.976Z</time></trkpt><trkpt lat="42.590203526923" lon="12.000720449280536"><ele>373.0</ele><time>2026-04-11T14:58:33.976Z</time></trkpt><trkpt lat="42.59014206822181" lon="12.000743924709584"><ele>373.0</ele><time>2026-04-11T14:58:36.976Z</time></trkpt><trkpt lat="42.590077793932515" lon="12.000774466187764"><ele>373.0</ele><time>2026-04-11T14:58:39.976Z</time></trkpt><trkpt lat="42.59001674585793" lon="12.000816091536864"><ele>374.16666666666663</ele><time>2026-04-11T14:58:42.976Z</time></trkpt><trkpt lat="42.58994022353295" lon="12.000871936372038"><ele>375.3333333333333</ele><time>2026-04-11T14:58:46.975Z</time></trkpt><trkpt lat="42.58986704078283" lon="12.000925830573363"><ele>376.5</ele><time>2026-04-11T14:58:49.975Z</time></trkpt><trkpt lat="42.58979375005402" lon="12.000977858217139"><ele>377.6666666666667</ele><time>2026-04-11T14:58:52.975Z</time></trkpt><trkpt lat="42.5897184673444" lon="12.001037902445804"><ele>378.83333333333337</ele><time>2026-04-11T14:58:55.975Z</time></trkpt><trkpt lat="42.589640648713875" lon="12.00111148520158"><ele>380.0</ele><time>2026-04-11T14:58:58.975Z</time></trkpt><trkpt lat="42.58956217371795" lon="12.00117296912883"><ele>379.6666666666667</ele><time>2026-04-11T14:59:01.975Z</time></trkpt><trkpt lat="42.589490417255206" lon="12.001213010361257"><ele>379.33333333333337</ele><time>2026-04-11T14:59:03.975Z</time></trkpt><trkpt lat="42.589423963149585" lon="12.001247817666478"><ele>379.0</ele><time>2026-04-11T14:59:05.975Z</time></trkpt><trkpt lat="42.589356722290894" lon="12.00129670368772"><ele>378.6666666666667</ele><time>2026-04-11T14:59:08.975Z</time></trkpt><trkpt lat="42.58927511792534" lon="12.001343082631525"><ele>378.3333333333333</ele><time>2026-04-11T14:59:11.975Z</time></trkpt><trkpt lat="42.58919663700761" lon="12.001378472176995"><ele>378.0</ele><time>2026-04-11T14:59:14.975Z</time></trkpt><trkpt lat="42.58912965369918" lon="12.001382351854845"><ele>378.0</ele><time>2026-04-11T14:59:16.975Z</time></trkpt><trkpt lat="42.58906672193933" lon="12.001408207498557"><ele>378.0</ele><time>2026-04-11T14:59:18.975Z</time></trkpt><trkpt lat="42.588992500874824" lon="12.001427937360859"><ele>378.0</ele><time>2026-04-11T14:59:20.975Z</time></trkpt><trkpt lat="42.58892085694085" lon="12.001454965102253"><ele>378.0</ele><time>2026-04-11T14:59:22.975Z</time></trkpt><trkpt lat="42.58885257677844" lon="12.0014760839356"><ele>378.0</ele><time>2026-04-11T14:59:24.975Z</time></trkpt><trkpt lat="42.58877976023722" lon="12.00149652309496"><ele>378.0</ele><time>2026-04-11T14:59:26.975Z</time></trkpt><trkpt lat="42.588710049788965" lon="12.001520515024767"><ele>378.0</ele><time>2026-04-11T14:59:28.975Z</time></trkpt><trkpt lat="42.58864248504084" lon="12.001539857777304"><ele>378.0</ele><time>2026-04-11T14:59:30.975Z</time></trkpt><trkpt lat="42.58857731305606" lon="12.00156240514914"><ele>378.0</ele><time>2026-04-11T14:59:32.974Z</time></trkpt><trkpt lat="42.58850623168948" lon="12.001584911863409"><ele>378.0</ele><time>2026-04-11T14:59:34.974Z</time></trkpt><trkpt lat="42.58844137478381" lon="12.001607500636691"><ele>378.0</ele><time>2026-04-11T14:59:36.974Z</time></trkpt><trkpt lat="42.5883778652474" lon="12.001634832315485"><ele>378.0</ele><time>2026-04-11T14:59:38.974Z</time></trkpt><trkpt lat="42.5883086109426" lon="12.001657093411518"><ele>378.0</ele><time>2026-04-11T14:59:40.974Z</time></trkpt><trkpt lat="42.5882418142154" lon="12.001680487019257"><ele>378.0</ele><time>2026-04-11T14:59:42.974Z</time></trkpt><trkpt lat="42.5881720995388" lon="12.001703515547131"><ele>379.3333333333333</ele><time>2026-04-11T14:59:44.974Z</time></trkpt><trkpt lat="42.58809837516611" lon="12.001728265833782"><ele>380.66666666666663</ele><time>2026-04-11T14:59:46.974Z</time></trkpt><trkpt lat="42.5880250429864" lon="12.001757542610603"><ele>382.0</ele><time>2026-04-11T14:59:48.974Z</time></trkpt><trkpt lat="42.58794385375013" lon="12.001788887069702"><ele>383.3333333333333</ele><time>2026-04-11T14:59:50.974Z</time></trkpt><trkpt lat="42.58786607740667" lon="12.001818186385414"><ele>384.66666666666663</ele><time>2026-04-11T14:59:52.974Z</time></trkpt><trkpt lat="42.58778369379378" lon="12.001826676312238"><ele>386.0</ele><time>2026-04-11T14:59:54.974Z</time></trkpt><trkpt lat="42.58770216256942" lon="12.001838775174415"><ele>386.00000000000006</ele><time>2026-04-11T14:59:56.974Z</time></trkpt><trkpt lat="42.58762972272492" lon="12.001842430832369"><ele>386.0</ele><time>2026-04-11T14:59:58.974Z</time></trkpt><trkpt lat="42.58755573156204" lon="12.001849377135187"><ele>386.0</ele><time>2026-04-11T15:00:00.974Z</time></trkpt><trkpt lat="42.587484514056754" lon="12.001839528360348"><ele>386.0</ele><time>2026-04-11T15:00:02.974Z</time></trkpt><trkpt lat="42.587415040550795" lon="12.00181779719287"><ele>386.0</ele><time>2026-04-11T15:00:04.974Z</time></trkpt><trkpt lat="42.58734845169221" lon="12.001815883869751"><ele>386.00000000000006</ele><time>2026-04-11T15:00:06.974Z</time></trkpt><trkpt lat="42.587271685874" lon="12.001810702154408"><ele>386.0</ele><time>2026-04-11T15:00:08.974Z</time></trkpt><trkpt lat="42.58720225315222" lon="12.001794339543043"><ele>385.99999999999994</ele><time>2026-04-11T15:00:10.974Z</time></trkpt><trkpt lat="42.58710706989807" lon="12.001771056466604"><ele>386.0</ele><time>2026-04-11T15:00:13.974Z</time></trkpt><trkpt lat="42.5870302818514" lon="12.001769041884259"><ele>386.0</ele><time>2026-04-11T15:00:15.974Z</time></trkpt><trkpt lat="42.586962554775674" lon="12.001770352762719"><ele>386.0</ele><time>2026-04-11T15:00:17.974Z</time></trkpt><trkpt lat="42.586873575756265" lon="12.001774268536883"><ele>385.99999999999994</ele><time>2026-04-11T15:00:20.999Z</time></trkpt><trkpt lat="42.58681051297757" lon="12.001781734686743"><ele>386.0</ele><time>2026-04-11T15:00:22.999Z</time></trkpt><trkpt lat="42.58673533640151" lon="12.00178875641818"><ele>386.49999999999994</ele><time>2026-04-11T15:00:25.998Z</time></trkpt><trkpt lat="42.58666716884591" lon="12.001810441770258"><ele>387.0</ele><time>2026-04-11T15:00:27.998Z</time></trkpt><trkpt lat="42.58657799821877" lon="12.0018351419129"><ele>387.5</ele><time>2026-04-11T15:00:30.998Z</time></trkpt><trkpt lat="42.58649520642007" lon="12.001863506083668"><ele>388.0</ele><time>2026-04-11T15:00:33.998Z</time></trkpt><trkpt lat="42.58640625047217" lon="12.00190399293351"><ele>388.49999999999994</ele><time>2026-04-11T15:00:36.998Z</time></trkpt><trkpt lat="42.58632023647569" lon="12.001938399010296"><ele>389.0</ele><time>2026-04-11T15:00:39.998Z</time></trkpt><trkpt lat="42.58625579552646" lon="12.001969250049434"><ele>388.99999999999994</ele><time>2026-04-11T15:00:41.998Z</time></trkpt><trkpt lat="42.5861893395575" lon="12.001992711623965"><ele>389.0</ele><time>2026-04-11T15:00:43.998Z</time></trkpt><trkpt lat="42.5861120949573" lon="12.002014823402721"><ele>389.0</ele><time>2026-04-11T15:00:45.998Z</time></trkpt><trkpt lat="42.58603784804644" lon="12.002037213938623"><ele>389.0</ele><time>2026-04-11T15:00:47.998Z</time></trkpt><trkpt lat="42.58595991045387" lon="12.002062711248255"><ele>388.99999999999994</ele><time>2026-04-11T15:00:49.998Z</time></trkpt><trkpt lat="42.58588751326432" lon="12.002095502964359"><ele>389.0</ele><time>2026-04-11T15:00:51.998Z</time></trkpt><trkpt lat="42.58581520066657" lon="12.002118276622108"><ele>388.49999999999994</ele><time>2026-04-11T15:00:53.998Z</time></trkpt><trkpt lat="42.58573563845411" lon="12.002147350615159"><ele>388.0</ele><time>2026-04-11T15:00:55.998Z</time></trkpt><trkpt lat="42.58565658369738" lon="12.002170666084528"><ele>387.5</ele><time>2026-04-11T15:00:57.998Z</time></trkpt><trkpt lat="42.58557343142808" lon="12.002192172086543"><ele>387.0</ele><time>2026-04-11T15:00:59.998Z</time></trkpt><trkpt lat="42.58549845100568" lon="12.002212783732185"><ele>386.49999999999994</ele><time>2026-04-11T15:01:01.998Z</time></trkpt><trkpt lat="42.58542155833771" lon="12.002246355335284"><ele>386.0</ele><time>2026-04-11T15:01:03.998Z</time></trkpt><trkpt lat="42.585354074063666" lon="12.002285088124397"><ele>385.3333333333333</ele><time>2026-04-11T15:01:06Z</time></trkpt><trkpt lat="42.58528292292896" lon="12.002330308552434"><ele>384.66666666666663</ele><time>2026-04-11T15:01:08Z</time></trkpt><trkpt lat="42.585227278402115" lon="12.002397405559984"><ele>384.0</ele><time>2026-04-11T15:01:09.999Z</time></trkpt><trkpt lat="42.58517368790569" lon="12.002478971462518"><ele>383.3333333333333</ele><time>2026-04-11T15:01:11.999Z</time></trkpt><trkpt lat="42.585128974052736" lon="12.002574508639187"><ele>382.66666666666663</ele><time>2026-04-11T15:01:13.999Z</time></trkpt><trkpt lat="42.58510359295576" lon="12.002682546339514"><ele>382.0</ele><time>2026-04-11T15:01:16Z</time></trkpt><trkpt lat="42.585094182195256" lon="12.002795921433803"><ele>383.3333333333333</ele><time>2026-04-11T15:01:17.999Z</time></trkpt><trkpt lat="42.58510557617719" lon="12.002908290206394"><ele>384.66666666666663</ele><time>2026-04-11T15:01:20Z</time></trkpt><trkpt lat="42.585133242855555" lon="12.003008936472279"><ele>386.0</ele><time>2026-04-11T15:01:22Z</time></trkpt><trkpt lat="42.58517770139858" lon="12.00310117512291"><ele>387.3333333333333</ele><time>2026-04-11T15:01:24Z</time></trkpt><trkpt lat="42.585226885789844" lon="12.003185474513424"><ele>388.6666666666667</ele><time>2026-04-11T15:01:26Z</time></trkpt><trkpt lat="42.585271821889314" lon="12.003269122503328"><ele>390.0</ele><time>2026-04-11T15:01:28Z</time></trkpt><trkpt lat="42.58532632855092" lon="12.003353360790266"><ele>392.0</ele><time>2026-04-11T15:01:30Z</time></trkpt><trkpt lat="42.58537769231915" lon="12.00343642277173"><ele>394.0</ele><time>2026-04-11T15:01:32Z</time></trkpt><trkpt lat="42.58541520024866" lon="12.003532478956537"><ele>396.0</ele><time>2026-04-11T15:01:34Z</time></trkpt><trkpt lat="42.585479263192056" lon="12.003608036642385"><ele>398.0</ele><time>2026-04-11T15:01:36Z</time></trkpt><trkpt lat="42.585553663541276" lon="12.003684066245928"><ele>400.0</ele><time>2026-04-11T15:01:38Z</time></trkpt><trkpt lat="42.58559259930853" lon="12.003789984691041"><ele>402.0</ele><time>2026-04-11T15:01:40Z</time></trkpt><trkpt lat="42.58563446437665" lon="12.003884178330077"><ele>402.0</ele><time>2026-04-11T15:01:42Z</time></trkpt><trkpt lat="42.585660505603514" lon="12.004003470557274"><ele>402.0</ele><time>2026-04-11T15:01:44Z</time></trkpt><trkpt lat="42.5856722100197" lon="12.004145946523519"><ele>402.0</ele><time>2026-04-11T15:01:46Z</time></trkpt><trkpt lat="42.585667315250355" lon="12.00428299077143"><ele>402.0</ele><time>2026-04-11T15:01:47.999Z</time></trkpt><trkpt lat="42.58563752811892" lon="12.004403667772367"><ele>402.0</ele><time>2026-04-11T15:01:49.999Z</time></trkpt><trkpt lat="42.58558837496105" lon="12.00451617321085"><ele>401.85714285714283</ele><time>2026-04-11T15:01:51.999Z</time></trkpt><trkpt lat="42.58553196549726" lon="12.004605477385589"><ele>401.7142857142857</ele><time>2026-04-11T15:01:53.999Z</time></trkpt><trkpt lat="42.585474620595946" lon="12.004671880798185"><ele>401.57142857142856</ele><time>2026-04-11T15:01:55.999Z</time></trkpt><trkpt lat="42.58541238113803" lon="12.004719665761428"><ele>401.42857142857144</ele><time>2026-04-11T15:01:57.999Z</time></trkpt><trkpt lat="42.585357423655964" lon="12.004769477844787"><ele>401.28571428571433</ele><time>2026-04-11T15:01:59.999Z</time></trkpt><trkpt lat="42.58530337912098" lon="12.00482498845307"><ele>401.14285714285717</ele><time>2026-04-11T15:02:01.999Z</time></trkpt><trkpt lat="42.585246195083016" lon="12.004863136571357"><ele>401.0</ele><time>2026-04-11T15:02:03.999Z</time></trkpt><trkpt lat="42.58518705596023" lon="12.004900628158513"><ele>400.66666666666663</ele><time>2026-04-11T15:02:05.999Z</time></trkpt><trkpt lat="42.58512199048875" lon="12.0049631965156"><ele>400.3333333333333</ele><time>2026-04-11T15:02:08.999Z</time></trkpt><trkpt lat="42.58505519793872" lon="12.00502212706385"><ele>400.0</ele><time>2026-04-11T15:02:11.999Z</time></trkpt><trkpt lat="42.58498671166059" lon="12.005075625065597"><ele>399.66666666666663</ele><time>2026-04-11T15:02:14.999Z</time></trkpt><trkpt lat="42.58491725738557" lon="12.005130109146824"><ele>399.3333333333333</ele><time>2026-04-11T15:02:17.999Z</time></trkpt><trkpt lat="42.58484504076119" lon="12.005178235779159"><ele>399.0</ele><time>2026-04-11T15:02:20.999Z</time></trkpt><trkpt lat="42.58478406108692" lon="12.00522761505368"><ele>399.0</ele><time>2026-04-11T15:02:23.999Z</time></trkpt><trkpt lat="42.58472595307885" lon="12.005263080001097"><ele>399.0</ele><time>2026-04-11T15:02:25.999Z</time></trkpt><trkpt lat="42.584660146755695" lon="12.005315520165942"><ele>399.0</ele><time>2026-04-11T15:02:28.999Z</time></trkpt><trkpt lat="42.58459103498609" lon="12.005373477821768"><ele>399.0</ele><time>2026-04-11T15:02:31.999Z</time></trkpt><trkpt lat="42.58451957145284" lon="12.005431586950078"><ele>399.0</ele><time>2026-04-11T15:02:34.998Z</time></trkpt><trkpt lat="42.58444472284939" lon="12.005492652916077"><ele>399.0</ele><time>2026-04-11T15:02:37.998Z</time></trkpt><trkpt lat="42.58437246373602" lon="12.0055514311261"><ele>399.3333333333333</ele><time>2026-04-11T15:02:40.998Z</time></trkpt><trkpt lat="42.584301278546306" lon="12.005607883473388"><ele>399.66666666666663</ele><time>2026-04-11T15:02:43.998Z</time></trkpt><trkpt lat="42.584227114726126" lon="12.005665221879585"><ele>400.0</ele><time>2026-04-11T15:02:46.998Z</time></trkpt><trkpt lat="42.584168419683245" lon="12.005703092847916"><ele>400.3333333333333</ele><time>2026-04-11T15:02:48.998Z</time></trkpt><trkpt lat="42.58409177325909" lon="12.005759609153888"><ele>400.66666666666663</ele><time>2026-04-11T15:02:51.998Z</time></trkpt><trkpt lat="42.58401668867627" lon="12.005811027077392"><ele>401.0</ele><time>2026-04-11T15:02:54.998Z</time></trkpt><trkpt lat="42.58394324496514" lon="12.00585553051486"><ele>401.0</ele><time>2026-04-11T15:02:57.998Z</time></trkpt><trkpt lat="42.58389358167028" lon="12.005916888382856"><ele>401.0</ele><time>2026-04-11T15:03:00.998Z</time></trkpt><trkpt lat="42.583832666037466" lon="12.00597462485679"><ele>401.0</ele><time>2026-04-11T15:03:03.998Z</time></trkpt><trkpt lat="42.583782231184955" lon="12.006039084387915"><ele>401.0</ele><time>2026-04-11T15:03:06.998Z</time></trkpt><trkpt lat="42.58373114594171" lon="12.006114549132306"><ele>401.0</ele><time>2026-04-11T15:03:09.998Z</time></trkpt><trkpt lat="42.58368747827843" lon="12.00619879141553"><ele>401.0</ele><time>2026-04-11T15:03:12.999Z</time></trkpt><trkpt lat="42.58363676952411" lon="12.006280876862732"><ele>401.0</ele><time>2026-04-11T15:03:16Z</time></trkpt><trkpt lat="42.583595982810024" lon="12.006373360138817"><ele>400.99999999999994</ele><time>2026-04-11T15:03:19Z</time></trkpt><trkpt lat="42.58354736346274" lon="12.006467181555392"><ele>401.0</ele><time>2026-04-11T15:03:22Z</time></trkpt><trkpt lat="42.58349006143499" lon="12.006553295049704"><ele>401.0</ele><time>2026-04-11T15:03:25Z</time></trkpt><trkpt lat="42.583436250370056" lon="12.006655239452385"><ele>401.0</ele><time>2026-04-11T15:03:27.999Z</time></trkpt><trkpt lat="42.5833947094649" lon="12.006723903346904"><ele>400.99999999999994</ele><time>2026-04-11T15:03:29.999Z</time></trkpt><trkpt lat="42.58334619880177" lon="12.006783592359488"><ele>401.0</ele><time>2026-04-11T15:03:31.999Z</time></trkpt><trkpt lat="42.583274047201726" lon="12.006870449667787"><ele>401.0</ele><time>2026-04-11T15:03:34.999Z</time></trkpt><trkpt lat="42.58320792917618" lon="12.006961843562802"><ele>401.0</ele><time>2026-04-11T15:03:37.999Z</time></trkpt><trkpt lat="42.58314463474323" lon="12.00704189189433"><ele>401.0</ele><time>2026-04-11T15:03:40.999Z</time></trkpt><trkpt lat="42.58309778751708" lon="12.007100760959679"><ele>401.0</ele><time>2026-04-11T15:03:42.999Z</time></trkpt><trkpt lat="42.58304162601681" lon="12.007145046003586"><ele>401.0</ele><time>2026-04-11T15:03:44.999Z</time></trkpt><trkpt lat="42.58298645918687" lon="12.007200105439185"><ele>401.0</ele><time>2026-04-11T15:03:46.999Z</time></trkpt><trkpt lat="42.582936993764164" lon="12.007262185132387"><ele>401.0</ele><time>2026-04-11T15:03:48.999Z</time></trkpt><trkpt lat="42.58288190419973" lon="12.007314125896558"><ele>401.3333333333333</ele><time>2026-04-11T15:03:50.999Z</time></trkpt><trkpt lat="42.5828308864511" lon="12.007366681516894"><ele>401.66666666666663</ele><time>2026-04-11T15:03:52.999Z</time></trkpt><trkpt lat="42.582780468713786" lon="12.007425019725996"><ele>402.0</ele><time>2026-04-11T15:03:54.999Z</time></trkpt><trkpt lat="42.58272684574172" lon="12.007476138664227"><ele>402.33333333333337</ele><time>2026-04-11T15:03:56.999Z</time></trkpt><trkpt lat="42.582653641450264" lon="12.007545484855457"><ele>402.6666666666667</ele><time>2026-04-11T15:03:59.999Z</time></trkpt><trkpt lat="42.582586940283775" lon="12.007625833712968"><ele>403.0</ele><time>2026-04-11T15:04:02.999Z</time></trkpt><trkpt lat="42.58251110222332" lon="12.007702272952733"><ele>403.00000000000006</ele><time>2026-04-11T15:04:05.999Z</time></trkpt><trkpt lat="42.582436756582744" lon="12.007780478284888"><ele>403.0</ele><time>2026-04-11T15:04:08.999Z</time></trkpt><trkpt lat="42.582386202202386" lon="12.007834212403521"><ele>403.0</ele><time>2026-04-11T15:04:10.999Z</time></trkpt><trkpt lat="42.582337229696485" lon="12.007890796183498"><ele>403.0</ele><time>2026-04-11T15:04:12.998Z</time></trkpt><trkpt lat="42.582286393093916" lon="12.007948274399645"><ele>403.00000000000006</ele><time>2026-04-11T15:04:14.998Z</time></trkpt><trkpt lat="42.58221416859607" lon="12.008019105901985"><ele>403.0</ele><time>2026-04-11T15:04:17.998Z</time></trkpt><trkpt lat="42.5821399958235" lon="12.008087996620414"><ele>403.00000000000006</ele><time>2026-04-11T15:04:20.998Z</time></trkpt><trkpt lat="42.58208438392001" lon="12.008128865348025"><ele>403.0</ele><time>2026-04-11T15:04:22.998Z</time></trkpt><trkpt lat="42.58202485200712" lon="12.00816214885473"><ele>403.0</ele><time>2026-04-11T15:04:24.998Z</time></trkpt><trkpt lat="42.58193940532506" lon="12.008213077172924"><ele>403.0</ele><time>2026-04-11T15:04:27.998Z</time></trkpt><trkpt lat="42.58187630064164" lon="12.008240752859262"><ele>403.00000000000006</ele><time>2026-04-11T15:04:29.998Z</time></trkpt><trkpt lat="42.58179833147913" lon="12.00825672986191"><ele>403.0</ele><time>2026-04-11T15:04:32.998Z</time></trkpt><trkpt lat="42.58170881925652" lon="12.008265930149463"><ele>402.1666666666667</ele><time>2026-04-11T15:04:35.998Z</time></trkpt><trkpt lat="42.581622568014225" lon="12.008274670366276"><ele>401.33333333333337</ele><time>2026-04-11T15:04:38.998Z</time></trkpt><trkpt lat="42.58153809467288" lon="12.00826875578048"><ele>400.5</ele><time>2026-04-11T15:04:41.998Z</time></trkpt><trkpt lat="42.58145583763872" lon="12.008276958154502"><ele>399.66666666666663</ele><time>2026-04-11T15:04:44.998Z</time></trkpt><trkpt lat="42.581392410425096" lon="12.008287667247254"><ele>398.8333333333333</ele><time>2026-04-11T15:04:46.998Z</time></trkpt><trkpt lat="42.58132936249794" lon="12.008298072144123"><ele>398.0</ele><time>2026-04-11T15:04:48.998Z</time></trkpt><trkpt lat="42.581238868867885" lon="12.008316208261085"><ele>399.66666666666663</ele><time>2026-04-11T15:04:51.998Z</time></trkpt><trkpt lat="42.58115238370454" lon="12.008341641516669"><ele>401.3333333333333</ele><time>2026-04-11T15:04:54.998Z</time></trkpt><trkpt lat="42.58106768514807" lon="12.008383479371416"><ele>403.0</ele><time>2026-04-11T15:04:57.998Z</time></trkpt><trkpt lat="42.58099064307677" lon="12.008439860030709"><ele>404.66666666666663</ele><time>2026-04-11T15:05:00.997Z</time></trkpt><trkpt lat="42.58091628515225" lon="12.008498274172567"><ele>406.3333333333333</ele><time>2026-04-11T15:05:03.997Z</time></trkpt><trkpt lat="42.58085021473792" lon="12.008576669722883"><ele>408.0</ele><time>2026-04-11T15:05:06.997Z</time></trkpt><trkpt lat="42.58079067497512" lon="12.008657318466266"><ele>408.0</ele><time>2026-04-11T15:05:09.997Z</time></trkpt><trkpt lat="42.58072724582274" lon="12.008731458491424"><ele>408.0</ele><time>2026-04-11T15:05:12.997Z</time></trkpt><trkpt lat="42.58066795834927" lon="12.00880178016604"><ele>408.0</ele><time>2026-04-11T15:05:15.997Z</time></trkpt><trkpt lat="42.58060935324306" lon="12.008878598990046"><ele>408.0</ele><time>2026-04-11T15:05:19Z</time></trkpt><trkpt lat="42.58054801295351" lon="12.008956818303025"><ele>408.0</ele><time>2026-04-11T15:05:21.999Z</time></trkpt><trkpt lat="42.58049114161354" lon="12.009041477874822"><ele>408.0</ele><time>2026-04-11T15:05:24.999Z</time></trkpt><trkpt lat="42.580436094771606" lon="12.00912123509046"><ele>408.5</ele><time>2026-04-11T15:05:28Z</time></trkpt><trkpt lat="42.58037429812749" lon="12.009193303730422"><ele>409.0</ele><time>2026-04-11T15:05:31Z</time></trkpt><trkpt lat="42.580308460610944" lon="12.009259042653856"><ele>409.5</ele><time>2026-04-11T15:05:34Z</time></trkpt><trkpt lat="42.58024336672163" lon="12.009344947918649"><ele>410.0</ele><time>2026-04-11T15:05:37Z</time></trkpt><trkpt lat="42.580186956555835" lon="12.009421991702409"><ele>410.5</ele><time>2026-04-11T15:05:40Z</time></trkpt><trkpt lat="42.5801238334955" lon="12.009495785340997"><ele>411.0</ele><time>2026-04-11T15:05:43Z</time></trkpt><trkpt lat="42.58006964754702" lon="12.009576530500668"><ele>411.0</ele><time>2026-04-11T15:05:46Z</time></trkpt><trkpt lat="42.580006763109125" lon="12.009659872390447"><ele>411.0</ele><time>2026-04-11T15:05:49Z</time></trkpt><trkpt lat="42.57995182678692" lon="12.009743685822821"><ele>411.0</ele><time>2026-04-11T15:05:52Z</time></trkpt><trkpt lat="42.57990795186644" lon="12.009805175596398"><ele>411.0</ele><time>2026-04-11T15:05:54Z</time></trkpt><trkpt lat="42.57984691687694" lon="12.009880283161275"><ele>411.0</ele><time>2026-04-11T15:05:57Z</time></trkpt><trkpt lat="42.579789203761045" lon="12.009957561205624"><ele>411.0</ele><time>2026-04-11T15:05:59.999Z</time></trkpt><trkpt lat="42.579727208656436" lon="12.010034025413516"><ele>411.3333333333333</ele><time>2026-04-11T15:06:02.999Z</time></trkpt><trkpt lat="42.5796657299432" lon="12.010109618007323"><ele>411.66666666666663</ele><time>2026-04-11T15:06:05.999Z</time></trkpt><trkpt lat="42.579604417161185" lon="12.010188278455624"><ele>412.0</ele><time>2026-04-11T15:06:08.999Z</time></trkpt><trkpt lat="42.579549330888895" lon="12.01025301853058"><ele>412.3333333333333</ele><time>2026-04-11T15:06:11.999Z</time></trkpt><trkpt lat="42.5794796964385" lon="12.010308983820638"><ele>412.66666666666663</ele><time>2026-04-11T15:06:14.999Z</time></trkpt><trkpt lat="42.57939610476335" lon="12.010352123121633"><ele>413.0</ele><time>2026-04-11T15:06:17.999Z</time></trkpt><trkpt lat="42.57931371100675" lon="12.010385783534492"><ele>413.3333333333333</ele><time>2026-04-11T15:06:20.999Z</time></trkpt><trkpt lat="42.57924030733189" lon="12.010399165831053"><ele>413.66666666666663</ele><time>2026-04-11T15:06:23.999Z</time></trkpt><trkpt lat="42.57916303787869" lon="12.010405226915571"><ele>414.0</ele><time>2026-04-11T15:06:26.999Z</time></trkpt><trkpt lat="42.57908550778763" lon="12.010405593845949"><ele>414.33333333333337</ele><time>2026-04-11T15:06:29.999Z</time></trkpt><trkpt lat="42.579007540059735" lon="12.010394900603186"><ele>414.6666666666667</ele><time>2026-04-11T15:06:32.999Z</time></trkpt><trkpt lat="42.57892254666032" lon="12.01038691040852"><ele>415.0</ele><time>2026-04-11T15:06:35.999Z</time></trkpt><trkpt lat="42.578842188903636" lon="12.010369762332866"><ele>415.00000000000006</ele><time>2026-04-11T15:06:38.999Z</time></trkpt><trkpt lat="42.57875498437743" lon="12.010366824292845"><ele>415.0</ele><time>2026-04-11T15:06:41.999Z</time></trkpt><trkpt lat="42.578668795702654" lon="12.01035496134028"><ele>415.0</ele><time>2026-04-11T15:06:44.998Z</time></trkpt><trkpt lat="42.578582100491964" lon="12.01034553072214"><ele>415.0</ele><time>2026-04-11T15:06:47.998Z</time></trkpt><trkpt lat="42.57850275780386" lon="12.010335652102155"><ele>415.00000000000006</ele><time>2026-04-11T15:06:50.998Z</time></trkpt><trkpt lat="42.57843550717161" lon="12.0103151823374"><ele>415.0</ele><time>2026-04-11T15:06:53.998Z</time></trkpt><trkpt lat="42.578368246312436" lon="12.010295309132411"><ele>416.50000000000006</ele><time>2026-04-11T15:07:00.998Z</time></trkpt><trkpt lat="42.57830443663929" lon="12.0103255075692"><ele>418.0</ele><time>2026-04-11T15:08:42.998Z</time></trkpt><trkpt lat="42.57823723252791" lon="12.010329752552911"><ele>419.5</ele><time>2026-04-11T15:08:45.998Z</time></trkpt><trkpt lat="42.57815011734901" lon="12.010304613648614"><ele>421.0</ele><time>2026-04-11T15:08:49.998Z</time></trkpt><trkpt lat="42.57806030351794" lon="12.010286755164806"><ele>422.50000000000006</ele><time>2026-04-11T15:08:52.998Z</time></trkpt><trkpt lat="42.577990631332064" lon="12.010282330607177"><ele>424.0</ele><time>2026-04-11T15:08:54.998Z</time></trkpt><trkpt lat="42.57790406995757" lon="12.0102885891135"><ele>424.0</ele><time>2026-04-11T15:08:57.998Z</time></trkpt><trkpt lat="42.57783653266974" lon="12.010279887134043"><ele>424.0</ele><time>2026-04-11T15:08:59.998Z</time></trkpt><trkpt lat="42.57776541527967" lon="12.010271965997532"><ele>424.0</ele><time>2026-04-11T15:09:01.998Z</time></trkpt><trkpt lat="42.57767646972089" lon="12.010266232268808"><ele>424.0</ele><time>2026-04-11T15:09:04.998Z</time></trkpt><trkpt lat="42.57760931746947" lon="12.010267298136851"><ele>424.0</ele><time>2026-04-11T15:09:06.998Z</time></trkpt><trkpt lat="42.577545655301115" lon="12.010262240029236"><ele>424.0</ele><time>2026-04-11T15:09:08.998Z</time></trkpt><trkpt lat="42.57747617663927" lon="12.010258605667516"><ele>424.0</ele><time>2026-04-11T15:09:10.998Z</time></trkpt><trkpt lat="42.57740050755078" lon="12.01024973601874"><ele>424.00000000000006</ele><time>2026-04-11T15:09:12.998Z</time></trkpt><trkpt lat="42.577307684962065" lon="12.01023959764228"><ele>424.0</ele><time>2026-04-11T15:09:15.997Z</time></trkpt><trkpt lat="42.57724358693059" lon="12.01023624894555"><ele>424.0</ele><time>2026-04-11T15:09:17.997Z</time></trkpt><trkpt lat="42.57717886516517" lon="12.01023382145474"><ele>424.0</ele><time>2026-04-11T15:09:19.997Z</time></trkpt><trkpt lat="42.5771032001095" lon="12.010234043422768"><ele>424.00000000000006</ele><time>2026-04-11T15:09:21.997Z</time></trkpt><trkpt lat="42.57702756884361" lon="12.010219420332726"><ele>424.0</ele><time>2026-04-11T15:09:23.997Z</time></trkpt><trkpt lat="42.57695276857695" lon="12.010202554509613"><ele>423.6666666666667</ele><time>2026-04-11T15:09:25.997Z</time></trkpt><trkpt lat="42.57688831567178" lon="12.01020277647749"><ele>423.33333333333337</ele><time>2026-04-11T15:09:27.997Z</time></trkpt><trkpt lat="42.57680829637884" lon="12.010195056987682"><ele>423.0</ele><time>2026-04-11T15:09:31Z</time></trkpt><trkpt lat="42.57672885317319" lon="12.010190971171808"><ele>422.66666666666663</ele><time>2026-04-11T15:09:33.999Z</time></trkpt><trkpt lat="42.576630632757904" lon="12.010178549293567"><ele>422.3333333333333</ele><time>2026-04-11T15:09:36.999Z</time></trkpt><trkpt lat="42.57655884867067" lon="12.01016875265581"><ele>422.0</ele><time>2026-04-11T15:09:39Z</time></trkpt><trkpt lat="42.57648696026238" lon="12.010179977771095"><ele>422.0</ele><time>2026-04-11T15:09:40.999Z</time></trkpt><trkpt lat="42.576410246258455" lon="12.010166717651147"><ele>422.0</ele><time>2026-04-11T15:09:44Z</time></trkpt><trkpt lat="42.576338938645904" lon="12.010166918996017"><ele>422.0</ele><time>2026-04-11T15:09:47Z</time></trkpt><trkpt lat="42.57627607039651" lon="12.010155356130328"><ele>422.0</ele><time>2026-04-11T15:09:49.999Z</time></trkpt><trkpt lat="42.576184342371604" lon="12.0101498584242"><ele>422.0</ele><time>2026-04-11T15:09:52.999Z</time></trkpt><trkpt lat="42.576119290035294" lon="12.0101347347575"><ele>422.0</ele><time>2026-04-11T15:09:54.999Z</time></trkpt><trkpt lat="42.576050269768025" lon="12.010120160678714"><ele>422.0</ele><time>2026-04-11T15:09:56.999Z</time></trkpt><trkpt lat="42.57596186544785" lon="12.010107166093803"><ele>422.16666666666663</ele><time>2026-04-11T15:09:59.999Z</time></trkpt><trkpt lat="42.57588301685149" lon="12.010100896394405"><ele>422.3333333333333</ele><time>2026-04-11T15:10:02.999Z</time></trkpt><trkpt lat="42.57582111045441" lon="12.010083082452642"><ele>422.5</ele><time>2026-04-11T15:10:04.999Z</time></trkpt><trkpt lat="42.57574352060307" lon="12.010080421782256"><ele>422.66666666666663</ele><time>2026-04-11T15:10:06.999Z</time></trkpt><trkpt lat="42.57565362077964" lon="12.010089985836288"><ele>422.8333333333333</ele><time>2026-04-11T15:10:09.999Z</time></trkpt><trkpt lat="42.575559754361684" lon="12.010084228104143"><ele>423.0</ele><time>2026-04-11T15:10:12.999Z</time></trkpt><trkpt lat="42.57548373539986" lon="12.010071819597261"><ele>423.0</ele><time>2026-04-11T15:10:14.999Z</time></trkpt><trkpt lat="42.57541645279624" lon="12.01006395453339"><ele>423.0</ele><time>2026-04-11T15:10:16.999Z</time></trkpt><trkpt lat="42.57533008676331" lon="12.010053546716875"><ele>423.0</ele><time>2026-04-11T15:10:19.999Z</time></trkpt><trkpt lat="42.57525631413129" lon="12.010043539414092"><ele>423.0</ele><time>2026-04-11T15:10:21.999Z</time></trkpt><trkpt lat="42.57517394329913" lon="12.010056679101838"><ele>423.0</ele><time>2026-04-11T15:10:23.999Z</time></trkpt><trkpt lat="42.57510573610689" lon="12.010045125305798"><ele>423.0</ele><time>2026-04-11T15:10:25.999Z</time></trkpt><trkpt lat="42.57501549092112" lon="12.010035262202132"><ele>423.1428571428571</ele><time>2026-04-11T15:10:28.999Z</time></trkpt><trkpt lat="42.57494696816197" lon="12.010032374558035"><ele>423.28571428571433</ele><time>2026-04-11T15:10:30.999Z</time></trkpt><trkpt lat="42.57487214995296" lon="12.01001160041177"><ele>423.42857142857144</ele><time>2026-04-11T15:10:32.999Z</time></trkpt><trkpt lat="42.574799722576785" lon="12.010005550590334"><ele>423.57142857142856</ele><time>2026-04-11T15:10:34.998Z</time></trkpt><trkpt lat="42.57473673801588" lon="12.009998959250769"><ele>423.71428571428567</ele><time>2026-04-11T15:10:36.998Z</time></trkpt><trkpt lat="42.57464790676019" lon="12.009985976153779"><ele>423.8571428571429</ele><time>2026-04-11T15:10:39.998Z</time></trkpt><trkpt lat="42.57457108048783" lon="12.009989971803408"><ele>424.0</ele><time>2026-04-11T15:10:42.998Z</time></trkpt><trkpt lat="42.574507655947535" lon="12.009977233042704"><ele>424.6666666666667</ele><time>2026-04-11T15:10:44.998Z</time></trkpt><trkpt lat="42.5744390530893" lon="12.009957250256722"><ele>425.33333333333337</ele><time>2026-04-11T15:10:46.998Z</time></trkpt><trkpt lat="42.574355167978226" lon="12.00995543678538"><ele>426.0</ele><time>2026-04-11T15:10:48.998Z</time></trkpt><trkpt lat="42.57427621217348" lon="12.009952339597321"><ele>426.66666666666663</ele><time>2026-04-11T15:10:50.998Z</time></trkpt><trkpt lat="42.57420369816142" lon="12.00994964727088"><ele>427.3333333333333</ele><time>2026-04-11T15:10:52.998Z</time></trkpt><trkpt lat="42.57412959908506" lon="12.00994513032866"><ele>428.0</ele><time>2026-04-11T15:10:54.998Z</time></trkpt><trkpt lat="42.5740449557556" lon="12.009937068213537"><ele>427.99999999999994</ele><time>2026-04-11T15:10:56.998Z</time></trkpt><trkpt lat="42.57396119136542" lon="12.009926202608828"><ele>428.0</ele><time>2026-04-11T15:10:58.998Z</time></trkpt><trkpt lat="42.57387601714838" lon="12.009909087530517"><ele>428.0</ele><time>2026-04-11T15:11:00.998Z</time></trkpt><trkpt lat="42.57378958441118" lon="12.00990446755435"><ele>428.0</ele><time>2026-04-11T15:11:02.998Z</time></trkpt><trkpt lat="42.573720796096275" lon="12.00989025130797"><ele>427.99999999999994</ele><time>2026-04-11T15:11:04.998Z</time></trkpt><trkpt lat="42.57365166253254" lon="12.009891195048784"><ele>428.0</ele><time>2026-04-11T15:11:06.998Z</time></trkpt><trkpt lat="42.573571007808084" lon="12.009882135800417"><ele>427.66666666666663</ele><time>2026-04-11T15:11:08.998Z</time></trkpt><trkpt lat="42.57349037719142" lon="12.00986927759901"><ele>427.3333333333333</ele><time>2026-04-11T15:11:10.998Z</time></trkpt><trkpt lat="42.573411286233004" lon="12.009849116418813"><ele>427.0</ele><time>2026-04-11T15:11:12.998Z</time></trkpt><trkpt lat="42.573332630509626" lon="12.009843397520788"><ele>426.66666666666663</ele><time>2026-04-11T15:11:14.998Z</time></trkpt><trkpt lat="42.57326537084203" lon="12.00982348888285"><ele>426.3333333333333</ele><time>2026-04-11T15:11:16.998Z</time></trkpt><trkpt lat="42.573183825407355" lon="12.009807855087681"><ele>426.0</ele><time>2026-04-11T15:11:18.998Z</time></trkpt><trkpt lat="42.57310952682759" lon="12.009791534599884"><ele>425.99999999999994</ele><time>2026-04-11T15:11:20.997Z</time></trkpt><trkpt lat="42.573036592143545" lon="12.009776427709335"><ele>426.0</ele><time>2026-04-11T15:11:22.997Z</time></trkpt><trkpt lat="42.57296631623313" lon="12.009756714332985"><ele>426.0</ele><time>2026-04-11T15:11:24.997Z</time></trkpt><trkpt lat="42.572893525877916" lon="12.0097415097055"><ele>426.0</ele><time>2026-04-11T15:11:26.997Z</time></trkpt><trkpt lat="42.57282188856757" lon="12.00973372458972"><ele>426.0</ele><time>2026-04-11T15:11:28.997Z</time></trkpt><trkpt lat="42.57275087938132" lon="12.009720928821602"><ele>425.99999999999994</ele><time>2026-04-11T15:11:30.997Z</time></trkpt><trkpt lat="42.57268169778612" lon="12.009693360102261"><ele>426.0</ele><time>2026-04-11T15:11:32.997Z</time></trkpt><trkpt lat="42.57261767752916" lon="12.0096737015609"><ele>425.57142857142856</ele><time>2026-04-11T15:11:34.997Z</time></trkpt><trkpt lat="42.57254785981125" lon="12.009669097036689"><ele>425.1428571428571</ele><time>2026-04-11T15:11:36.999Z</time></trkpt><trkpt lat="42.57247767264271" lon="12.00964815180121"><ele>424.71428571428567</ele><time>2026-04-11T15:11:39Z</time></trkpt><trkpt lat="42.572409954877976" lon="12.00963280017079"><ele>424.2857142857143</ele><time>2026-04-11T15:11:41Z</time></trkpt><trkpt lat="42.57233438284122" lon="12.009617432798944"><ele>423.8571428571429</ele><time>2026-04-11T15:11:43Z</time></trkpt><trkpt lat="42.57226062251578" lon="12.009598483948588"><ele>423.4285714285714</ele><time>2026-04-11T15:11:45Z</time></trkpt><trkpt lat="42.57218520083382" lon="12.009582726907691"><ele>423.0</ele><time>2026-04-11T15:11:46.999Z</time></trkpt><trkpt lat="42.57210575769162" lon="12.009558310429563"><ele>423.0</ele><time>2026-04-11T15:11:48.999Z</time></trkpt><trkpt lat="42.572030802953606" lon="12.009541128566653"><ele>423.0</ele><time>2026-04-11T15:11:50.999Z</time></trkpt><trkpt lat="42.57195959051355" lon="12.009521107283458"><ele>423.0</ele><time>2026-04-11T15:11:52.999Z</time></trkpt><trkpt lat="42.571887819084" lon="12.00949965053877"><ele>423.0</ele><time>2026-04-11T15:11:54.999Z</time></trkpt><trkpt lat="42.57181502471568" lon="12.00948710787547"><ele>423.0</ele><time>2026-04-11T15:11:56.999Z</time></trkpt><trkpt lat="42.57174128141643" lon="12.009474844129146"><ele>423.0</ele><time>2026-04-11T15:11:58.999Z</time></trkpt><trkpt lat="42.57166536153798" lon="12.009461527166708"><ele>423.0</ele><time>2026-04-11T15:12:00.999Z</time></trkpt><trkpt lat="42.57158873956741" lon="12.009440198036739"><ele>423.0</ele><time>2026-04-11T15:12:02.999Z</time></trkpt><trkpt lat="42.57151605609477" lon="12.009416864910044"><ele>423.0</ele><time>2026-04-11T15:12:04.999Z</time></trkpt><trkpt lat="42.57144502269524" lon="12.009403721094557"><ele>423.0</ele><time>2026-04-11T15:12:06.999Z</time></trkpt><trkpt lat="42.571373176586874" lon="12.00938302025474"><ele>423.0</ele><time>2026-04-11T15:12:08.999Z</time></trkpt><trkpt lat="42.5713018103868" lon="12.009367827536657"><ele>423.0</ele><time>2026-04-11T15:12:10.999Z</time></trkpt><trkpt lat="42.57122576381104" lon="12.009349669531998"><ele>423.0</ele><time>2026-04-11T15:12:12.999Z</time></trkpt><trkpt lat="42.57114756421523" lon="12.00933357318383"><ele>423.0</ele><time>2026-04-11T15:12:14.999Z</time></trkpt><trkpt lat="42.571074104461864" lon="12.009311972720344"><ele>423.0</ele><time>2026-04-11T15:12:16.999Z</time></trkpt><trkpt lat="42.570997549445025" lon="12.009303843639984"><ele>423.0</ele><time>2026-04-11T15:12:18.999Z</time></trkpt><trkpt lat="42.57091964011336" lon="12.009280198077052"><ele>423.0</ele><time>2026-04-11T15:12:20.999Z</time></trkpt><trkpt lat="42.57084033754735" lon="12.009257855230825"><ele>423.0</ele><time>2026-04-11T15:12:22.999Z</time></trkpt><trkpt lat="42.57075785409112" lon="12.009233973862518"><ele>423.0</ele><time>2026-04-11T15:12:24.998Z</time></trkpt><trkpt lat="42.57067902129175" lon="12.009219250938475"><ele>423.0</ele><time>2026-04-11T15:12:26.998Z</time></trkpt><trkpt lat="42.570598891510315" lon="12.009202086941762"><ele>423.0</ele><time>2026-04-11T15:12:28.998Z</time></trkpt><trkpt lat="42.570525547201676" lon="12.00918073567483"><ele>423.0</ele><time>2026-04-11T15:12:30.998Z</time></trkpt><trkpt lat="42.570449880066434" lon="12.00916982223623"><ele>423.0</ele><time>2026-04-11T15:12:32.998Z</time></trkpt><trkpt lat="42.570375922453735" lon="12.009164012303268"><ele>423.0</ele><time>2026-04-11T15:12:34.998Z</time></trkpt><trkpt lat="42.57030895527489" lon="12.009160630305173"><ele>423.0</ele><time>2026-04-11T15:12:36.998Z</time></trkpt><trkpt lat="42.57024026232719" lon="12.009167327752223"><ele>423.0</ele><time>2026-04-11T15:12:38.998Z</time></trkpt><trkpt lat="42.570144893954804" lon="12.009168495981179"><ele>422.8333333333333</ele><time>2026-04-11T15:12:41.998Z</time></trkpt><trkpt lat="42.57008244689042" lon="12.009183021978474"><ele>422.66666666666663</ele><time>2026-04-11T15:12:43.998Z</time></trkpt><trkpt lat="42.57001263108053" lon="12.00919493497493"><ele>422.5</ele><time>2026-04-11T15:12:45.998Z</time></trkpt><trkpt lat="42.569939078127376" lon="12.00919165551041"><ele>422.3333333333333</ele><time>2026-04-11T15:12:48.998Z</time></trkpt><trkpt lat="42.56986953422011" lon="12.009211599697762"><ele>422.16666666666663</ele><time>2026-04-11T15:12:50.998Z</time></trkpt><trkpt lat="42.56978566934334" lon="12.009220037717354"><ele>422.0</ele><time>2026-04-11T15:12:53.998Z</time></trkpt><trkpt lat="42.56969809899068" lon="12.009222205237387"><ele>421.99999999999994</ele><time>2026-04-11T15:12:56.998Z</time></trkpt><trkpt lat="42.56961256052735" lon="12.00923383426903"><ele>422.0</ele><time>2026-04-11T15:12:59.998Z</time></trkpt><trkpt lat="42.56952996358357" lon="12.009249906941797"><ele>422.0</ele><time>2026-04-11T15:13:02.998Z</time></trkpt><trkpt lat="42.56945292278981" lon="12.009265649671601"><ele>422.0</ele><time>2026-04-11T15:13:05.998Z</time></trkpt><trkpt lat="42.56937410319623" lon="12.009273937945101"><ele>421.99999999999994</ele><time>2026-04-11T15:13:08.998Z</time></trkpt><trkpt lat="42.56929596821417" lon="12.009288338425103"><ele>422.0</ele><time>2026-04-11T15:13:11.997Z</time></trkpt><trkpt lat="42.56921933804776" lon="12.009292575028594"><ele>422.16666666666663</ele><time>2026-04-11T15:13:14.997Z</time></trkpt><trkpt lat="42.569135805358414" lon="12.009296073529693"><ele>422.3333333333333</ele><time>2026-04-11T15:13:17.997Z</time></trkpt><trkpt lat="42.569048947906076" lon="12.009305786256958"><ele>422.5</ele><time>2026-04-11T15:13:20.997Z</time></trkpt><trkpt lat="42.568967567788214" lon="12.009318710854505"><ele>422.66666666666663</ele><time>2026-04-11T15:13:23.997Z</time></trkpt><trkpt lat="42.568876021634125" lon="12.009313056003677"><ele>422.8333333333333</ele><time>2026-04-11T15:13:26.997Z</time></trkpt><trkpt lat="42.56879423065477" lon="12.009321313282053"><ele>423.0</ele><time>2026-04-11T15:13:29.997Z</time></trkpt><trkpt lat="42.568717119515725" lon="12.00934280830711"><ele>424.57142857142856</ele><time>2026-04-11T15:13:32.997Z</time></trkpt><trkpt lat="42.568647883882974" lon="12.009358037482334"><ele>426.14285714285717</ele><time>2026-04-11T15:13:35.997Z</time></trkpt><trkpt lat="42.5685734077772" lon="12.009369361008616"><ele>427.7142857142857</ele><time>2026-04-11T15:13:38.997Z</time></trkpt><trkpt lat="42.568500448617236" lon="12.009374170637138"><ele>429.2857142857143</ele><time>2026-04-11T15:13:41.999Z</time></trkpt><trkpt lat="42.568429818977734" lon="12.009387493701851"><ele>430.8571428571429</ele><time>2026-04-11T15:13:45Z</time></trkpt><trkpt lat="42.56835751219832" lon="12.009393883445783"><ele>432.42857142857144</ele><time>2026-04-11T15:13:47.999Z</time></trkpt><trkpt lat="42.568288130087744" lon="12.009405438196348"><ele>434.0</ele><time>2026-04-11T15:13:51Z</time></trkpt><trkpt lat="42.568213220317006" lon="12.009409323789587"><ele>434.0</ele><time>2026-04-11T15:13:53.999Z</time></trkpt><trkpt lat="42.56814744197931" lon="12.009420307405307"><ele>434.0</ele><time>2026-04-11T15:13:57Z</time></trkpt><trkpt lat="42.56807701023868" lon="12.009432155296562"><ele>434.0</ele><time>2026-04-11T15:14:00Z</time></trkpt><trkpt lat="42.567988472039" lon="12.009447074790723"><ele>434.0</ele><time>2026-04-11T15:14:04Z</time></trkpt><trkpt lat="42.567925170596546" lon="12.009450680537187"><ele>434.0</ele><time>2026-04-11T15:14:07Z</time></trkpt><trkpt lat="42.567855501568985" lon="12.009454477314222"><ele>434.0</ele><time>2026-04-11T15:14:10Z</time></trkpt><trkpt lat="42.56777044256237" lon="12.009462900763564"><ele>434.0</ele><time>2026-04-11T15:14:14Z</time></trkpt><trkpt lat="42.567686996057525" lon="12.009464020623321"><ele>434.42857142857144</ele><time>2026-04-11T15:14:18Z</time></trkpt><trkpt lat="42.56762083128874" lon="12.009465459663591"><ele>434.8571428571429</ele><time>2026-04-11T15:14:21Z</time></trkpt><trkpt lat="42.567557575863944" lon="12.009476933811264"><ele>435.2857142857143</ele><time>2026-04-11T15:14:23.999Z</time></trkpt><trkpt lat="42.567486298356584" lon="12.00947231839572"><ele>435.7142857142857</ele><time>2026-04-11T15:14:26.999Z</time></trkpt><trkpt lat="42.56741728435324" lon="12.009449719540656"><ele>436.14285714285717</ele><time>2026-04-11T15:14:30.999Z</time></trkpt><trkpt lat="42.56734789307921" lon="12.009431172491912"><ele>436.57142857142856</ele><time>2026-04-11T15:14:33.999Z</time></trkpt><trkpt lat="42.56727860421841" lon="12.009399213247196"><ele>437.0</ele><time>2026-04-11T15:14:36.999Z</time></trkpt><trkpt lat="42.567215089265154" lon="12.009365507754366"><ele>436.99999999999994</ele><time>2026-04-11T15:14:39.999Z</time></trkpt><trkpt lat="42.56715439618845" lon="12.009323851568043"><ele>437.0</ele><time>2026-04-11T15:14:42.999Z</time></trkpt><trkpt lat="42.56709500390406" lon="12.00927236555044"><ele>437.0</ele><time>2026-04-11T15:14:45.999Z</time></trkpt><trkpt lat="42.56702780674445" lon="12.009207262417327"><ele>437.0</ele><time>2026-04-11T15:14:49.999Z</time></trkpt><trkpt lat="42.56696324370867" lon="12.009144532836206"><ele>436.99999999999994</ele><time>2026-04-11T15:14:53.999Z</time></trkpt><trkpt lat="42.566907536535204" lon="12.009069422010366"><ele>437.0</ele><time>2026-04-11T15:14:57.999Z</time></trkpt><trkpt lat="42.56685260376082" lon="12.00900217971237"><ele>437.7142857142857</ele><time>2026-04-11T15:15:01.999Z</time></trkpt><trkpt lat="42.56679993697615" lon="12.008920114975465"><ele>438.42857142857144</ele><time>2026-04-11T15:15:05.999Z</time></trkpt><trkpt lat="42.56675684163235" lon="12.008834789104826"><ele>439.14285714285717</ele><time>2026-04-11T15:15:09.998Z</time></trkpt><trkpt lat="42.566707213413004" lon="12.00875642839048"><ele>439.8571428571429</ele><time>2026-04-11T15:15:13.998Z</time></trkpt><trkpt lat="42.5666658418666" lon="12.008686664685518"><ele>440.57142857142856</ele><time>2026-04-11T15:15:16.998Z</time></trkpt><trkpt lat="42.56661452802883" lon="12.008606179756681"><ele>441.28571428571433</ele><time>2026-04-11T15:15:20.998Z</time></trkpt><trkpt lat="42.56657627940238" lon="12.008537440781813"><ele>442.0</ele><time>2026-04-11T15:15:23.998Z</time></trkpt><trkpt lat="42.56653613863401" lon="12.00847085605743"><ele>442.00000000000006</ele><time>2026-04-11T15:15:26.998Z</time></trkpt><trkpt lat="42.56648828838673" lon="12.008406927346718"><ele>442.0</ele><time>2026-04-11T15:15:29.998Z</time></trkpt><trkpt lat="42.56644682856545" lon="12.008342044745252"><ele>442.0</ele><time>2026-04-11T15:15:32.998Z</time></trkpt><trkpt lat="42.56640706424592" lon="12.008271243066247"><ele>442.0</ele><time>2026-04-11T15:15:35.998Z</time></trkpt><trkpt lat="42.5663631284962" lon="12.00819465547733"><ele>442.0</ele><time>2026-04-11T15:15:38.998Z</time></trkpt><trkpt lat="42.56631394618526" lon="12.008124212491582"><ele>442.00000000000006</ele><time>2026-04-11T15:15:41.998Z</time></trkpt><trkpt lat="42.56626420440682" lon="12.008041545696507"><ele>442.0</ele><time>2026-04-11T15:15:45.998Z</time></trkpt><trkpt lat="42.56621791721176" lon="12.00797083680027"><ele>443.0</ele><time>2026-04-11T15:15:49Z</time></trkpt><trkpt lat="42.56617892017132" lon="12.007902027956646"><ele>444.0</ele><time>2026-04-11T15:15:52Z</time></trkpt><trkpt lat="42.56613142991898" lon="12.007804809552326"><ele>445.0</ele><time>2026-04-11T15:15:56Z</time></trkpt><trkpt lat="42.56607316242475" lon="12.007721867183738"><ele>446.0</ele><time>2026-04-11T15:16:00Z</time></trkpt><trkpt lat="42.566028619413615" lon="12.007661191911765"><ele>446.99999999999994</ele><time>2026-04-11T15:16:03Z</time></trkpt><trkpt lat="42.56597209015304" lon="12.007601014172947"><ele>448.0</ele><time>2026-04-11T15:16:06Z</time></trkpt><trkpt lat="42.565919381627516" lon="12.007535938065606"><ele>449.0</ele><time>2026-04-11T15:16:09Z</time></trkpt><trkpt lat="42.565855213978914" lon="12.007494517129082"><ele>450.2857142857143</ele><time>2026-04-11T15:16:12Z</time></trkpt><trkpt lat="42.56578185574378" lon="12.00743408784617"><ele>451.57142857142856</ele><time>2026-04-11T15:16:16Z</time></trkpt><trkpt lat="42.56570225086385" lon="12.007404188726317"><ele>452.85714285714283</ele><time>2026-04-11T15:16:20Z</time></trkpt><trkpt lat="42.56563055262521" lon="12.007390104448056"><ele>454.1428571428571</ele><time>2026-04-11T15:16:23Z</time></trkpt><trkpt lat="42.56557445488084" lon="12.007339735848918"><ele>455.42857142857144</ele><time>2026-04-11T15:17:31.998Z</time></trkpt><trkpt lat="42.56551050248743" lon="12.007327785425971"><ele>456.71428571428567</ele><time>2026-04-11T15:17:35.998Z</time></trkpt><trkpt lat="42.565437331735154" lon="12.007314132373162"><ele>458.0</ele><time>2026-04-11T15:17:39.998Z</time></trkpt><trkpt lat="42.56536691168958" lon="12.00730289318863"><ele>457.99999999999994</ele><time>2026-04-11T15:17:42.998Z</time></trkpt><trkpt lat="42.56530000392483" lon="12.007288450509005"><ele>458.0</ele><time>2026-04-11T15:17:45.998Z</time></trkpt><trkpt lat="42.565219577525276" lon="12.007273037702502"><ele>458.0</ele><time>2026-04-11T15:17:49.998Z</time></trkpt><trkpt lat="42.565138064764916" lon="12.007238810199555"><ele>458.0</ele><time>2026-04-11T15:17:54.998Z</time></trkpt><trkpt lat="42.5650756725542" lon="12.007218474266097"><ele>457.99999999999994</ele><time>2026-04-11T15:17:58.999Z</time></trkpt><trkpt lat="42.56500062802081" lon="12.007193034711216"><ele>458.0</ele><time>2026-04-11T15:18:03.999Z</time></trkpt><trkpt lat="42.56491729830797" lon="12.007170424560345"><ele>457.99999999999994</ele><time>2026-04-11T15:18:07.999Z</time></trkpt><trkpt lat="42.56483471554721" lon="12.00715059977796"><ele>458.0</ele><time>2026-04-11T15:18:11.999Z</time></trkpt><trkpt lat="42.564764562970375" lon="12.007140138156489"><ele>458.0</ele><time>2026-04-11T15:18:15.999Z</time></trkpt><trkpt lat="42.56468551998519" lon="12.007121506803907"><ele>458.0</ele><time>2026-04-11T15:18:19.999Z</time></trkpt><trkpt lat="42.56461933984953" lon="12.00709916685409"><ele>457.99999999999994</ele><time>2026-04-11T15:18:23.999Z</time></trkpt><trkpt lat="42.56452970329239" lon="12.007083440183557"><ele>458.0</ele><time>2026-04-11T15:18:27.999Z</time></trkpt><trkpt lat="42.564469299633856" lon="12.007049259392184"><ele>457.99999999999994</ele><time>2026-04-11T15:18:30.999Z</time></trkpt><trkpt lat="42.56439620267392" lon="12.00702256634575"><ele>458.0</ele><time>2026-04-11T15:18:34.999Z</time></trkpt><trkpt lat="42.56432955346043" lon="12.007004878135938"><ele>458.0</ele><time>2026-04-11T15:18:37.999Z</time></trkpt><trkpt lat="42.56423943534172" lon="12.006978229759007"><ele>458.0</ele><time>2026-04-11T15:18:41.999Z</time></trkpt><trkpt lat="42.56415774520161" lon="12.006949940301164"><ele>457.99999999999994</ele><time>2026-04-11T15:18:44.999Z</time></trkpt><trkpt lat="42.5640820295366" lon="12.006956521241614"><ele>458.0</ele><time>2026-04-11T15:18:48.999Z</time></trkpt><trkpt lat="42.564005860771154" lon="12.00695072957649"><ele>458.0</ele><time>2026-04-11T15:18:51.999Z</time></trkpt><trkpt lat="42.56394346909009" lon="12.006933677882802"><ele>458.0</ele><time>2026-04-11T15:18:54.999Z</time></trkpt><trkpt lat="42.56386399302843" lon="12.006908673886427"><ele>458.0</ele><time>2026-04-11T15:18:58.999Z</time></trkpt><trkpt lat="42.5637952882975" lon="12.006880019096197"><ele>458.0</ele><time>2026-04-11T15:19:02.999Z</time></trkpt><trkpt lat="42.56373124312953" lon="12.006852371858246"><ele>458.0</ele><time>2026-04-11T15:19:05.999Z</time></trkpt><trkpt lat="42.563639300863684" lon="12.006846571562496"><ele>458.0</ele><time>2026-04-11T15:19:09.998Z</time></trkpt><trkpt lat="42.56357482975022" lon="12.006810671025484"><ele>458.0</ele><time>2026-04-11T15:19:12.998Z</time></trkpt><trkpt lat="42.563509107599224" lon="12.006781425321668"><ele>458.99999999999994</ele><time>2026-04-11T15:19:16.998Z</time></trkpt><trkpt lat="42.563445377773725" lon="12.006772170124172"><ele>460.0</ele><time>2026-04-11T15:19:18.998Z</time></trkpt><trkpt lat="42.56336869323891" lon="12.006773834765792"><ele>461.0</ele><time>2026-04-11T15:19:20.998Z</time></trkpt><trkpt lat="42.563284063533565" lon="12.006760936728819"><ele>462.0</ele><time>2026-04-11T15:19:24.998Z</time></trkpt><trkpt lat="42.56320902309064" lon="12.006754438081789"><ele>462.99999999999994</ele><time>2026-04-11T15:19:27.998Z</time></trkpt><trkpt lat="42.56312458375136" lon="12.006730968021648"><ele>464.0</ele><time>2026-04-11T15:19:31.998Z</time></trkpt><trkpt lat="42.56304638246409" lon="12.006715982764616"><ele>463.99999999999994</ele><time>2026-04-11T15:19:35.998Z</time></trkpt><trkpt lat="42.562962203677195" lon="12.006696076009511"><ele>464.0</ele><time>2026-04-11T15:19:39.998Z</time></trkpt><trkpt lat="42.56289500176416" lon="12.006678567369802"><ele>464.0</ele><time>2026-04-11T15:19:42.998Z</time></trkpt><trkpt lat="42.56282789309261" lon="12.006672466105574"><ele>464.0</ele><time>2026-04-11T15:19:46.998Z</time></trkpt><trkpt lat="42.56275120535793" lon="12.006657182249107"><ele>463.99999999999994</ele><time>2026-04-11T15:19:49.998Z</time></trkpt><trkpt lat="42.5626653338686" lon="12.006632709160172"><ele>464.0</ele><time>2026-04-11T15:19:53.998Z</time></trkpt><trkpt lat="42.56258908579526" lon="12.00662684166923"><ele>462.49999999999994</ele><time>2026-04-11T15:19:57.997Z</time></trkpt><trkpt lat="42.562510904668805" lon="12.00659734138184"><ele>461.0</ele><time>2026-04-11T15:20:02Z</time></trkpt><trkpt lat="42.56244437947255" lon="12.006576085628721"><ele>459.5</ele><time>2026-04-11T15:20:05Z</time></trkpt><trkpt lat="42.562367834014985" lon="12.006558361219254"><ele>458.0</ele><time>2026-04-11T15:20:09Z</time></trkpt><trkpt lat="42.56229243013776" lon="12.006537002981933"><ele>456.49999999999994</ele><time>2026-04-11T15:20:13Z</time></trkpt><trkpt lat="42.562222642582306" lon="12.006523626065661"><ele>455.0</ele><time>2026-04-11T15:20:17Z</time></trkpt><trkpt lat="42.56214932656823" lon="12.006498132906582"><ele>455.0</ele><time>2026-04-11T15:20:21Z</time></trkpt><trkpt lat="42.56207363890796" lon="12.00648302763572"><ele>455.0</ele><time>2026-04-11T15:20:24.999Z</time></trkpt><trkpt lat="42.562004094533144" lon="12.00645406816836"><ele>455.0</ele><time>2026-04-11T15:20:28.999Z</time></trkpt><trkpt lat="42.561932105333376" lon="12.006427248727453"><ele>455.0</ele><time>2026-04-11T15:20:32.999Z</time></trkpt><trkpt lat="42.56185214273434" lon="12.006408974057623"><ele>455.0</ele><time>2026-04-11T15:20:36.999Z</time></trkpt><trkpt lat="42.56178006895282" lon="12.006393355273346"><ele>455.0</ele><time>2026-04-11T15:20:39.999Z</time></trkpt><trkpt lat="42.56170978311684" lon="12.006387912591585"><ele>455.0</ele><time>2026-04-11T15:20:42.999Z</time></trkpt><trkpt lat="42.5616431186379" lon="12.006377068571561"><ele>456.42857142857144</ele><time>2026-04-11T15:20:45.999Z</time></trkpt><trkpt lat="42.56157356088207" lon="12.006363805634926"><ele>457.8571428571429</ele><time>2026-04-11T15:20:49.999Z</time></trkpt><trkpt lat="42.56151118796809" lon="12.00634884605152"><ele>459.2857142857143</ele><time>2026-04-11T15:20:52.999Z</time></trkpt><trkpt lat="42.561431711139534" lon="12.006332939604786"><ele>460.7142857142857</ele><time>2026-04-11T15:20:56.999Z</time></trkpt><trkpt lat="42.56136579146688" lon="12.006300295467186"><ele>462.14285714285717</ele><time>2026-04-11T15:21:00.999Z</time></trkpt><trkpt lat="42.56130076570579" lon="12.006276402067455"><ele>463.57142857142856</ele><time>2026-04-11T15:21:04.999Z</time></trkpt><trkpt lat="42.56123553622719" lon="12.006270152214316"><ele>465.0</ele><time>2026-04-11T15:21:07.999Z</time></trkpt><trkpt lat="42.56116001509347" lon="12.006256066311213"><ele>465.71428571428567</ele><time>2026-04-11T15:21:11.999Z</time></trkpt><trkpt lat="42.56107968127836" lon="12.006247561545191"><ele>466.42857142857144</ele><time>2026-04-11T15:21:15.998Z</time></trkpt><trkpt lat="42.561000783499125" lon="12.006222649673889"><ele>467.1428571428571</ele><time>2026-04-11T15:21:19.998Z</time></trkpt><trkpt lat="42.5609241654239" lon="12.006217636163383"><ele>467.85714285714283</ele><time>2026-04-11T15:21:23.998Z</time></trkpt><trkpt lat="42.56085035658148" lon="12.006215519560953"><ele>468.57142857142856</ele><time>2026-04-11T15:21:26.998Z</time></trkpt><trkpt lat="42.56078404322109" lon="12.00620362295626"><ele>469.2857142857143</ele><time>2026-04-11T15:21:30.998Z</time></trkpt><trkpt lat="42.560720893229124" lon="12.006197981864037"><ele>470.0</ele><time>2026-04-11T15:21:33.998Z</time></trkpt><trkpt lat="42.56064944678403" lon="12.006172943690355"><ele>469.99999999999994</ele><time>2026-04-11T15:21:36.998Z</time></trkpt><trkpt lat="42.56057543383891" lon="12.00613974400557"><ele>470.0</ele><time>2026-04-11T15:21:40.998Z</time></trkpt><trkpt lat="42.56049501700038" lon="12.006105185763806"><ele>470.0</ele><time>2026-04-11T15:21:44.998Z</time></trkpt><trkpt lat="42.56042813243081" lon="12.00610368876906"><ele>470.0</ele><time>2026-04-11T15:21:47.998Z</time></trkpt><trkpt lat="42.56034951164336" lon="12.00610604077171"><ele>469.99999999999994</ele><time>2026-04-11T15:21:51.998Z</time></trkpt><trkpt lat="42.56027147779694" lon="12.006128474233364"><ele>470.0</ele><time>2026-04-11T15:21:55.998Z</time></trkpt><trkpt lat="42.56018780911972" lon="12.006151914269456"><ele>470.2857142857143</ele><time>2026-04-11T15:21:59.998Z</time></trkpt><trkpt lat="42.560118325362915" lon="12.00617815456722"><ele>470.57142857142856</ele><time>2026-04-11T15:22:03.998Z</time></trkpt><trkpt lat="42.56004493778242" lon="12.006211159140674"><ele>470.85714285714283</ele><time>2026-04-11T15:22:08Z</time></trkpt><trkpt lat="42.559985551997265" lon="12.006245192026643"><ele>471.1428571428571</ele><time>2026-04-11T15:22:11Z</time></trkpt><trkpt lat="42.559912187586114" lon="12.006302717811304"><ele>471.42857142857144</ele><time>2026-04-11T15:22:14Z</time></trkpt><trkpt lat="42.559854456999396" lon="12.006353848169661"><ele>471.71428571428567</ele><time>2026-04-11T15:22:16Z</time></trkpt><trkpt lat="42.559793528191854" lon="12.006394400619584"><ele>472.0</ele><time>2026-04-11T15:22:18Z</time></trkpt><trkpt lat="42.55972587044785" lon="12.006436877043386"><ele>472.00000000000006</ele><time>2026-04-11T15:22:20Z</time></trkpt><trkpt lat="42.559659331664456" lon="12.006478750489162"><ele>472.0</ele><time>2026-04-11T15:22:22Z</time></trkpt><trkpt lat="42.55959662507557" lon="12.00652178600746"><ele>472.0</ele><time>2026-04-11T15:22:24Z</time></trkpt><trkpt lat="42.559536024063924" lon="12.00656248289089"><ele>472.0</ele><time>2026-04-11T15:22:26Z</time></trkpt><trkpt lat="42.55944835453568" lon="12.00660540126361"><ele>472.00000000000006</ele><time>2026-04-11T15:22:29Z</time></trkpt><trkpt lat="42.55935980249123" lon="12.006636466238866"><ele>472.0</ele><time>2026-04-11T15:22:32Z</time></trkpt><trkpt lat="42.559277686847324" lon="12.006649960984438"><ele>473.00000000000006</ele><time>2026-04-11T15:22:35Z</time></trkpt><trkpt lat="42.55920383034968" lon="12.00664973635651"><ele>474.0</ele><time>2026-04-11T15:22:37.999Z</time></trkpt><trkpt lat="42.55913495206793" lon="12.006628138331829"><ele>475.0</ele><time>2026-04-11T15:22:40.999Z</time></trkpt><trkpt lat="42.55906696892227" lon="12.0065696767162"><ele>476.0</ele><time>2026-04-11T15:22:45.999Z</time></trkpt><trkpt lat="42.559014874841886" lon="12.006496135184785"><ele>477.00000000000006</ele><time>2026-04-11T15:22:49.999Z</time></trkpt><trkpt lat="42.55896415297028" lon="12.00641871700979"><ele>478.0</ele><time>2026-04-11T15:22:53.999Z</time></trkpt><trkpt lat="42.55890675986056" lon="12.006337944946749"><ele>478.00000000000006</ele><time>2026-04-11T15:22:57.999Z</time></trkpt><trkpt lat="42.55885662569214" lon="12.006250464595198"><ele>478.0</ele><time>2026-04-11T15:23:01.999Z</time></trkpt><trkpt lat="42.55880029952613" lon="12.00617376033512"><ele>478.00000000000006</ele><time>2026-04-11T15:23:05.999Z</time></trkpt><trkpt lat="42.558742897719526" lon="12.006129470227975"><ele>478.00000000000006</ele><time>2026-04-11T15:23:09.999Z</time></trkpt><trkpt lat="42.5587034391039" lon="12.006048118836762"><ele>478.0</ele><time>2026-04-11T15:23:13.999Z</time></trkpt><trkpt lat="42.558663166074126" lon="12.005971218299969"><ele>478.00000000000006</ele><time>2026-04-11T15:23:17.999Z</time></trkpt><trkpt lat="42.55862668536654" lon="12.005890340448168"><ele>478.00000000000006</ele><time>2026-04-11T15:23:20.999Z</time></trkpt><trkpt lat="42.55858718350997" lon="12.005784197892071"><ele>478.57142857142867</ele><time>2026-04-11T15:23:24.999Z</time></trkpt><trkpt lat="42.5585527969021" lon="12.005712499149002"><ele>479.14285714285717</ele><time>2026-04-11T15:23:27.998Z</time></trkpt><trkpt lat="42.558502631638156" lon="12.005650518508418"><ele>479.7142857142858</ele><time>2026-04-11T15:23:31.998Z</time></trkpt><trkpt lat="42.55844954643791" lon="12.005574371552337"><ele>480.28571428571433</ele><time>2026-04-11T15:23:34.998Z</time></trkpt><trkpt lat="42.55837940583561" lon="12.005516831880657"><ele>480.8571428571429</ele><time>2026-04-11T15:23:38.998Z</time></trkpt><trkpt lat="42.5583086890124" lon="12.005460233609934"><ele>481.42857142857144</ele><time>2026-04-11T15:23:41.998Z</time></trkpt><trkpt lat="42.558252579352406" lon="12.005396774384003"><ele>482.0</ele><time>2026-04-11T15:23:45.998Z</time></trkpt><trkpt lat="42.55819853891351" lon="12.005332697330733"><ele>481.99999999999994</ele><time>2026-04-11T15:23:48.998Z</time></trkpt><trkpt lat="42.55814745371031" lon="12.005280247596378"><ele>482.0</ele><time>2026-04-11T15:23:50.998Z</time></trkpt><trkpt lat="42.558072923429535" lon="12.005209108880132"><ele>482.0</ele><time>2026-04-11T15:23:54.998Z</time></trkpt><trkpt lat="42.55799509582159" lon="12.005129893427483"><ele>482.0</ele><time>2026-04-11T15:23:58.998Z</time></trkpt><trkpt lat="42.55791759544428" lon="12.00505966215825"><ele>481.99999999999994</ele><time>2026-04-11T15:24:02.998Z</time></trkpt><trkpt lat="42.55784798242603" lon="12.005014156644785"><ele>482.0</ele><time>2026-04-11T15:24:06.998Z</time></trkpt><trkpt lat="42.557786542342804" lon="12.004970079347679"><ele>481.3333333333333</ele><time>2026-04-11T15:24:10.998Z</time></trkpt><trkpt lat="42.55772166429808" lon="12.004927757435919"><ele>480.66666666666663</ele><time>2026-04-11T15:24:14Z</time></trkpt><trkpt lat="42.55764189606657" lon="12.004872656983192"><ele>480.0</ele><time>2026-04-11T15:24:18Z</time></trkpt><trkpt lat="42.55755506144878" lon="12.004842511172154"><ele>479.33333333333337</ele><time>2026-04-11T15:24:22Z</time></trkpt><trkpt lat="42.557491381588385" lon="12.004830153943095"><ele>478.6666666666667</ele><time>2026-04-11T15:24:25Z</time></trkpt><trkpt lat="42.557408209271316" lon="12.00481015235069"><ele>478.0</ele><time>2026-04-11T15:24:28Z</time></trkpt><trkpt lat="42.55731954274389" lon="12.004791784201142"><ele>478.00000000000006</ele><time>2026-04-11T15:24:32Z</time></trkpt><trkpt lat="42.55723805307191" lon="12.004763894357025"><ele>478.0</ele><time>2026-04-11T15:24:36Z</time></trkpt><trkpt lat="42.557158814737754" lon="12.004752629543304"><ele>478.0</ele><time>2026-04-11T15:24:40Z</time></trkpt><trkpt lat="42.55707443981271" lon="12.004747416428126"><ele>478.0</ele><time>2026-04-11T15:24:43.999Z</time></trkpt><trkpt lat="42.55699313359417" lon="12.00474603030278"><ele>478.00000000000006</ele><time>2026-04-11T15:24:47.999Z</time></trkpt><trkpt lat="42.55692414980789" lon="12.004746395104718"><ele>478.0</ele><time>2026-04-11T15:24:50.999Z</time></trkpt><trkpt lat="42.55685075880316" lon="12.004788946517566"><ele>478.83333333333337</ele><time>2026-04-11T15:24:54.999Z</time></trkpt><trkpt lat="42.55678905488641" lon="12.004822802456141"><ele>479.6666666666667</ele><time>2026-04-11T15:24:58.999Z</time></trkpt><trkpt lat="42.55671073768616" lon="12.004895689721618"><ele>480.5</ele><time>2026-04-11T15:25:02.999Z</time></trkpt><trkpt lat="42.556628188525416" lon="12.004936713010986"><ele>481.33333333333337</ele><time>2026-04-11T15:25:06.999Z</time></trkpt><trkpt lat="42.55653161539643" lon="12.00497459776153"><ele>482.1666666666667</ele><time>2026-04-11T15:25:10.999Z</time></trkpt><trkpt lat="42.556455777118146" lon="12.005036411027497"><ele>483.0</ele><time>2026-04-11T15:25:14.999Z</time></trkpt><trkpt lat="42.556380324136185" lon="12.005103365034309"><ele>483.8333333333333</ele><time>2026-04-11T15:25:18.999Z</time></trkpt><trkpt lat="42.55631603991893" lon="12.005173803117868"><ele>484.66666666666663</ele><time>2026-04-11T15:25:22.999Z</time></trkpt><trkpt lat="42.55625044208346" lon="12.005243113869659"><ele>485.5</ele><time>2026-04-11T15:25:26.999Z</time></trkpt><trkpt lat="42.55616691249955" lon="12.005265324077753"><ele>486.3333333333333</ele><time>2026-04-11T15:25:29.999Z</time></trkpt><trkpt lat="42.55610158301151" lon="12.005322800310648"><ele>487.16666666666663</ele><time>2026-04-11T15:25:32.998Z</time></trkpt><trkpt lat="42.55601527294537" lon="12.00535398304625"><ele>488.0</ele><time>2026-04-11T15:25:36.998Z</time></trkpt><trkpt lat="42.555938926673214" lon="12.005403619942568"><ele>487.99999999999994</ele><time>2026-04-11T15:25:39.998Z</time></trkpt><trkpt lat="42.55586161094649" lon="12.005455934124733"><ele>488.0</ele><time>2026-04-11T15:25:43.998Z</time></trkpt><trkpt lat="42.55578225113668" lon="12.005508613126862"><ele>488.0</ele><time>2026-04-11T15:25:47.998Z</time></trkpt><trkpt lat="42.55572008131617" lon="12.005549598734435"><ele>488.0</ele><time>2026-04-11T15:25:50.998Z</time></trkpt><trkpt lat="42.55563128115598" lon="12.005577313329672"><ele>487.99999999999994</ele><time>2026-04-11T15:25:54.998Z</time></trkpt><trkpt lat="42.55555900263518" lon="12.00560392782363"><ele>488.0</ele><time>2026-04-11T15:25:58.998Z</time></trkpt><trkpt lat="42.55549257466169" lon="12.00561878047573"><ele>487.99999999999994</ele><time>2026-04-11T15:26:02.998Z</time></trkpt><trkpt lat="42.55541380269121" lon="12.00564086232921"><ele>488.0</ele><time>2026-04-11T15:26:06.998Z</time></trkpt><trkpt lat="42.555329245926956" lon="12.00565836489189"><ele>488.0</ele><time>2026-04-11T15:26:10.998Z</time></trkpt><trkpt lat="42.555262757986185" lon="12.005674107837816"><ele>488.0</ele><time>2026-04-11T15:26:14.998Z</time></trkpt><trkpt lat="42.55519465789633" lon="12.005678678441297"><ele>487.99999999999994</ele><time>2026-04-11T15:26:18Z</time></trkpt><trkpt lat="42.555131775630855" lon="12.00568882991511"><ele>488.0</ele><time>2026-04-11T15:26:21Z</time></trkpt><trkpt lat="42.55504229982415" lon="12.005682301450335"><ele>488.1428571428571</ele><time>2026-04-11T15:26:25Z</time></trkpt><trkpt lat="42.55495945453712" lon="12.00565183694422"><ele>488.2857142857143</ele><time>2026-04-11T15:26:30Z</time></trkpt><trkpt lat="42.55489391008237" lon="12.005630916892885"><ele>488.42857142857144</ele><time>2026-04-11T15:26:34Z</time></trkpt><trkpt lat="42.5548252410056" lon="12.005613369345854"><ele>488.57142857142856</ele><time>2026-04-11T15:26:37Z</time></trkpt><trkpt lat="42.55475877780231" lon="12.005583786566772"><ele>488.7142857142858</ele><time>2026-04-11T15:26:40Z</time></trkpt><trkpt lat="42.55469261834335" lon="12.005538008282006"><ele>488.8571428571429</ele><time>2026-04-11T15:26:43Z</time></trkpt><trkpt lat="42.55464130584" lon="12.005486094288807"><ele>489.0</ele><time>2026-04-11T15:26:46Z</time></trkpt><trkpt lat="42.55458155835396" lon="12.005448510622974"><ele>491.6666666666667</ele><time>2026-04-11T15:26:49Z</time></trkpt><trkpt lat="42.55450513873535" lon="12.005435737051062"><ele>494.33333333333337</ele><time>2026-04-11T15:26:52Z</time></trkpt><trkpt lat="42.554424015225145" lon="12.005384171867735"><ele>497.0</ele><time>2026-04-11T15:26:55.999Z</time></trkpt><trkpt lat="42.55434168345631" lon="12.005345608969794"><ele>499.6666666666667</ele><time>2026-04-11T15:26:59.999Z</time></trkpt><trkpt lat="42.55427086797434" lon="12.005303044001556"><ele>502.33333333333337</ele><time>2026-04-11T15:27:02.999Z</time></trkpt><trkpt lat="42.554167574214055" lon="12.00526411685666"><ele>505.0</ele><time>2026-04-11T15:27:05.999Z</time></trkpt><trkpt lat="42.554074235862636" lon="12.005211014107747"><ele>505.00000000000006</ele><time>2026-04-11T15:27:07.999Z</time></trkpt><trkpt lat="42.55398706506268" lon="12.005206509021212"><ele>505.0</ele><time>2026-04-11T15:27:09.999Z</time></trkpt><trkpt lat="42.553895809771895" lon="12.005223385106971"><ele>505.0</ele><time>2026-04-11T15:27:11.999Z</time></trkpt><trkpt lat="42.553816736049235" lon="12.005270959609167"><ele>505.0</ele><time>2026-04-11T15:27:13.999Z</time></trkpt><trkpt lat="42.55374335818088" lon="12.005321742894932"><ele>505.00000000000006</ele><time>2026-04-11T15:27:15.999Z</time></trkpt><trkpt lat="42.55368729508405" lon="12.005383549956322"><ele>505.0</ele><time>2026-04-11T15:27:17.999Z</time></trkpt><trkpt lat="42.553652630492834" lon="12.005466451111936"><ele>504.00000000000006</ele><time>2026-04-11T15:27:19.999Z</time></trkpt><trkpt lat="42.55361875513512" lon="12.00555390942337"><ele>503.0</ele><time>2026-04-11T15:27:21.999Z</time></trkpt><trkpt lat="42.553606569543014" lon="12.005658614598824"><ele>502.0</ele><time>2026-04-11T15:27:23.999Z</time></trkpt><trkpt lat="42.553632052292485" lon="12.005764552495537"><ele>501.0</ele><time>2026-04-11T15:27:25.999Z</time></trkpt><trkpt lat="42.55365734965309" lon="12.005877229351194"><ele>500.00000000000006</ele><time>2026-04-11T15:27:27.999Z</time></trkpt><trkpt lat="42.55369879958953" lon="12.005985912936431"><ele>499.0</ele><time>2026-04-11T15:27:29.999Z</time></trkpt><trkpt lat="42.55373463784858" lon="12.006101655111257"><ele>502.1666666666667</ele><time>2026-04-11T15:27:31.999Z</time></trkpt><trkpt lat="42.55377927772069" lon="12.006207792827286"><ele>505.33333333333337</ele><time>2026-04-11T15:27:33.999Z</time></trkpt><trkpt lat="42.55382288854286" lon="12.006317873234385"><ele>508.5</ele><time>2026-04-11T15:27:35.999Z</time></trkpt><trkpt lat="42.553863072680535" lon="12.006418730185064"><ele>511.66666666666663</ele><time>2026-04-11T15:27:37.999Z</time></trkpt><trkpt lat="42.553894842907674" lon="12.006517846078783"><ele>514.8333333333333</ele><time>2026-04-11T15:27:39.999Z</time></trkpt><trkpt lat="42.55393139896853" lon="12.006597562671585"><ele>518.0</ele><time>2026-04-11T15:27:41.999Z</time></trkpt><trkpt lat="42.553961229198784" lon="12.006685254979141"><ele>518.0</ele><time>2026-04-11T15:27:43.998Z</time></trkpt><trkpt lat="42.55399228307312" lon="12.006764401896262"><ele>518.0</ele><time>2026-04-11T15:27:45.998Z</time></trkpt><trkpt lat="42.55401819069224" lon="12.006850490805716"><ele>518.0</ele><time>2026-04-11T15:27:47.998Z</time></trkpt><trkpt lat="42.55404900766022" lon="12.006931187920696"><ele>518.0</ele><time>2026-04-11T15:27:49.998Z</time></trkpt><trkpt lat="42.55410057422502" lon="12.007035948072557"><ele>518.0</ele><time>2026-04-11T15:27:52.998Z</time></trkpt><trkpt lat="42.554133867778155" lon="12.007111820854425"><ele>518.0</ele><time>2026-04-11T15:27:54.998Z</time></trkpt><trkpt lat="42.55416178720412" lon="12.007191183480533"><ele>518.0</ele><time>2026-04-11T15:27:56.998Z</time></trkpt><trkpt lat="42.5541935038165" lon="12.007307641366305"><ele>518.0</ele><time>2026-04-11T15:27:59.998Z</time></trkpt><trkpt lat="42.554239576770534" lon="12.007418389078039"><ele>518.0</ele><time>2026-04-11T15:28:02.998Z</time></trkpt><trkpt lat="42.55425623766393" lon="12.007532686700392"><ele>518.0</ele><time>2026-04-11T15:28:05.998Z</time></trkpt><trkpt lat="42.55426699210391" lon="12.007656805283482"><ele>518.0</ele><time>2026-04-11T15:28:08.998Z</time></trkpt><trkpt lat="42.55428757640598" lon="12.007769814693809"><ele>518.0</ele><time>2026-04-11T15:28:11.998Z</time></trkpt><trkpt lat="42.554280315198596" lon="12.007854879174591"><ele>518.0</ele><time>2026-04-11T15:28:13.998Z</time></trkpt><trkpt lat="42.55428391602074" lon="12.00794290905091"><ele>517.6666666666666</ele><time>2026-04-11T15:28:15.998Z</time></trkpt><trkpt lat="42.554288983996095" lon="12.00805191794426"><ele>517.3333333333333</ele><time>2026-04-11T15:28:18.998Z</time></trkpt><trkpt lat="42.55427720921077" lon="12.00817036153486"><ele>517.0</ele><time>2026-04-11T15:28:21.998Z</time></trkpt><trkpt lat="42.554270327244964" lon="12.008292030921709"><ele>516.6666666666666</ele><time>2026-04-11T15:28:25Z</time></trkpt><trkpt lat="42.554261905397404" lon="12.008414232766102"><ele>516.3333333333334</ele><time>2026-04-11T15:28:28Z</time></trkpt><trkpt lat="42.55426183926108" lon="12.00853732382461"><ele>516.0</ele><time>2026-04-11T15:28:31Z</time></trkpt><trkpt lat="42.55426488996757" lon="12.008652189268574"><ele>516.0</ele><time>2026-04-11T15:28:34Z</time></trkpt><trkpt lat="42.55426472408992" lon="12.008774439475093"><ele>516.0</ele><time>2026-04-11T15:28:37Z</time></trkpt><trkpt lat="42.554254793248326" lon="12.008897474390094"><ele>516.0</ele><time>2026-04-11T15:28:40Z</time></trkpt><trkpt lat="42.55424739896829" lon="12.008985619085504"><ele>516.0</ele><time>2026-04-11T15:28:42Z</time></trkpt><trkpt lat="42.55422482380479" lon="12.009105438902344"><ele>516.0</ele><time>2026-04-11T15:28:45Z</time></trkpt><trkpt lat="42.55422146981398" lon="12.009213306917486"><ele>516.0</ele><time>2026-04-11T15:28:48Z</time></trkpt><trkpt lat="42.55421536738367" lon="12.0093254027808"><ele>516.0</ele><time>2026-04-11T15:28:51Z</time></trkpt><trkpt lat="42.55420096729994" lon="12.009439226263826"><ele>516.0</ele><time>2026-04-11T15:28:54Z</time></trkpt><trkpt lat="42.55419119032654" lon="12.00954578456363"><ele>516.0</ele><time>2026-04-11T15:28:57Z</time></trkpt><trkpt lat="42.55418010519356" lon="12.009649091661123"><ele>516.0</ele><time>2026-04-11T15:29:00Z</time></trkpt><trkpt lat="42.55414707888086" lon="12.009745495253934"><ele>516.0</ele><time>2026-04-11T15:29:02.999Z</time></trkpt><trkpt lat="42.55411479930521" lon="12.009851301520582"><ele>516.0</ele><time>2026-04-11T15:29:05.999Z</time></trkpt><trkpt lat="42.55408208561466" lon="12.009960342425178"><ele>516.5</ele><time>2026-04-11T15:29:08.999Z</time></trkpt><trkpt lat="42.55404990691059" lon="12.01007374778637"><ele>517.0</ele><time>2026-04-11T15:29:11.999Z</time></trkpt><trkpt lat="42.55401510131557" lon="12.010193873964242"><ele>517.5</ele><time>2026-04-11T15:29:14.999Z</time></trkpt><trkpt lat="42.553977225598096" lon="12.010276521497689"><ele>518.0</ele><time>2026-04-11T15:29:16.999Z</time></trkpt><trkpt lat="42.55393579494415" lon="12.010364421832177"><ele>518.5</ele><time>2026-04-11T15:29:18.999Z</time></trkpt><trkpt lat="42.553881429932986" lon="12.010441467407613"><ele>519.0</ele><time>2026-04-11T15:29:20.999Z</time></trkpt><trkpt lat="42.553833011245985" lon="12.010516002725184"><ele>519.0</ele><time>2026-04-11T15:29:22.999Z</time></trkpt><trkpt lat="42.553777555751026" lon="12.010595353294239"><ele>519.0</ele><time>2026-04-11T15:29:24.999Z</time></trkpt><trkpt lat="42.55371910680112" lon="12.010662667194913"><ele>519.0</ele><time>2026-04-11T15:29:26.999Z</time></trkpt><trkpt lat="42.55366611231276" lon="12.010734349491326"><ele>519.0</ele><time>2026-04-11T15:29:28.999Z</time></trkpt><trkpt lat="42.55361869662255" lon="12.010801521680516"><ele>519.0</ele><time>2026-04-11T15:29:30.999Z</time></trkpt><trkpt lat="42.55356393377848" lon="12.010874816036115"><ele>519.0</ele><time>2026-04-11T15:29:32.999Z</time></trkpt><trkpt lat="42.55352200852694" lon="12.010944484421653"><ele>519.0</ele><time>2026-04-11T15:29:34.999Z</time></trkpt><trkpt lat="42.55348327153312" lon="12.011027298432806"><ele>518.8333333333334</ele><time>2026-04-11T15:29:36.999Z</time></trkpt><trkpt lat="42.553456035679176" lon="12.01111684794565"><ele>518.6666666666666</ele><time>2026-04-11T15:29:38.999Z</time></trkpt><trkpt lat="42.55343675837468" lon="12.011215885396203"><ele>518.5</ele><time>2026-04-11T15:29:40.999Z</time></trkpt><trkpt lat="42.55341298051219" lon="12.011309811580476"><ele>518.3333333333333</ele><time>2026-04-11T15:29:42.999Z</time></trkpt><trkpt lat="42.5533886579315" lon="12.011402592400467"><ele>518.1666666666666</ele><time>2026-04-11T15:29:44.999Z</time></trkpt><trkpt lat="42.553371487088896" lon="12.011512552977484"><ele>518.0</ele><time>2026-04-11T15:29:46.999Z</time></trkpt><trkpt lat="42.553358856847154" lon="12.01161809543077"><ele>518.8333333333333</ele><time>2026-04-11T15:29:48.999Z</time></trkpt><trkpt lat="42.553336965838916" lon="12.01173452050917"><ele>519.6666666666666</ele><time>2026-04-11T15:29:50.998Z</time></trkpt><trkpt lat="42.553318208126306" lon="12.01183825472896"><ele>520.5</ele><time>2026-04-11T15:29:52.998Z</time></trkpt><trkpt lat="42.55329967602512" lon="12.011947476966737"><ele>521.3333333333334</ele><time>2026-04-11T15:29:54.998Z</time></trkpt><trkpt lat="42.5532741808643" lon="12.012060548243113"><ele>522.1666666666667</ele><time>2026-04-11T15:29:56.998Z</time></trkpt><trkpt lat="42.55324356817083" lon="12.01217521306566"><ele>523.0</ele><time>2026-04-11T15:29:58.998Z</time></trkpt><trkpt lat="42.553212348616015" lon="12.012287560243413"><ele>523.0</ele><time>2026-04-11T15:30:00.998Z</time></trkpt><trkpt lat="42.55318124735315" lon="12.012387514420999"><ele>523.0</ele><time>2026-04-11T15:30:02.998Z</time></trkpt><trkpt lat="42.553144388853646" lon="12.01249323814074"><ele>523.0</ele><time>2026-04-11T15:30:04.998Z</time></trkpt><trkpt lat="42.55310923789519" lon="12.012595779534225"><ele>523.0</ele><time>2026-04-11T15:30:06.998Z</time></trkpt><trkpt lat="42.55307275206495" lon="12.012696188277296"><ele>523.0</ele><time>2026-04-11T15:30:08.998Z</time></trkpt><trkpt lat="42.55303680269509" lon="12.012797095777318"><ele>523.0</ele><time>2026-04-11T15:30:10.998Z</time></trkpt><trkpt lat="42.55300806011239" lon="12.012892769720603"><ele>523.6666666666667</ele><time>2026-04-11T15:30:12.998Z</time></trkpt><trkpt lat="42.55296681081677" lon="12.012987507584384"><ele>524.3333333333334</ele><time>2026-04-11T15:30:14.998Z</time></trkpt><trkpt lat="42.55292435026271" lon="12.013083322750518"><ele>525.0</ele><time>2026-04-11T15:30:16.998Z</time></trkpt><trkpt lat="42.55287939445199" lon="12.013180139409993"><ele>525.6666666666666</ele><time>2026-04-11T15:30:18.998Z</time></trkpt><trkpt lat="42.55285380519146" lon="12.0132780879795"><ele>526.3333333333333</ele><time>2026-04-11T15:30:20.998Z</time></trkpt><trkpt lat="42.55284220038331" lon="12.013386356047716"><ele>527.0</ele><time>2026-04-11T15:30:22.998Z</time></trkpt><trkpt lat="42.55283000952122" lon="12.01348639522036"><ele>528.3333333333333</ele><time>2026-04-11T15:30:24.998Z</time></trkpt><trkpt lat="42.552834782223904" lon="12.013592533937617"><ele>529.6666666666666</ele><time>2026-04-11T15:30:26.998Z</time></trkpt><trkpt lat="42.55284726837394" lon="12.013699400288194"><ele>531.0</ele><time>2026-04-11T15:30:28.998Z</time></trkpt><trkpt lat="42.55285766086479" lon="12.013791810657942"><ele>532.3333333333334</ele><time>2026-04-11T15:30:31Z</time></trkpt><trkpt lat="42.55286863223934" lon="12.013891892963093"><ele>533.6666666666667</ele><time>2026-04-11T15:30:33Z</time></trkpt><trkpt lat="42.55289419074345" lon="12.01399599744097"><ele>535.0</ele><time>2026-04-11T15:30:35Z</time></trkpt><trkpt lat="42.55292275466388" lon="12.01410680665092"><ele>536.0</ele><time>2026-04-11T15:30:37Z</time></trkpt><trkpt lat="42.55294821042452" lon="12.014213460085681"><ele>537.0</ele><time>2026-04-11T15:30:39Z</time></trkpt><trkpt lat="42.552980828966106" lon="12.014314169846235"><ele>538.0</ele><time>2026-04-11T15:30:41Z</time></trkpt><trkpt lat="42.55301093500324" lon="12.014429742429698"><ele>539.0</ele><time>2026-04-11T15:30:43Z</time></trkpt><trkpt lat="42.55301546917622" lon="12.014538942854188"><ele>540.0</ele><time>2026-04-11T15:30:45Z</time></trkpt><trkpt lat="42.5530244887757" lon="12.014665278837425"><ele>541.0</ele><time>2026-04-11T15:30:47Z</time></trkpt><trkpt lat="42.55302056177203" lon="12.014775292729597"><ele>541.0</ele><time>2026-04-11T15:30:49Z</time></trkpt><trkpt lat="42.55300748121524" lon="12.014887143664538"><ele>541.0</ele><time>2026-04-11T15:30:51Z</time></trkpt><trkpt lat="42.55298639761147" lon="12.014995022807927"><ele>541.0</ele><time>2026-04-11T15:30:53Z</time></trkpt><trkpt lat="42.55296765966612" lon="12.015106146219082"><ele>541.0</ele><time>2026-04-11T15:30:55Z</time></trkpt><trkpt lat="42.552950453760936" lon="12.01521781909332"><ele>541.0</ele><time>2026-04-11T15:30:57Z</time></trkpt><trkpt lat="42.55292742188226" lon="12.015332516166849"><ele>541.0</ele><time>2026-04-11T15:30:59Z</time></trkpt><trkpt lat="42.55289649605392" lon="12.015449115540724"><ele>540.8333333333334</ele><time>2026-04-11T15:31:01Z</time></trkpt><trkpt lat="42.552873398311284" lon="12.01555551223503"><ele>540.6666666666667</ele><time>2026-04-11T15:31:03Z</time></trkpt><trkpt lat="42.55284894145744" lon="12.015666813519852"><ele>540.5</ele><time>2026-04-11T15:31:05Z</time></trkpt><trkpt lat="42.55282836145684" lon="12.015772982705677"><ele>540.3333333333334</ele><time>2026-04-11T15:31:06.999Z</time></trkpt><trkpt lat="42.55280014295277" lon="12.015883134798177"><ele>540.1666666666666</ele><time>2026-04-11T15:31:08.999Z</time></trkpt><trkpt lat="42.55278329134111" lon="12.015990294805137"><ele>540.0</ele><time>2026-04-11T15:31:10.999Z</time></trkpt><trkpt lat="42.55275394655789" lon="12.016099209060041"><ele>535.6666666666666</ele><time>2026-04-11T15:31:12.999Z</time></trkpt><trkpt lat="42.5527120868807" lon="12.016203630553305"><ele>531.3333333333334</ele><time>2026-04-11T15:31:14.999Z</time></trkpt><trkpt lat="42.55266489043034" lon="12.01630228410063"><ele>527.0</ele><time>2026-04-11T15:31:16.999Z</time></trkpt><trkpt lat="42.55261707852837" lon="12.01639498163941"><ele>522.6666666666667</ele><time>2026-04-11T15:31:18.999Z</time></trkpt><trkpt lat="42.55256805538128" lon="12.016473697596549"><ele>518.3333333333334</ele><time>2026-04-11T15:31:20.999Z</time></trkpt><trkpt lat="42.55251930912546" lon="12.01656252190862"><ele>514.0</ele><time>2026-04-11T15:31:22.999Z</time></trkpt><trkpt lat="42.5524711214038" lon="12.016643560331184"><ele>515.8333333333334</ele><time>2026-04-11T15:31:24.999Z</time></trkpt><trkpt lat="42.5524348242749" lon="12.016738522578573"><ele>517.6666666666667</ele><time>2026-04-11T15:31:26.999Z</time></trkpt><trkpt lat="42.5524097498974" lon="12.016836709436747"><ele>519.5</ele><time>2026-04-11T15:31:28.999Z</time></trkpt><trkpt lat="42.552394150132386" lon="12.016939127568735"><ele>521.3333333333334</ele><time>2026-04-11T15:31:30.999Z</time></trkpt><trkpt lat="42.55239179829658" lon="12.017048275987317"><ele>523.1666666666666</ele><time>2026-04-11T15:31:32.999Z</time></trkpt><trkpt lat="42.552407438862126" lon="12.017163757827984"><ele>525.0</ele><time>2026-04-11T15:31:34.999Z</time></trkpt><trkpt lat="42.55243162362424" lon="12.017276721651427"><ele>525.0</ele><time>2026-04-11T15:31:36.999Z</time></trkpt><trkpt lat="42.55245680776541" lon="12.01739710768861"><ele>525.0</ele><time>2026-04-11T15:31:38.999Z</time></trkpt><trkpt lat="42.552488408290145" lon="12.01751544489848"><ele>525.0</ele><time>2026-04-11T15:31:40.999Z</time></trkpt><trkpt lat="42.55251262541177" lon="12.01764029620576"><ele>525.0</ele><time>2026-04-11T15:31:42.999Z</time></trkpt><trkpt lat="42.5525465382233" lon="12.017776570129309"><ele>525.0</ele><time>2026-04-11T15:31:44.999Z</time></trkpt><trkpt lat="42.552567880017726" lon="12.01788618901901"><ele>525.0</ele><time>2026-04-11T15:31:46.999Z</time></trkpt><trkpt lat="42.55259314610793" lon="12.018005338390807"><ele>525.0</ele><time>2026-04-11T15:31:48.999Z</time></trkpt><trkpt lat="42.552625050196596" lon="12.018123819437793"><ele>525.0</ele><time>2026-04-11T15:31:50.999Z</time></trkpt><trkpt lat="42.55264811086897" lon="12.018251059125257"><ele>525.0</ele><time>2026-04-11T15:31:52.999Z</time></trkpt><trkpt lat="42.552669156604146" lon="12.018382895596401"><ele>525.0</ele><time>2026-04-11T15:31:54.998Z</time></trkpt><trkpt lat="42.55266554626986" lon="12.018516706947002"><ele>524.6</ele><time>2026-04-11T15:31:56.998Z</time></trkpt><trkpt lat="42.5526652592715" lon="12.01864250420932"><ele>524.2</ele><time>2026-04-11T15:31:58.998Z</time></trkpt><trkpt lat="42.55264564094517" lon="12.018770253211162"><ele>523.8</ele><time>2026-04-11T15:32:00.998Z</time></trkpt><trkpt lat="42.55260385009283" lon="12.018896300504277"><ele>523.4</ele><time>2026-04-11T15:32:02.998Z</time></trkpt><trkpt lat="42.55256205149911" lon="12.019007415340402"><ele>523.0</ele><time>2026-04-11T15:32:04.998Z</time></trkpt><trkpt lat="42.55250556855844" lon="12.019112103335349"><ele>524.8</ele><time>2026-04-11T15:32:06.998Z</time></trkpt><trkpt lat="42.552430871475764" lon="12.019202225345124"><ele>526.5999999999999</ele><time>2026-04-11T15:32:08.998Z</time></trkpt><trkpt lat="42.552337753328985" lon="12.019267515201614"><ele>528.4000000000001</ele><time>2026-04-11T15:32:10.998Z</time></trkpt><trkpt lat="42.552251424806286" lon="12.019334563607421"><ele>530.2</ele><time>2026-04-11T15:32:12.998Z</time></trkpt><trkpt lat="42.55216097722681" lon="12.01940240661788"><ele>532.0</ele><time>2026-04-11T15:32:14.998Z</time></trkpt><trkpt lat="42.55208021167521" lon="12.019466462099148"><ele>528.6</ele><time>2026-04-11T15:32:16.998Z</time></trkpt><trkpt lat="42.5520151297199" lon="12.019554592369786"><ele>525.2</ele><time>2026-04-11T15:32:18.998Z</time></trkpt><trkpt lat="42.551961724172905" lon="12.01964963187934"><ele>521.8</ele><time>2026-04-11T15:32:20.998Z</time></trkpt><trkpt lat="42.55191936487539" lon="12.01975814768455"><ele>518.4</ele><time>2026-04-11T15:32:22.998Z</time></trkpt><trkpt lat="42.551905541207226" lon="12.019880162546713"><ele>515.0</ele><time>2026-04-11T15:32:24.998Z</time></trkpt><trkpt lat="42.551908618458" lon="12.020009468016806"><ele>515.0</ele><time>2026-04-11T15:32:26.998Z</time></trkpt><trkpt lat="42.55192444382669" lon="12.020123486564005"><ele>515.0</ele><time>2026-04-11T15:32:28.998Z</time></trkpt><trkpt lat="42.551942408710026" lon="12.020234544401843"><ele>515.0</ele><time>2026-04-11T15:32:30.998Z</time></trkpt><trkpt lat="42.55196961348579" lon="12.020357925894938"><ele>515.0</ele><time>2026-04-11T15:32:32.998Z</time></trkpt><trkpt lat="42.552000544186924" lon="12.020466242448173"><ele>515.0</ele><time>2026-04-11T15:32:34.998Z</time></trkpt><trkpt lat="42.552030866502285" lon="12.020575624964735"><ele>515.0</ele><time>2026-04-11T15:32:37Z</time></trkpt><trkpt lat="42.55206954486118" lon="12.020689894154293"><ele>521.2</ele><time>2026-04-11T15:32:39Z</time></trkpt><trkpt lat="42.55210100096627" lon="12.020820465012006"><ele>527.4</ele><time>2026-04-11T15:32:41Z</time></trkpt><trkpt lat="42.552128077981116" lon="12.020942748122694"><ele>533.6</ele><time>2026-04-11T15:32:43Z</time></trkpt><trkpt lat="42.552144444549924" lon="12.021074384158396"><ele>539.8</ele><time>2026-04-11T15:32:45Z</time></trkpt><trkpt lat="42.55216746471824" lon="12.02121066674347"><ele>546.0</ele><time>2026-04-11T15:32:47Z</time></trkpt><trkpt lat="42.55217748039941" lon="12.021357136284932"><ele>546.0</ele><time>2026-04-11T15:32:49Z</time></trkpt><trkpt lat="42.552186399233335" lon="12.02150297800615"><ele>546.0</ele><time>2026-04-11T15:32:51Z</time></trkpt><trkpt lat="42.55218299605127" lon="12.021633064799246"><ele>546.0</ele><time>2026-04-11T15:32:53Z</time></trkpt><trkpt lat="42.552175208071006" lon="12.021760413633219"><ele>546.0</ele><time>2026-04-11T15:32:55Z</time></trkpt><trkpt lat="42.552186672626185" lon="12.021882050602445"><ele>546.0</ele><time>2026-04-11T15:32:57Z</time></trkpt><trkpt lat="42.55219475544408" lon="12.02199171377523"><ele>545.0</ele><time>2026-04-11T15:32:59Z</time></trkpt><trkpt lat="42.55219847521684" lon="12.0221048518775"><ele>544.0</ele><time>2026-04-11T15:33:01Z</time></trkpt><trkpt lat="42.5522085571542" lon="12.022216776609245"><ele>543.0</ele><time>2026-04-11T15:33:03Z</time></trkpt><trkpt lat="42.552198022018416" lon="12.022347958525879"><ele>542.0</ele><time>2026-04-11T15:33:05Z</time></trkpt><trkpt lat="42.552182032747666" lon="12.022482458582614"><ele>541.0</ele><time>2026-04-11T15:33:07Z</time></trkpt><trkpt lat="42.55215735481047" lon="12.022606449743687"><ele>541.0</ele><time>2026-04-11T15:33:09Z</time></trkpt><trkpt lat="42.55211915112259" lon="12.022729026312536"><ele>541.0</ele><time>2026-04-11T15:33:11Z</time></trkpt><trkpt lat="42.552054745393136" lon="12.022851233341106"><ele>541.0</ele><time>2026-04-11T15:33:13Z</time></trkpt><trkpt lat="42.55199433621056" lon="12.022974479825042"><ele>541.0</ele><time>2026-04-11T15:33:15Z</time></trkpt><trkpt lat="42.55192654762122" lon="12.023097985053976"><ele>541.0</ele><time>2026-04-11T15:33:16.999Z</time></trkpt><trkpt lat="42.551860897838104" lon="12.023213004988847"><ele>538.8</ele><time>2026-04-11T15:33:18.999Z</time></trkpt><trkpt lat="42.551812113249426" lon="12.023326509024324"><ele>536.6</ele><time>2026-04-11T15:33:20.999Z</time></trkpt><trkpt lat="42.55176450320991" lon="12.02344319950332"><ele>534.4</ele><time>2026-04-11T15:33:22.999Z</time></trkpt><trkpt lat="42.551710054141026" lon="12.023549252473197"><ele>532.2</ele><time>2026-04-11T15:33:24.999Z</time></trkpt><trkpt lat="42.55165711462136" lon="12.023638965415946"><ele>530.0</ele><time>2026-04-11T15:33:26.999Z</time></trkpt><trkpt lat="42.551607955391646" lon="12.023737556396252"><ele>530.0</ele><time>2026-04-11T15:33:28.999Z</time></trkpt><trkpt lat="42.551566811039834" lon="12.023829351828555"><ele>530.0</ele><time>2026-04-11T15:33:30.999Z</time></trkpt><trkpt lat="42.55152409118678" lon="12.023908475180294"><ele>530.0</ele><time>2026-04-11T15:33:32.999Z</time></trkpt><trkpt lat="42.55149322516118" lon="12.024016993908395"><ele>530.0</ele><time>2026-04-11T15:33:34.999Z</time></trkpt><trkpt lat="42.551438789872265" lon="12.024117950796803"><ele>530.0</ele><time>2026-04-11T15:33:36.999Z</time></trkpt><trkpt lat="42.55138360967251" lon="12.024216525071921"><ele>530.0</ele><time>2026-04-11T15:33:38.999Z</time></trkpt><trkpt lat="42.551312194668455" lon="12.024324132049639"><ele>530.4</ele><time>2026-04-11T15:33:40.999Z</time></trkpt><trkpt lat="42.55122461175866" lon="12.024419591803564"><ele>530.8</ele><time>2026-04-11T15:33:42.999Z</time></trkpt><trkpt lat="42.55112446575985" lon="12.024496838915969"><ele>531.2</ele><time>2026-04-11T15:33:44.999Z</time></trkpt><trkpt lat="42.55101279717154" lon="12.024564859087512"><ele>531.6</ele><time>2026-04-11T15:33:46.999Z</time></trkpt><trkpt lat="42.55092829455357" lon="12.02463562612761"><ele>532.0</ele><time>2026-04-11T15:33:48.999Z</time></trkpt><trkpt lat="42.550847182081355" lon="12.024691222176767"><ele>532.4</ele><time>2026-04-11T15:33:50.999Z</time></trkpt><trkpt lat="42.550775114174286" lon="12.024750362850268"><ele>532.8000000000001</ele><time>2026-04-11T15:33:52.999Z</time></trkpt><trkpt lat="42.5506956722276" lon="12.024802108850174"><ele>533.2</ele><time>2026-04-11T15:33:54.999Z</time></trkpt><trkpt lat="42.55061005147148" lon="12.024883820338186"><ele>533.6</ele><time>2026-04-11T15:33:56.999Z</time></trkpt><trkpt lat="42.550537603296576" lon="12.024971312357817"><ele>534.0</ele><time>2026-04-11T15:33:58.999Z</time></trkpt><trkpt lat="42.55047753772488" lon="12.025090005394238"><ele>534.0</ele><time>2026-04-11T15:34:00.999Z</time></trkpt><trkpt lat="42.550447610954826" lon="12.025218250292722"><ele>534.0</ele><time>2026-04-11T15:34:02.998Z</time></trkpt><trkpt lat="42.55042243268746" lon="12.025347701630333"><ele>534.0</ele><time>2026-04-11T15:34:04.998Z</time></trkpt><trkpt lat="42.55041319168695" lon="12.025471469683936"><ele>534.0</ele><time>2026-04-11T15:34:06.998Z</time></trkpt><trkpt lat="42.55039870533107" lon="12.025602318668426"><ele>534.0</ele><time>2026-04-11T15:34:08.998Z</time></trkpt><trkpt lat="42.55038487140561" lon="12.025716757608478"><ele>534.8333333333334</ele><time>2026-04-11T15:34:10.998Z</time></trkpt><trkpt lat="42.55037586056757" lon="12.025831753200112"><ele>535.6666666666666</ele><time>2026-04-11T15:34:12.998Z</time></trkpt><trkpt lat="42.550371728815456" lon="12.025948180945246"><ele>536.5</ele><time>2026-04-11T15:34:14.998Z</time></trkpt><trkpt lat="42.550358779420726" lon="12.026060696733023"><ele>537.3333333333333</ele><time>2026-04-11T15:34:16.998Z</time></trkpt><trkpt lat="42.55035347562393" lon="12.02617285357475"><ele>538.1666666666666</ele><time>2026-04-11T15:34:18.998Z</time></trkpt><trkpt lat="42.5503357703833" lon="12.026299582801991"><ele>539.0</ele><time>2026-04-11T15:34:20.998Z</time></trkpt><trkpt lat="42.55033287587086" lon="12.026437449332793"><ele>538.0</ele><time>2026-04-11T15:34:22.998Z</time></trkpt><trkpt lat="42.55033207192015" lon="12.026565865245047"><ele>537.0</ele><time>2026-04-11T15:34:24.998Z</time></trkpt><trkpt lat="42.550329504423466" lon="12.026700098707067"><ele>536.0</ele><time>2026-04-11T15:34:26.998Z</time></trkpt><trkpt lat="42.55032404797779" lon="12.026837834305802"><ele>535.0</ele><time>2026-04-11T15:34:28.998Z</time></trkpt><trkpt lat="42.550331993708554" lon="12.02695946943269"><ele>534.0</ele><time>2026-04-11T15:34:30.998Z</time></trkpt><trkpt lat="42.55035068576439" lon="12.027067139302977"><ele>534.0</ele><time>2026-04-11T15:34:32.998Z</time></trkpt><trkpt lat="42.55037279493393" lon="12.027162592054195"><ele>534.0</ele><time>2026-04-11T15:34:34.998Z</time></trkpt><trkpt lat="42.55040046677546" lon="12.027271364141882"><ele>534.0</ele><time>2026-04-11T15:34:36.998Z</time></trkpt><trkpt lat="42.550442911496745" lon="12.027394555546476"><ele>534.0</ele><time>2026-04-11T15:34:38.998Z</time></trkpt><trkpt lat="42.550493520096495" lon="12.02751295181451"><ele>534.0</ele><time>2026-04-11T15:34:40.998Z</time></trkpt><trkpt lat="42.550544707337885" lon="12.027624599248087"><ele>534.0</ele><time>2026-04-11T15:34:43Z</time></trkpt><trkpt lat="42.550598259172084" lon="12.027744737382084"><ele>534.0</ele><time>2026-04-11T15:34:45Z</time></trkpt><trkpt lat="42.55065056304996" lon="12.02786293416108"><ele>534.0</ele><time>2026-04-11T15:34:47Z</time></trkpt><trkpt lat="42.55069638106821" lon="12.027989234209233"><ele>534.0</ele><time>2026-04-11T15:34:49Z</time></trkpt><trkpt lat="42.55071858600772" lon="12.028123916219053"><ele>534.0</ele><time>2026-04-11T15:34:51Z</time></trkpt><trkpt lat="42.550680714854266" lon="12.02826299805322"><ele>533.4</ele><time>2026-04-11T15:34:53Z</time></trkpt><trkpt lat="42.550612082457675" lon="12.028401279849392"><ele>532.8</ele><time>2026-04-11T15:34:55Z</time></trkpt><trkpt lat="42.55055016293736" lon="12.0284460389226"><ele>532.2</ele><time>2026-04-11T15:34:56Z</time></trkpt><trkpt lat="42.55048923163459" lon="12.028487447043059"><ele>531.6</ele><time>2026-04-11T15:34:57Z</time></trkpt><trkpt lat="42.55039080321925" lon="12.028577633187222"><ele>531.0</ele><time>2026-04-11T15:34:59Z</time></trkpt><trkpt lat="42.55030352741031" lon="12.02863386457924"><ele>531.0</ele><time>2026-04-11T15:35:01Z</time></trkpt><trkpt lat="42.55022718461397" lon="12.028700078359373"><ele>531.0</ele><time>2026-04-11T15:35:03Z</time></trkpt><trkpt lat="42.55013877889881" lon="12.028748559120139"><ele>531.0</ele><time>2026-04-11T15:35:05Z</time></trkpt><trkpt lat="42.55006075984747" lon="12.028803528641744"><ele>531.0</ele><time>2026-04-11T15:35:07Z</time></trkpt><trkpt lat="42.54998279559428" lon="12.028849758507574"><ele>531.0</ele><time>2026-04-11T15:35:09Z</time></trkpt><trkpt lat="42.54991071451084" lon="12.028907205506922"><ele>531.0</ele><time>2026-04-11T15:35:11Z</time></trkpt><trkpt lat="42.54983555419499" lon="12.028958783872788"><ele>531.0</ele><time>2026-04-11T15:35:13Z</time></trkpt><trkpt lat="42.5497572463678" lon="12.029013028053255"><ele>531.0</ele><time>2026-04-11T15:35:15Z</time></trkpt><trkpt lat="42.54968727276704" lon="12.029067430262474"><ele>531.0</ele><time>2026-04-11T15:35:17Z</time></trkpt><trkpt lat="42.549615630578145" lon="12.029133733205224"><ele>531.0</ele><time>2026-04-11T15:35:18.999Z</time></trkpt><trkpt lat="42.549539036585024" lon="12.029195999581747"><ele>531.0</ele><time>2026-04-11T15:35:20.999Z</time></trkpt><trkpt lat="42.54946034272625" lon="12.029264019404637"><ele>531.0</ele><time>2026-04-11T15:35:22.999Z</time></trkpt><trkpt lat="42.54940066895254" lon="12.029319846334193"><ele>531.0</ele><time>2026-04-11T15:35:24.999Z</time></trkpt><trkpt lat="42.54933812526752" lon="12.029380839295579"><ele>531.0</ele><time>2026-04-11T15:35:26.999Z</time></trkpt><trkpt lat="42.54928118690086" lon="12.029430846552499"><ele>531.0</ele><time>2026-04-11T15:35:28.999Z</time></trkpt><trkpt lat="42.54922624599774" lon="12.029484070329971"><ele>531.0</ele><time>2026-04-11T15:35:30.999Z</time></trkpt><trkpt lat="42.54914595838162" lon="12.029553605075927"><ele>531.0</ele><time>2026-04-11T15:35:33.999Z</time></trkpt><trkpt lat="42.54909359317877" lon="12.029604857822532"><ele>531.0</ele><time>2026-04-11T15:35:35.999Z</time></trkpt><trkpt lat="42.54902888611492" lon="12.029668930925592"><ele>531.0</ele><time>2026-04-11T15:35:38.999Z</time></trkpt><trkpt lat="42.548966083672504" lon="12.029739608285956"><ele>531.0</ele><time>2026-04-11T15:35:41.999Z</time></trkpt><trkpt lat="42.5489113675843" lon="12.029846824542858"><ele>531.0</ele><time>2026-04-11T15:35:44.999Z</time></trkpt><trkpt lat="42.54885312037063" lon="12.029924936812154"><ele>531.0</ele><time>2026-04-11T15:35:47.999Z</time></trkpt><trkpt lat="42.548786820535604" lon="12.029997802059295"><ele>531.0</ele><time>2026-04-11T15:35:50.999Z</time></trkpt><trkpt lat="42.54874762555459" lon="12.030080859714014"><ele>531.0</ele><time>2026-04-11T15:35:52.999Z</time></trkpt><trkpt lat="42.54871599044915" lon="12.03016331565264"><ele>531.2857142857143</ele><time>2026-04-11T15:35:54.999Z</time></trkpt><trkpt lat="42.548709528226595" lon="12.03026298648269"><ele>531.5714285714287</ele><time>2026-04-11T15:35:56.999Z</time></trkpt><trkpt lat="42.548725995080936" lon="12.030348234008155"><ele>531.8571428571429</ele><time>2026-04-11T15:35:58.999Z</time></trkpt><trkpt lat="42.548758398527724" lon="12.03043200466703"><ele>532.1428571428571</ele><time>2026-04-11T15:36:00.999Z</time></trkpt><trkpt lat="42.54880292161851" lon="12.03053050956229"><ele>532.4285714285713</ele><time>2026-04-11T15:36:03.998Z</time></trkpt><trkpt lat="42.54884762237031" lon="12.030633438362312"><ele>532.7142857142857</ele><time>2026-04-11T15:36:06.998Z</time></trkpt><trkpt lat="42.54887118335116" lon="12.030714104865503"><ele>533.0</ele><time>2026-04-11T15:36:08.998Z</time></trkpt><trkpt lat="42.54888525068452" lon="12.030800206152112"><ele>533.6666666666666</ele><time>2026-04-11T15:36:10.998Z</time></trkpt><trkpt lat="42.54890547374269" lon="12.030937092610927"><ele>534.3333333333333</ele><time>2026-04-11T15:36:13.998Z</time></trkpt><trkpt lat="42.548916350187675" lon="12.031057142621934"><ele>535.0</ele><time>2026-04-11T15:36:16.998Z</time></trkpt><trkpt lat="42.5489218615118" lon="12.031179392690879"><ele>535.6666666666666</ele><time>2026-04-11T15:36:19.998Z</time></trkpt><trkpt lat="42.54890399976831" lon="12.031276399569698"><ele>536.3333333333334</ele><time>2026-04-11T15:36:22.998Z</time></trkpt><trkpt lat="42.548893369474875" lon="12.031367402609469"><ele>537.0</ele><time>2026-04-11T15:36:25.998Z</time></trkpt><trkpt lat="42.54888629070714" lon="12.031467952910756"><ele>536.9999999999999</ele><time>2026-04-11T15:36:28.998Z</time></trkpt><trkpt lat="42.54886477961184" lon="12.03155671365723"><ele>537.0</ele><time>2026-04-11T15:36:31.998Z</time></trkpt><trkpt lat="42.54883598276378" lon="12.031634928976452"><ele>537.0</ele><time>2026-04-11T15:36:34.998Z</time></trkpt><trkpt lat="42.548823676855214" lon="12.031733873304638"><ele>537.0</ele><time>2026-04-11T15:36:38.998Z</time></trkpt><trkpt lat="42.548769895096775" lon="12.031817733048058"><ele>537.0</ele><time>2026-04-11T15:36:42.998Z</time></trkpt><trkpt lat="42.5487540778011" lon="12.03190630327985"><ele>536.9999999999999</ele><time>2026-04-11T15:36:46.998Z</time></trkpt><trkpt lat="42.54872909031768" lon="12.031998331766388"><ele>537.0</ele><time>2026-04-11T15:36:51Z</time></trkpt><trkpt lat="42.548693523266756" lon="12.032077013430985"><ele>539.4285714285713</ele><time>2026-04-11T15:36:55Z</time></trkpt><trkpt lat="42.54866200792991" lon="12.032157919771194"><ele>541.8571428571429</ele><time>2026-04-11T15:36:59Z</time></trkpt><trkpt lat="42.54861458368395" lon="12.032228900895781"><ele>544.2857142857142</ele><time>2026-04-11T15:37:03Z</time></trkpt><trkpt lat="42.5485826715121" lon="12.032311386970779"><ele>546.7142857142857</ele><time>2026-04-11T15:37:07Z</time></trkpt><trkpt lat="42.548539577357005" lon="12.03238228286482"><ele>549.1428571428571</ele><time>2026-04-11T15:37:11Z</time></trkpt><trkpt lat="42.548518897729174" lon="12.032466356600287"><ele>551.5714285714286</ele><time>2026-04-11T15:37:15Z</time></trkpt><trkpt lat="42.54847613062945" lon="12.032552624395175"><ele>554.0</ele><time>2026-04-11T15:37:19Z</time></trkpt><trkpt lat="42.548438495653265" lon="12.032646178023063"><ele>554.2857142857142</ele><time>2026-04-11T15:37:24Z</time></trkpt><trkpt lat="42.54839629674188" lon="12.032720046511509"><ele>554.5714285714286</ele><time>2026-04-11T15:37:27.999Z</time></trkpt><trkpt lat="42.5483467232152" lon="12.03278853009711"><ele>554.8571428571429</ele><time>2026-04-11T15:37:31.999Z</time></trkpt><trkpt lat="42.54831197036129" lon="12.03286304379801"><ele>555.1428571428571</ele><time>2026-04-11T15:37:35.999Z</time></trkpt><trkpt lat="42.54826719579211" lon="12.032934938636837"><ele>555.4285714285714</ele><time>2026-04-11T15:37:39.999Z</time></trkpt><trkpt lat="42.548223020327725" lon="12.033002943389109"><ele>555.7142857142857</ele><time>2026-04-11T15:37:43.999Z</time></trkpt><trkpt lat="42.54818202159992" lon="12.033087654357564"><ele>556.0</ele><time>2026-04-11T15:37:47.999Z</time></trkpt><trkpt lat="42.548135393823024" lon="12.033164572939828"><ele>556.0</ele><time>2026-04-11T15:37:52.999Z</time></trkpt><trkpt lat="42.54807763785995" lon="12.033229476733743"><ele>556.0</ele><time>2026-04-11T15:37:56.999Z</time></trkpt><trkpt lat="42.548024726498745" lon="12.033301361640866"><ele>556.0</ele><time>2026-04-11T15:38:01.999Z</time></trkpt><trkpt lat="42.547973128205136" lon="12.033355690072616"><ele>556.0</ele><time>2026-04-11T15:38:04.999Z</time></trkpt><trkpt lat="42.547915682627334" lon="12.033399874643058"><ele>556.0</ele><time>2026-04-11T15:38:07.999Z</time></trkpt><trkpt lat="42.54784952720052" lon="12.033457065740695"><ele>556.0</ele><time>2026-04-11T15:38:10.999Z</time></trkpt><trkpt lat="42.547775884846416" lon="12.033521207351932"><ele>556.0</ele><time>2026-04-11T15:38:13.998Z</time></trkpt><trkpt lat="42.54772660421342" lon="12.033580498436793"><ele>556.1666666666667</ele><time>2026-04-11T15:38:15.998Z</time></trkpt><trkpt lat="42.54766636223802" lon="12.033628981400682"><ele>556.3333333333334</ele><time>2026-04-11T15:38:17.998Z</time></trkpt><trkpt lat="42.54760813147085" lon="12.033683147580202"><ele>556.5</ele><time>2026-04-11T15:38:19.998Z</time></trkpt><trkpt lat="42.54753161833607" lon="12.033733921618508"><ele>556.6666666666666</ele><time>2026-04-11T15:38:21.998Z</time></trkpt><trkpt lat="42.54745323460744" lon="12.033789234140398"><ele>556.8333333333333</ele><time>2026-04-11T15:38:23.998Z</time></trkpt><trkpt lat="42.5473679347099" lon="12.033860422435307"><ele>557.0</ele><time>2026-04-11T15:38:25.998Z</time></trkpt><trkpt lat="42.54727867071714" lon="12.033916678424985"><ele>557.0</ele><time>2026-04-11T15:38:27.998Z</time></trkpt><trkpt lat="42.54719218598304" lon="12.033990837417097"><ele>557.0</ele><time>2026-04-11T15:38:29.998Z</time></trkpt><trkpt lat="42.54710503348168" lon="12.034054524260428"><ele>557.0</ele><time>2026-04-11T15:38:31.998Z</time></trkpt><trkpt lat="42.54701383320802" lon="12.034124472763036"><ele>557.0</ele><time>2026-04-11T15:38:33.998Z</time></trkpt><trkpt lat="42.5469169480401" lon="12.034176000755389"><ele>557.0</ele><time>2026-04-11T15:38:35.998Z</time></trkpt><trkpt lat="42.54681262646559" lon="12.034253300863252"><ele>556.4</ele><time>2026-04-11T15:38:37.998Z</time></trkpt><trkpt lat="42.54670380963608" lon="12.034313903572945"><ele>555.8000000000001</ele><time>2026-04-11T15:38:39.998Z</time></trkpt><trkpt lat="42.54659189118601" lon="12.034377585303488"><ele>555.2</ele><time>2026-04-11T15:38:41.998Z</time></trkpt><trkpt lat="42.54648416001932" lon="12.034444397393937"><ele>554.6</ele><time>2026-04-11T15:38:43.998Z</time></trkpt><trkpt lat="42.546425914377544" lon="12.034477528154953"><ele>554.0</ele><time>2026-04-11T15:38:44.998Z</time></trkpt><trkpt lat="42.54631299952557" lon="12.03453528161653"><ele>555.0</ele><time>2026-04-11T15:38:46.998Z</time></trkpt><trkpt lat="42.5461992212271" lon="12.034564298256932"><ele>556.0</ele><time>2026-04-11T15:38:48.998Z</time></trkpt><trkpt lat="42.546087547066016" lon="12.034608051714498"><ele>557.0</ele><time>2026-04-11T15:38:50.998Z</time></trkpt><trkpt lat="42.54598369375054" lon="12.034652012634117"><ele>558.0</ele><time>2026-04-11T15:38:52.998Z</time></trkpt><trkpt lat="42.54587273979097" lon="12.034691080209953"><ele>558.0</ele><time>2026-04-11T15:38:55Z</time></trkpt><trkpt lat="42.54576482883597" lon="12.03474854023485"><ele>558.0</ele><time>2026-04-11T15:38:57Z</time></trkpt><trkpt lat="42.54565166737067" lon="12.034787646686794"><ele>558.0</ele><time>2026-04-11T15:38:59Z</time></trkpt><trkpt lat="42.54559143190821" lon="12.034819196829833"><ele>558.0</ele><time>2026-04-11T15:39:00Z</time></trkpt><trkpt lat="42.54552823457382" lon="12.034850263846044"><ele>558.0</ele><time>2026-04-11T15:39:01Z</time></trkpt><trkpt lat="42.545468852605964" lon="12.03488132203334"><ele>558.0</ele><time>2026-04-11T15:39:02Z</time></trkpt><trkpt lat="42.54540200643697" lon="12.034917367093277"><ele>557.6666666666666</ele><time>2026-04-11T15:39:03Z</time></trkpt><trkpt lat="42.54532830868221" lon="12.034949744818022"><ele>557.3333333333334</ele><time>2026-04-11T15:39:04Z</time></trkpt><trkpt lat="42.54525216450439" lon="12.03496939971142"><ele>557.0</ele><time>2026-04-11T15:39:05Z</time></trkpt><trkpt lat="42.545175626590456" lon="12.03499535818998"><ele>556.6666666666667</ele><time>2026-04-11T15:39:06Z</time></trkpt><trkpt lat="42.54508235503971" lon="12.035033172165289"><ele>556.3333333333334</ele><time>2026-04-11T15:39:07Z</time></trkpt><trkpt lat="42.54499243516697" lon="12.035063841634884"><ele>556.0</ele><time>2026-04-11T15:39:08Z</time></trkpt><trkpt lat="42.54489268117035" lon="12.035093709655923"><ele>554.2</ele><time>2026-04-11T15:39:09Z</time></trkpt><trkpt lat="42.544789359545526" lon="12.035117349837043"><ele>552.4000000000001</ele><time>2026-04-11T15:39:10Z</time></trkpt><trkpt lat="42.54470498662911" lon="12.035160207090767"><ele>550.6</ele><time>2026-04-11T15:39:11Z</time></trkpt><trkpt lat="42.5446116101409" lon="12.035193964412652"><ele>548.8000000000001</ele><time>2026-04-11T15:39:12Z</time></trkpt><trkpt lat="42.54452680697752" lon="12.035220942079073"><ele>547.0</ele><time>2026-04-11T15:39:13Z</time></trkpt><trkpt lat="42.54444097153469" lon="12.03525622011095"><ele>546.1666666666667</ele><time>2026-04-11T15:39:14Z</time></trkpt><trkpt lat="42.544353897887206" lon="12.035287268320552"><ele>545.3333333333334</ele><time>2026-04-11T15:39:15Z</time></trkpt><trkpt lat="42.544276519327425" lon="12.03530984518364"><ele>544.5</ele><time>2026-04-11T15:39:16Z</time></trkpt><trkpt lat="42.544184953063066" lon="12.0353292895359"><ele>543.6666666666666</ele><time>2026-04-11T15:39:17Z</time></trkpt><trkpt lat="42.544109727654565" lon="12.035327895441352"><ele>542.8333333333333</ele><time>2026-04-11T15:39:18Z</time></trkpt><trkpt lat="42.54403124123979" lon="12.03533161156535"><ele>542.0</ele><time>2026-04-11T15:39:19Z</time></trkpt><trkpt lat="42.543954489615864" lon="12.03535270166133"><ele>542.0</ele><time>2026-04-11T15:39:20Z</time></trkpt><trkpt lat="42.543889250903455" lon="12.035388468858338"><ele>542.0</ele><time>2026-04-11T15:39:21Z</time></trkpt><trkpt lat="42.543822022019945" lon="12.035422295515515"><ele>542.0</ele><time>2026-04-11T15:39:22Z</time></trkpt><trkpt lat="42.5437583640208" lon="12.035445622868753"><ele>542.0</ele><time>2026-04-11T15:39:23Z</time></trkpt><trkpt lat="42.543634054096295" lon="12.035463694843555"><ele>542.0</ele><time>2026-04-11T15:39:25Z</time></trkpt><trkpt lat="42.543521754059455" lon="12.035496474636927"><ele>542.0</ele><time>2026-04-11T15:39:27Z</time></trkpt><trkpt lat="42.54340875386135" lon="12.035506344175174"><ele>542.4</ele><time>2026-04-11T15:39:29Z</time></trkpt><trkpt lat="42.54331044717714" lon="12.035512515447804"><ele>542.8000000000001</ele><time>2026-04-11T15:39:31Z</time></trkpt><trkpt lat="42.54320945674699" lon="12.035548410555919"><ele>543.2</ele><time>2026-04-11T15:39:32.999Z</time></trkpt><trkpt lat="42.54310527140433" lon="12.035572458137281"><ele>543.6</ele><time>2026-04-11T15:39:34.999Z</time></trkpt><trkpt lat="42.54299173190576" lon="12.035577490161593"><ele>544.0</ele><time>2026-04-11T15:39:36.999Z</time></trkpt><trkpt lat="42.54289467347967" lon="12.035556687690885"><ele>544.4</ele><time>2026-04-11T15:39:38.999Z</time></trkpt><trkpt lat="42.5427977881223" lon="12.03557755917171"><ele>544.8</ele><time>2026-04-11T15:39:40.999Z</time></trkpt><trkpt lat="42.54270188532632" lon="12.035593679491702"><ele>545.2</ele><time>2026-04-11T15:39:42.999Z</time></trkpt><trkpt lat="42.54261524511907" lon="12.035603449832026"><ele>545.6</ele><time>2026-04-11T15:39:44.999Z</time></trkpt><trkpt lat="42.54251978543463" lon="12.035585009222526"><ele>546.0</ele><time>2026-04-11T15:39:46.999Z</time></trkpt><trkpt lat="42.54242808548931" lon="12.035604512682099"><ele>546.0</ele><time>2026-04-11T15:39:48.999Z</time></trkpt><trkpt lat="42.54234216747372" lon="12.035588136110825"><ele>546.0</ele><time>2026-04-11T15:39:50.999Z</time></trkpt><trkpt lat="42.54224994178564" lon="12.03559719153057"><ele>546.0</ele><time>2026-04-11T15:39:52.999Z</time></trkpt><trkpt lat="42.54216244970391" lon="12.035620097995142"><ele>546.0</ele><time>2026-04-11T15:39:54.999Z</time></trkpt><trkpt lat="42.54209819598787" lon="12.03566708913731"><ele>546.0</ele><time>2026-04-11T15:39:56.999Z</time></trkpt><trkpt lat="42.542108261100175" lon="12.035772403671354"><ele>546.0</ele><time>2026-04-11T15:40:00.999Z</time></trkpt><trkpt lat="42.542144682059835" lon="12.035876485398731"><ele>544.5</ele><time>2026-04-11T15:40:03.999Z</time></trkpt><trkpt lat="42.542180332424685" lon="12.035952251410219"><ele>543.0</ele><time>2026-04-11T15:40:05.999Z</time></trkpt><trkpt lat="42.54222046446732" lon="12.036034033401643"><ele>541.5</ele><time>2026-04-11T15:40:07.999Z</time></trkpt><trkpt lat="42.5422803189217" lon="12.036120014652989"><ele>540.0</ele><time>2026-04-11T15:40:09.999Z</time></trkpt><trkpt lat="42.5423663791992" lon="12.036196526434857"><ele>538.5</ele><time>2026-04-11T15:40:11.999Z</time></trkpt><trkpt lat="42.54245735856267" lon="12.03628145157231"><ele>537.0</ele><time>2026-04-11T15:40:13.999Z</time></trkpt><trkpt lat="42.54253175772291" lon="12.036388949430199"><ele>537.0</ele><time>2026-04-11T15:40:15.999Z</time></trkpt><trkpt lat="42.54259815521619" lon="12.036494760356488"><ele>537.0</ele><time>2026-04-11T15:40:17.998Z</time></trkpt><trkpt lat="42.54266301519636" lon="12.036590771616192"><ele>537.0</ele><time>2026-04-11T15:40:20.998Z</time></trkpt><trkpt lat="42.5426731706124" lon="12.036688350031621"><ele>537.0</ele><time>2026-04-11T15:40:22.998Z</time></trkpt><trkpt lat="42.54270757262886" lon="12.036781588341096"><ele>537.0</ele><time>2026-04-11T15:40:24.998Z</time></trkpt><trkpt lat="42.54277273189844" lon="12.036875652927964"><ele>537.0</ele><time>2026-04-11T15:40:26.998Z</time></trkpt><trkpt lat="42.54283219429452" lon="12.036983246410578"><ele>537.0</ele><time>2026-04-11T15:40:28.998Z</time></trkpt><trkpt lat="42.54290123791798" lon="12.03710394858792"><ele>537.0</ele><time>2026-04-11T15:40:30.998Z</time></trkpt><trkpt lat="42.54295004377" lon="12.03724805423051"><ele>537.0</ele><time>2026-04-11T15:40:32.998Z</time></trkpt><trkpt lat="42.542991482941794" lon="12.037400431250907"><ele>537.0</ele><time>2026-04-11T15:40:34.998Z</time></trkpt><trkpt lat="42.54304613775696" lon="12.037552813783144"><ele>536.4</ele><time>2026-04-11T15:40:36.998Z</time></trkpt><trkpt lat="42.54311271462855" lon="12.037690789531325"><ele>535.8000000000001</ele><time>2026-04-11T15:40:38.998Z</time></trkpt><trkpt lat="42.54315443674589" lon="12.037763298771956"><ele>535.2</ele><time>2026-04-11T15:40:39.998Z</time></trkpt><trkpt lat="42.54322791238181" lon="12.037904162036911"><ele>534.6</ele><time>2026-04-11T15:40:41.998Z</time></trkpt><trkpt lat="42.54330674644812" lon="12.038012589318281"><ele>534.0</ele><time>2026-04-11T15:40:43.998Z</time></trkpt><trkpt lat="42.54335927521131" lon="12.038072643759602"><ele>534.0</ele><time>2026-04-11T15:40:44.998Z</time></trkpt><trkpt lat="42.54342078062313" lon="12.038148290423296"><ele>534.0</ele><time>2026-04-11T15:40:45.998Z</time></trkpt><trkpt lat="42.54348552571611" lon="12.038212011079331"><ele>534.0</ele><time>2026-04-11T15:40:46.998Z</time></trkpt><trkpt lat="42.54355851820347" lon="12.038258554264294"><ele>534.0</ele><time>2026-04-11T15:40:47.998Z</time></trkpt><trkpt lat="42.543643012562555" lon="12.038299726579638"><ele>534.0</ele><time>2026-04-11T15:40:48.998Z</time></trkpt><trkpt lat="42.54370894325767" lon="12.038337767961513"><ele>534.0</ele><time>2026-04-11T15:40:49.998Z</time></trkpt><trkpt lat="42.54377809415678" lon="12.038367984301424"><ele>533.3333333333334</ele><time>2026-04-11T15:40:51.998Z</time></trkpt><trkpt lat="42.54381051266868" lon="12.038468285277588"><ele>532.6666666666666</ele><time>2026-04-11T15:40:53.998Z</time></trkpt><trkpt lat="42.54377233801321" lon="12.038596614707824"><ele>532.0</ele><time>2026-04-11T15:40:55.998Z</time></trkpt><trkpt lat="42.54371990805605" lon="12.038691824248923"><ele>531.3333333333333</ele><time>2026-04-11T15:40:57.998Z</time></trkpt><trkpt lat="42.54371263955375" lon="12.038816260206278"><ele>530.6666666666666</ele><time>2026-04-11T15:41:00Z</time></trkpt><trkpt lat="42.54366569069108" lon="12.03888812726088"><ele>530.0</ele><time>2026-04-11T15:41:02Z</time></trkpt><trkpt lat="42.54359180117641" lon="12.038929325269539"><ele>530.0</ele><time>2026-04-11T15:41:05Z</time></trkpt><trkpt lat="42.543518215341166" lon="12.038964093931192"><ele>530.0</ele><time>2026-04-11T15:41:08Z</time></trkpt><trkpt lat="42.543637804986474" lon="12.038769893129981"><ele>530.0</ele><time>2026-04-11T15:41:23.567Z</time></trkpt></trkseg></trk></gpx>